<?xml version="1.0" encoding="UTF-8" standalone="no" ?>
<gpx xmlns="http://www.topografix.com/GPX/1/1" xmlns:xsi="http://www.w3.org/2001/XMLSchema-instance" xsi:schemaLocation="http://www.topografix.com/GPX/1/1 http://www.topografix.com/GPX/1/1/gpx.xsd" version="1.1" creator="VisuGPX - https://www.visugpx.com">
  <metadata>
    <name>Livilliers - Auvers sur Oise</name>
  </metadata>
  <trk>
    <name><![CDATA[Livilliers - Auvers sur Oise_1]]></name>
    <trkseg>
      <trkpt lat="49.09538" lon="2.09556">
        <ele>94.8</ele>
        <time>2022-02-17T08:11:14Z</time>
      </trkpt>
      <trkpt lat="49.09541" lon="2.09549">
        <ele>96</ele>
        <time>2022-02-17T08:11:35Z</time>
      </trkpt>
      <trkpt lat="49.09543" lon="2.09541">
        <ele>96.7</ele>
        <time>2022-02-17T08:11:39Z</time>
      </trkpt>
      <trkpt lat="49.09542" lon="2.09532">
        <ele>97.3</ele>
        <time>2022-02-17T08:11:48Z</time>
      </trkpt>
      <trkpt lat="49.0954" lon="2.09525">
        <ele>97.5</ele>
        <time>2022-02-17T08:11:51Z</time>
      </trkpt>
      <trkpt lat="49.09536" lon="2.0952">
        <ele>98.1</ele>
        <time>2022-02-17T08:11:55Z</time>
      </trkpt>
      <trkpt lat="49.0953" lon="2.09519">
        <ele>98</ele>
        <time>2022-02-17T08:12:00Z</time>
      </trkpt>
      <trkpt lat="49.09525" lon="2.09519">
        <ele>98.2</ele>
        <time>2022-02-17T08:12:04Z</time>
      </trkpt>
      <trkpt lat="49.0952" lon="2.09523">
        <ele>98.3</ele>
        <time>2022-02-17T08:12:08Z</time>
      </trkpt>
      <trkpt lat="49.09517" lon="2.09529">
        <ele>98.7</ele>
        <time>2022-02-17T08:12:15Z</time>
      </trkpt>
      <trkpt lat="49.09512" lon="2.09535">
        <ele>99.2</ele>
        <time>2022-02-17T08:12:18Z</time>
      </trkpt>
      <trkpt lat="49.09509" lon="2.0954">
        <ele>99.5</ele>
        <time>2022-02-17T08:12:22Z</time>
      </trkpt>
      <trkpt lat="49.09505" lon="2.09544">
        <ele>99</ele>
        <time>2022-02-17T08:12:25Z</time>
      </trkpt>
      <trkpt lat="49.09501" lon="2.09549">
        <ele>97.9</ele>
        <time>2022-02-17T08:12:30Z</time>
      </trkpt>
      <trkpt lat="49.09497" lon="2.09544">
        <ele>97.6</ele>
        <time>2022-02-17T08:12:35Z</time>
      </trkpt>
      <trkpt lat="49.09492" lon="2.09544">
        <ele>97.9</ele>
        <time>2022-02-17T08:12:38Z</time>
      </trkpt>
      <trkpt lat="49.09487" lon="2.09545">
        <ele>98.5</ele>
        <time>2022-02-17T08:12:43Z</time>
      </trkpt>
      <trkpt lat="49.09483" lon="2.09544">
        <ele>98.7</ele>
        <time>2022-02-17T08:12:47Z</time>
      </trkpt>
      <trkpt lat="49.09478" lon="2.09543">
        <ele>98.7</ele>
        <time>2022-02-17T08:12:51Z</time>
      </trkpt>
      <trkpt lat="49.09472" lon="2.09542">
        <ele>98.2</ele>
        <time>2022-02-17T08:12:56Z</time>
      </trkpt>
      <trkpt lat="49.09467" lon="2.09542">
        <ele>98.1</ele>
        <time>2022-02-17T08:13:00Z</time>
      </trkpt>
      <trkpt lat="49.09463" lon="2.09544">
        <ele>98</ele>
        <time>2022-02-17T08:13:03Z</time>
      </trkpt>
      <trkpt lat="49.09458" lon="2.09545">
        <ele>97.6</ele>
        <time>2022-02-17T08:13:06Z</time>
      </trkpt>
      <trkpt lat="49.09453" lon="2.09547">
        <ele>96.7</ele>
        <time>2022-02-17T08:13:11Z</time>
      </trkpt>
      <trkpt lat="49.09449" lon="2.09548">
        <ele>96.9</ele>
        <time>2022-02-17T08:13:15Z</time>
      </trkpt>
      <trkpt lat="49.09443" lon="2.0955">
        <ele>97.6</ele>
        <time>2022-02-17T08:13:19Z</time>
      </trkpt>
      <trkpt lat="49.09438" lon="2.09551">
        <ele>97.9</ele>
        <time>2022-02-17T08:13:24Z</time>
      </trkpt>
      <trkpt lat="49.09433" lon="2.09553">
        <ele>98.2</ele>
        <time>2022-02-17T08:13:28Z</time>
      </trkpt>
      <trkpt lat="49.09428" lon="2.09554">
        <ele>98.5</ele>
        <time>2022-02-17T08:13:33Z</time>
      </trkpt>
      <trkpt lat="49.09423" lon="2.09557">
        <ele>99</ele>
        <time>2022-02-17T08:13:37Z</time>
      </trkpt>
      <trkpt lat="49.09418" lon="2.0956">
        <ele>99.2</ele>
        <time>2022-02-17T08:13:42Z</time>
      </trkpt>
      <trkpt lat="49.09412" lon="2.09561">
        <ele>99.3</ele>
        <time>2022-02-17T08:13:46Z</time>
      </trkpt>
      <trkpt lat="49.09407" lon="2.09565">
        <ele>97.8</ele>
        <time>2022-02-17T08:13:51Z</time>
      </trkpt>
      <trkpt lat="49.09405" lon="2.09572">
        <ele>97</ele>
        <time>2022-02-17T08:13:56Z</time>
      </trkpt>
      <trkpt lat="49.09402" lon="2.0958">
        <ele>97.6</ele>
        <time>2022-02-17T08:14:00Z</time>
      </trkpt>
      <trkpt lat="49.09399" lon="2.09585">
        <ele>98.9</ele>
        <time>2022-02-17T08:14:05Z</time>
      </trkpt>
      <trkpt lat="49.09393" lon="2.09584">
        <ele>98.6</ele>
        <time>2022-02-17T08:14:10Z</time>
      </trkpt>
      <trkpt lat="49.09388" lon="2.09584">
        <ele>97.7</ele>
        <time>2022-02-17T08:14:13Z</time>
      </trkpt>
      <trkpt lat="49.09393" lon="2.09585">
        <ele>93.3</ele>
        <time>2022-02-17T08:14:25Z</time>
      </trkpt>
      <trkpt lat="49.09398" lon="2.09582">
        <ele>93</ele>
        <time>2022-02-17T08:14:28Z</time>
      </trkpt>
      <trkpt lat="49.09402" lon="2.09577">
        <ele>93</ele>
        <time>2022-02-17T08:14:32Z</time>
      </trkpt>
      <trkpt lat="49.09406" lon="2.09572">
        <ele>93.4</ele>
        <time>2022-02-17T08:14:35Z</time>
      </trkpt>
      <trkpt lat="49.0941" lon="2.09568">
        <ele>93.6</ele>
        <time>2022-02-17T08:14:39Z</time>
      </trkpt>
      <trkpt lat="49.09415" lon="2.09563">
        <ele>93.1</ele>
        <time>2022-02-17T08:14:43Z</time>
      </trkpt>
      <trkpt lat="49.0942" lon="2.09559">
        <ele>92.6</ele>
        <time>2022-02-17T08:14:47Z</time>
      </trkpt>
      <trkpt lat="49.09424" lon="2.09555">
        <ele>92.5</ele>
        <time>2022-02-17T08:14:51Z</time>
      </trkpt>
      <trkpt lat="49.09432" lon="2.09552">
        <ele>93.5</ele>
        <time>2022-02-17T08:14:59Z</time>
      </trkpt>
      <trkpt lat="49.09437" lon="2.09551">
        <ele>94.4</ele>
        <time>2022-02-17T08:15:02Z</time>
      </trkpt>
      <trkpt lat="49.09443" lon="2.09552">
        <ele>95.1</ele>
        <time>2022-02-17T08:15:05Z</time>
      </trkpt>
      <trkpt lat="49.09448" lon="2.09555">
        <ele>96.7</ele>
        <time>2022-02-17T08:15:11Z</time>
      </trkpt>
      <trkpt lat="49.09453" lon="2.09552">
        <ele>98</ele>
        <time>2022-02-17T08:15:15Z</time>
      </trkpt>
      <trkpt lat="49.09457" lon="2.09549">
        <ele>98.2</ele>
        <time>2022-02-17T08:15:19Z</time>
      </trkpt>
      <trkpt lat="49.09462" lon="2.09546">
        <ele>97.7</ele>
        <time>2022-02-17T08:15:23Z</time>
      </trkpt>
      <trkpt lat="49.09467" lon="2.09544">
        <ele>96.9</ele>
        <time>2022-02-17T08:15:28Z</time>
      </trkpt>
      <trkpt lat="49.09472" lon="2.09544">
        <ele>97.9</ele>
        <time>2022-02-17T08:15:32Z</time>
      </trkpt>
      <trkpt lat="49.09477" lon="2.09545">
        <ele>99.4</ele>
        <time>2022-02-17T08:15:36Z</time>
      </trkpt>
      <trkpt lat="49.09483" lon="2.09545">
        <ele>99.8</ele>
        <time>2022-02-17T08:15:40Z</time>
      </trkpt>
      <trkpt lat="49.09488" lon="2.09546">
        <ele>100</ele>
        <time>2022-02-17T08:15:44Z</time>
      </trkpt>
      <trkpt lat="49.09494" lon="2.09547">
        <ele>100.7</ele>
        <time>2022-02-17T08:15:48Z</time>
      </trkpt>
      <trkpt lat="49.09499" lon="2.09548">
        <ele>101.4</ele>
        <time>2022-02-17T08:15:52Z</time>
      </trkpt>
      <trkpt lat="49.09501" lon="2.09555">
        <ele>101.5</ele>
        <time>2022-02-17T08:15:58Z</time>
      </trkpt>
      <trkpt lat="49.09499" lon="2.09562">
        <ele>101.1</ele>
        <time>2022-02-17T08:16:01Z</time>
      </trkpt>
      <trkpt lat="49.09497" lon="2.0957">
        <ele>100</ele>
        <time>2022-02-17T08:16:04Z</time>
      </trkpt>
      <trkpt lat="49.09496" lon="2.09578">
        <ele>98.8</ele>
        <time>2022-02-17T08:16:09Z</time>
      </trkpt>
      <trkpt lat="49.09496" lon="2.09585">
        <ele>98.3</ele>
        <time>2022-02-17T08:16:13Z</time>
      </trkpt>
      <trkpt lat="49.09495" lon="2.09595">
        <ele>97.6</ele>
        <time>2022-02-17T08:16:17Z</time>
      </trkpt>
      <trkpt lat="49.09495" lon="2.09603">
        <ele>97.8</ele>
        <time>2022-02-17T08:16:22Z</time>
      </trkpt>
      <trkpt lat="49.09496" lon="2.09611">
        <ele>100.8</ele>
        <time>2022-02-17T08:16:27Z</time>
      </trkpt>
      <trkpt lat="49.09496" lon="2.09618">
        <ele>102.5</ele>
        <time>2022-02-17T08:16:31Z</time>
      </trkpt>
      <trkpt lat="49.09495" lon="2.09627">
        <ele>102.8</ele>
        <time>2022-02-17T08:16:35Z</time>
      </trkpt>
      <trkpt lat="49.09495" lon="2.09633">
        <ele>102.6</ele>
        <time>2022-02-17T08:16:38Z</time>
      </trkpt>
      <trkpt lat="49.09495" lon="2.09641">
        <ele>102.2</ele>
        <time>2022-02-17T08:16:43Z</time>
      </trkpt>
      <trkpt lat="49.09496" lon="2.09649">
        <ele>102.4</ele>
        <time>2022-02-17T08:16:47Z</time>
      </trkpt>
      <trkpt lat="49.09496" lon="2.09658">
        <ele>103.2</ele>
        <time>2022-02-17T08:16:51Z</time>
      </trkpt>
      <trkpt lat="49.09495" lon="2.09665">
        <ele>103.4</ele>
        <time>2022-02-17T08:16:55Z</time>
      </trkpt>
      <trkpt lat="49.09495" lon="2.09674">
        <ele>103</ele>
        <time>2022-02-17T08:16:59Z</time>
      </trkpt>
      <trkpt lat="49.09495" lon="2.09682">
        <ele>102.8</ele>
        <time>2022-02-17T08:17:04Z</time>
      </trkpt>
      <trkpt lat="49.09495" lon="2.0969">
        <ele>102.8</ele>
        <time>2022-02-17T08:17:08Z</time>
      </trkpt>
      <trkpt lat="49.09496" lon="2.09697">
        <ele>102.7</ele>
        <time>2022-02-17T08:17:12Z</time>
      </trkpt>
      <trkpt lat="49.09498" lon="2.09705">
        <ele>102.5</ele>
        <time>2022-02-17T08:17:16Z</time>
      </trkpt>
      <trkpt lat="49.09499" lon="2.09712">
        <ele>102</ele>
        <time>2022-02-17T08:17:20Z</time>
      </trkpt>
      <trkpt lat="49.09501" lon="2.09719">
        <ele>101.5</ele>
        <time>2022-02-17T08:17:24Z</time>
      </trkpt>
      <trkpt lat="49.09504" lon="2.09727">
        <ele>100.8</ele>
        <time>2022-02-17T08:17:28Z</time>
      </trkpt>
      <trkpt lat="49.09505" lon="2.09735">
        <ele>100.1</ele>
        <time>2022-02-17T08:17:33Z</time>
      </trkpt>
      <trkpt lat="49.09509" lon="2.0974">
        <ele>100.2</ele>
        <time>2022-02-17T08:17:37Z</time>
      </trkpt>
      <trkpt lat="49.09511" lon="2.09748">
        <ele>102</ele>
        <time>2022-02-17T08:17:41Z</time>
      </trkpt>
      <trkpt lat="49.09513" lon="2.09756">
        <ele>103.3</ele>
        <time>2022-02-17T08:17:45Z</time>
      </trkpt>
      <trkpt lat="49.09514" lon="2.09763">
        <ele>102.9</ele>
        <time>2022-02-17T08:17:50Z</time>
      </trkpt>
      <trkpt lat="49.09518" lon="2.09769">
        <ele>102</ele>
        <time>2022-02-17T08:17:54Z</time>
      </trkpt>
      <trkpt lat="49.09519" lon="2.09776">
        <ele>101.3</ele>
        <time>2022-02-17T08:17:58Z</time>
      </trkpt>
      <trkpt lat="49.09515" lon="2.09781">
        <ele>101.1</ele>
        <time>2022-02-17T08:18:02Z</time>
      </trkpt>
      <trkpt lat="49.0951" lon="2.09782">
        <ele>100.9</ele>
        <time>2022-02-17T08:18:05Z</time>
      </trkpt>
      <trkpt lat="49.09505" lon="2.09783">
        <ele>101</ele>
        <time>2022-02-17T08:18:08Z</time>
      </trkpt>
      <trkpt lat="49.095" lon="2.09786">
        <ele>101.5</ele>
        <time>2022-02-17T08:18:13Z</time>
      </trkpt>
      <trkpt lat="49.09494" lon="2.09788">
        <ele>102.5</ele>
        <time>2022-02-17T08:18:17Z</time>
      </trkpt>
      <trkpt lat="49.09488" lon="2.09792">
        <ele>103.2</ele>
        <time>2022-02-17T08:18:21Z</time>
      </trkpt>
      <trkpt lat="49.09483" lon="2.09795">
        <ele>103.7</ele>
        <time>2022-02-17T08:18:25Z</time>
      </trkpt>
      <trkpt lat="49.09478" lon="2.09799">
        <ele>104.6</ele>
        <time>2022-02-17T08:18:29Z</time>
      </trkpt>
      <trkpt lat="49.09474" lon="2.09803">
        <ele>105.3</ele>
        <time>2022-02-17T08:18:32Z</time>
      </trkpt>
      <trkpt lat="49.09468" lon="2.09806">
        <ele>106.2</ele>
        <time>2022-02-17T08:18:37Z</time>
      </trkpt>
      <trkpt lat="49.0946" lon="2.09809">
        <ele>106.9</ele>
        <time>2022-02-17T08:18:43Z</time>
      </trkpt>
      <trkpt lat="49.09454" lon="2.09813">
        <ele>107</ele>
        <time>2022-02-17T08:18:48Z</time>
      </trkpt>
      <trkpt lat="49.09449" lon="2.09815">
        <ele>106.6</ele>
        <time>2022-02-17T08:18:52Z</time>
      </trkpt>
      <trkpt lat="49.09443" lon="2.09818">
        <ele>106.2</ele>
        <time>2022-02-17T08:18:57Z</time>
      </trkpt>
      <trkpt lat="49.09438" lon="2.09821">
        <ele>105.9</ele>
        <time>2022-02-17T08:19:01Z</time>
      </trkpt>
      <trkpt lat="49.09433" lon="2.09825">
        <ele>105</ele>
        <time>2022-02-17T08:19:05Z</time>
      </trkpt>
      <trkpt lat="49.09428" lon="2.09828">
        <ele>104</ele>
        <time>2022-02-17T08:19:09Z</time>
      </trkpt>
      <trkpt lat="49.09422" lon="2.09832">
        <ele>103.6</ele>
        <time>2022-02-17T08:19:13Z</time>
      </trkpt>
      <trkpt lat="49.09417" lon="2.09834">
        <ele>103.6</ele>
        <time>2022-02-17T08:19:17Z</time>
      </trkpt>
      <trkpt lat="49.09412" lon="2.09837">
        <ele>103.6</ele>
        <time>2022-02-17T08:19:21Z</time>
      </trkpt>
      <trkpt lat="49.09407" lon="2.0984">
        <ele>103.9</ele>
        <time>2022-02-17T08:19:25Z</time>
      </trkpt>
      <trkpt lat="49.09402" lon="2.09843">
        <ele>104</ele>
        <time>2022-02-17T08:19:29Z</time>
      </trkpt>
      <trkpt lat="49.09397" lon="2.09845">
        <ele>104.3</ele>
        <time>2022-02-17T08:19:33Z</time>
      </trkpt>
      <trkpt lat="49.09392" lon="2.09847">
        <ele>104.2</ele>
        <time>2022-02-17T08:19:37Z</time>
      </trkpt>
      <trkpt lat="49.09386" lon="2.09848">
        <ele>104.3</ele>
        <time>2022-02-17T08:19:41Z</time>
      </trkpt>
      <trkpt lat="49.0938" lon="2.0985">
        <ele>103.9</ele>
        <time>2022-02-17T08:19:46Z</time>
      </trkpt>
      <trkpt lat="49.09375" lon="2.09852">
        <ele>103.5</ele>
        <time>2022-02-17T08:19:49Z</time>
      </trkpt>
      <trkpt lat="49.09371" lon="2.09854">
        <ele>103.1</ele>
        <time>2022-02-17T08:19:53Z</time>
      </trkpt>
      <trkpt lat="49.09366" lon="2.09856">
        <ele>102.8</ele>
        <time>2022-02-17T08:19:56Z</time>
      </trkpt>
      <trkpt lat="49.0936" lon="2.09857">
        <ele>102.4</ele>
        <time>2022-02-17T08:20:00Z</time>
      </trkpt>
      <trkpt lat="49.09355" lon="2.09859">
        <ele>101.8</ele>
        <time>2022-02-17T08:20:05Z</time>
      </trkpt>
      <trkpt lat="49.09349" lon="2.0986">
        <ele>101.5</ele>
        <time>2022-02-17T08:20:10Z</time>
      </trkpt>
      <trkpt lat="49.09344" lon="2.09862">
        <ele>101.6</ele>
        <time>2022-02-17T08:20:13Z</time>
      </trkpt>
      <trkpt lat="49.0934" lon="2.09864">
        <ele>101.7</ele>
        <time>2022-02-17T08:20:16Z</time>
      </trkpt>
      <trkpt lat="49.09335" lon="2.09866">
        <ele>101.7</ele>
        <time>2022-02-17T08:20:20Z</time>
      </trkpt>
      <trkpt lat="49.0933" lon="2.09867">
        <ele>101.6</ele>
        <time>2022-02-17T08:20:24Z</time>
      </trkpt>
      <trkpt lat="49.09325" lon="2.09868">
        <ele>101.4</ele>
        <time>2022-02-17T08:20:29Z</time>
      </trkpt>
      <trkpt lat="49.0932" lon="2.0987">
        <ele>101.2</ele>
        <time>2022-02-17T08:20:32Z</time>
      </trkpt>
      <trkpt lat="49.09315" lon="2.0987">
        <ele>100.3</ele>
        <time>2022-02-17T08:20:37Z</time>
      </trkpt>
      <trkpt lat="49.0931" lon="2.09871">
        <ele>99.4</ele>
        <time>2022-02-17T08:20:41Z</time>
      </trkpt>
      <trkpt lat="49.09305" lon="2.09873">
        <ele>98.5</ele>
        <time>2022-02-17T08:20:45Z</time>
      </trkpt>
      <trkpt lat="49.09299" lon="2.09873">
        <ele>97.4</ele>
        <time>2022-02-17T08:20:49Z</time>
      </trkpt>
      <trkpt lat="49.09294" lon="2.09874">
        <ele>96.6</ele>
        <time>2022-02-17T08:20:54Z</time>
      </trkpt>
      <trkpt lat="49.09289" lon="2.09874">
        <ele>97</ele>
        <time>2022-02-17T08:20:58Z</time>
      </trkpt>
      <trkpt lat="49.09283" lon="2.09874">
        <ele>97.8</ele>
        <time>2022-02-17T08:21:01Z</time>
      </trkpt>
      <trkpt lat="49.09277" lon="2.09876">
        <ele>98.7</ele>
        <time>2022-02-17T08:21:06Z</time>
      </trkpt>
      <trkpt lat="49.09273" lon="2.09878">
        <ele>99.2</ele>
        <time>2022-02-17T08:21:09Z</time>
      </trkpt>
      <trkpt lat="49.09268" lon="2.09881">
        <ele>99.9</ele>
        <time>2022-02-17T08:21:12Z</time>
      </trkpt>
      <trkpt lat="49.09264" lon="2.09884">
        <ele>99.9</ele>
        <time>2022-02-17T08:21:16Z</time>
      </trkpt>
      <trkpt lat="49.09258" lon="2.09886">
        <ele>99.3</ele>
        <time>2022-02-17T08:21:20Z</time>
      </trkpt>
      <trkpt lat="49.09254" lon="2.09887">
        <ele>99</ele>
        <time>2022-02-17T08:21:24Z</time>
      </trkpt>
      <trkpt lat="49.09249" lon="2.09887">
        <ele>99.4</ele>
        <time>2022-02-17T08:21:29Z</time>
      </trkpt>
      <trkpt lat="49.09243" lon="2.09889">
        <ele>99.6</ele>
        <time>2022-02-17T08:21:33Z</time>
      </trkpt>
      <trkpt lat="49.09238" lon="2.0989">
        <ele>99.3</ele>
        <time>2022-02-17T08:21:37Z</time>
      </trkpt>
      <trkpt lat="49.09233" lon="2.09892">
        <ele>99.1</ele>
        <time>2022-02-17T08:21:41Z</time>
      </trkpt>
      <trkpt lat="49.09227" lon="2.09895">
        <ele>99.6</ele>
        <time>2022-02-17T08:21:45Z</time>
      </trkpt>
      <trkpt lat="49.09222" lon="2.09897">
        <ele>100.2</ele>
        <time>2022-02-17T08:21:49Z</time>
      </trkpt>
      <trkpt lat="49.09217" lon="2.09899">
        <ele>100.5</ele>
        <time>2022-02-17T08:21:53Z</time>
      </trkpt>
      <trkpt lat="49.09212" lon="2.09899">
        <ele>100.7</ele>
        <time>2022-02-17T08:21:57Z</time>
      </trkpt>
      <trkpt lat="49.09207" lon="2.099">
        <ele>100.7</ele>
        <time>2022-02-17T08:22:01Z</time>
      </trkpt>
      <trkpt lat="49.09203" lon="2.09904">
        <ele>100.4</ele>
        <time>2022-02-17T08:22:08Z</time>
      </trkpt>
      <trkpt lat="49.09197" lon="2.09905">
        <ele>100.3</ele>
        <time>2022-02-17T08:22:11Z</time>
      </trkpt>
      <trkpt lat="49.09193" lon="2.09907">
        <ele>99.7</ele>
        <time>2022-02-17T08:22:15Z</time>
      </trkpt>
      <trkpt lat="49.09188" lon="2.09906">
        <ele>99.4</ele>
        <time>2022-02-17T08:22:19Z</time>
      </trkpt>
      <trkpt lat="49.09183" lon="2.09908">
        <ele>99.7</ele>
        <time>2022-02-17T08:22:24Z</time>
      </trkpt>
      <trkpt lat="49.09178" lon="2.0991">
        <ele>99.5</ele>
        <time>2022-02-17T08:22:29Z</time>
      </trkpt>
      <trkpt lat="49.09173" lon="2.09908">
        <ele>99.8</ele>
        <time>2022-02-17T08:22:34Z</time>
      </trkpt>
      <trkpt lat="49.09169" lon="2.09903">
        <ele>100.4</ele>
        <time>2022-02-17T08:22:38Z</time>
      </trkpt>
      <trkpt lat="49.09164" lon="2.099">
        <ele>100.6</ele>
        <time>2022-02-17T08:22:42Z</time>
      </trkpt>
      <trkpt lat="49.0916" lon="2.09903">
        <ele>100.5</ele>
        <time>2022-02-17T08:22:46Z</time>
      </trkpt>
      <trkpt lat="49.09157" lon="2.09909">
        <ele>99.9</ele>
        <time>2022-02-17T08:22:49Z</time>
      </trkpt>
      <trkpt lat="49.09152" lon="2.09915">
        <ele>97.5</ele>
        <time>2022-02-17T08:22:53Z</time>
      </trkpt>
      <trkpt lat="49.09147" lon="2.09918">
        <ele>95.1</ele>
        <time>2022-02-17T08:22:57Z</time>
      </trkpt>
      <trkpt lat="49.09142" lon="2.09923">
        <ele>93.9</ele>
        <time>2022-02-17T08:23:01Z</time>
      </trkpt>
      <trkpt lat="49.09137" lon="2.09926">
        <ele>93.2</ele>
        <time>2022-02-17T08:23:05Z</time>
      </trkpt>
      <trkpt lat="49.09132" lon="2.09927">
        <ele>93.6</ele>
        <time>2022-02-17T08:23:09Z</time>
      </trkpt>
      <trkpt lat="49.09127" lon="2.09927">
        <ele>95.6</ele>
        <time>2022-02-17T08:23:12Z</time>
      </trkpt>
      <trkpt lat="49.09122" lon="2.09926">
        <ele>99</ele>
        <time>2022-02-17T08:23:16Z</time>
      </trkpt>
      <trkpt lat="49.09116" lon="2.09928">
        <ele>102.3</ele>
        <time>2022-02-17T08:23:20Z</time>
      </trkpt>
      <trkpt lat="49.09112" lon="2.09929">
        <ele>102.6</ele>
        <time>2022-02-17T08:23:23Z</time>
      </trkpt>
      <trkpt lat="49.09107" lon="2.09932">
        <ele>103</ele>
        <time>2022-02-17T08:23:27Z</time>
      </trkpt>
      <trkpt lat="49.09103" lon="2.09934">
        <ele>103.1</ele>
        <time>2022-02-17T08:23:31Z</time>
      </trkpt>
      <trkpt lat="49.09097" lon="2.09936">
        <ele>104.1</ele>
        <time>2022-02-17T08:23:35Z</time>
      </trkpt>
      <trkpt lat="49.09093" lon="2.09941">
        <ele>103.5</ele>
        <time>2022-02-17T08:23:40Z</time>
      </trkpt>
      <trkpt lat="49.09089" lon="2.09943">
        <ele>101.8</ele>
        <time>2022-02-17T08:23:43Z</time>
      </trkpt>
      <trkpt lat="49.09085" lon="2.09946">
        <ele>100.1</ele>
        <time>2022-02-17T08:23:46Z</time>
      </trkpt>
      <trkpt lat="49.0908" lon="2.09952">
        <ele>99.3</ele>
        <time>2022-02-17T08:23:51Z</time>
      </trkpt>
      <trkpt lat="49.09077" lon="2.09958">
        <ele>100.1</ele>
        <time>2022-02-17T08:23:56Z</time>
      </trkpt>
      <trkpt lat="49.09073" lon="2.09961">
        <ele>101.3</ele>
        <time>2022-02-17T08:24:00Z</time>
      </trkpt>
      <trkpt lat="49.09067" lon="2.09965">
        <ele>102.1</ele>
        <time>2022-02-17T08:24:04Z</time>
      </trkpt>
      <trkpt lat="49.0906" lon="2.09965">
        <ele>102.2</ele>
        <time>2022-02-17T08:24:07Z</time>
      </trkpt>
      <trkpt lat="49.09056" lon="2.09967">
        <ele>102</ele>
        <time>2022-02-17T08:24:10Z</time>
      </trkpt>
      <trkpt lat="49.09053" lon="2.09972">
        <ele>101.4</ele>
        <time>2022-02-17T08:24:14Z</time>
      </trkpt>
      <trkpt lat="49.09048" lon="2.09976">
        <ele>101.2</ele>
        <time>2022-02-17T08:24:17Z</time>
      </trkpt>
      <trkpt lat="49.09044" lon="2.09981">
        <ele>100.7</ele>
        <time>2022-02-17T08:24:21Z</time>
      </trkpt>
      <trkpt lat="49.09039" lon="2.09983">
        <ele>100.7</ele>
        <time>2022-02-17T08:24:25Z</time>
      </trkpt>
      <trkpt lat="49.09035" lon="2.09987">
        <ele>100.8</ele>
        <time>2022-02-17T08:24:29Z</time>
      </trkpt>
      <trkpt lat="49.09031" lon="2.09992">
        <ele>101.1</ele>
        <time>2022-02-17T08:24:32Z</time>
      </trkpt>
      <trkpt lat="49.09027" lon="2.09995">
        <ele>101.3</ele>
        <time>2022-02-17T08:24:35Z</time>
      </trkpt>
      <trkpt lat="49.09022" lon="2.09998">
        <ele>101.6</ele>
        <time>2022-02-17T08:24:40Z</time>
      </trkpt>
      <trkpt lat="49.09017" lon="2.10002">
        <ele>101.7</ele>
        <time>2022-02-17T08:24:44Z</time>
      </trkpt>
      <trkpt lat="49.09011" lon="2.10008">
        <ele>101.7</ele>
        <time>2022-02-17T08:24:49Z</time>
      </trkpt>
      <trkpt lat="49.09007" lon="2.1001">
        <ele>101.7</ele>
        <time>2022-02-17T08:24:52Z</time>
      </trkpt>
      <trkpt lat="49.09003" lon="2.10015">
        <ele>101.8</ele>
        <time>2022-02-17T08:24:56Z</time>
      </trkpt>
      <trkpt lat="49.08998" lon="2.10019">
        <ele>101.9</ele>
        <time>2022-02-17T08:25:00Z</time>
      </trkpt>
      <trkpt lat="49.08994" lon="2.10023">
        <ele>102.1</ele>
        <time>2022-02-17T08:25:04Z</time>
      </trkpt>
      <trkpt lat="49.0899" lon="2.10027">
        <ele>102</ele>
        <time>2022-02-17T08:25:08Z</time>
      </trkpt>
      <trkpt lat="49.08985" lon="2.1003">
        <ele>101.8</ele>
        <time>2022-02-17T08:25:11Z</time>
      </trkpt>
      <trkpt lat="49.0898" lon="2.10034">
        <ele>101.5</ele>
        <time>2022-02-17T08:25:15Z</time>
      </trkpt>
      <trkpt lat="49.08975" lon="2.10038">
        <ele>101.3</ele>
        <time>2022-02-17T08:25:19Z</time>
      </trkpt>
      <trkpt lat="49.0897" lon="2.10042">
        <ele>101.5</ele>
        <time>2022-02-17T08:25:24Z</time>
      </trkpt>
      <trkpt lat="49.08966" lon="2.10045">
        <ele>102.3</ele>
        <time>2022-02-17T08:25:27Z</time>
      </trkpt>
      <trkpt lat="49.08961" lon="2.10048">
        <ele>103.2</ele>
        <time>2022-02-17T08:25:31Z</time>
      </trkpt>
      <trkpt lat="49.08957" lon="2.10053">
        <ele>103.8</ele>
        <time>2022-02-17T08:25:35Z</time>
      </trkpt>
      <trkpt lat="49.08953" lon="2.10056">
        <ele>104.1</ele>
        <time>2022-02-17T08:25:39Z</time>
      </trkpt>
      <trkpt lat="49.08949" lon="2.10061">
        <ele>104.4</ele>
        <time>2022-02-17T08:25:42Z</time>
      </trkpt>
      <trkpt lat="49.08945" lon="2.10067">
        <ele>104.4</ele>
        <time>2022-02-17T08:25:47Z</time>
      </trkpt>
      <trkpt lat="49.08942" lon="2.10058">
        <ele>95.5</ele>
        <time>2022-02-17T08:26:09Z</time>
      </trkpt>
      <trkpt lat="49.08938" lon="2.10053">
        <ele>95.9</ele>
        <time>2022-02-17T08:26:13Z</time>
      </trkpt>
      <trkpt lat="49.08933" lon="2.10051">
        <ele>95.4</ele>
        <time>2022-02-17T08:26:18Z</time>
      </trkpt>
      <trkpt lat="49.08934" lon="2.10043">
        <ele>94.7</ele>
        <time>2022-02-17T08:26:25Z</time>
      </trkpt>
      <trkpt lat="49.08932" lon="2.10036">
        <ele>94.9</ele>
        <time>2022-02-17T08:26:29Z</time>
      </trkpt>
      <trkpt lat="49.08927" lon="2.1003">
        <ele>95</ele>
        <time>2022-02-17T08:26:31Z</time>
      </trkpt>
      <trkpt lat="49.08923" lon="2.10025">
        <ele>95.3</ele>
        <time>2022-02-17T08:26:34Z</time>
      </trkpt>
      <trkpt lat="49.0892" lon="2.10019">
        <ele>96</ele>
        <time>2022-02-17T08:26:40Z</time>
      </trkpt>
      <trkpt lat="49.08917" lon="2.10012">
        <ele>96.6</ele>
        <time>2022-02-17T08:26:44Z</time>
      </trkpt>
      <trkpt lat="49.08914" lon="2.10006">
        <ele>96.4</ele>
        <time>2022-02-17T08:26:48Z</time>
      </trkpt>
      <trkpt lat="49.0891" lon="2.10001">
        <ele>95.8</ele>
        <time>2022-02-17T08:26:52Z</time>
      </trkpt>
      <trkpt lat="49.08906" lon="2.09995">
        <ele>95.4</ele>
        <time>2022-02-17T08:26:56Z</time>
      </trkpt>
      <trkpt lat="49.08902" lon="2.09989">
        <ele>95.1</ele>
        <time>2022-02-17T08:27:00Z</time>
      </trkpt>
      <trkpt lat="49.08899" lon="2.09984">
        <ele>95.4</ele>
        <time>2022-02-17T08:27:04Z</time>
      </trkpt>
      <trkpt lat="49.08895" lon="2.09978">
        <ele>96.8</ele>
        <time>2022-02-17T08:27:08Z</time>
      </trkpt>
      <trkpt lat="49.08891" lon="2.09972">
        <ele>97.3</ele>
        <time>2022-02-17T08:27:13Z</time>
      </trkpt>
      <trkpt lat="49.08888" lon="2.09966">
        <ele>96.3</ele>
        <time>2022-02-17T08:27:17Z</time>
      </trkpt>
      <trkpt lat="49.08884" lon="2.09959">
        <ele>95.4</ele>
        <time>2022-02-17T08:27:21Z</time>
      </trkpt>
      <trkpt lat="49.08881" lon="2.09952">
        <ele>95</ele>
        <time>2022-02-17T08:27:25Z</time>
      </trkpt>
      <trkpt lat="49.08877" lon="2.09946">
        <ele>95.5</ele>
        <time>2022-02-17T08:27:28Z</time>
      </trkpt>
      <trkpt lat="49.08873" lon="2.09939">
        <ele>96.6</ele>
        <time>2022-02-17T08:27:32Z</time>
      </trkpt>
      <trkpt lat="49.08869" lon="2.09933">
        <ele>97</ele>
        <time>2022-02-17T08:27:36Z</time>
      </trkpt>
      <trkpt lat="49.08865" lon="2.09927">
        <ele>96.5</ele>
        <time>2022-02-17T08:27:40Z</time>
      </trkpt>
      <trkpt lat="49.08861" lon="2.09921">
        <ele>96.3</ele>
        <time>2022-02-17T08:27:44Z</time>
      </trkpt>
      <trkpt lat="49.08858" lon="2.09915">
        <ele>96.5</ele>
        <time>2022-02-17T08:27:48Z</time>
      </trkpt>
      <trkpt lat="49.08854" lon="2.09909">
        <ele>95.5</ele>
        <time>2022-02-17T08:27:52Z</time>
      </trkpt>
      <trkpt lat="49.08851" lon="2.09904">
        <ele>94.4</ele>
        <time>2022-02-17T08:27:56Z</time>
      </trkpt>
      <trkpt lat="49.08848" lon="2.09898">
        <ele>94.3</ele>
        <time>2022-02-17T08:28:00Z</time>
      </trkpt>
      <trkpt lat="49.08843" lon="2.09891">
        <ele>95.1</ele>
        <time>2022-02-17T08:28:05Z</time>
      </trkpt>
      <trkpt lat="49.0884" lon="2.09886">
        <ele>96.3</ele>
        <time>2022-02-17T08:28:09Z</time>
      </trkpt>
      <trkpt lat="49.08835" lon="2.09883">
        <ele>97.5</ele>
        <time>2022-02-17T08:28:13Z</time>
      </trkpt>
      <trkpt lat="49.08832" lon="2.09878">
        <ele>97.5</ele>
        <time>2022-02-17T08:28:17Z</time>
      </trkpt>
      <trkpt lat="49.08829" lon="2.09872">
        <ele>95</ele>
        <time>2022-02-17T08:28:22Z</time>
      </trkpt>
      <trkpt lat="49.08826" lon="2.09866">
        <ele>93.6</ele>
        <time>2022-02-17T08:28:27Z</time>
      </trkpt>
      <trkpt lat="49.08822" lon="2.0986">
        <ele>93</ele>
        <time>2022-02-17T08:28:31Z</time>
      </trkpt>
      <trkpt lat="49.08817" lon="2.09856">
        <ele>92.5</ele>
        <time>2022-02-17T08:28:36Z</time>
      </trkpt>
      <trkpt lat="49.08812" lon="2.09861">
        <ele>92.5</ele>
        <time>2022-02-17T08:28:40Z</time>
      </trkpt>
      <trkpt lat="49.08808" lon="2.09864">
        <ele>92.8</ele>
        <time>2022-02-17T08:28:44Z</time>
      </trkpt>
      <trkpt lat="49.08803" lon="2.09869">
        <ele>93.4</ele>
        <time>2022-02-17T08:28:47Z</time>
      </trkpt>
      <trkpt lat="49.08799" lon="2.09875">
        <ele>93.4</ele>
        <time>2022-02-17T08:28:51Z</time>
      </trkpt>
      <trkpt lat="49.08794" lon="2.09879">
        <ele>93.2</ele>
        <time>2022-02-17T08:28:55Z</time>
      </trkpt>
      <trkpt lat="49.08789" lon="2.09884">
        <ele>93.3</ele>
        <time>2022-02-17T08:28:59Z</time>
      </trkpt>
      <trkpt lat="49.08784" lon="2.0989">
        <ele>94</ele>
        <time>2022-02-17T08:29:03Z</time>
      </trkpt>
      <trkpt lat="49.0878" lon="2.09894">
        <ele>94.6</ele>
        <time>2022-02-17T08:29:07Z</time>
      </trkpt>
      <trkpt lat="49.08776" lon="2.09898">
        <ele>95.2</ele>
        <time>2022-02-17T08:29:10Z</time>
      </trkpt>
      <trkpt lat="49.08772" lon="2.09903">
        <ele>95.3</ele>
        <time>2022-02-17T08:29:14Z</time>
      </trkpt>
      <trkpt lat="49.08768" lon="2.09909">
        <ele>95.1</ele>
        <time>2022-02-17T08:29:17Z</time>
      </trkpt>
      <trkpt lat="49.08763" lon="2.09914">
        <ele>95.2</ele>
        <time>2022-02-17T08:29:21Z</time>
      </trkpt>
      <trkpt lat="49.08759" lon="2.09919">
        <ele>95.2</ele>
        <time>2022-02-17T08:29:25Z</time>
      </trkpt>
      <trkpt lat="49.08755" lon="2.09923">
        <ele>95</ele>
        <time>2022-02-17T08:29:29Z</time>
      </trkpt>
      <trkpt lat="49.08751" lon="2.09929">
        <ele>94.4</ele>
        <time>2022-02-17T08:29:33Z</time>
      </trkpt>
      <trkpt lat="49.08748" lon="2.09936">
        <ele>94</ele>
        <time>2022-02-17T08:29:37Z</time>
      </trkpt>
      <trkpt lat="49.08745" lon="2.09942">
        <ele>93.4</ele>
        <time>2022-02-17T08:29:41Z</time>
      </trkpt>
      <trkpt lat="49.08742" lon="2.09947">
        <ele>92.9</ele>
        <time>2022-02-17T08:29:44Z</time>
      </trkpt>
      <trkpt lat="49.08739" lon="2.09953">
        <ele>92.6</ele>
        <time>2022-02-17T08:29:48Z</time>
      </trkpt>
      <trkpt lat="49.08736" lon="2.09959">
        <ele>92.4</ele>
        <time>2022-02-17T08:29:51Z</time>
      </trkpt>
      <trkpt lat="49.08734" lon="2.09966">
        <ele>91.9</ele>
        <time>2022-02-17T08:29:55Z</time>
      </trkpt>
      <trkpt lat="49.08732" lon="2.09974">
        <ele>90.9</ele>
        <time>2022-02-17T08:29:59Z</time>
      </trkpt>
      <trkpt lat="49.08733" lon="2.09982">
        <ele>90.5</ele>
        <time>2022-02-17T08:30:03Z</time>
      </trkpt>
      <trkpt lat="49.08733" lon="2.0999">
        <ele>90.5</ele>
        <time>2022-02-17T08:30:06Z</time>
      </trkpt>
      <trkpt lat="49.08736" lon="2.09997">
        <ele>91</ele>
        <time>2022-02-17T08:30:10Z</time>
      </trkpt>
      <trkpt lat="49.08737" lon="2.10005">
        <ele>91.4</ele>
        <time>2022-02-17T08:30:13Z</time>
      </trkpt>
      <trkpt lat="49.0874" lon="2.10013">
        <ele>91.5</ele>
        <time>2022-02-17T08:30:17Z</time>
      </trkpt>
      <trkpt lat="49.08742" lon="2.1002">
        <ele>90.1</ele>
        <time>2022-02-17T08:30:21Z</time>
      </trkpt>
      <trkpt lat="49.08743" lon="2.10029">
        <ele>88.2</ele>
        <time>2022-02-17T08:30:25Z</time>
      </trkpt>
      <trkpt lat="49.08745" lon="2.10036">
        <ele>87.5</ele>
        <time>2022-02-17T08:30:29Z</time>
      </trkpt>
      <trkpt lat="49.08747" lon="2.10043">
        <ele>87.3</ele>
        <time>2022-02-17T08:30:32Z</time>
      </trkpt>
      <trkpt lat="49.08749" lon="2.1005">
        <ele>87.3</ele>
        <time>2022-02-17T08:30:36Z</time>
      </trkpt>
      <trkpt lat="49.08752" lon="2.10057">
        <ele>88.1</ele>
        <time>2022-02-17T08:30:39Z</time>
      </trkpt>
      <trkpt lat="49.08753" lon="2.10065">
        <ele>88.6</ele>
        <time>2022-02-17T08:30:43Z</time>
      </trkpt>
      <trkpt lat="49.08754" lon="2.10073">
        <ele>88.4</ele>
        <time>2022-02-17T08:30:47Z</time>
      </trkpt>
      <trkpt lat="49.08756" lon="2.10081">
        <ele>88.5</ele>
        <time>2022-02-17T08:30:51Z</time>
      </trkpt>
      <trkpt lat="49.08758" lon="2.10088">
        <ele>89.2</ele>
        <time>2022-02-17T08:30:55Z</time>
      </trkpt>
      <trkpt lat="49.0876" lon="2.10094">
        <ele>89.8</ele>
        <time>2022-02-17T08:30:58Z</time>
      </trkpt>
      <trkpt lat="49.08762" lon="2.10102">
        <ele>90</ele>
        <time>2022-02-17T08:31:03Z</time>
      </trkpt>
      <trkpt lat="49.08763" lon="2.1011">
        <ele>90.3</ele>
        <time>2022-02-17T08:31:06Z</time>
      </trkpt>
      <trkpt lat="49.08764" lon="2.10117">
        <ele>90.3</ele>
        <time>2022-02-17T08:31:10Z</time>
      </trkpt>
      <trkpt lat="49.08765" lon="2.10125">
        <ele>90.1</ele>
        <time>2022-02-17T08:31:14Z</time>
      </trkpt>
      <trkpt lat="49.08764" lon="2.10132">
        <ele>89.4</ele>
        <time>2022-02-17T08:31:18Z</time>
      </trkpt>
      <trkpt lat="49.0876" lon="2.10138">
        <ele>88.8</ele>
        <time>2022-02-17T08:31:22Z</time>
      </trkpt>
      <trkpt lat="49.08756" lon="2.10144">
        <ele>87.7</ele>
        <time>2022-02-17T08:31:26Z</time>
      </trkpt>
      <trkpt lat="49.08751" lon="2.10148">
        <ele>86.5</ele>
        <time>2022-02-17T08:31:29Z</time>
      </trkpt>
      <trkpt lat="49.08746" lon="2.10151">
        <ele>86.1</ele>
        <time>2022-02-17T08:31:33Z</time>
      </trkpt>
      <trkpt lat="49.0874" lon="2.10153">
        <ele>85.5</ele>
        <time>2022-02-17T08:31:37Z</time>
      </trkpt>
      <trkpt lat="49.08735" lon="2.10155">
        <ele>85.2</ele>
        <time>2022-02-17T08:31:41Z</time>
      </trkpt>
      <trkpt lat="49.0873" lon="2.10157">
        <ele>85.4</ele>
        <time>2022-02-17T08:31:45Z</time>
      </trkpt>
      <trkpt lat="49.08725" lon="2.10158">
        <ele>85.4</ele>
        <time>2022-02-17T08:31:49Z</time>
      </trkpt>
      <trkpt lat="49.08721" lon="2.10161">
        <ele>85.4</ele>
        <time>2022-02-17T08:31:52Z</time>
      </trkpt>
      <trkpt lat="49.08716" lon="2.10164">
        <ele>85.1</ele>
        <time>2022-02-17T08:31:55Z</time>
      </trkpt>
      <trkpt lat="49.0871" lon="2.10166">
        <ele>84.9</ele>
        <time>2022-02-17T08:31:59Z</time>
      </trkpt>
      <trkpt lat="49.08705" lon="2.10168">
        <ele>85</ele>
        <time>2022-02-17T08:32:03Z</time>
      </trkpt>
      <trkpt lat="49.08699" lon="2.10169">
        <ele>85.2</ele>
        <time>2022-02-17T08:32:07Z</time>
      </trkpt>
      <trkpt lat="49.08695" lon="2.10171">
        <ele>85.5</ele>
        <time>2022-02-17T08:32:11Z</time>
      </trkpt>
      <trkpt lat="49.0869" lon="2.10172">
        <ele>85.5</ele>
        <time>2022-02-17T08:32:14Z</time>
      </trkpt>
      <trkpt lat="49.08685" lon="2.10174">
        <ele>85.5</ele>
        <time>2022-02-17T08:32:18Z</time>
      </trkpt>
      <trkpt lat="49.0868" lon="2.10177">
        <ele>85</ele>
        <time>2022-02-17T08:32:21Z</time>
      </trkpt>
      <trkpt lat="49.08675" lon="2.1018">
        <ele>84.3</ele>
        <time>2022-02-17T08:32:25Z</time>
      </trkpt>
      <trkpt lat="49.0867" lon="2.10183">
        <ele>83.7</ele>
        <time>2022-02-17T08:32:29Z</time>
      </trkpt>
      <trkpt lat="49.08665" lon="2.10185">
        <ele>83.4</ele>
        <time>2022-02-17T08:32:32Z</time>
      </trkpt>
      <trkpt lat="49.08659" lon="2.10189">
        <ele>82.9</ele>
        <time>2022-02-17T08:32:37Z</time>
      </trkpt>
      <trkpt lat="49.08655" lon="2.10191">
        <ele>82.6</ele>
        <time>2022-02-17T08:32:40Z</time>
      </trkpt>
      <trkpt lat="49.0865" lon="2.10193">
        <ele>82.4</ele>
        <time>2022-02-17T08:32:44Z</time>
      </trkpt>
      <trkpt lat="49.08645" lon="2.10196">
        <ele>82.4</ele>
        <time>2022-02-17T08:32:47Z</time>
      </trkpt>
      <trkpt lat="49.0864" lon="2.10198">
        <ele>82.2</ele>
        <time>2022-02-17T08:32:51Z</time>
      </trkpt>
      <trkpt lat="49.08635" lon="2.10201">
        <ele>82</ele>
        <time>2022-02-17T08:32:55Z</time>
      </trkpt>
      <trkpt lat="49.0863" lon="2.10205">
        <ele>81.7</ele>
        <time>2022-02-17T08:32:59Z</time>
      </trkpt>
      <trkpt lat="49.08625" lon="2.1021">
        <ele>81.3</ele>
        <time>2022-02-17T08:33:04Z</time>
      </trkpt>
      <trkpt lat="49.08621" lon="2.10213">
        <ele>81</ele>
        <time>2022-02-17T08:33:07Z</time>
      </trkpt>
      <trkpt lat="49.08617" lon="2.10217">
        <ele>80.9</ele>
        <time>2022-02-17T08:33:10Z</time>
      </trkpt>
      <trkpt lat="49.08613" lon="2.1022">
        <ele>80.9</ele>
        <time>2022-02-17T08:33:14Z</time>
      </trkpt>
      <trkpt lat="49.08608" lon="2.10225">
        <ele>80.9</ele>
        <time>2022-02-17T08:33:17Z</time>
      </trkpt>
      <trkpt lat="49.08603" lon="2.10228">
        <ele>80.2</ele>
        <time>2022-02-17T08:33:21Z</time>
      </trkpt>
      <trkpt lat="49.08598" lon="2.10233">
        <ele>79.2</ele>
        <time>2022-02-17T08:33:25Z</time>
      </trkpt>
      <trkpt lat="49.08593" lon="2.10237">
        <ele>78.7</ele>
        <time>2022-02-17T08:33:29Z</time>
      </trkpt>
      <trkpt lat="49.08588" lon="2.10241">
        <ele>78.8</ele>
        <time>2022-02-17T08:33:33Z</time>
      </trkpt>
      <trkpt lat="49.08584" lon="2.10245">
        <ele>78.8</ele>
        <time>2022-02-17T08:33:37Z</time>
      </trkpt>
      <trkpt lat="49.0858" lon="2.1025">
        <ele>78.5</ele>
        <time>2022-02-17T08:33:41Z</time>
      </trkpt>
      <trkpt lat="49.08576" lon="2.10255">
        <ele>78.3</ele>
        <time>2022-02-17T08:33:45Z</time>
      </trkpt>
      <trkpt lat="49.08572" lon="2.10258">
        <ele>78</ele>
        <time>2022-02-17T08:33:48Z</time>
      </trkpt>
      <trkpt lat="49.08568" lon="2.10262">
        <ele>78</ele>
        <time>2022-02-17T08:33:51Z</time>
      </trkpt>
      <trkpt lat="49.08564" lon="2.10265">
        <ele>77.9</ele>
        <time>2022-02-17T08:33:55Z</time>
      </trkpt>
      <trkpt lat="49.08559" lon="2.10271">
        <ele>77.9</ele>
        <time>2022-02-17T08:33:59Z</time>
      </trkpt>
      <trkpt lat="49.08554" lon="2.10274">
        <ele>77.8</ele>
        <time>2022-02-17T08:34:03Z</time>
      </trkpt>
      <trkpt lat="49.0855" lon="2.10275">
        <ele>77.7</ele>
        <time>2022-02-17T08:34:06Z</time>
      </trkpt>
      <trkpt lat="49.08544" lon="2.10277">
        <ele>79</ele>
        <time>2022-02-17T08:34:29Z</time>
      </trkpt>
      <trkpt lat="49.0854" lon="2.10283">
        <ele>79.3</ele>
        <time>2022-02-17T08:34:33Z</time>
      </trkpt>
      <trkpt lat="49.08536" lon="2.10286">
        <ele>79.4</ele>
        <time>2022-02-17T08:34:36Z</time>
      </trkpt>
      <trkpt lat="49.0853" lon="2.10288">
        <ele>79.7</ele>
        <time>2022-02-17T08:34:40Z</time>
      </trkpt>
      <trkpt lat="49.08526" lon="2.10291">
        <ele>79.9</ele>
        <time>2022-02-17T08:34:43Z</time>
      </trkpt>
      <trkpt lat="49.08521" lon="2.10294">
        <ele>80</ele>
        <time>2022-02-17T08:34:47Z</time>
      </trkpt>
      <trkpt lat="49.08516" lon="2.10297">
        <ele>80.2</ele>
        <time>2022-02-17T08:34:51Z</time>
      </trkpt>
      <trkpt lat="49.08511" lon="2.10298">
        <ele>80.5</ele>
        <time>2022-02-17T08:34:54Z</time>
      </trkpt>
      <trkpt lat="49.08506" lon="2.10303">
        <ele>80.9</ele>
        <time>2022-02-17T08:34:58Z</time>
      </trkpt>
      <trkpt lat="49.08501" lon="2.10307">
        <ele>81.3</ele>
        <time>2022-02-17T08:35:03Z</time>
      </trkpt>
      <trkpt lat="49.08497" lon="2.10312">
        <ele>82.7</ele>
        <time>2022-02-17T08:35:06Z</time>
      </trkpt>
      <trkpt lat="49.08492" lon="2.10316">
        <ele>83.9</ele>
        <time>2022-02-17T08:35:10Z</time>
      </trkpt>
      <trkpt lat="49.08487" lon="2.1032">
        <ele>83.6</ele>
        <time>2022-02-17T08:35:14Z</time>
      </trkpt>
      <trkpt lat="49.08482" lon="2.10325">
        <ele>83.2</ele>
        <time>2022-02-17T08:35:18Z</time>
      </trkpt>
      <trkpt lat="49.08477" lon="2.10329">
        <ele>83</ele>
        <time>2022-02-17T08:35:22Z</time>
      </trkpt>
      <trkpt lat="49.08472" lon="2.10332">
        <ele>82.8</ele>
        <time>2022-02-17T08:35:26Z</time>
      </trkpt>
      <trkpt lat="49.08466" lon="2.10337">
        <ele>81.4</ele>
        <time>2022-02-17T08:35:31Z</time>
      </trkpt>
      <trkpt lat="49.08462" lon="2.10341">
        <ele>80.5</ele>
        <time>2022-02-17T08:35:35Z</time>
      </trkpt>
      <trkpt lat="49.08457" lon="2.10346">
        <ele>81.5</ele>
        <time>2022-02-17T08:35:39Z</time>
      </trkpt>
      <trkpt lat="49.08454" lon="2.10352">
        <ele>83.1</ele>
        <time>2022-02-17T08:35:42Z</time>
      </trkpt>
      <trkpt lat="49.0845" lon="2.10357">
        <ele>82.7</ele>
        <time>2022-02-17T08:35:46Z</time>
      </trkpt>
      <trkpt lat="49.08445" lon="2.10361">
        <ele>80.5</ele>
        <time>2022-02-17T08:35:50Z</time>
      </trkpt>
      <trkpt lat="49.0844" lon="2.10366">
        <ele>79.2</ele>
        <time>2022-02-17T08:35:55Z</time>
      </trkpt>
      <trkpt lat="49.08435" lon="2.10371">
        <ele>80.8</ele>
        <time>2022-02-17T08:35:59Z</time>
      </trkpt>
      <trkpt lat="49.08432" lon="2.10376">
        <ele>82.7</ele>
        <time>2022-02-17T08:36:03Z</time>
      </trkpt>
      <trkpt lat="49.08427" lon="2.10381">
        <ele>84.1</ele>
        <time>2022-02-17T08:36:07Z</time>
      </trkpt>
      <trkpt lat="49.08422" lon="2.10385">
        <ele>84.2</ele>
        <time>2022-02-17T08:36:11Z</time>
      </trkpt>
      <trkpt lat="49.08419" lon="2.10391">
        <ele>84.4</ele>
        <time>2022-02-17T08:36:14Z</time>
      </trkpt>
      <trkpt lat="49.08414" lon="2.10396">
        <ele>84.4</ele>
        <time>2022-02-17T08:36:18Z</time>
      </trkpt>
      <trkpt lat="49.0841" lon="2.10401">
        <ele>84.4</ele>
        <time>2022-02-17T08:36:22Z</time>
      </trkpt>
      <trkpt lat="49.08406" lon="2.10407">
        <ele>85.2</ele>
        <time>2022-02-17T08:36:26Z</time>
      </trkpt>
      <trkpt lat="49.08401" lon="2.10412">
        <ele>86.3</ele>
        <time>2022-02-17T08:36:30Z</time>
      </trkpt>
      <trkpt lat="49.08397" lon="2.10415">
        <ele>86.1</ele>
        <time>2022-02-17T08:36:34Z</time>
      </trkpt>
      <trkpt lat="49.08392" lon="2.10419">
        <ele>85</ele>
        <time>2022-02-17T08:36:38Z</time>
      </trkpt>
      <trkpt lat="49.08388" lon="2.10423">
        <ele>84</ele>
        <time>2022-02-17T08:36:42Z</time>
      </trkpt>
      <trkpt lat="49.08383" lon="2.10428">
        <ele>83.3</ele>
        <time>2022-02-17T08:36:46Z</time>
      </trkpt>
      <trkpt lat="49.08358" lon="2.10457">
        <ele>85.7</ele>
        <time>2022-02-17T08:37:09Z</time>
      </trkpt>
      <trkpt lat="49.08353" lon="2.10462">
        <ele>85.2</ele>
        <time>2022-02-17T08:37:13Z</time>
      </trkpt>
      <trkpt lat="49.0834" lon="2.10474">
        <ele>85</ele>
        <time>2022-02-17T08:37:24Z</time>
      </trkpt>
      <trkpt lat="49.08307" lon="2.10504">
        <ele>87.5</ele>
        <time>2022-02-17T08:37:53Z</time>
      </trkpt>
      <trkpt lat="49.08306" lon="2.10512">
        <ele>89.1</ele>
        <time>2022-02-17T08:37:58Z</time>
      </trkpt>
      <trkpt lat="49.08303" lon="2.10518">
        <ele>91.5</ele>
        <time>2022-02-17T08:38:02Z</time>
      </trkpt>
      <trkpt lat="49.08299" lon="2.10523">
        <ele>93.1</ele>
        <time>2022-02-17T08:38:05Z</time>
      </trkpt>
      <trkpt lat="49.08294" lon="2.10528">
        <ele>94.5</ele>
        <time>2022-02-17T08:38:09Z</time>
      </trkpt>
      <trkpt lat="49.08288" lon="2.10531">
        <ele>94.9</ele>
        <time>2022-02-17T08:38:13Z</time>
      </trkpt>
      <trkpt lat="49.08213" lon="2.10603">
        <ele>99.7</ele>
        <time>2022-02-17T08:39:19Z</time>
      </trkpt>
      <trkpt lat="49.08209" lon="2.10607">
        <ele>100</ele>
        <time>2022-02-17T08:39:22Z</time>
      </trkpt>
      <trkpt lat="49.08205" lon="2.1061">
        <ele>99.9</ele>
        <time>2022-02-17T08:39:25Z</time>
      </trkpt>
      <trkpt lat="49.082" lon="2.10614">
        <ele>99.9</ele>
        <time>2022-02-17T08:39:29Z</time>
      </trkpt>
      <trkpt lat="49.08178" lon="2.10638">
        <ele>100.1</ele>
        <time>2022-02-17T08:39:51Z</time>
      </trkpt>
      <trkpt lat="49.08173" lon="2.10643">
        <ele>100.2</ele>
        <time>2022-02-17T08:39:55Z</time>
      </trkpt>
      <trkpt lat="49.0817" lon="2.10646">
        <ele>100</ele>
        <time>2022-02-17T08:39:58Z</time>
      </trkpt>
      <trkpt lat="49.08165" lon="2.10651">
        <ele>99.1</ele>
        <time>2022-02-17T08:40:02Z</time>
      </trkpt>
      <trkpt lat="49.08158" lon="2.10656">
        <ele>98.5</ele>
        <time>2022-02-17T08:40:08Z</time>
      </trkpt>
      <trkpt lat="49.08153" lon="2.10658">
        <ele>97.8</ele>
        <time>2022-02-17T08:40:12Z</time>
      </trkpt>
      <trkpt lat="49.08148" lon="2.10659">
        <ele>97.1</ele>
        <time>2022-02-17T08:40:16Z</time>
      </trkpt>
      <trkpt lat="49.08145" lon="2.10666">
        <ele>96.1</ele>
        <time>2022-02-17T08:40:22Z</time>
      </trkpt>
      <trkpt lat="49.08141" lon="2.10671">
        <ele>95.2</ele>
        <time>2022-02-17T08:40:31Z</time>
      </trkpt>
      <trkpt lat="49.08135" lon="2.10672">
        <ele>94.9</ele>
        <time>2022-02-17T08:40:35Z</time>
      </trkpt>
      <trkpt lat="49.08131" lon="2.10677">
        <ele>95.2</ele>
        <time>2022-02-17T08:40:39Z</time>
      </trkpt>
      <trkpt lat="49.08127" lon="2.10684">
        <ele>95.5</ele>
        <time>2022-02-17T08:40:43Z</time>
      </trkpt>
      <trkpt lat="49.08124" lon="2.10691">
        <ele>95.9</ele>
        <time>2022-02-17T08:40:47Z</time>
      </trkpt>
      <trkpt lat="49.08121" lon="2.10695">
        <ele>96.5</ele>
        <time>2022-02-17T08:40:50Z</time>
      </trkpt>
      <trkpt lat="49.08115" lon="2.107">
        <ele>97.1</ele>
        <time>2022-02-17T08:40:55Z</time>
      </trkpt>
      <trkpt lat="49.0811" lon="2.10701">
        <ele>97.1</ele>
        <time>2022-02-17T08:40:59Z</time>
      </trkpt>
      <trkpt lat="49.08104" lon="2.10704">
        <ele>96.9</ele>
        <time>2022-02-17T08:41:05Z</time>
      </trkpt>
      <trkpt lat="49.081" lon="2.1071">
        <ele>97</ele>
        <time>2022-02-17T08:41:10Z</time>
      </trkpt>
      <trkpt lat="49.08096" lon="2.10714">
        <ele>97.4</ele>
        <time>2022-02-17T08:41:15Z</time>
      </trkpt>
      <trkpt lat="49.08093" lon="2.10718">
        <ele>97.9</ele>
        <time>2022-02-17T08:41:19Z</time>
      </trkpt>
      <trkpt lat="49.08088" lon="2.10725">
        <ele>98.1</ele>
        <time>2022-02-17T08:41:24Z</time>
      </trkpt>
      <trkpt lat="49.08084" lon="2.10728">
        <ele>98.2</ele>
        <time>2022-02-17T08:41:28Z</time>
      </trkpt>
      <trkpt lat="49.08079" lon="2.10732">
        <ele>98.5</ele>
        <time>2022-02-17T08:41:32Z</time>
      </trkpt>
      <trkpt lat="49.08074" lon="2.10736">
        <ele>99.1</ele>
        <time>2022-02-17T08:41:36Z</time>
      </trkpt>
      <trkpt lat="49.08068" lon="2.1074">
        <ele>99.6</ele>
        <time>2022-02-17T08:41:41Z</time>
      </trkpt>
      <trkpt lat="49.08063" lon="2.10743">
        <ele>100.3</ele>
        <time>2022-02-17T08:41:46Z</time>
      </trkpt>
      <trkpt lat="49.08058" lon="2.10744">
        <ele>100.9</ele>
        <time>2022-02-17T08:41:50Z</time>
      </trkpt>
      <trkpt lat="49.08054" lon="2.10747">
        <ele>101.2</ele>
        <time>2022-02-17T08:41:54Z</time>
      </trkpt>
      <trkpt lat="49.0805" lon="2.10751">
        <ele>101.3</ele>
        <time>2022-02-17T08:41:58Z</time>
      </trkpt>
      <trkpt lat="49.08046" lon="2.10757">
        <ele>102.4</ele>
        <time>2022-02-17T08:42:02Z</time>
      </trkpt>
      <trkpt lat="49.08042" lon="2.10762">
        <ele>103.5</ele>
        <time>2022-02-17T08:42:06Z</time>
      </trkpt>
      <trkpt lat="49.08036" lon="2.10768">
        <ele>106.1</ele>
        <time>2022-02-17T08:42:12Z</time>
      </trkpt>
      <trkpt lat="49.08031" lon="2.10772">
        <ele>107.2</ele>
        <time>2022-02-17T08:42:15Z</time>
      </trkpt>
      <trkpt lat="49.08006" lon="2.10788">
        <ele>104.1</ele>
        <time>2022-02-17T08:42:35Z</time>
      </trkpt>
      <trkpt lat="49.08002" lon="2.10791">
        <ele>104.2</ele>
        <time>2022-02-17T08:42:38Z</time>
      </trkpt>
      <trkpt lat="49.07997" lon="2.10791">
        <ele>104.4</ele>
        <time>2022-02-17T08:42:42Z</time>
      </trkpt>
      <trkpt lat="49.07992" lon="2.10792">
        <ele>104.6</ele>
        <time>2022-02-17T08:42:46Z</time>
      </trkpt>
      <trkpt lat="49.07987" lon="2.10795">
        <ele>104</ele>
        <time>2022-02-17T08:42:49Z</time>
      </trkpt>
      <trkpt lat="49.07982" lon="2.10797">
        <ele>103.1</ele>
        <time>2022-02-17T08:42:53Z</time>
      </trkpt>
      <trkpt lat="49.07977" lon="2.108">
        <ele>102.8</ele>
        <time>2022-02-17T08:42:57Z</time>
      </trkpt>
      <trkpt lat="49.07972" lon="2.10803">
        <ele>102.7</ele>
        <time>2022-02-17T08:43:02Z</time>
      </trkpt>
      <trkpt lat="49.07967" lon="2.10806">
        <ele>101.7</ele>
        <time>2022-02-17T08:43:06Z</time>
      </trkpt>
      <trkpt lat="49.07962" lon="2.10811">
        <ele>99.8</ele>
        <time>2022-02-17T08:43:10Z</time>
      </trkpt>
      <trkpt lat="49.07957" lon="2.10813">
        <ele>99.1</ele>
        <time>2022-02-17T08:43:14Z</time>
      </trkpt>
      <trkpt lat="49.07953" lon="2.10815">
        <ele>99</ele>
        <time>2022-02-17T08:43:17Z</time>
      </trkpt>
      <trkpt lat="49.07948" lon="2.10816">
        <ele>99.6</ele>
        <time>2022-02-17T08:43:21Z</time>
      </trkpt>
      <trkpt lat="49.07943" lon="2.10814">
        <ele>99.3</ele>
        <time>2022-02-17T08:43:25Z</time>
      </trkpt>
      <trkpt lat="49.07938" lon="2.10808">
        <ele>99.2</ele>
        <time>2022-02-17T08:43:29Z</time>
      </trkpt>
      <trkpt lat="49.07934" lon="2.10804">
        <ele>99</ele>
        <time>2022-02-17T08:43:33Z</time>
      </trkpt>
      <trkpt lat="49.0793" lon="2.10799">
        <ele>99.3</ele>
        <time>2022-02-17T08:43:37Z</time>
      </trkpt>
      <trkpt lat="49.07925" lon="2.10795">
        <ele>100.1</ele>
        <time>2022-02-17T08:43:41Z</time>
      </trkpt>
      <trkpt lat="49.0792" lon="2.10791">
        <ele>101.3</ele>
        <time>2022-02-17T08:43:45Z</time>
      </trkpt>
      <trkpt lat="49.07915" lon="2.10788">
        <ele>101.9</ele>
        <time>2022-02-17T08:43:49Z</time>
      </trkpt>
      <trkpt lat="49.0791" lon="2.10784">
        <ele>102.3</ele>
        <time>2022-02-17T08:43:53Z</time>
      </trkpt>
      <trkpt lat="49.07905" lon="2.10782">
        <ele>102.5</ele>
        <time>2022-02-17T08:43:57Z</time>
      </trkpt>
      <trkpt lat="49.079" lon="2.1078">
        <ele>102.3</ele>
        <time>2022-02-17T08:44:01Z</time>
      </trkpt>
      <trkpt lat="49.07897" lon="2.10775">
        <ele>100.8</ele>
        <time>2022-02-17T08:44:05Z</time>
      </trkpt>
      <trkpt lat="49.07893" lon="2.10769">
        <ele>98.4</ele>
        <time>2022-02-17T08:44:09Z</time>
      </trkpt>
      <trkpt lat="49.07889" lon="2.10765">
        <ele>97.6</ele>
        <time>2022-02-17T08:44:13Z</time>
      </trkpt>
      <trkpt lat="49.07884" lon="2.10763">
        <ele>97.2</ele>
        <time>2022-02-17T08:44:17Z</time>
      </trkpt>
      <trkpt lat="49.07879" lon="2.10761">
        <ele>96.6</ele>
        <time>2022-02-17T08:44:21Z</time>
      </trkpt>
      <trkpt lat="49.07875" lon="2.10757">
        <ele>96</ele>
        <time>2022-02-17T08:44:25Z</time>
      </trkpt>
      <trkpt lat="49.0787" lon="2.10754">
        <ele>94.8</ele>
        <time>2022-02-17T08:44:29Z</time>
      </trkpt>
      <trkpt lat="49.07865" lon="2.10751">
        <ele>93.8</ele>
        <time>2022-02-17T08:44:33Z</time>
      </trkpt>
      <trkpt lat="49.07861" lon="2.10747">
        <ele>93.9</ele>
        <time>2022-02-17T08:44:36Z</time>
      </trkpt>
      <trkpt lat="49.07857" lon="2.10743">
        <ele>94.8</ele>
        <time>2022-02-17T08:44:39Z</time>
      </trkpt>
      <trkpt lat="49.07852" lon="2.10738">
        <ele>95.8</ele>
        <time>2022-02-17T08:44:42Z</time>
      </trkpt>
      <trkpt lat="49.07847" lon="2.10734">
        <ele>96.5</ele>
        <time>2022-02-17T08:44:46Z</time>
      </trkpt>
      <trkpt lat="49.07842" lon="2.10731">
        <ele>96.8</ele>
        <time>2022-02-17T08:44:50Z</time>
      </trkpt>
      <trkpt lat="49.07837" lon="2.10727">
        <ele>97.4</ele>
        <time>2022-02-17T08:44:54Z</time>
      </trkpt>
      <trkpt lat="49.07833" lon="2.10725">
        <ele>97.6</ele>
        <time>2022-02-17T08:44:57Z</time>
      </trkpt>
      <trkpt lat="49.07828" lon="2.10722">
        <ele>96.6</ele>
        <time>2022-02-17T08:45:02Z</time>
      </trkpt>
      <trkpt lat="49.07823" lon="2.10719">
        <ele>95.9</ele>
        <time>2022-02-17T08:45:06Z</time>
      </trkpt>
      <trkpt lat="49.07818" lon="2.10715">
        <ele>95.5</ele>
        <time>2022-02-17T08:45:10Z</time>
      </trkpt>
      <trkpt lat="49.07814" lon="2.10711">
        <ele>95.2</ele>
        <time>2022-02-17T08:45:14Z</time>
      </trkpt>
      <trkpt lat="49.07809" lon="2.10708">
        <ele>95</ele>
        <time>2022-02-17T08:45:19Z</time>
      </trkpt>
      <trkpt lat="49.07803" lon="2.10705">
        <ele>95.2</ele>
        <time>2022-02-17T08:45:23Z</time>
      </trkpt>
      <trkpt lat="49.07798" lon="2.10702">
        <ele>95.5</ele>
        <time>2022-02-17T08:45:27Z</time>
      </trkpt>
      <trkpt lat="49.07794" lon="2.10699">
        <ele>95.9</ele>
        <time>2022-02-17T08:45:31Z</time>
      </trkpt>
      <trkpt lat="49.07789" lon="2.10697">
        <ele>95.4</ele>
        <time>2022-02-17T08:45:35Z</time>
      </trkpt>
      <trkpt lat="49.07784" lon="2.10696">
        <ele>94.5</ele>
        <time>2022-02-17T08:45:40Z</time>
      </trkpt>
      <trkpt lat="49.0778" lon="2.10692">
        <ele>94.1</ele>
        <time>2022-02-17T08:45:44Z</time>
      </trkpt>
      <trkpt lat="49.07777" lon="2.10687">
        <ele>93.8</ele>
        <time>2022-02-17T08:45:47Z</time>
      </trkpt>
      <trkpt lat="49.07772" lon="2.10684">
        <ele>92.7</ele>
        <time>2022-02-17T08:45:52Z</time>
      </trkpt>
      <trkpt lat="49.07767" lon="2.10683">
        <ele>91.8</ele>
        <time>2022-02-17T08:45:56Z</time>
      </trkpt>
      <trkpt lat="49.07763" lon="2.10681">
        <ele>91.3</ele>
        <time>2022-02-17T08:46:00Z</time>
      </trkpt>
      <trkpt lat="49.07758" lon="2.10678">
        <ele>91.6</ele>
        <time>2022-02-17T08:46:04Z</time>
      </trkpt>
      <trkpt lat="49.07754" lon="2.10676">
        <ele>92</ele>
        <time>2022-02-17T08:46:08Z</time>
      </trkpt>
      <trkpt lat="49.07748" lon="2.10677">
        <ele>91.6</ele>
        <time>2022-02-17T08:46:16Z</time>
      </trkpt>
      <trkpt lat="49.07742" lon="2.10675">
        <ele>91.3</ele>
        <time>2022-02-17T08:46:20Z</time>
      </trkpt>
      <trkpt lat="49.07737" lon="2.10672">
        <ele>91.2</ele>
        <time>2022-02-17T08:46:23Z</time>
      </trkpt>
      <trkpt lat="49.07734" lon="2.10666">
        <ele>91.7</ele>
        <time>2022-02-17T08:46:26Z</time>
      </trkpt>
      <trkpt lat="49.0773" lon="2.10659">
        <ele>92</ele>
        <time>2022-02-17T08:46:29Z</time>
      </trkpt>
      <trkpt lat="49.07727" lon="2.10651">
        <ele>92.3</ele>
        <time>2022-02-17T08:46:33Z</time>
      </trkpt>
      <trkpt lat="49.07724" lon="2.10646">
        <ele>92.4</ele>
        <time>2022-02-17T08:46:37Z</time>
      </trkpt>
      <trkpt lat="49.07722" lon="2.10639">
        <ele>92.3</ele>
        <time>2022-02-17T08:46:41Z</time>
      </trkpt>
      <trkpt lat="49.0772" lon="2.10632">
        <ele>92.5</ele>
        <time>2022-02-17T08:46:45Z</time>
      </trkpt>
      <trkpt lat="49.07716" lon="2.10628">
        <ele>93.2</ele>
        <time>2022-02-17T08:46:49Z</time>
      </trkpt>
      <trkpt lat="49.0771" lon="2.10625">
        <ele>94</ele>
        <time>2022-02-17T08:46:53Z</time>
      </trkpt>
      <trkpt lat="49.07705" lon="2.10624">
        <ele>94.1</ele>
        <time>2022-02-17T08:46:56Z</time>
      </trkpt>
      <trkpt lat="49.077" lon="2.1062">
        <ele>93.2</ele>
        <time>2022-02-17T08:47:01Z</time>
      </trkpt>
      <trkpt lat="49.07696" lon="2.10613">
        <ele>91.7</ele>
        <time>2022-02-17T08:47:05Z</time>
      </trkpt>
      <trkpt lat="49.07695" lon="2.10605">
        <ele>90.3</ele>
        <time>2022-02-17T08:47:09Z</time>
      </trkpt>
      <trkpt lat="49.07691" lon="2.106">
        <ele>89.9</ele>
        <time>2022-02-17T08:47:14Z</time>
      </trkpt>
      <trkpt lat="49.07687" lon="2.10596">
        <ele>90</ele>
        <time>2022-02-17T08:47:18Z</time>
      </trkpt>
      <trkpt lat="49.07681" lon="2.10592">
        <ele>89</ele>
        <time>2022-02-17T08:47:23Z</time>
      </trkpt>
      <trkpt lat="49.07677" lon="2.10587">
        <ele>87.8</ele>
        <time>2022-02-17T08:47:26Z</time>
      </trkpt>
      <trkpt lat="49.07675" lon="2.10595">
        <ele>83.7</ele>
        <time>2022-02-17T08:47:34Z</time>
      </trkpt>
      <trkpt lat="49.0767" lon="2.10571">
        <ele>84.2</ele>
        <time>2022-02-17T08:47:48Z</time>
      </trkpt>
      <trkpt lat="49.07668" lon="2.10578">
        <ele>82.8</ele>
        <time>2022-02-17T08:48:08Z</time>
      </trkpt>
      <trkpt lat="49.07664" lon="2.10574">
        <ele>87.3</ele>
        <time>2022-02-17T08:48:39Z</time>
      </trkpt>
      <trkpt lat="49.07663" lon="2.10567">
        <ele>88.2</ele>
        <time>2022-02-17T08:48:44Z</time>
      </trkpt>
      <trkpt lat="49.07662" lon="2.10559">
        <ele>88</ele>
        <time>2022-02-17T08:48:48Z</time>
      </trkpt>
      <trkpt lat="49.07662" lon="2.10552">
        <ele>86.5</ele>
        <time>2022-02-17T08:48:55Z</time>
      </trkpt>
      <trkpt lat="49.07658" lon="2.10555">
        <ele>88.5</ele>
        <time>2022-02-17T08:51:04Z</time>
      </trkpt>
      <trkpt lat="49.07653" lon="2.10551">
        <ele>89.1</ele>
        <time>2022-02-17T08:51:20Z</time>
      </trkpt>
      <trkpt lat="49.07649" lon="2.10545">
        <ele>87</ele>
        <time>2022-02-17T08:51:29Z</time>
      </trkpt>
      <trkpt lat="49.07647" lon="2.10536">
        <ele>87.8</ele>
        <time>2022-02-17T08:51:35Z</time>
      </trkpt>
      <trkpt lat="49.07651" lon="2.10531">
        <ele>89.6</ele>
        <time>2022-02-17T08:51:40Z</time>
      </trkpt>
      <trkpt lat="49.07656" lon="2.1053">
        <ele>89.6</ele>
        <time>2022-02-17T08:51:44Z</time>
      </trkpt>
      <trkpt lat="49.0766" lon="2.10532">
        <ele>89.4</ele>
        <time>2022-02-17T08:51:49Z</time>
      </trkpt>
      <trkpt lat="49.07665" lon="2.10526">
        <ele>89.3</ele>
        <time>2022-02-17T08:51:54Z</time>
      </trkpt>
      <trkpt lat="49.07668" lon="2.1052">
        <ele>89.7</ele>
        <time>2022-02-17T08:51:58Z</time>
      </trkpt>
      <trkpt lat="49.07673" lon="2.10515">
        <ele>89.9</ele>
        <time>2022-02-17T08:52:03Z</time>
      </trkpt>
      <trkpt lat="49.07677" lon="2.10509">
        <ele>90.6</ele>
        <time>2022-02-17T08:52:07Z</time>
      </trkpt>
      <trkpt lat="49.0768" lon="2.10505">
        <ele>90.8</ele>
        <time>2022-02-17T08:52:10Z</time>
      </trkpt>
      <trkpt lat="49.07685" lon="2.10499">
        <ele>91.1</ele>
        <time>2022-02-17T08:52:14Z</time>
      </trkpt>
      <trkpt lat="49.07688" lon="2.10494">
        <ele>91.9</ele>
        <time>2022-02-17T08:52:18Z</time>
      </trkpt>
      <trkpt lat="49.07692" lon="2.10489">
        <ele>92.7</ele>
        <time>2022-02-17T08:52:21Z</time>
      </trkpt>
      <trkpt lat="49.07696" lon="2.10485">
        <ele>93.5</ele>
        <time>2022-02-17T08:52:26Z</time>
      </trkpt>
      <trkpt lat="49.07694" lon="2.10478">
        <ele>90.7</ele>
        <time>2022-02-17T08:52:37Z</time>
      </trkpt>
      <trkpt lat="49.07699" lon="2.10474">
        <ele>88.7</ele>
        <time>2022-02-17T08:52:42Z</time>
      </trkpt>
      <trkpt lat="49.07702" lon="2.10468">
        <ele>87.4</ele>
        <time>2022-02-17T08:52:48Z</time>
      </trkpt>
      <trkpt lat="49.07704" lon="2.10474">
        <ele>91.5</ele>
        <time>2022-02-17T08:53:35Z</time>
      </trkpt>
      <trkpt lat="49.07703" lon="2.10481">
        <ele>91.7</ele>
        <time>2022-02-17T08:53:42Z</time>
      </trkpt>
      <trkpt lat="49.07701" lon="2.10487">
        <ele>91.4</ele>
        <time>2022-02-17T08:53:48Z</time>
      </trkpt>
      <trkpt lat="49.07699" lon="2.10481">
        <ele>91.2</ele>
        <time>2022-02-17T08:54:07Z</time>
      </trkpt>
      <trkpt lat="49.07699" lon="2.10474">
        <ele>91.2</ele>
        <time>2022-02-17T08:54:11Z</time>
      </trkpt>
      <trkpt lat="49.07694" lon="2.10474">
        <ele>91.2</ele>
        <time>2022-02-17T08:54:30Z</time>
      </trkpt>
      <trkpt lat="49.07689" lon="2.10475">
        <ele>91</ele>
        <time>2022-02-17T08:54:36Z</time>
      </trkpt>
      <trkpt lat="49.07687" lon="2.10481">
        <ele>90.6</ele>
        <time>2022-02-17T08:54:40Z</time>
      </trkpt>
      <trkpt lat="49.07685" lon="2.10487">
        <ele>90.1</ele>
        <time>2022-02-17T08:54:45Z</time>
      </trkpt>
      <trkpt lat="49.07684" lon="2.1048">
        <ele>90</ele>
        <time>2022-02-17T08:54:54Z</time>
      </trkpt>
      <trkpt lat="49.07679" lon="2.10485">
        <ele>93.1</ele>
        <time>2022-02-17T08:55:06Z</time>
      </trkpt>
      <trkpt lat="49.07676" lon="2.10491">
        <ele>93.9</ele>
        <time>2022-02-17T08:55:12Z</time>
      </trkpt>
      <trkpt lat="49.07673" lon="2.10497">
        <ele>93.2</ele>
        <time>2022-02-17T08:55:17Z</time>
      </trkpt>
      <trkpt lat="49.07672" lon="2.10504">
        <ele>91.7</ele>
        <time>2022-02-17T08:55:21Z</time>
      </trkpt>
      <trkpt lat="49.07669" lon="2.1051">
        <ele>90.7</ele>
        <time>2022-02-17T08:55:25Z</time>
      </trkpt>
      <trkpt lat="49.07666" lon="2.10517">
        <ele>90.6</ele>
        <time>2022-02-17T08:55:30Z</time>
      </trkpt>
      <trkpt lat="49.07663" lon="2.10524">
        <ele>89.8</ele>
        <time>2022-02-17T08:55:34Z</time>
      </trkpt>
      <trkpt lat="49.07659" lon="2.10529">
        <ele>89</ele>
        <time>2022-02-17T08:55:38Z</time>
      </trkpt>
      <trkpt lat="49.07654" lon="2.10534">
        <ele>89.3</ele>
        <time>2022-02-17T08:55:44Z</time>
      </trkpt>
      <trkpt lat="49.0765" lon="2.10539">
        <ele>89.5</ele>
        <time>2022-02-17T08:55:49Z</time>
      </trkpt>
      <trkpt lat="49.07645" lon="2.10536">
        <ele>89.3</ele>
        <time>2022-02-17T08:55:53Z</time>
      </trkpt>
      <trkpt lat="49.0764" lon="2.10532">
        <ele>88.4</ele>
        <time>2022-02-17T08:55:57Z</time>
      </trkpt>
      <trkpt lat="49.07635" lon="2.10527">
        <ele>87.4</ele>
        <time>2022-02-17T08:56:02Z</time>
      </trkpt>
      <trkpt lat="49.0763" lon="2.10522">
        <ele>86.8</ele>
        <time>2022-02-17T08:56:06Z</time>
      </trkpt>
      <trkpt lat="49.07625" lon="2.10518">
        <ele>86.3</ele>
        <time>2022-02-17T08:56:10Z</time>
      </trkpt>
      <trkpt lat="49.07621" lon="2.10513">
        <ele>84.9</ele>
        <time>2022-02-17T08:56:14Z</time>
      </trkpt>
      <trkpt lat="49.07617" lon="2.10509">
        <ele>83.1</ele>
        <time>2022-02-17T08:56:18Z</time>
      </trkpt>
      <trkpt lat="49.07613" lon="2.10505">
        <ele>81.9</ele>
        <time>2022-02-17T08:56:22Z</time>
      </trkpt>
      <trkpt lat="49.07608" lon="2.105">
        <ele>81.4</ele>
        <time>2022-02-17T08:56:26Z</time>
      </trkpt>
      <trkpt lat="49.07605" lon="2.10495">
        <ele>81.3</ele>
        <time>2022-02-17T08:56:29Z</time>
      </trkpt>
      <trkpt lat="49.07601" lon="2.10489">
        <ele>82.3</ele>
        <time>2022-02-17T08:56:33Z</time>
      </trkpt>
      <trkpt lat="49.07597" lon="2.10484">
        <ele>83</ele>
        <time>2022-02-17T08:56:36Z</time>
      </trkpt>
      <trkpt lat="49.07588" lon="2.10473">
        <ele>82.1</ele>
        <time>2022-02-17T08:56:45Z</time>
      </trkpt>
      <trkpt lat="49.07585" lon="2.10468">
        <ele>82.2</ele>
        <time>2022-02-17T08:56:48Z</time>
      </trkpt>
      <trkpt lat="49.07582" lon="2.10461">
        <ele>82.9</ele>
        <time>2022-02-17T08:56:51Z</time>
      </trkpt>
      <trkpt lat="49.07579" lon="2.10456">
        <ele>84.3</ele>
        <time>2022-02-17T08:56:54Z</time>
      </trkpt>
      <trkpt lat="49.07574" lon="2.10453">
        <ele>84.9</ele>
        <time>2022-02-17T08:56:58Z</time>
      </trkpt>
      <trkpt lat="49.07568" lon="2.10454">
        <ele>85</ele>
        <time>2022-02-17T08:57:02Z</time>
      </trkpt>
      <trkpt lat="49.07564" lon="2.1046">
        <ele>85.2</ele>
        <time>2022-02-17T08:57:06Z</time>
      </trkpt>
      <trkpt lat="49.07558" lon="2.1046">
        <ele>86.2</ele>
        <time>2022-02-17T08:57:09Z</time>
      </trkpt>
      <trkpt lat="49.07554" lon="2.10457">
        <ele>87.1</ele>
        <time>2022-02-17T08:57:14Z</time>
      </trkpt>
      <trkpt lat="49.0755" lon="2.1046">
        <ele>88.6</ele>
        <time>2022-02-17T08:57:19Z</time>
      </trkpt>
      <trkpt lat="49.07547" lon="2.10467">
        <ele>90.9</ele>
        <time>2022-02-17T08:57:23Z</time>
      </trkpt>
      <trkpt lat="49.07542" lon="2.10471">
        <ele>92.1</ele>
        <time>2022-02-17T08:57:27Z</time>
      </trkpt>
      <trkpt lat="49.07536" lon="2.10473">
        <ele>92</ele>
        <time>2022-02-17T08:57:31Z</time>
      </trkpt>
      <trkpt lat="49.07531" lon="2.10473">
        <ele>91.9</ele>
        <time>2022-02-17T08:57:34Z</time>
      </trkpt>
      <trkpt lat="49.07526" lon="2.10472">
        <ele>92.1</ele>
        <time>2022-02-17T08:57:38Z</time>
      </trkpt>
      <trkpt lat="49.07521" lon="2.10473">
        <ele>93.4</ele>
        <time>2022-02-17T08:57:41Z</time>
      </trkpt>
      <trkpt lat="49.07516" lon="2.10476">
        <ele>94.1</ele>
        <time>2022-02-17T08:57:45Z</time>
      </trkpt>
      <trkpt lat="49.07512" lon="2.10479">
        <ele>95</ele>
        <time>2022-02-17T08:57:49Z</time>
      </trkpt>
      <trkpt lat="49.07507" lon="2.10481">
        <ele>95.8</ele>
        <time>2022-02-17T08:57:54Z</time>
      </trkpt>
      <trkpt lat="49.07501" lon="2.10483">
        <ele>96.5</ele>
        <time>2022-02-17T08:57:58Z</time>
      </trkpt>
      <trkpt lat="49.07496" lon="2.10484">
        <ele>96.4</ele>
        <time>2022-02-17T08:58:01Z</time>
      </trkpt>
      <trkpt lat="49.07492" lon="2.10485">
        <ele>95.7</ele>
        <time>2022-02-17T08:58:04Z</time>
      </trkpt>
      <trkpt lat="49.07489" lon="2.10491">
        <ele>95.3</ele>
        <time>2022-02-17T08:58:09Z</time>
      </trkpt>
      <trkpt lat="49.07484" lon="2.10495">
        <ele>93.7</ele>
        <time>2022-02-17T08:58:13Z</time>
      </trkpt>
      <trkpt lat="49.07479" lon="2.10497">
        <ele>91.1</ele>
        <time>2022-02-17T08:58:17Z</time>
      </trkpt>
      <trkpt lat="49.07475" lon="2.10502">
        <ele>89.9</ele>
        <time>2022-02-17T08:58:22Z</time>
      </trkpt>
      <trkpt lat="49.07469" lon="2.10502">
        <ele>89</ele>
        <time>2022-02-17T08:58:26Z</time>
      </trkpt>
      <trkpt lat="49.07464" lon="2.10505">
        <ele>88.5</ele>
        <time>2022-02-17T08:58:31Z</time>
      </trkpt>
      <trkpt lat="49.0746" lon="2.10508">
        <ele>88.3</ele>
        <time>2022-02-17T08:58:37Z</time>
      </trkpt>
      <trkpt lat="49.07455" lon="2.10512">
        <ele>87.9</ele>
        <time>2022-02-17T08:58:41Z</time>
      </trkpt>
      <trkpt lat="49.07451" lon="2.10516">
        <ele>87.4</ele>
        <time>2022-02-17T08:58:45Z</time>
      </trkpt>
      <trkpt lat="49.07447" lon="2.10521">
        <ele>87.4</ele>
        <time>2022-02-17T08:58:49Z</time>
      </trkpt>
      <trkpt lat="49.07444" lon="2.10527">
        <ele>87.2</ele>
        <time>2022-02-17T08:58:53Z</time>
      </trkpt>
      <trkpt lat="49.0744" lon="2.10534">
        <ele>87.3</ele>
        <time>2022-02-17T08:58:57Z</time>
      </trkpt>
      <trkpt lat="49.07436" lon="2.10538">
        <ele>87.4</ele>
        <time>2022-02-17T08:59:00Z</time>
      </trkpt>
      <trkpt lat="49.07432" lon="2.10542">
        <ele>87.6</ele>
        <time>2022-02-17T08:59:04Z</time>
      </trkpt>
      <trkpt lat="49.07428" lon="2.10548">
        <ele>87.9</ele>
        <time>2022-02-17T08:59:08Z</time>
      </trkpt>
      <trkpt lat="49.07424" lon="2.10553">
        <ele>88</ele>
        <time>2022-02-17T08:59:11Z</time>
      </trkpt>
      <trkpt lat="49.07421" lon="2.10557">
        <ele>88.3</ele>
        <time>2022-02-17T08:59:15Z</time>
      </trkpt>
      <trkpt lat="49.07416" lon="2.10561">
        <ele>88.6</ele>
        <time>2022-02-17T08:59:19Z</time>
      </trkpt>
      <trkpt lat="49.07415" lon="2.10571">
        <ele>88.9</ele>
        <time>2022-02-17T08:59:23Z</time>
      </trkpt>
      <trkpt lat="49.07416" lon="2.10578">
        <ele>88.9</ele>
        <time>2022-02-17T08:59:26Z</time>
      </trkpt>
      <trkpt lat="49.07419" lon="2.10585">
        <ele>88.3</ele>
        <time>2022-02-17T08:59:31Z</time>
      </trkpt>
      <trkpt lat="49.07423" lon="2.10592">
        <ele>87.1</ele>
        <time>2022-02-17T08:59:35Z</time>
      </trkpt>
      <trkpt lat="49.07428" lon="2.10597">
        <ele>86.1</ele>
        <time>2022-02-17T08:59:40Z</time>
      </trkpt>
      <trkpt lat="49.07433" lon="2.10603">
        <ele>85.1</ele>
        <time>2022-02-17T08:59:45Z</time>
      </trkpt>
      <trkpt lat="49.07438" lon="2.10609">
        <ele>84.3</ele>
        <time>2022-02-17T08:59:49Z</time>
      </trkpt>
      <trkpt lat="49.07442" lon="2.10613">
        <ele>84.1</ele>
        <time>2022-02-17T08:59:53Z</time>
      </trkpt>
      <trkpt lat="49.07458" lon="2.10634">
        <ele>84.7</ele>
        <time>2022-02-17T09:00:09Z</time>
      </trkpt>
      <trkpt lat="49.07461" lon="2.10641">
        <ele>84.8</ele>
        <time>2022-02-17T09:00:13Z</time>
      </trkpt>
      <trkpt lat="49.07477" lon="2.10676">
        <ele>85.4</ele>
        <time>2022-02-17T09:00:33Z</time>
      </trkpt>
      <trkpt lat="49.07477" lon="2.10684">
        <ele>86</ele>
        <time>2022-02-17T09:00:38Z</time>
      </trkpt>
      <trkpt lat="49.07471" lon="2.10688">
        <ele>85.7</ele>
        <time>2022-02-17T09:00:43Z</time>
      </trkpt>
      <trkpt lat="49.07466" lon="2.10691">
        <ele>85.3</ele>
        <time>2022-02-17T09:00:47Z</time>
      </trkpt>
      <trkpt lat="49.07462" lon="2.10692">
        <ele>84.7</ele>
        <time>2022-02-17T09:00:50Z</time>
      </trkpt>
      <trkpt lat="49.07458" lon="2.10695">
        <ele>84.1</ele>
        <time>2022-02-17T09:00:53Z</time>
      </trkpt>
      <trkpt lat="49.07454" lon="2.10699">
        <ele>83.9</ele>
        <time>2022-02-17T09:00:56Z</time>
      </trkpt>
      <trkpt lat="49.07449" lon="2.10704">
        <ele>83.7</ele>
        <time>2022-02-17T09:00:59Z</time>
      </trkpt>
      <trkpt lat="49.07444" lon="2.10709">
        <ele>83.9</ele>
        <time>2022-02-17T09:01:03Z</time>
      </trkpt>
      <trkpt lat="49.07439" lon="2.10713">
        <ele>85.6</ele>
        <time>2022-02-17T09:01:07Z</time>
      </trkpt>
      <trkpt lat="49.07433" lon="2.10716">
        <ele>87.4</ele>
        <time>2022-02-17T09:01:11Z</time>
      </trkpt>
      <trkpt lat="49.07429" lon="2.10719">
        <ele>87.6</ele>
        <time>2022-02-17T09:01:15Z</time>
      </trkpt>
      <trkpt lat="49.07424" lon="2.10723">
        <ele>87</ele>
        <time>2022-02-17T09:01:19Z</time>
      </trkpt>
      <trkpt lat="49.0742" lon="2.10726">
        <ele>86.5</ele>
        <time>2022-02-17T09:01:23Z</time>
      </trkpt>
      <trkpt lat="49.07415" lon="2.1073">
        <ele>86.4</ele>
        <time>2022-02-17T09:01:27Z</time>
      </trkpt>
      <trkpt lat="49.0741" lon="2.10733">
        <ele>87.2</ele>
        <time>2022-02-17T09:01:30Z</time>
      </trkpt>
      <trkpt lat="49.07405" lon="2.10737">
        <ele>87.9</ele>
        <time>2022-02-17T09:01:34Z</time>
      </trkpt>
      <trkpt lat="49.074" lon="2.10742">
        <ele>86.8</ele>
        <time>2022-02-17T09:01:38Z</time>
      </trkpt>
      <trkpt lat="49.07396" lon="2.10746">
        <ele>85.8</ele>
        <time>2022-02-17T09:01:42Z</time>
      </trkpt>
      <trkpt lat="49.07391" lon="2.10749">
        <ele>85.3</ele>
        <time>2022-02-17T09:01:46Z</time>
      </trkpt>
      <trkpt lat="49.07386" lon="2.10753">
        <ele>85.3</ele>
        <time>2022-02-17T09:01:51Z</time>
      </trkpt>
      <trkpt lat="49.07382" lon="2.10756">
        <ele>85.3</ele>
        <time>2022-02-17T09:01:54Z</time>
      </trkpt>
      <trkpt lat="49.07377" lon="2.10761">
        <ele>85.3</ele>
        <time>2022-02-17T09:01:58Z</time>
      </trkpt>
      <trkpt lat="49.07373" lon="2.10766">
        <ele>85.2</ele>
        <time>2022-02-17T09:02:02Z</time>
      </trkpt>
      <trkpt lat="49.07368" lon="2.1077">
        <ele>85</ele>
        <time>2022-02-17T09:02:05Z</time>
      </trkpt>
      <trkpt lat="49.07364" lon="2.10775">
        <ele>84.7</ele>
        <time>2022-02-17T09:02:09Z</time>
      </trkpt>
      <trkpt lat="49.0736" lon="2.1078">
        <ele>84.4</ele>
        <time>2022-02-17T09:02:13Z</time>
      </trkpt>
      <trkpt lat="49.07355" lon="2.10783">
        <ele>83.5</ele>
        <time>2022-02-17T09:02:17Z</time>
      </trkpt>
      <trkpt lat="49.07351" lon="2.10788">
        <ele>82.7</ele>
        <time>2022-02-17T09:02:20Z</time>
      </trkpt>
      <trkpt lat="49.07346" lon="2.10793">
        <ele>82.9</ele>
        <time>2022-02-17T09:02:24Z</time>
      </trkpt>
      <trkpt lat="49.07341" lon="2.10797">
        <ele>83</ele>
        <time>2022-02-17T09:02:28Z</time>
      </trkpt>
      <trkpt lat="49.07336" lon="2.10801">
        <ele>83</ele>
        <time>2022-02-17T09:02:33Z</time>
      </trkpt>
      <trkpt lat="49.0733" lon="2.10804">
        <ele>82.9</ele>
        <time>2022-02-17T09:02:37Z</time>
      </trkpt>
      <trkpt lat="49.07325" lon="2.10808">
        <ele>83</ele>
        <time>2022-02-17T09:02:41Z</time>
      </trkpt>
      <trkpt lat="49.07321" lon="2.10812">
        <ele>82.9</ele>
        <time>2022-02-17T09:02:45Z</time>
      </trkpt>
      <trkpt lat="49.07316" lon="2.10816">
        <ele>82.7</ele>
        <time>2022-02-17T09:02:50Z</time>
      </trkpt>
      <trkpt lat="49.07312" lon="2.10819">
        <ele>82.7</ele>
        <time>2022-02-17T09:02:53Z</time>
      </trkpt>
      <trkpt lat="49.07308" lon="2.10821">
        <ele>82.8</ele>
        <time>2022-02-17T09:02:56Z</time>
      </trkpt>
      <trkpt lat="49.07303" lon="2.10823">
        <ele>82.9</ele>
        <time>2022-02-17T09:03:00Z</time>
      </trkpt>
      <trkpt lat="49.07298" lon="2.10827">
        <ele>83.1</ele>
        <time>2022-02-17T09:03:04Z</time>
      </trkpt>
      <trkpt lat="49.07293" lon="2.10828">
        <ele>83.1</ele>
        <time>2022-02-17T09:03:07Z</time>
      </trkpt>
      <trkpt lat="49.07288" lon="2.10832">
        <ele>82.6</ele>
        <time>2022-02-17T09:03:11Z</time>
      </trkpt>
      <trkpt lat="49.07283" lon="2.10836">
        <ele>81.4</ele>
        <time>2022-02-17T09:03:15Z</time>
      </trkpt>
      <trkpt lat="49.07279" lon="2.10841">
        <ele>80.6</ele>
        <time>2022-02-17T09:03:19Z</time>
      </trkpt>
      <trkpt lat="49.07275" lon="2.10844">
        <ele>81.1</ele>
        <time>2022-02-17T09:03:23Z</time>
      </trkpt>
      <trkpt lat="49.0727" lon="2.10844">
        <ele>82.1</ele>
        <time>2022-02-17T09:03:27Z</time>
      </trkpt>
      <trkpt lat="49.07266" lon="2.10841">
        <ele>82.6</ele>
        <time>2022-02-17T09:03:30Z</time>
      </trkpt>
      <trkpt lat="49.07261" lon="2.1084">
        <ele>82.9</ele>
        <time>2022-02-17T09:03:34Z</time>
      </trkpt>
      <trkpt lat="49.07256" lon="2.10841">
        <ele>82.8</ele>
        <time>2022-02-17T09:03:39Z</time>
      </trkpt>
      <trkpt lat="49.0725" lon="2.10842">
        <ele>82.2</ele>
        <time>2022-02-17T09:03:43Z</time>
      </trkpt>
      <trkpt lat="49.07246" lon="2.10847">
        <ele>80.8</ele>
        <time>2022-02-17T09:03:47Z</time>
      </trkpt>
      <trkpt lat="49.07242" lon="2.10851">
        <ele>79.8</ele>
        <time>2022-02-17T09:03:51Z</time>
      </trkpt>
      <trkpt lat="49.07238" lon="2.10856">
        <ele>79</ele>
        <time>2022-02-17T09:03:55Z</time>
      </trkpt>
      <trkpt lat="49.07234" lon="2.10859">
        <ele>78.8</ele>
        <time>2022-02-17T09:03:59Z</time>
      </trkpt>
      <trkpt lat="49.07229" lon="2.1086">
        <ele>78.6</ele>
        <time>2022-02-17T09:04:03Z</time>
      </trkpt>
      <trkpt lat="49.07224" lon="2.10862">
        <ele>78.6</ele>
        <time>2022-02-17T09:04:06Z</time>
      </trkpt>
      <trkpt lat="49.0722" lon="2.10864">
        <ele>78.4</ele>
        <time>2022-02-17T09:04:10Z</time>
      </trkpt>
      <trkpt lat="49.07215" lon="2.10865">
        <ele>78.3</ele>
        <time>2022-02-17T09:04:14Z</time>
      </trkpt>
      <trkpt lat="49.0721" lon="2.10867">
        <ele>77.8</ele>
        <time>2022-02-17T09:04:18Z</time>
      </trkpt>
      <trkpt lat="49.07206" lon="2.10869">
        <ele>77.1</ele>
        <time>2022-02-17T09:04:23Z</time>
      </trkpt>
      <trkpt lat="49.07201" lon="2.10872">
        <ele>76.4</ele>
        <time>2022-02-17T09:04:27Z</time>
      </trkpt>
      <trkpt lat="49.07197" lon="2.10874">
        <ele>75.7</ele>
        <time>2022-02-17T09:04:30Z</time>
      </trkpt>
      <trkpt lat="49.07192" lon="2.10876">
        <ele>75.5</ele>
        <time>2022-02-17T09:04:34Z</time>
      </trkpt>
      <trkpt lat="49.07187" lon="2.10878">
        <ele>76.2</ele>
        <time>2022-02-17T09:04:38Z</time>
      </trkpt>
      <trkpt lat="49.07182" lon="2.10881">
        <ele>77.2</ele>
        <time>2022-02-17T09:04:42Z</time>
      </trkpt>
      <trkpt lat="49.07177" lon="2.10884">
        <ele>77.2</ele>
        <time>2022-02-17T09:04:46Z</time>
      </trkpt>
      <trkpt lat="49.07172" lon="2.10885">
        <ele>76.9</ele>
        <time>2022-02-17T09:04:51Z</time>
      </trkpt>
      <trkpt lat="49.07167" lon="2.10887">
        <ele>76.3</ele>
        <time>2022-02-17T09:04:55Z</time>
      </trkpt>
      <trkpt lat="49.07162" lon="2.1089">
        <ele>75.1</ele>
        <time>2022-02-17T09:04:59Z</time>
      </trkpt>
      <trkpt lat="49.07157" lon="2.10893">
        <ele>74.8</ele>
        <time>2022-02-17T09:05:03Z</time>
      </trkpt>
      <trkpt lat="49.07153" lon="2.10895">
        <ele>75.2</ele>
        <time>2022-02-17T09:05:08Z</time>
      </trkpt>
      <trkpt lat="49.07156" lon="2.10903">
        <ele>76.6</ele>
        <time>2022-02-17T09:05:14Z</time>
      </trkpt>
      <trkpt lat="49.07161" lon="2.10901">
        <ele>76.8</ele>
        <time>2022-02-17T09:05:18Z</time>
      </trkpt>
      <trkpt lat="49.07166" lon="2.10901">
        <ele>76</ele>
        <time>2022-02-17T09:05:21Z</time>
      </trkpt>
      <trkpt lat="49.07171" lon="2.10905">
        <ele>74.9</ele>
        <time>2022-02-17T09:05:24Z</time>
      </trkpt>
      <trkpt lat="49.07175" lon="2.10908">
        <ele>74.3</ele>
        <time>2022-02-17T09:05:28Z</time>
      </trkpt>
      <trkpt lat="49.07179" lon="2.10912">
        <ele>75</ele>
        <time>2022-02-17T09:05:33Z</time>
      </trkpt>
      <trkpt lat="49.07183" lon="2.10916">
        <ele>75.4</ele>
        <time>2022-02-17T09:05:37Z</time>
      </trkpt>
      <trkpt lat="49.07187" lon="2.10921">
        <ele>75.6</ele>
        <time>2022-02-17T09:05:42Z</time>
      </trkpt>
      <trkpt lat="49.07192" lon="2.10926">
        <ele>75.9</ele>
        <time>2022-02-17T09:05:46Z</time>
      </trkpt>
      <trkpt lat="49.07195" lon="2.10931">
        <ele>76.4</ele>
        <time>2022-02-17T09:05:50Z</time>
      </trkpt>
      <trkpt lat="49.07198" lon="2.10936">
        <ele>76.3</ele>
        <time>2022-02-17T09:05:54Z</time>
      </trkpt>
      <trkpt lat="49.07202" lon="2.1094">
        <ele>75.4</ele>
        <time>2022-02-17T09:05:59Z</time>
      </trkpt>
      <trkpt lat="49.07206" lon="2.10944">
        <ele>74.5</ele>
        <time>2022-02-17T09:06:03Z</time>
      </trkpt>
      <trkpt lat="49.0721" lon="2.10948">
        <ele>74.7</ele>
        <time>2022-02-17T09:06:07Z</time>
      </trkpt>
      <trkpt lat="49.07214" lon="2.10953">
        <ele>76</ele>
        <time>2022-02-17T09:06:11Z</time>
      </trkpt>
      <trkpt lat="49.07218" lon="2.10958">
        <ele>76.8</ele>
        <time>2022-02-17T09:06:16Z</time>
      </trkpt>
      <trkpt lat="49.07222" lon="2.10963">
        <ele>77.7</ele>
        <time>2022-02-17T09:06:20Z</time>
      </trkpt>
      <trkpt lat="49.07226" lon="2.10969">
        <ele>78.2</ele>
        <time>2022-02-17T09:06:24Z</time>
      </trkpt>
      <trkpt lat="49.07229" lon="2.10975">
        <ele>78.3</ele>
        <time>2022-02-17T09:06:29Z</time>
      </trkpt>
      <trkpt lat="49.07232" lon="2.1098">
        <ele>79.1</ele>
        <time>2022-02-17T09:06:35Z</time>
      </trkpt>
      <trkpt lat="49.07237" lon="2.10982">
        <ele>79.7</ele>
        <time>2022-02-17T09:06:39Z</time>
      </trkpt>
      <trkpt lat="49.07241" lon="2.10984">
        <ele>80</ele>
        <time>2022-02-17T09:06:44Z</time>
      </trkpt>
      <trkpt lat="49.07246" lon="2.10986">
        <ele>79.4</ele>
        <time>2022-02-17T09:06:49Z</time>
      </trkpt>
      <trkpt lat="49.0725" lon="2.1099">
        <ele>78.6</ele>
        <time>2022-02-17T09:06:55Z</time>
      </trkpt>
      <trkpt lat="49.07252" lon="2.10998">
        <ele>78.2</ele>
        <time>2022-02-17T09:06:59Z</time>
      </trkpt>
      <trkpt lat="49.07255" lon="2.11004">
        <ele>77.6</ele>
        <time>2022-02-17T09:07:03Z</time>
      </trkpt>
      <trkpt lat="49.07259" lon="2.11007">
        <ele>77</ele>
        <time>2022-02-17T09:07:08Z</time>
      </trkpt>
      <trkpt lat="49.07264" lon="2.11012">
        <ele>77</ele>
        <time>2022-02-17T09:07:12Z</time>
      </trkpt>
      <trkpt lat="49.07267" lon="2.11017">
        <ele>77.3</ele>
        <time>2022-02-17T09:07:16Z</time>
      </trkpt>
      <trkpt lat="49.0727" lon="2.11024">
        <ele>77.8</ele>
        <time>2022-02-17T09:07:19Z</time>
      </trkpt>
      <trkpt lat="49.07275" lon="2.11028">
        <ele>77.9</ele>
        <time>2022-02-17T09:07:23Z</time>
      </trkpt>
      <trkpt lat="49.0728" lon="2.11032">
        <ele>78.1</ele>
        <time>2022-02-17T09:07:27Z</time>
      </trkpt>
      <trkpt lat="49.07284" lon="2.11037">
        <ele>78.2</ele>
        <time>2022-02-17T09:07:31Z</time>
      </trkpt>
      <trkpt lat="49.07289" lon="2.11041">
        <ele>78.7</ele>
        <time>2022-02-17T09:07:35Z</time>
      </trkpt>
      <trkpt lat="49.07293" lon="2.11046">
        <ele>78.3</ele>
        <time>2022-02-17T09:07:40Z</time>
      </trkpt>
      <trkpt lat="49.07297" lon="2.11051">
        <ele>78.2</ele>
        <time>2022-02-17T09:07:45Z</time>
      </trkpt>
      <trkpt lat="49.07302" lon="2.11055">
        <ele>78.6</ele>
        <time>2022-02-17T09:07:49Z</time>
      </trkpt>
      <trkpt lat="49.07307" lon="2.11058">
        <ele>79.9</ele>
        <time>2022-02-17T09:07:54Z</time>
      </trkpt>
      <trkpt lat="49.07313" lon="2.1106">
        <ele>80.7</ele>
        <time>2022-02-17T09:07:59Z</time>
      </trkpt>
      <trkpt lat="49.07317" lon="2.11064">
        <ele>80.8</ele>
        <time>2022-02-17T09:08:03Z</time>
      </trkpt>
      <trkpt lat="49.07322" lon="2.11068">
        <ele>80.6</ele>
        <time>2022-02-17T09:08:08Z</time>
      </trkpt>
      <trkpt lat="49.07326" lon="2.11071">
        <ele>81</ele>
        <time>2022-02-17T09:08:12Z</time>
      </trkpt>
      <trkpt lat="49.07331" lon="2.11076">
        <ele>82</ele>
        <time>2022-02-17T09:08:15Z</time>
      </trkpt>
      <trkpt lat="49.07335" lon="2.1108">
        <ele>83</ele>
        <time>2022-02-17T09:08:19Z</time>
      </trkpt>
      <trkpt lat="49.07339" lon="2.11085">
        <ele>83.5</ele>
        <time>2022-02-17T09:08:24Z</time>
      </trkpt>
      <trkpt lat="49.07344" lon="2.1109">
        <ele>83.9</ele>
        <time>2022-02-17T09:08:28Z</time>
      </trkpt>
      <trkpt lat="49.07348" lon="2.11094">
        <ele>84.2</ele>
        <time>2022-02-17T09:08:32Z</time>
      </trkpt>
      <trkpt lat="49.07353" lon="2.111">
        <ele>84.8</ele>
        <time>2022-02-17T09:08:36Z</time>
      </trkpt>
      <trkpt lat="49.07357" lon="2.11105">
        <ele>85.6</ele>
        <time>2022-02-17T09:08:40Z</time>
      </trkpt>
      <trkpt lat="49.07361" lon="2.11109">
        <ele>86.6</ele>
        <time>2022-02-17T09:08:44Z</time>
      </trkpt>
      <trkpt lat="49.07366" lon="2.11113">
        <ele>87.1</ele>
        <time>2022-02-17T09:08:48Z</time>
      </trkpt>
      <trkpt lat="49.0737" lon="2.11117">
        <ele>87.2</ele>
        <time>2022-02-17T09:08:52Z</time>
      </trkpt>
      <trkpt lat="49.07374" lon="2.11122">
        <ele>87.3</ele>
        <time>2022-02-17T09:08:56Z</time>
      </trkpt>
      <trkpt lat="49.07379" lon="2.11126">
        <ele>87.3</ele>
        <time>2022-02-17T09:09:00Z</time>
      </trkpt>
      <trkpt lat="49.07382" lon="2.11131">
        <ele>87.3</ele>
        <time>2022-02-17T09:09:04Z</time>
      </trkpt>
      <trkpt lat="49.07386" lon="2.11135">
        <ele>87.5</ele>
        <time>2022-02-17T09:09:08Z</time>
      </trkpt>
      <trkpt lat="49.0739" lon="2.11139">
        <ele>87.5</ele>
        <time>2022-02-17T09:09:12Z</time>
      </trkpt>
      <trkpt lat="49.07395" lon="2.11144">
        <ele>87.5</ele>
        <time>2022-02-17T09:09:16Z</time>
      </trkpt>
      <trkpt lat="49.074" lon="2.11148">
        <ele>87.7</ele>
        <time>2022-02-17T09:09:19Z</time>
      </trkpt>
      <trkpt lat="49.07404" lon="2.11152">
        <ele>88</ele>
        <time>2022-02-17T09:09:23Z</time>
      </trkpt>
      <trkpt lat="49.07408" lon="2.11158">
        <ele>88.2</ele>
        <time>2022-02-17T09:09:27Z</time>
      </trkpt>
      <trkpt lat="49.07412" lon="2.11163">
        <ele>88.5</ele>
        <time>2022-02-17T09:09:31Z</time>
      </trkpt>
      <trkpt lat="49.07417" lon="2.11166">
        <ele>88.6</ele>
        <time>2022-02-17T09:09:35Z</time>
      </trkpt>
      <trkpt lat="49.07421" lon="2.1117">
        <ele>88.8</ele>
        <time>2022-02-17T09:09:39Z</time>
      </trkpt>
      <trkpt lat="49.07425" lon="2.11173">
        <ele>88.7</ele>
        <time>2022-02-17T09:09:43Z</time>
      </trkpt>
      <trkpt lat="49.07429" lon="2.11178">
        <ele>88.6</ele>
        <time>2022-02-17T09:09:48Z</time>
      </trkpt>
      <trkpt lat="49.07434" lon="2.11182">
        <ele>88.5</ele>
        <time>2022-02-17T09:09:52Z</time>
      </trkpt>
      <trkpt lat="49.07438" lon="2.11186">
        <ele>88.5</ele>
        <time>2022-02-17T09:09:56Z</time>
      </trkpt>
      <trkpt lat="49.07442" lon="2.11191">
        <ele>88.8</ele>
        <time>2022-02-17T09:10:00Z</time>
      </trkpt>
      <trkpt lat="49.07445" lon="2.11195">
        <ele>89.2</ele>
        <time>2022-02-17T09:10:04Z</time>
      </trkpt>
      <trkpt lat="49.07449" lon="2.112">
        <ele>89.5</ele>
        <time>2022-02-17T09:10:08Z</time>
      </trkpt>
      <trkpt lat="49.07454" lon="2.11205">
        <ele>89.6</ele>
        <time>2022-02-17T09:10:12Z</time>
      </trkpt>
      <trkpt lat="49.07458" lon="2.1121">
        <ele>89.6</ele>
        <time>2022-02-17T09:10:16Z</time>
      </trkpt>
      <trkpt lat="49.07462" lon="2.11214">
        <ele>89.6</ele>
        <time>2022-02-17T09:10:20Z</time>
      </trkpt>
      <trkpt lat="49.07466" lon="2.1122">
        <ele>89.9</ele>
        <time>2022-02-17T09:10:24Z</time>
      </trkpt>
      <trkpt lat="49.0747" lon="2.11224">
        <ele>90</ele>
        <time>2022-02-17T09:10:29Z</time>
      </trkpt>
      <trkpt lat="49.07475" lon="2.11229">
        <ele>89.9</ele>
        <time>2022-02-17T09:10:33Z</time>
      </trkpt>
      <trkpt lat="49.07479" lon="2.11233">
        <ele>89.9</ele>
        <time>2022-02-17T09:10:37Z</time>
      </trkpt>
      <trkpt lat="49.07483" lon="2.11239">
        <ele>90.2</ele>
        <time>2022-02-17T09:10:41Z</time>
      </trkpt>
      <trkpt lat="49.07487" lon="2.11244">
        <ele>90.6</ele>
        <time>2022-02-17T09:10:45Z</time>
      </trkpt>
      <trkpt lat="49.07492" lon="2.11248">
        <ele>90.8</ele>
        <time>2022-02-17T09:10:49Z</time>
      </trkpt>
      <trkpt lat="49.07496" lon="2.1125">
        <ele>90.9</ele>
        <time>2022-02-17T09:10:53Z</time>
      </trkpt>
      <trkpt lat="49.07501" lon="2.11254">
        <ele>90.8</ele>
        <time>2022-02-17T09:10:57Z</time>
      </trkpt>
      <trkpt lat="49.07506" lon="2.11257">
        <ele>90.5</ele>
        <time>2022-02-17T09:11:01Z</time>
      </trkpt>
      <trkpt lat="49.0751" lon="2.11261">
        <ele>90.2</ele>
        <time>2022-02-17T09:11:06Z</time>
      </trkpt>
      <trkpt lat="49.07515" lon="2.11266">
        <ele>90.2</ele>
        <time>2022-02-17T09:11:09Z</time>
      </trkpt>
      <trkpt lat="49.07519" lon="2.11268">
        <ele>89.4</ele>
        <time>2022-02-17T09:11:17Z</time>
      </trkpt>
      <trkpt lat="49.07523" lon="2.11272">
        <ele>89</ele>
        <time>2022-02-17T09:11:20Z</time>
      </trkpt>
      <trkpt lat="49.07529" lon="2.11277">
        <ele>89.1</ele>
        <time>2022-02-17T09:11:25Z</time>
      </trkpt>
      <trkpt lat="49.07535" lon="2.11282">
        <ele>89.2</ele>
        <time>2022-02-17T09:11:29Z</time>
      </trkpt>
      <trkpt lat="49.0754" lon="2.11286">
        <ele>89.4</ele>
        <time>2022-02-17T09:11:33Z</time>
      </trkpt>
      <trkpt lat="49.07544" lon="2.1129">
        <ele>89.8</ele>
        <time>2022-02-17T09:11:36Z</time>
      </trkpt>
      <trkpt lat="49.07549" lon="2.11294">
        <ele>90.1</ele>
        <time>2022-02-17T09:11:41Z</time>
      </trkpt>
      <trkpt lat="49.07554" lon="2.11298">
        <ele>90.3</ele>
        <time>2022-02-17T09:11:45Z</time>
      </trkpt>
      <trkpt lat="49.07559" lon="2.113">
        <ele>90.4</ele>
        <time>2022-02-17T09:11:49Z</time>
      </trkpt>
      <trkpt lat="49.07564" lon="2.11302">
        <ele>90.5</ele>
        <time>2022-02-17T09:11:53Z</time>
      </trkpt>
      <trkpt lat="49.07568" lon="2.11305">
        <ele>90.6</ele>
        <time>2022-02-17T09:11:57Z</time>
      </trkpt>
      <trkpt lat="49.07571" lon="2.1131">
        <ele>90.8</ele>
        <time>2022-02-17T09:12:02Z</time>
      </trkpt>
      <trkpt lat="49.07575" lon="2.11315">
        <ele>90.6</ele>
        <time>2022-02-17T09:12:06Z</time>
      </trkpt>
      <trkpt lat="49.0758" lon="2.11319">
        <ele>89.9</ele>
        <time>2022-02-17T09:12:10Z</time>
      </trkpt>
      <trkpt lat="49.07585" lon="2.11321">
        <ele>89.7</ele>
        <time>2022-02-17T09:12:13Z</time>
      </trkpt>
      <trkpt lat="49.0759" lon="2.11322">
        <ele>90.3</ele>
        <time>2022-02-17T09:12:18Z</time>
      </trkpt>
      <trkpt lat="49.07596" lon="2.11323">
        <ele>90.3</ele>
        <time>2022-02-17T09:12:22Z</time>
      </trkpt>
      <trkpt lat="49.07601" lon="2.11324">
        <ele>89.8</ele>
        <time>2022-02-17T09:12:26Z</time>
      </trkpt>
      <trkpt lat="49.07605" lon="2.11324">
        <ele>88.8</ele>
        <time>2022-02-17T09:12:29Z</time>
      </trkpt>
      <trkpt lat="49.07611" lon="2.11324">
        <ele>88</ele>
        <time>2022-02-17T09:12:33Z</time>
      </trkpt>
      <trkpt lat="49.07616" lon="2.11324">
        <ele>87.7</ele>
        <time>2022-02-17T09:12:37Z</time>
      </trkpt>
      <trkpt lat="49.07622" lon="2.11321">
        <ele>87.5</ele>
        <time>2022-02-17T09:12:41Z</time>
      </trkpt>
      <trkpt lat="49.07628" lon="2.11322">
        <ele>87.4</ele>
        <time>2022-02-17T09:12:46Z</time>
      </trkpt>
      <trkpt lat="49.07633" lon="2.11323">
        <ele>87.7</ele>
        <time>2022-02-17T09:12:49Z</time>
      </trkpt>
      <trkpt lat="49.07637" lon="2.11324">
        <ele>88.4</ele>
        <time>2022-02-17T09:12:53Z</time>
      </trkpt>
      <trkpt lat="49.07643" lon="2.11323">
        <ele>89.1</ele>
        <time>2022-02-17T09:12:57Z</time>
      </trkpt>
      <trkpt lat="49.07649" lon="2.11322">
        <ele>89</ele>
        <time>2022-02-17T09:13:02Z</time>
      </trkpt>
      <trkpt lat="49.07654" lon="2.11322">
        <ele>88.2</ele>
        <time>2022-02-17T09:13:06Z</time>
      </trkpt>
      <trkpt lat="49.07659" lon="2.11322">
        <ele>87.4</ele>
        <time>2022-02-17T09:13:10Z</time>
      </trkpt>
      <trkpt lat="49.07665" lon="2.11322">
        <ele>87.1</ele>
        <time>2022-02-17T09:13:14Z</time>
      </trkpt>
      <trkpt lat="49.07671" lon="2.1132">
        <ele>87.5</ele>
        <time>2022-02-17T09:13:18Z</time>
      </trkpt>
      <trkpt lat="49.07676" lon="2.11319">
        <ele>88.6</ele>
        <time>2022-02-17T09:13:22Z</time>
      </trkpt>
      <trkpt lat="49.07681" lon="2.11319">
        <ele>89.9</ele>
        <time>2022-02-17T09:13:26Z</time>
      </trkpt>
      <trkpt lat="49.07687" lon="2.1132">
        <ele>90.4</ele>
        <time>2022-02-17T09:13:30Z</time>
      </trkpt>
      <trkpt lat="49.07691" lon="2.11318">
        <ele>90.7</ele>
        <time>2022-02-17T09:13:34Z</time>
      </trkpt>
      <trkpt lat="49.07696" lon="2.11322">
        <ele>90.7</ele>
        <time>2022-02-17T09:13:39Z</time>
      </trkpt>
      <trkpt lat="49.07695" lon="2.1133">
        <ele>90.6</ele>
        <time>2022-02-17T09:13:43Z</time>
      </trkpt>
      <trkpt lat="49.07692" lon="2.11336">
        <ele>90.6</ele>
        <time>2022-02-17T09:13:47Z</time>
      </trkpt>
      <trkpt lat="49.07687" lon="2.1134">
        <ele>90.5</ele>
        <time>2022-02-17T09:13:51Z</time>
      </trkpt>
      <trkpt lat="49.07683" lon="2.11344">
        <ele>90.1</ele>
        <time>2022-02-17T09:13:55Z</time>
      </trkpt>
      <trkpt lat="49.07679" lon="2.11349">
        <ele>89.8</ele>
        <time>2022-02-17T09:13:59Z</time>
      </trkpt>
      <trkpt lat="49.07675" lon="2.11355">
        <ele>89.9</ele>
        <time>2022-02-17T09:14:03Z</time>
      </trkpt>
      <trkpt lat="49.07673" lon="2.11361">
        <ele>89.8</ele>
        <time>2022-02-17T09:14:07Z</time>
      </trkpt>
      <trkpt lat="49.07669" lon="2.11368">
        <ele>89.8</ele>
        <time>2022-02-17T09:14:11Z</time>
      </trkpt>
      <trkpt lat="49.07666" lon="2.11375">
        <ele>89.4</ele>
        <time>2022-02-17T09:14:16Z</time>
      </trkpt>
      <trkpt lat="49.07663" lon="2.1138">
        <ele>89.1</ele>
        <time>2022-02-17T09:14:19Z</time>
      </trkpt>
      <trkpt lat="49.0766" lon="2.11386">
        <ele>89</ele>
        <time>2022-02-17T09:14:22Z</time>
      </trkpt>
      <trkpt lat="49.07658" lon="2.11392">
        <ele>89.9</ele>
        <time>2022-02-17T09:14:28Z</time>
      </trkpt>
      <trkpt lat="49.07654" lon="2.11397">
        <ele>90.4</ele>
        <time>2022-02-17T09:14:31Z</time>
      </trkpt>
      <trkpt lat="49.0765" lon="2.11403">
        <ele>90.7</ele>
        <time>2022-02-17T09:14:34Z</time>
      </trkpt>
      <trkpt lat="49.07647" lon="2.11408">
        <ele>90.7</ele>
        <time>2022-02-17T09:14:37Z</time>
      </trkpt>
      <trkpt lat="49.07643" lon="2.11415">
        <ele>90.7</ele>
        <time>2022-02-17T09:14:41Z</time>
      </trkpt>
      <trkpt lat="49.0764" lon="2.11421">
        <ele>90.7</ele>
        <time>2022-02-17T09:14:45Z</time>
      </trkpt>
      <trkpt lat="49.07637" lon="2.11427">
        <ele>90.7</ele>
        <time>2022-02-17T09:14:48Z</time>
      </trkpt>
      <trkpt lat="49.07634" lon="2.11432">
        <ele>90.6</ele>
        <time>2022-02-17T09:14:52Z</time>
      </trkpt>
      <trkpt lat="49.07631" lon="2.11438">
        <ele>90.4</ele>
        <time>2022-02-17T09:14:55Z</time>
      </trkpt>
      <trkpt lat="49.07628" lon="2.11444">
        <ele>90.2</ele>
        <time>2022-02-17T09:14:59Z</time>
      </trkpt>
      <trkpt lat="49.07624" lon="2.1145">
        <ele>90.3</ele>
        <time>2022-02-17T09:15:03Z</time>
      </trkpt>
      <trkpt lat="49.07621" lon="2.11457">
        <ele>90.2</ele>
        <time>2022-02-17T09:15:07Z</time>
      </trkpt>
      <trkpt lat="49.07618" lon="2.11463">
        <ele>90</ele>
        <time>2022-02-17T09:15:10Z</time>
      </trkpt>
      <trkpt lat="49.07615" lon="2.11468">
        <ele>89.7</ele>
        <time>2022-02-17T09:15:14Z</time>
      </trkpt>
      <trkpt lat="49.07611" lon="2.11475">
        <ele>89.5</ele>
        <time>2022-02-17T09:15:18Z</time>
      </trkpt>
      <trkpt lat="49.07608" lon="2.11482">
        <ele>89.4</ele>
        <time>2022-02-17T09:15:22Z</time>
      </trkpt>
      <trkpt lat="49.07605" lon="2.11488">
        <ele>89.4</ele>
        <time>2022-02-17T09:15:26Z</time>
      </trkpt>
      <trkpt lat="49.07601" lon="2.11495">
        <ele>89.2</ele>
        <time>2022-02-17T09:15:30Z</time>
      </trkpt>
      <trkpt lat="49.07597" lon="2.115">
        <ele>89.1</ele>
        <time>2022-02-17T09:15:34Z</time>
      </trkpt>
      <trkpt lat="49.07594" lon="2.11506">
        <ele>88.9</ele>
        <time>2022-02-17T09:15:38Z</time>
      </trkpt>
      <trkpt lat="49.07591" lon="2.11512">
        <ele>89</ele>
        <time>2022-02-17T09:15:42Z</time>
      </trkpt>
      <trkpt lat="49.07588" lon="2.11519">
        <ele>88.9</ele>
        <time>2022-02-17T09:15:46Z</time>
      </trkpt>
      <trkpt lat="49.07585" lon="2.11525">
        <ele>88.8</ele>
        <time>2022-02-17T09:15:50Z</time>
      </trkpt>
      <trkpt lat="49.07581" lon="2.11532">
        <ele>88</ele>
        <time>2022-02-17T09:15:54Z</time>
      </trkpt>
      <trkpt lat="49.07578" lon="2.11538">
        <ele>87.6</ele>
        <time>2022-02-17T09:15:59Z</time>
      </trkpt>
      <trkpt lat="49.07575" lon="2.11544">
        <ele>87.6</ele>
        <time>2022-02-17T09:16:03Z</time>
      </trkpt>
      <trkpt lat="49.07571" lon="2.1155">
        <ele>87.7</ele>
        <time>2022-02-17T09:16:06Z</time>
      </trkpt>
      <trkpt lat="49.07567" lon="2.11557">
        <ele>87.5</ele>
        <time>2022-02-17T09:16:11Z</time>
      </trkpt>
      <trkpt lat="49.07563" lon="2.11565">
        <ele>86.9</ele>
        <time>2022-02-17T09:16:16Z</time>
      </trkpt>
      <trkpt lat="49.07559" lon="2.11571">
        <ele>86.5</ele>
        <time>2022-02-17T09:16:20Z</time>
      </trkpt>
      <trkpt lat="49.07556" lon="2.11576">
        <ele>86.7</ele>
        <time>2022-02-17T09:16:24Z</time>
      </trkpt>
      <trkpt lat="49.07552" lon="2.11582">
        <ele>86.9</ele>
        <time>2022-02-17T09:16:28Z</time>
      </trkpt>
      <trkpt lat="49.07548" lon="2.11588">
        <ele>87</ele>
        <time>2022-02-17T09:16:32Z</time>
      </trkpt>
      <trkpt lat="49.07544" lon="2.11594">
        <ele>86.7</ele>
        <time>2022-02-17T09:16:36Z</time>
      </trkpt>
      <trkpt lat="49.07541" lon="2.11601">
        <ele>86</ele>
        <time>2022-02-17T09:16:41Z</time>
      </trkpt>
      <trkpt lat="49.07538" lon="2.11608">
        <ele>85.3</ele>
        <time>2022-02-17T09:16:45Z</time>
      </trkpt>
      <trkpt lat="49.07535" lon="2.11615">
        <ele>85.2</ele>
        <time>2022-02-17T09:16:49Z</time>
      </trkpt>
      <trkpt lat="49.07532" lon="2.1162">
        <ele>85.4</ele>
        <time>2022-02-17T09:16:53Z</time>
      </trkpt>
      <trkpt lat="49.07527" lon="2.11625">
        <ele>85.5</ele>
        <time>2022-02-17T09:16:57Z</time>
      </trkpt>
      <trkpt lat="49.07523" lon="2.11631">
        <ele>85.5</ele>
        <time>2022-02-17T09:17:02Z</time>
      </trkpt>
      <trkpt lat="49.07518" lon="2.11636">
        <ele>85.3</ele>
        <time>2022-02-17T09:17:06Z</time>
      </trkpt>
      <trkpt lat="49.07515" lon="2.11642">
        <ele>85.2</ele>
        <time>2022-02-17T09:17:09Z</time>
      </trkpt>
      <trkpt lat="49.07513" lon="2.11648">
        <ele>85.1</ele>
        <time>2022-02-17T09:17:12Z</time>
      </trkpt>
      <trkpt lat="49.07509" lon="2.11656">
        <ele>84.7</ele>
        <time>2022-02-17T09:17:17Z</time>
      </trkpt>
      <trkpt lat="49.07506" lon="2.11661">
        <ele>84.3</ele>
        <time>2022-02-17T09:17:22Z</time>
      </trkpt>
      <trkpt lat="49.07503" lon="2.11669">
        <ele>83.7</ele>
        <time>2022-02-17T09:17:27Z</time>
      </trkpt>
      <trkpt lat="49.07499" lon="2.11674">
        <ele>83.5</ele>
        <time>2022-02-17T09:17:31Z</time>
      </trkpt>
      <trkpt lat="49.07495" lon="2.1168">
        <ele>83.4</ele>
        <time>2022-02-17T09:17:35Z</time>
      </trkpt>
      <trkpt lat="49.07492" lon="2.11687">
        <ele>83.2</ele>
        <time>2022-02-17T09:17:39Z</time>
      </trkpt>
      <trkpt lat="49.07489" lon="2.11694">
        <ele>82.9</ele>
        <time>2022-02-17T09:17:43Z</time>
      </trkpt>
      <trkpt lat="49.07485" lon="2.11701">
        <ele>83</ele>
        <time>2022-02-17T09:17:46Z</time>
      </trkpt>
      <trkpt lat="49.07482" lon="2.11707">
        <ele>83.3</ele>
        <time>2022-02-17T09:17:50Z</time>
      </trkpt>
      <trkpt lat="49.07478" lon="2.11712">
        <ele>83.7</ele>
        <time>2022-02-17T09:17:54Z</time>
      </trkpt>
      <trkpt lat="49.07475" lon="2.11718">
        <ele>84.1</ele>
        <time>2022-02-17T09:17:57Z</time>
      </trkpt>
      <trkpt lat="49.07472" lon="2.11724">
        <ele>84.3</ele>
        <time>2022-02-17T09:18:01Z</time>
      </trkpt>
      <trkpt lat="49.07468" lon="2.1173">
        <ele>84.1</ele>
        <time>2022-02-17T09:18:05Z</time>
      </trkpt>
      <trkpt lat="49.07466" lon="2.11736">
        <ele>83.8</ele>
        <time>2022-02-17T09:18:09Z</time>
      </trkpt>
      <trkpt lat="49.07463" lon="2.11743">
        <ele>83.3</ele>
        <time>2022-02-17T09:18:13Z</time>
      </trkpt>
      <trkpt lat="49.0746" lon="2.11749">
        <ele>82.4</ele>
        <time>2022-02-17T09:18:17Z</time>
      </trkpt>
      <trkpt lat="49.07456" lon="2.11754">
        <ele>81.6</ele>
        <time>2022-02-17T09:18:21Z</time>
      </trkpt>
      <trkpt lat="49.07453" lon="2.1176">
        <ele>80.6</ele>
        <time>2022-02-17T09:18:25Z</time>
      </trkpt>
      <trkpt lat="49.0745" lon="2.11767">
        <ele>80</ele>
        <time>2022-02-17T09:18:29Z</time>
      </trkpt>
      <trkpt lat="49.07447" lon="2.11772">
        <ele>79.9</ele>
        <time>2022-02-17T09:18:33Z</time>
      </trkpt>
      <trkpt lat="49.07441" lon="2.11777">
        <ele>80.1</ele>
        <time>2022-02-17T09:18:37Z</time>
      </trkpt>
      <trkpt lat="49.07438" lon="2.11782">
        <ele>80.3</ele>
        <time>2022-02-17T09:18:41Z</time>
      </trkpt>
      <trkpt lat="49.07435" lon="2.11788">
        <ele>81.1</ele>
        <time>2022-02-17T09:18:53Z</time>
      </trkpt>
      <trkpt lat="49.07432" lon="2.11794">
        <ele>81.3</ele>
        <time>2022-02-17T09:18:58Z</time>
      </trkpt>
      <trkpt lat="49.07432" lon="2.11801">
        <ele>82.1</ele>
        <time>2022-02-17T09:19:21Z</time>
      </trkpt>
      <trkpt lat="49.0743" lon="2.11809">
        <ele>82.1</ele>
        <time>2022-02-17T09:19:27Z</time>
      </trkpt>
      <trkpt lat="49.07429" lon="2.11816">
        <ele>80.9</ele>
        <time>2022-02-17T09:19:32Z</time>
      </trkpt>
      <trkpt lat="49.07425" lon="2.11821">
        <ele>79.9</ele>
        <time>2022-02-17T09:19:37Z</time>
      </trkpt>
      <trkpt lat="49.07422" lon="2.11827">
        <ele>79.2</ele>
        <time>2022-02-17T09:19:41Z</time>
      </trkpt>
      <trkpt lat="49.07421" lon="2.11834">
        <ele>78.5</ele>
        <time>2022-02-17T09:19:45Z</time>
      </trkpt>
      <trkpt lat="49.07419" lon="2.11842">
        <ele>77.2</ele>
        <time>2022-02-17T09:19:50Z</time>
      </trkpt>
      <trkpt lat="49.07418" lon="2.11849">
        <ele>75.4</ele>
        <time>2022-02-17T09:19:54Z</time>
      </trkpt>
      <trkpt lat="49.07416" lon="2.11858">
        <ele>74.4</ele>
        <time>2022-02-17T09:19:59Z</time>
      </trkpt>
      <trkpt lat="49.07415" lon="2.11866">
        <ele>74.1</ele>
        <time>2022-02-17T09:20:04Z</time>
      </trkpt>
      <trkpt lat="49.07413" lon="2.11873">
        <ele>74</ele>
        <time>2022-02-17T09:20:08Z</time>
      </trkpt>
      <trkpt lat="49.07411" lon="2.1188">
        <ele>74</ele>
        <time>2022-02-17T09:20:11Z</time>
      </trkpt>
      <trkpt lat="49.07409" lon="2.11888">
        <ele>73.5</ele>
        <time>2022-02-17T09:20:15Z</time>
      </trkpt>
      <trkpt lat="49.07408" lon="2.11896">
        <ele>72.9</ele>
        <time>2022-02-17T09:20:20Z</time>
      </trkpt>
      <trkpt lat="49.07407" lon="2.11903">
        <ele>72.4</ele>
        <time>2022-02-17T09:20:24Z</time>
      </trkpt>
      <trkpt lat="49.07406" lon="2.11909">
        <ele>72</ele>
        <time>2022-02-17T09:20:28Z</time>
      </trkpt>
      <trkpt lat="49.07405" lon="2.11917">
        <ele>71.2</ele>
        <time>2022-02-17T09:20:31Z</time>
      </trkpt>
      <trkpt lat="49.07406" lon="2.11925">
        <ele>70.4</ele>
        <time>2022-02-17T09:20:35Z</time>
      </trkpt>
      <trkpt lat="49.07405" lon="2.11933">
        <ele>69.8</ele>
        <time>2022-02-17T09:20:40Z</time>
      </trkpt>
      <trkpt lat="49.07404" lon="2.11941">
        <ele>69.4</ele>
        <time>2022-02-17T09:20:43Z</time>
      </trkpt>
      <trkpt lat="49.07404" lon="2.11948">
        <ele>68.6</ele>
        <time>2022-02-17T09:20:47Z</time>
      </trkpt>
      <trkpt lat="49.07403" lon="2.11956">
        <ele>67.7</ele>
        <time>2022-02-17T09:20:52Z</time>
      </trkpt>
      <trkpt lat="49.07403" lon="2.11963">
        <ele>66.8</ele>
        <time>2022-02-17T09:20:56Z</time>
      </trkpt>
      <trkpt lat="49.07403" lon="2.11971">
        <ele>66</ele>
        <time>2022-02-17T09:21:00Z</time>
      </trkpt>
      <trkpt lat="49.07403" lon="2.11979">
        <ele>65.2</ele>
        <time>2022-02-17T09:21:04Z</time>
      </trkpt>
      <trkpt lat="49.07402" lon="2.11986">
        <ele>64.3</ele>
        <time>2022-02-17T09:21:08Z</time>
      </trkpt>
      <trkpt lat="49.074" lon="2.11995">
        <ele>63.6</ele>
        <time>2022-02-17T09:21:13Z</time>
      </trkpt>
      <trkpt lat="49.074" lon="2.12002">
        <ele>63.3</ele>
        <time>2022-02-17T09:21:16Z</time>
      </trkpt>
      <trkpt lat="49.07399" lon="2.1201">
        <ele>63.1</ele>
        <time>2022-02-17T09:21:21Z</time>
      </trkpt>
      <trkpt lat="49.07398" lon="2.12017">
        <ele>63.3</ele>
        <time>2022-02-17T09:21:24Z</time>
      </trkpt>
      <trkpt lat="49.07396" lon="2.12024">
        <ele>63.5</ele>
        <time>2022-02-17T09:21:28Z</time>
      </trkpt>
      <trkpt lat="49.07394" lon="2.12032">
        <ele>63.7</ele>
        <time>2022-02-17T09:21:32Z</time>
      </trkpt>
      <trkpt lat="49.07392" lon="2.12039">
        <ele>63.8</ele>
        <time>2022-02-17T09:21:36Z</time>
      </trkpt>
      <trkpt lat="49.0739" lon="2.12046">
        <ele>64</ele>
        <time>2022-02-17T09:21:41Z</time>
      </trkpt>
      <trkpt lat="49.07388" lon="2.12054">
        <ele>64.2</ele>
        <time>2022-02-17T09:21:46Z</time>
      </trkpt>
      <trkpt lat="49.07385" lon="2.12062">
        <ele>64.1</ele>
        <time>2022-02-17T09:21:51Z</time>
      </trkpt>
      <trkpt lat="49.07382" lon="2.12068">
        <ele>63.6</ele>
        <time>2022-02-17T09:21:55Z</time>
      </trkpt>
      <trkpt lat="49.07379" lon="2.12074">
        <ele>62.6</ele>
        <time>2022-02-17T09:21:59Z</time>
      </trkpt>
      <trkpt lat="49.07377" lon="2.12081">
        <ele>61.8</ele>
        <time>2022-02-17T09:22:03Z</time>
      </trkpt>
      <trkpt lat="49.07373" lon="2.12087">
        <ele>61.6</ele>
        <time>2022-02-17T09:22:08Z</time>
      </trkpt>
      <trkpt lat="49.0737" lon="2.12093">
        <ele>61.7</ele>
        <time>2022-02-17T09:22:11Z</time>
      </trkpt>
      <trkpt lat="49.07367" lon="2.12098">
        <ele>61.9</ele>
        <time>2022-02-17T09:22:15Z</time>
      </trkpt>
      <trkpt lat="49.07363" lon="2.12104">
        <ele>62.2</ele>
        <time>2022-02-17T09:22:19Z</time>
      </trkpt>
      <trkpt lat="49.07359" lon="2.12109">
        <ele>62.1</ele>
        <time>2022-02-17T09:22:23Z</time>
      </trkpt>
      <trkpt lat="49.07355" lon="2.12113">
        <ele>61.9</ele>
        <time>2022-02-17T09:22:28Z</time>
      </trkpt>
      <trkpt lat="49.07351" lon="2.12117">
        <ele>61</ele>
        <time>2022-02-17T09:22:32Z</time>
      </trkpt>
      <trkpt lat="49.07347" lon="2.12123">
        <ele>60.3</ele>
        <time>2022-02-17T09:22:36Z</time>
      </trkpt>
      <trkpt lat="49.07343" lon="2.12129">
        <ele>60</ele>
        <time>2022-02-17T09:22:41Z</time>
      </trkpt>
      <trkpt lat="49.0734" lon="2.12134">
        <ele>59.7</ele>
        <time>2022-02-17T09:22:45Z</time>
      </trkpt>
      <trkpt lat="49.07337" lon="2.12142">
        <ele>59.4</ele>
        <time>2022-02-17T09:22:50Z</time>
      </trkpt>
      <trkpt lat="49.07336" lon="2.12151">
        <ele>59.1</ele>
        <time>2022-02-17T09:22:56Z</time>
      </trkpt>
      <trkpt lat="49.07337" lon="2.12159">
        <ele>58.2</ele>
        <time>2022-02-17T09:23:00Z</time>
      </trkpt>
      <trkpt lat="49.07339" lon="2.12166">
        <ele>57.5</ele>
        <time>2022-02-17T09:23:05Z</time>
      </trkpt>
      <trkpt lat="49.07343" lon="2.12171">
        <ele>56.9</ele>
        <time>2022-02-17T09:23:10Z</time>
      </trkpt>
      <trkpt lat="49.07343" lon="2.1218">
        <ele>56.2</ele>
        <time>2022-02-17T09:23:14Z</time>
      </trkpt>
      <trkpt lat="49.07343" lon="2.12188">
        <ele>55.2</ele>
        <time>2022-02-17T09:23:18Z</time>
      </trkpt>
      <trkpt lat="49.07343" lon="2.12195">
        <ele>54.5</ele>
        <time>2022-02-17T09:23:22Z</time>
      </trkpt>
      <trkpt lat="49.07344" lon="2.12203">
        <ele>54.1</ele>
        <time>2022-02-17T09:23:26Z</time>
      </trkpt>
      <trkpt lat="49.07343" lon="2.12212">
        <ele>53.5</ele>
        <time>2022-02-17T09:23:31Z</time>
      </trkpt>
      <trkpt lat="49.07338" lon="2.12201">
        <ele>52.1</ele>
        <time>2022-02-17T09:23:37Z</time>
      </trkpt>
      <trkpt lat="49.07338" lon="2.12193">
        <ele>51.7</ele>
        <time>2022-02-17T09:23:39Z</time>
      </trkpt>
      <trkpt lat="49.07338" lon="2.12184">
        <ele>50.9</ele>
        <time>2022-02-17T09:23:45Z</time>
      </trkpt>
      <trkpt lat="49.07341" lon="2.12189">
        <ele>49.4</ele>
        <time>2022-02-17T09:23:49Z</time>
      </trkpt>
      <trkpt lat="49.07342" lon="2.12197">
        <ele>48.5</ele>
        <time>2022-02-17T09:24:02Z</time>
      </trkpt>
      <trkpt lat="49.07343" lon="2.12205">
        <ele>48.5</ele>
        <time>2022-02-17T09:24:07Z</time>
      </trkpt>
      <trkpt lat="49.07344" lon="2.12213">
        <ele>48.2</ele>
        <time>2022-02-17T09:24:11Z</time>
      </trkpt>
      <trkpt lat="49.07341" lon="2.12219">
        <ele>48.1</ele>
        <time>2022-02-17T09:24:20Z</time>
      </trkpt>
      <trkpt lat="49.07343" lon="2.12227">
        <ele>48.5</ele>
        <time>2022-02-17T09:26:52Z</time>
      </trkpt>
      <trkpt lat="49.07343" lon="2.12235">
        <ele>48.9</ele>
        <time>2022-02-17T09:26:57Z</time>
      </trkpt>
      <trkpt lat="49.07344" lon="2.12243">
        <ele>48.5</ele>
        <time>2022-02-17T09:27:01Z</time>
      </trkpt>
      <trkpt lat="49.0734" lon="2.12248">
        <ele>47.3</ele>
        <time>2022-02-17T09:27:06Z</time>
      </trkpt>
      <trkpt lat="49.07341" lon="2.12255">
        <ele>47.3</ele>
        <time>2022-02-17T09:27:11Z</time>
      </trkpt>
      <trkpt lat="49.07343" lon="2.12262">
        <ele>48.4</ele>
        <time>2022-02-17T09:27:16Z</time>
      </trkpt>
      <trkpt lat="49.07343" lon="2.12269">
        <ele>47.9</ele>
        <time>2022-02-17T09:27:20Z</time>
      </trkpt>
      <trkpt lat="49.07344" lon="2.12277">
        <ele>46.8</ele>
        <time>2022-02-17T09:27:24Z</time>
      </trkpt>
      <trkpt lat="49.07345" lon="2.12285">
        <ele>45.5</ele>
        <time>2022-02-17T09:27:28Z</time>
      </trkpt>
      <trkpt lat="49.07346" lon="2.12293">
        <ele>44.7</ele>
        <time>2022-02-17T09:27:33Z</time>
      </trkpt>
      <trkpt lat="49.07345" lon="2.12301">
        <ele>44.7</ele>
        <time>2022-02-17T09:27:38Z</time>
      </trkpt>
      <trkpt lat="49.07342" lon="2.12308">
        <ele>45.8</ele>
        <time>2022-02-17T09:27:43Z</time>
      </trkpt>
      <trkpt lat="49.0734" lon="2.12316">
        <ele>46.9</ele>
        <time>2022-02-17T09:27:47Z</time>
      </trkpt>
      <trkpt lat="49.07341" lon="2.12324">
        <ele>46.7</ele>
        <time>2022-02-17T09:27:52Z</time>
      </trkpt>
      <trkpt lat="49.07339" lon="2.12332">
        <ele>46</ele>
        <time>2022-02-17T09:27:57Z</time>
      </trkpt>
      <trkpt lat="49.07338" lon="2.1234">
        <ele>46.2</ele>
        <time>2022-02-17T09:28:01Z</time>
      </trkpt>
      <trkpt lat="49.07335" lon="2.12347">
        <ele>44.5</ele>
        <time>2022-02-17T09:28:08Z</time>
      </trkpt>
      <trkpt lat="49.07332" lon="2.12354">
        <ele>42.5</ele>
        <time>2022-02-17T09:28:14Z</time>
      </trkpt>
      <trkpt lat="49.07331" lon="2.12361">
        <ele>41.6</ele>
        <time>2022-02-17T09:28:20Z</time>
      </trkpt>
      <trkpt lat="49.07326" lon="2.12363">
        <ele>40.1</ele>
        <time>2022-02-17T09:28:33Z</time>
      </trkpt>
      <trkpt lat="49.07325" lon="2.12372">
        <ele>36.6</ele>
        <time>2022-02-17T09:28:40Z</time>
      </trkpt>
      <trkpt lat="49.07325" lon="2.1238">
        <ele>36.8</ele>
        <time>2022-02-17T09:28:46Z</time>
      </trkpt>
      <trkpt lat="49.07326" lon="2.12388">
        <ele>37.2</ele>
        <time>2022-02-17T09:28:51Z</time>
      </trkpt>
      <trkpt lat="49.07322" lon="2.12385">
        <ele>34.2</ele>
        <time>2022-02-17T09:29:02Z</time>
      </trkpt>
      <trkpt lat="49.07322" lon="2.12393">
        <ele>37.6</ele>
        <time>2022-02-17T09:29:22Z</time>
      </trkpt>
      <trkpt lat="49.07323" lon="2.12401">
        <ele>39.2</ele>
        <time>2022-02-17T09:29:26Z</time>
      </trkpt>
      <trkpt lat="49.07325" lon="2.1241">
        <ele>39.9</ele>
        <time>2022-02-17T09:29:30Z</time>
      </trkpt>
      <trkpt lat="49.07326" lon="2.12418">
        <ele>40.3</ele>
        <time>2022-02-17T09:29:35Z</time>
      </trkpt>
      <trkpt lat="49.07325" lon="2.12426">
        <ele>41.2</ele>
        <time>2022-02-17T09:29:40Z</time>
      </trkpt>
      <trkpt lat="49.07324" lon="2.12433">
        <ele>41.3</ele>
        <time>2022-02-17T09:29:44Z</time>
      </trkpt>
      <trkpt lat="49.07324" lon="2.12441">
        <ele>41.2</ele>
        <time>2022-02-17T09:29:50Z</time>
      </trkpt>
      <trkpt lat="49.07321" lon="2.12447">
        <ele>36.7</ele>
        <time>2022-02-17T09:30:04Z</time>
      </trkpt>
      <trkpt lat="49.0732" lon="2.12454">
        <ele>37.7</ele>
        <time>2022-02-17T09:30:08Z</time>
      </trkpt>
      <trkpt lat="49.0732" lon="2.12463">
        <ele>39.3</ele>
        <time>2022-02-17T09:30:12Z</time>
      </trkpt>
      <trkpt lat="49.0732" lon="2.1247">
        <ele>39.6</ele>
        <time>2022-02-17T09:30:16Z</time>
      </trkpt>
      <trkpt lat="49.07321" lon="2.12478">
        <ele>38.1</ele>
        <time>2022-02-17T09:30:21Z</time>
      </trkpt>
      <trkpt lat="49.07321" lon="2.12485">
        <ele>36.8</ele>
        <time>2022-02-17T09:30:26Z</time>
      </trkpt>
      <trkpt lat="49.07324" lon="2.12493">
        <ele>36.3</ele>
        <time>2022-02-17T09:30:30Z</time>
      </trkpt>
      <trkpt lat="49.07326" lon="2.12501">
        <ele>36.4</ele>
        <time>2022-02-17T09:30:34Z</time>
      </trkpt>
      <trkpt lat="49.07325" lon="2.12509">
        <ele>37.3</ele>
        <time>2022-02-17T09:30:38Z</time>
      </trkpt>
      <trkpt lat="49.07326" lon="2.12516">
        <ele>38.8</ele>
        <time>2022-02-17T09:30:44Z</time>
      </trkpt>
      <trkpt lat="49.07328" lon="2.12522">
        <ele>39.4</ele>
        <time>2022-02-17T09:30:48Z</time>
      </trkpt>
      <trkpt lat="49.07329" lon="2.12529">
        <ele>39.1</ele>
        <time>2022-02-17T09:30:51Z</time>
      </trkpt>
      <trkpt lat="49.0733" lon="2.12537">
        <ele>38.1</ele>
        <time>2022-02-17T09:30:57Z</time>
      </trkpt>
      <trkpt lat="49.07326" lon="2.12541">
        <ele>36.5</ele>
        <time>2022-02-17T09:31:03Z</time>
      </trkpt>
      <trkpt lat="49.07321" lon="2.12545">
        <ele>36.6</ele>
        <time>2022-02-17T09:31:09Z</time>
      </trkpt>
      <trkpt lat="49.07319" lon="2.12551">
        <ele>39</ele>
        <time>2022-02-17T09:31:14Z</time>
      </trkpt>
      <trkpt lat="49.07317" lon="2.12558">
        <ele>39.5</ele>
        <time>2022-02-17T09:31:19Z</time>
      </trkpt>
      <trkpt lat="49.07316" lon="2.12566">
        <ele>38.2</ele>
        <time>2022-02-17T09:31:26Z</time>
      </trkpt>
      <trkpt lat="49.07312" lon="2.12573">
        <ele>36.6</ele>
        <time>2022-02-17T09:31:31Z</time>
      </trkpt>
      <trkpt lat="49.07309" lon="2.12577">
        <ele>36.4</ele>
        <time>2022-02-17T09:31:37Z</time>
      </trkpt>
      <trkpt lat="49.07304" lon="2.1258">
        <ele>36.9</ele>
        <time>2022-02-17T09:31:42Z</time>
      </trkpt>
      <trkpt lat="49.073" lon="2.12583">
        <ele>36.6</ele>
        <time>2022-02-17T09:31:47Z</time>
      </trkpt>
      <trkpt lat="49.07295" lon="2.12586">
        <ele>36.4</ele>
        <time>2022-02-17T09:31:53Z</time>
      </trkpt>
      <trkpt lat="49.07291" lon="2.12589">
        <ele>36.5</ele>
        <time>2022-02-17T09:31:57Z</time>
      </trkpt>
      <trkpt lat="49.07287" lon="2.12594">
        <ele>37.3</ele>
        <time>2022-02-17T09:32:03Z</time>
      </trkpt>
      <trkpt lat="49.07283" lon="2.12593">
        <ele>41.9</ele>
        <time>2022-02-17T09:32:11Z</time>
      </trkpt>
      <trkpt lat="49.07278" lon="2.12591">
        <ele>44.6</ele>
        <time>2022-02-17T09:32:16Z</time>
      </trkpt>
      <trkpt lat="49.07274" lon="2.12592">
        <ele>44.3</ele>
        <time>2022-02-17T09:32:20Z</time>
      </trkpt>
      <trkpt lat="49.07268" lon="2.12594">
        <ele>42.6</ele>
        <time>2022-02-17T09:32:24Z</time>
      </trkpt>
      <trkpt lat="49.07264" lon="2.12598">
        <ele>40.3</ele>
        <time>2022-02-17T09:32:28Z</time>
      </trkpt>
      <trkpt lat="49.0726" lon="2.12603">
        <ele>38.7</ele>
        <time>2022-02-17T09:32:33Z</time>
      </trkpt>
      <trkpt lat="49.07257" lon="2.1261">
        <ele>37.4</ele>
        <time>2022-02-17T09:32:37Z</time>
      </trkpt>
      <trkpt lat="49.07255" lon="2.12617">
        <ele>35</ele>
        <time>2022-02-17T09:32:41Z</time>
      </trkpt>
      <trkpt lat="49.07254" lon="2.12624">
        <ele>33.1</ele>
        <time>2022-02-17T09:32:46Z</time>
      </trkpt>
      <trkpt lat="49.0725" lon="2.12628">
        <ele>32.8</ele>
        <time>2022-02-17T09:32:50Z</time>
      </trkpt>
      <trkpt lat="49.07246" lon="2.12632">
        <ele>32.8</ele>
        <time>2022-02-17T09:32:54Z</time>
      </trkpt>
      <trkpt lat="49.07243" lon="2.12638">
        <ele>32.4</ele>
        <time>2022-02-17T09:32:59Z</time>
      </trkpt>
      <trkpt lat="49.07239" lon="2.12643">
        <ele>31.9</ele>
        <time>2022-02-17T09:33:04Z</time>
      </trkpt>
      <trkpt lat="49.07235" lon="2.12647">
        <ele>32.1</ele>
        <time>2022-02-17T09:33:09Z</time>
      </trkpt>
      <trkpt lat="49.07231" lon="2.12651">
        <ele>32</ele>
        <time>2022-02-17T09:33:13Z</time>
      </trkpt>
      <trkpt lat="49.07226" lon="2.12655">
        <ele>31.7</ele>
        <time>2022-02-17T09:33:18Z</time>
      </trkpt>
      <trkpt lat="49.07221" lon="2.12659">
        <ele>32.4</ele>
        <time>2022-02-17T09:33:23Z</time>
      </trkpt>
      <trkpt lat="49.07217" lon="2.12664">
        <ele>34</ele>
        <time>2022-02-17T09:33:27Z</time>
      </trkpt>
      <trkpt lat="49.07212" lon="2.12669">
        <ele>35.2</ele>
        <time>2022-02-17T09:33:31Z</time>
      </trkpt>
      <trkpt lat="49.07208" lon="2.12673">
        <ele>35.5</ele>
        <time>2022-02-17T09:33:35Z</time>
      </trkpt>
      <trkpt lat="49.07204" lon="2.12678">
        <ele>35.3</ele>
        <time>2022-02-17T09:33:40Z</time>
      </trkpt>
      <trkpt lat="49.072" lon="2.12682">
        <ele>34.9</ele>
        <time>2022-02-17T09:33:44Z</time>
      </trkpt>
      <trkpt lat="49.07196" lon="2.12686">
        <ele>35.5</ele>
        <time>2022-02-17T09:33:48Z</time>
      </trkpt>
      <trkpt lat="49.07191" lon="2.1269">
        <ele>35.5</ele>
        <time>2022-02-17T09:33:52Z</time>
      </trkpt>
      <trkpt lat="49.07186" lon="2.12694">
        <ele>34.7</ele>
        <time>2022-02-17T09:33:57Z</time>
      </trkpt>
      <trkpt lat="49.07182" lon="2.12698">
        <ele>33.8</ele>
        <time>2022-02-17T09:34:01Z</time>
      </trkpt>
      <trkpt lat="49.07179" lon="2.12704">
        <ele>32.6</ele>
        <time>2022-02-17T09:34:06Z</time>
      </trkpt>
      <trkpt lat="49.07175" lon="2.12707">
        <ele>32.4</ele>
        <time>2022-02-17T09:34:10Z</time>
      </trkpt>
      <trkpt lat="49.0717" lon="2.1271">
        <ele>32.1</ele>
        <time>2022-02-17T09:34:16Z</time>
      </trkpt>
      <trkpt lat="49.07166" lon="2.12714">
        <ele>30.4</ele>
        <time>2022-02-17T09:34:21Z</time>
      </trkpt>
      <trkpt lat="49.07161" lon="2.12714">
        <ele>28.1</ele>
        <time>2022-02-17T09:34:27Z</time>
      </trkpt>
      <trkpt lat="49.07164" lon="2.1271">
        <ele>27.5</ele>
        <time>2022-02-17T09:34:34Z</time>
      </trkpt>
      <trkpt lat="49.07159" lon="2.12709">
        <ele>29.9</ele>
        <time>2022-02-17T09:35:24Z</time>
      </trkpt>
      <trkpt lat="49.07154" lon="2.12712">
        <ele>31.3</ele>
        <time>2022-02-17T09:35:28Z</time>
      </trkpt>
      <trkpt lat="49.0715" lon="2.12715">
        <ele>33.5</ele>
        <time>2022-02-17T09:35:32Z</time>
      </trkpt>
      <trkpt lat="49.07145" lon="2.12716">
        <ele>35.2</ele>
        <time>2022-02-17T09:35:37Z</time>
      </trkpt>
      <trkpt lat="49.0714" lon="2.12718">
        <ele>35.2</ele>
        <time>2022-02-17T09:35:41Z</time>
      </trkpt>
      <trkpt lat="49.07135" lon="2.12721">
        <ele>34.4</ele>
        <time>2022-02-17T09:35:45Z</time>
      </trkpt>
      <trkpt lat="49.0713" lon="2.12723">
        <ele>33.5</ele>
        <time>2022-02-17T09:35:50Z</time>
      </trkpt>
      <trkpt lat="49.07125" lon="2.12724">
        <ele>32.8</ele>
        <time>2022-02-17T09:35:54Z</time>
      </trkpt>
      <trkpt lat="49.0712" lon="2.12724">
        <ele>32.2</ele>
        <time>2022-02-17T09:35:59Z</time>
      </trkpt>
      <trkpt lat="49.07114" lon="2.12722">
        <ele>31.3</ele>
        <time>2022-02-17T09:36:03Z</time>
      </trkpt>
      <trkpt lat="49.07109" lon="2.12721">
        <ele>30</ele>
        <time>2022-02-17T09:36:08Z</time>
      </trkpt>
      <trkpt lat="49.07103" lon="2.12718">
        <ele>30</ele>
        <time>2022-02-17T09:36:12Z</time>
      </trkpt>
      <trkpt lat="49.07098" lon="2.12716">
        <ele>30.7</ele>
        <time>2022-02-17T09:36:16Z</time>
      </trkpt>
      <trkpt lat="49.07092" lon="2.12714">
        <ele>31</ele>
        <time>2022-02-17T09:36:20Z</time>
      </trkpt>
      <trkpt lat="49.07087" lon="2.12712">
        <ele>30.6</ele>
        <time>2022-02-17T09:36:24Z</time>
      </trkpt>
      <trkpt lat="49.07082" lon="2.12711">
        <ele>29.9</ele>
        <time>2022-02-17T09:36:27Z</time>
      </trkpt>
      <trkpt lat="49.07077" lon="2.12711">
        <ele>29.2</ele>
        <time>2022-02-17T09:36:31Z</time>
      </trkpt>
      <trkpt lat="49.07072" lon="2.12713">
        <ele>28.3</ele>
        <time>2022-02-17T09:36:36Z</time>
      </trkpt>
      <trkpt lat="49.07067" lon="2.12714">
        <ele>27.9</ele>
        <time>2022-02-17T09:36:40Z</time>
      </trkpt>
      <trkpt lat="49.07062" lon="2.12712">
        <ele>28</ele>
        <time>2022-02-17T09:36:43Z</time>
      </trkpt>
      <trkpt lat="49.07058" lon="2.1271">
        <ele>28.1</ele>
        <time>2022-02-17T09:36:46Z</time>
      </trkpt>
      <trkpt lat="49.07054" lon="2.12706">
        <ele>28</ele>
        <time>2022-02-17T09:36:50Z</time>
      </trkpt>
      <trkpt lat="49.07049" lon="2.12702">
        <ele>27.7</ele>
        <time>2022-02-17T09:36:54Z</time>
      </trkpt>
      <trkpt lat="49.07044" lon="2.12698">
        <ele>26.9</ele>
        <time>2022-02-17T09:36:59Z</time>
      </trkpt>
      <trkpt lat="49.07038" lon="2.12697">
        <ele>26.7</ele>
        <time>2022-02-17T09:37:03Z</time>
      </trkpt>
      <trkpt lat="49.07034" lon="2.12695">
        <ele>26.6</ele>
        <time>2022-02-17T09:37:07Z</time>
      </trkpt>
      <trkpt lat="49.07029" lon="2.12691">
        <ele>27.7</ele>
        <time>2022-02-17T09:37:11Z</time>
      </trkpt>
      <trkpt lat="49.07025" lon="2.12688">
        <ele>29.2</ele>
        <time>2022-02-17T09:37:14Z</time>
      </trkpt>
      <trkpt lat="49.07021" lon="2.12684">
        <ele>31.2</ele>
        <time>2022-02-17T09:37:18Z</time>
      </trkpt>
      <trkpt lat="49.07015" lon="2.12682">
        <ele>31.2</ele>
        <time>2022-02-17T09:37:22Z</time>
      </trkpt>
      <trkpt lat="49.0701" lon="2.12681">
        <ele>30.6</ele>
        <time>2022-02-17T09:37:26Z</time>
      </trkpt>
      <trkpt lat="49.07005" lon="2.12679">
        <ele>29.7</ele>
        <time>2022-02-17T09:37:30Z</time>
      </trkpt>
      <trkpt lat="49.06999" lon="2.12677">
        <ele>28.8</ele>
        <time>2022-02-17T09:37:34Z</time>
      </trkpt>
      <trkpt lat="49.06994" lon="2.12675">
        <ele>28.2</ele>
        <time>2022-02-17T09:37:38Z</time>
      </trkpt>
      <trkpt lat="49.06989" lon="2.12674">
        <ele>27.7</ele>
        <time>2022-02-17T09:37:41Z</time>
      </trkpt>
      <trkpt lat="49.06983" lon="2.12673">
        <ele>26.8</ele>
        <time>2022-02-17T09:37:45Z</time>
      </trkpt>
      <trkpt lat="49.06977" lon="2.12673">
        <ele>26</ele>
        <time>2022-02-17T09:37:49Z</time>
      </trkpt>
      <trkpt lat="49.06972" lon="2.12674">
        <ele>25.4</ele>
        <time>2022-02-17T09:37:53Z</time>
      </trkpt>
      <trkpt lat="49.06967" lon="2.12676">
        <ele>24.6</ele>
        <time>2022-02-17T09:37:57Z</time>
      </trkpt>
      <trkpt lat="49.06962" lon="2.12676">
        <ele>24.8</ele>
        <time>2022-02-17T09:38:01Z</time>
      </trkpt>
      <trkpt lat="49.06956" lon="2.12676">
        <ele>25.4</ele>
        <time>2022-02-17T09:38:05Z</time>
      </trkpt>
      <trkpt lat="49.06952" lon="2.12678">
        <ele>26.5</ele>
        <time>2022-02-17T09:38:10Z</time>
      </trkpt>
      <trkpt lat="49.06946" lon="2.1268">
        <ele>27.3</ele>
        <time>2022-02-17T09:38:19Z</time>
      </trkpt>
      <trkpt lat="49.06941" lon="2.12679">
        <ele>27.1</ele>
        <time>2022-02-17T09:38:22Z</time>
      </trkpt>
      <trkpt lat="49.06936" lon="2.1268">
        <ele>27.2</ele>
        <time>2022-02-17T09:38:25Z</time>
      </trkpt>
      <trkpt lat="49.06931" lon="2.1268">
        <ele>26.9</ele>
        <time>2022-02-17T09:38:30Z</time>
      </trkpt>
      <trkpt lat="49.06927" lon="2.12681">
        <ele>26.7</ele>
        <time>2022-02-17T09:38:34Z</time>
      </trkpt>
      <trkpt lat="49.06921" lon="2.1268">
        <ele>26.5</ele>
        <time>2022-02-17T09:38:39Z</time>
      </trkpt>
      <trkpt lat="49.06915" lon="2.1268">
        <ele>25.9</ele>
        <time>2022-02-17T09:38:45Z</time>
      </trkpt>
      <trkpt lat="49.06911" lon="2.1268">
        <ele>25.8</ele>
        <time>2022-02-17T09:38:48Z</time>
      </trkpt>
      <trkpt lat="49.06905" lon="2.12682">
        <ele>25.1</ele>
        <time>2022-02-17T09:38:54Z</time>
      </trkpt>
      <trkpt lat="49.06901" lon="2.12685">
        <ele>23.8</ele>
        <time>2022-02-17T09:38:59Z</time>
      </trkpt>
      <trkpt lat="49.06897" lon="2.12688">
        <ele>23.7</ele>
        <time>2022-02-17T09:39:03Z</time>
      </trkpt>
      <trkpt lat="49.06892" lon="2.12691">
        <ele>23.5</ele>
        <time>2022-02-17T09:39:07Z</time>
      </trkpt>
      <trkpt lat="49.06889" lon="2.12696">
        <ele>23.6</ele>
        <time>2022-02-17T09:39:10Z</time>
      </trkpt>
      <trkpt lat="49.06887" lon="2.12702">
        <ele>23.7</ele>
        <time>2022-02-17T09:39:13Z</time>
      </trkpt>
      <trkpt lat="49.06885" lon="2.12709">
        <ele>24.5</ele>
        <time>2022-02-17T09:39:18Z</time>
      </trkpt>
      <trkpt lat="49.06881" lon="2.12715">
        <ele>25.9</ele>
        <time>2022-02-17T09:39:23Z</time>
      </trkpt>
      <trkpt lat="49.06877" lon="2.12718">
        <ele>26.8</ele>
        <time>2022-02-17T09:39:27Z</time>
      </trkpt>
      <trkpt lat="49.06873" lon="2.12723">
        <ele>27.6</ele>
        <time>2022-02-17T09:39:33Z</time>
      </trkpt>
      <trkpt lat="49.06876" lon="2.12717">
        <ele>30.5</ele>
        <time>2022-02-17T09:39:59Z</time>
      </trkpt>
      <trkpt lat="49.06872" lon="2.1272">
        <ele>31.9</ele>
        <time>2022-02-17T09:40:16Z</time>
      </trkpt>
      <trkpt lat="49.0687" lon="2.12727">
        <ele>33.4</ele>
        <time>2022-02-17T09:40:24Z</time>
      </trkpt>
      <trkpt lat="49.06867" lon="2.12733">
        <ele>34.8</ele>
        <time>2022-02-17T09:40:30Z</time>
      </trkpt>
      <trkpt lat="49.06872" lon="2.12737">
        <ele>36.9</ele>
        <time>2022-02-17T09:40:54Z</time>
      </trkpt>
      <trkpt lat="49.06873" lon="2.12748">
        <ele>37</ele>
        <time>2022-02-17T09:40:57Z</time>
      </trkpt>
      <trkpt lat="49.06873" lon="2.12755">
        <ele>37.1</ele>
        <time>2022-02-17T09:41:02Z</time>
      </trkpt>
      <trkpt lat="49.0687" lon="2.12762">
        <ele>37.5</ele>
        <time>2022-02-17T09:41:09Z</time>
      </trkpt>
      <trkpt lat="49.06875" lon="2.12763">
        <ele>37.8</ele>
        <time>2022-02-17T09:41:15Z</time>
      </trkpt>
      <trkpt lat="49.06879" lon="2.12759">
        <ele>38.1</ele>
        <time>2022-02-17T09:41:19Z</time>
      </trkpt>
      <trkpt lat="49.06882" lon="2.12754">
        <ele>40.4</ele>
        <time>2022-02-17T09:41:27Z</time>
      </trkpt>
      <trkpt lat="49.06887" lon="2.12752">
        <ele>43.4</ele>
        <time>2022-02-17T09:41:39Z</time>
      </trkpt>
      <trkpt lat="49.06891" lon="2.12756">
        <ele>42.9</ele>
        <time>2022-02-17T09:41:44Z</time>
      </trkpt>
      <trkpt lat="49.06894" lon="2.12761">
        <ele>42.9</ele>
        <time>2022-02-17T09:41:49Z</time>
      </trkpt>
      <trkpt lat="49.06897" lon="2.12769">
        <ele>44.9</ele>
        <time>2022-02-17T09:41:55Z</time>
      </trkpt>
      <trkpt lat="49.06899" lon="2.12776">
        <ele>46</ele>
        <time>2022-02-17T09:42:00Z</time>
      </trkpt>
      <trkpt lat="49.069" lon="2.12784">
        <ele>45.1</ele>
        <time>2022-02-17T09:42:05Z</time>
      </trkpt>
      <trkpt lat="49.06902" lon="2.1279">
        <ele>44.2</ele>
        <time>2022-02-17T09:42:11Z</time>
      </trkpt>
      <trkpt lat="49.06904" lon="2.12797">
        <ele>42.9</ele>
        <time>2022-02-17T09:42:16Z</time>
      </trkpt>
      <trkpt lat="49.06907" lon="2.12803">
        <ele>43</ele>
        <time>2022-02-17T09:42:20Z</time>
      </trkpt>
      <trkpt lat="49.06909" lon="2.1281">
        <ele>46.2</ele>
        <time>2022-02-17T09:42:24Z</time>
      </trkpt>
      <trkpt lat="49.06909" lon="2.12817">
        <ele>47.7</ele>
        <time>2022-02-17T09:42:28Z</time>
      </trkpt>
      <trkpt lat="49.0691" lon="2.12824">
        <ele>47.6</ele>
        <time>2022-02-17T09:42:32Z</time>
      </trkpt>
      <trkpt lat="49.06911" lon="2.12831">
        <ele>47.3</ele>
        <time>2022-02-17T09:42:37Z</time>
      </trkpt>
      <trkpt lat="49.06913" lon="2.12839">
        <ele>47.9</ele>
        <time>2022-02-17T09:42:41Z</time>
      </trkpt>
      <trkpt lat="49.06915" lon="2.12845">
        <ele>48.5</ele>
        <time>2022-02-17T09:42:46Z</time>
      </trkpt>
      <trkpt lat="49.06917" lon="2.12853">
        <ele>49.7</ele>
        <time>2022-02-17T09:42:51Z</time>
      </trkpt>
      <trkpt lat="49.06918" lon="2.1286">
        <ele>51.5</ele>
        <time>2022-02-17T09:42:54Z</time>
      </trkpt>
      <trkpt lat="49.06918" lon="2.12868">
        <ele>53.9</ele>
        <time>2022-02-17T09:42:58Z</time>
      </trkpt>
      <trkpt lat="49.06919" lon="2.12876">
        <ele>55.4</ele>
        <time>2022-02-17T09:43:02Z</time>
      </trkpt>
      <trkpt lat="49.0692" lon="2.12884">
        <ele>56.5</ele>
        <time>2022-02-17T09:43:06Z</time>
      </trkpt>
      <trkpt lat="49.0692" lon="2.12892">
        <ele>57</ele>
        <time>2022-02-17T09:43:11Z</time>
      </trkpt>
      <trkpt lat="49.06921" lon="2.129">
        <ele>57</ele>
        <time>2022-02-17T09:43:17Z</time>
      </trkpt>
      <trkpt lat="49.06925" lon="2.12906">
        <ele>57.3</ele>
        <time>2022-02-17T09:43:22Z</time>
      </trkpt>
      <trkpt lat="49.06928" lon="2.12913">
        <ele>58</ele>
        <time>2022-02-17T09:43:27Z</time>
      </trkpt>
      <trkpt lat="49.06931" lon="2.1292">
        <ele>58.9</ele>
        <time>2022-02-17T09:43:32Z</time>
      </trkpt>
      <trkpt lat="49.06934" lon="2.12926">
        <ele>59.3</ele>
        <time>2022-02-17T09:43:36Z</time>
      </trkpt>
      <trkpt lat="49.06937" lon="2.12934">
        <ele>59.4</ele>
        <time>2022-02-17T09:43:41Z</time>
      </trkpt>
      <trkpt lat="49.0694" lon="2.12941">
        <ele>60.2</ele>
        <time>2022-02-17T09:43:45Z</time>
      </trkpt>
      <trkpt lat="49.06942" lon="2.12949">
        <ele>61</ele>
        <time>2022-02-17T09:43:49Z</time>
      </trkpt>
      <trkpt lat="49.06944" lon="2.12955">
        <ele>61.2</ele>
        <time>2022-02-17T09:43:53Z</time>
      </trkpt>
      <trkpt lat="49.06947" lon="2.12961">
        <ele>61.7</ele>
        <time>2022-02-17T09:43:57Z</time>
      </trkpt>
      <trkpt lat="49.06949" lon="2.12967">
        <ele>62.3</ele>
        <time>2022-02-17T09:44:01Z</time>
      </trkpt>
      <trkpt lat="49.06952" lon="2.12973">
        <ele>63.2</ele>
        <time>2022-02-17T09:44:05Z</time>
      </trkpt>
      <trkpt lat="49.06956" lon="2.12979">
        <ele>63.7</ele>
        <time>2022-02-17T09:44:09Z</time>
      </trkpt>
      <trkpt lat="49.06959" lon="2.12986">
        <ele>63.9</ele>
        <time>2022-02-17T09:44:14Z</time>
      </trkpt>
      <trkpt lat="49.06963" lon="2.12991">
        <ele>63.8</ele>
        <time>2022-02-17T09:44:18Z</time>
      </trkpt>
      <trkpt lat="49.06967" lon="2.12993">
        <ele>64.2</ele>
        <time>2022-02-17T09:44:22Z</time>
      </trkpt>
      <trkpt lat="49.06973" lon="2.12995">
        <ele>65.6</ele>
        <time>2022-02-17T09:44:27Z</time>
      </trkpt>
      <trkpt lat="49.06978" lon="2.12998">
        <ele>67.4</ele>
        <time>2022-02-17T09:44:31Z</time>
      </trkpt>
      <trkpt lat="49.06982" lon="2.13003">
        <ele>68.3</ele>
        <time>2022-02-17T09:44:35Z</time>
      </trkpt>
      <trkpt lat="49.06984" lon="2.1301">
        <ele>68.8</ele>
        <time>2022-02-17T09:44:39Z</time>
      </trkpt>
      <trkpt lat="49.06987" lon="2.13017">
        <ele>68.4</ele>
        <time>2022-02-17T09:44:43Z</time>
      </trkpt>
      <trkpt lat="49.0699" lon="2.13024">
        <ele>68.2</ele>
        <time>2022-02-17T09:44:48Z</time>
      </trkpt>
      <trkpt lat="49.06992" lon="2.1303">
        <ele>68.2</ele>
        <time>2022-02-17T09:44:52Z</time>
      </trkpt>
      <trkpt lat="49.06994" lon="2.13037">
        <ele>69</ele>
        <time>2022-02-17T09:44:56Z</time>
      </trkpt>
      <trkpt lat="49.06995" lon="2.13044">
        <ele>71.5</ele>
        <time>2022-02-17T09:45:01Z</time>
      </trkpt>
      <trkpt lat="49.06996" lon="2.13052">
        <ele>73.8</ele>
        <time>2022-02-17T09:45:05Z</time>
      </trkpt>
      <trkpt lat="49.06999" lon="2.13058">
        <ele>75.1</ele>
        <time>2022-02-17T09:45:09Z</time>
      </trkpt>
      <trkpt lat="49.07002" lon="2.13064">
        <ele>75.9</ele>
        <time>2022-02-17T09:45:13Z</time>
      </trkpt>
      <trkpt lat="49.07004" lon="2.13072">
        <ele>75.9</ele>
        <time>2022-02-17T09:45:18Z</time>
      </trkpt>
      <trkpt lat="49.07005" lon="2.1308">
        <ele>75.7</ele>
        <time>2022-02-17T09:45:23Z</time>
      </trkpt>
      <trkpt lat="49.07006" lon="2.13088">
        <ele>75.7</ele>
        <time>2022-02-17T09:45:28Z</time>
      </trkpt>
      <trkpt lat="49.07008" lon="2.13096">
        <ele>75.3</ele>
        <time>2022-02-17T09:45:33Z</time>
      </trkpt>
      <trkpt lat="49.0701" lon="2.13103">
        <ele>74.7</ele>
        <time>2022-02-17T09:45:38Z</time>
      </trkpt>
      <trkpt lat="49.07013" lon="2.13111">
        <ele>74.3</ele>
        <time>2022-02-17T09:45:42Z</time>
      </trkpt>
      <trkpt lat="49.07016" lon="2.13117">
        <ele>73.5</ele>
        <time>2022-02-17T09:45:46Z</time>
      </trkpt>
      <trkpt lat="49.07017" lon="2.13124">
        <ele>72.9</ele>
        <time>2022-02-17T09:45:50Z</time>
      </trkpt>
      <trkpt lat="49.07019" lon="2.13132">
        <ele>72.5</ele>
        <time>2022-02-17T09:45:55Z</time>
      </trkpt>
      <trkpt lat="49.07022" lon="2.13138">
        <ele>72.6</ele>
        <time>2022-02-17T09:45:59Z</time>
      </trkpt>
      <trkpt lat="49.07024" lon="2.13145">
        <ele>73.3</ele>
        <time>2022-02-17T09:46:03Z</time>
      </trkpt>
      <trkpt lat="49.07026" lon="2.13152">
        <ele>74.8</ele>
        <time>2022-02-17T09:46:07Z</time>
      </trkpt>
      <trkpt lat="49.07029" lon="2.13158">
        <ele>76.1</ele>
        <time>2022-02-17T09:46:11Z</time>
      </trkpt>
      <trkpt lat="49.07031" lon="2.13166">
        <ele>76.5</ele>
        <time>2022-02-17T09:46:15Z</time>
      </trkpt>
      <trkpt lat="49.07033" lon="2.13172">
        <ele>76.5</ele>
        <time>2022-02-17T09:46:19Z</time>
      </trkpt>
      <trkpt lat="49.07035" lon="2.13179">
        <ele>75.9</ele>
        <time>2022-02-17T09:46:23Z</time>
      </trkpt>
      <trkpt lat="49.07038" lon="2.13186">
        <ele>75.5</ele>
        <time>2022-02-17T09:46:27Z</time>
      </trkpt>
      <trkpt lat="49.07041" lon="2.13192">
        <ele>75.9</ele>
        <time>2022-02-17T09:46:31Z</time>
      </trkpt>
      <trkpt lat="49.07043" lon="2.132">
        <ele>76.5</ele>
        <time>2022-02-17T09:46:35Z</time>
      </trkpt>
      <trkpt lat="49.07045" lon="2.13207">
        <ele>77.2</ele>
        <time>2022-02-17T09:46:39Z</time>
      </trkpt>
      <trkpt lat="49.07047" lon="2.13214">
        <ele>77.3</ele>
        <time>2022-02-17T09:46:43Z</time>
      </trkpt>
      <trkpt lat="49.07051" lon="2.13219">
        <ele>76.7</ele>
        <time>2022-02-17T09:46:47Z</time>
      </trkpt>
      <trkpt lat="49.07054" lon="2.13225">
        <ele>75.4</ele>
        <time>2022-02-17T09:46:51Z</time>
      </trkpt>
      <trkpt lat="49.07056" lon="2.13232">
        <ele>75.4</ele>
        <time>2022-02-17T09:46:55Z</time>
      </trkpt>
      <trkpt lat="49.07059" lon="2.13238">
        <ele>74.7</ele>
        <time>2022-02-17T09:46:59Z</time>
      </trkpt>
      <trkpt lat="49.07061" lon="2.13246">
        <ele>73.4</ele>
        <time>2022-02-17T09:47:03Z</time>
      </trkpt>
      <trkpt lat="49.07062" lon="2.13256">
        <ele>72.7</ele>
        <time>2022-02-17T09:47:08Z</time>
      </trkpt>
      <trkpt lat="49.07063" lon="2.13264">
        <ele>74.7</ele>
        <time>2022-02-17T09:47:12Z</time>
      </trkpt>
      <trkpt lat="49.07065" lon="2.13273">
        <ele>78</ele>
        <time>2022-02-17T09:47:16Z</time>
      </trkpt>
      <trkpt lat="49.07066" lon="2.13281">
        <ele>79</ele>
        <time>2022-02-17T09:47:20Z</time>
      </trkpt>
      <trkpt lat="49.07069" lon="2.13289">
        <ele>79.1</ele>
        <time>2022-02-17T09:47:24Z</time>
      </trkpt>
      <trkpt lat="49.0707" lon="2.13298">
        <ele>79.4</ele>
        <time>2022-02-17T09:47:28Z</time>
      </trkpt>
      <trkpt lat="49.07071" lon="2.13305">
        <ele>79.5</ele>
        <time>2022-02-17T09:47:32Z</time>
      </trkpt>
      <trkpt lat="49.07071" lon="2.13313">
        <ele>79.7</ele>
        <time>2022-02-17T09:47:36Z</time>
      </trkpt>
      <trkpt lat="49.07071" lon="2.13321">
        <ele>79.8</ele>
        <time>2022-02-17T09:47:40Z</time>
      </trkpt>
      <trkpt lat="49.07071" lon="2.13329">
        <ele>79.7</ele>
        <time>2022-02-17T09:47:44Z</time>
      </trkpt>
      <trkpt lat="49.07071" lon="2.13339">
        <ele>79.5</ele>
        <time>2022-02-17T09:47:49Z</time>
      </trkpt>
      <trkpt lat="49.07072" lon="2.13347">
        <ele>78.5</ele>
        <time>2022-02-17T09:47:53Z</time>
      </trkpt>
      <trkpt lat="49.07072" lon="2.13354">
        <ele>77.7</ele>
        <time>2022-02-17T09:47:56Z</time>
      </trkpt>
      <trkpt lat="49.07073" lon="2.13361">
        <ele>76.9</ele>
        <time>2022-02-17T09:48:00Z</time>
      </trkpt>
      <trkpt lat="49.07075" lon="2.13368">
        <ele>76.1</ele>
        <time>2022-02-17T09:48:04Z</time>
      </trkpt>
      <trkpt lat="49.07077" lon="2.13376">
        <ele>74.9</ele>
        <time>2022-02-17T09:48:08Z</time>
      </trkpt>
      <trkpt lat="49.07079" lon="2.13383">
        <ele>74.3</ele>
        <time>2022-02-17T09:48:12Z</time>
      </trkpt>
      <trkpt lat="49.07081" lon="2.13391">
        <ele>74.3</ele>
        <time>2022-02-17T09:48:16Z</time>
      </trkpt>
      <trkpt lat="49.07083" lon="2.13398">
        <ele>74.8</ele>
        <time>2022-02-17T09:48:20Z</time>
      </trkpt>
      <trkpt lat="49.07084" lon="2.13405">
        <ele>75.3</ele>
        <time>2022-02-17T09:48:24Z</time>
      </trkpt>
      <trkpt lat="49.07087" lon="2.13412">
        <ele>75.1</ele>
        <time>2022-02-17T09:48:28Z</time>
      </trkpt>
      <trkpt lat="49.0709" lon="2.13418">
        <ele>74.7</ele>
        <time>2022-02-17T09:48:32Z</time>
      </trkpt>
      <trkpt lat="49.07093" lon="2.13425">
        <ele>74</ele>
        <time>2022-02-17T09:48:36Z</time>
      </trkpt>
      <trkpt lat="49.07095" lon="2.13433">
        <ele>73.7</ele>
        <time>2022-02-17T09:48:40Z</time>
      </trkpt>
      <trkpt lat="49.07097" lon="2.13439">
        <ele>73.2</ele>
        <time>2022-02-17T09:48:44Z</time>
      </trkpt>
      <trkpt lat="49.07099" lon="2.13446">
        <ele>73.2</ele>
        <time>2022-02-17T09:48:48Z</time>
      </trkpt>
      <trkpt lat="49.07101" lon="2.13453">
        <ele>73.5</ele>
        <time>2022-02-17T09:48:52Z</time>
      </trkpt>
      <trkpt lat="49.07103" lon="2.13461">
        <ele>73.7</ele>
        <time>2022-02-17T09:48:56Z</time>
      </trkpt>
      <trkpt lat="49.07104" lon="2.13468">
        <ele>73.2</ele>
        <time>2022-02-17T09:49:00Z</time>
      </trkpt>
      <trkpt lat="49.07106" lon="2.13476">
        <ele>73</ele>
        <time>2022-02-17T09:49:04Z</time>
      </trkpt>
      <trkpt lat="49.07108" lon="2.13483">
        <ele>72.9</ele>
        <time>2022-02-17T09:49:08Z</time>
      </trkpt>
      <trkpt lat="49.07111" lon="2.1349">
        <ele>72.2</ele>
        <time>2022-02-17T09:49:12Z</time>
      </trkpt>
      <trkpt lat="49.07115" lon="2.13496">
        <ele>71.7</ele>
        <time>2022-02-17T09:49:16Z</time>
      </trkpt>
      <trkpt lat="49.07119" lon="2.13502">
        <ele>71.6</ele>
        <time>2022-02-17T09:49:20Z</time>
      </trkpt>
      <trkpt lat="49.07122" lon="2.13509">
        <ele>71.4</ele>
        <time>2022-02-17T09:49:24Z</time>
      </trkpt>
      <trkpt lat="49.07124" lon="2.13517">
        <ele>70.8</ele>
        <time>2022-02-17T09:49:29Z</time>
      </trkpt>
      <trkpt lat="49.07125" lon="2.13525">
        <ele>69.7</ele>
        <time>2022-02-17T09:49:33Z</time>
      </trkpt>
      <trkpt lat="49.07128" lon="2.13532">
        <ele>69.4</ele>
        <time>2022-02-17T09:49:37Z</time>
      </trkpt>
      <trkpt lat="49.0713" lon="2.13538">
        <ele>69.7</ele>
        <time>2022-02-17T09:49:41Z</time>
      </trkpt>
      <trkpt lat="49.07134" lon="2.13544">
        <ele>70</ele>
        <time>2022-02-17T09:49:45Z</time>
      </trkpt>
      <trkpt lat="49.07137" lon="2.1355">
        <ele>70.3</ele>
        <time>2022-02-17T09:49:49Z</time>
      </trkpt>
      <trkpt lat="49.07142" lon="2.13555">
        <ele>70.9</ele>
        <time>2022-02-17T09:49:56Z</time>
      </trkpt>
      <trkpt lat="49.07145" lon="2.13562">
        <ele>71.3</ele>
        <time>2022-02-17T09:50:00Z</time>
      </trkpt>
      <trkpt lat="49.07149" lon="2.13567">
        <ele>72.2</ele>
        <time>2022-02-17T09:50:06Z</time>
      </trkpt>
      <trkpt lat="49.07152" lon="2.13573">
        <ele>72.6</ele>
        <time>2022-02-17T09:51:20Z</time>
      </trkpt>
      <trkpt lat="49.07155" lon="2.1358">
        <ele>72.2</ele>
        <time>2022-02-17T09:51:24Z</time>
      </trkpt>
      <trkpt lat="49.07156" lon="2.13586">
        <ele>72.2</ele>
        <time>2022-02-17T09:51:27Z</time>
      </trkpt>
      <trkpt lat="49.07158" lon="2.13593">
        <ele>72.2</ele>
        <time>2022-02-17T09:51:32Z</time>
      </trkpt>
      <trkpt lat="49.07161" lon="2.13599">
        <ele>72.3</ele>
        <time>2022-02-17T09:51:36Z</time>
      </trkpt>
      <trkpt lat="49.07162" lon="2.13606">
        <ele>73</ele>
        <time>2022-02-17T09:51:40Z</time>
      </trkpt>
      <trkpt lat="49.07163" lon="2.13614">
        <ele>73.4</ele>
        <time>2022-02-17T09:51:45Z</time>
      </trkpt>
      <trkpt lat="49.07165" lon="2.13622">
        <ele>71.8</ele>
        <time>2022-02-17T09:51:50Z</time>
      </trkpt>
      <trkpt lat="49.07167" lon="2.13628">
        <ele>71</ele>
        <time>2022-02-17T09:51:55Z</time>
      </trkpt>
      <trkpt lat="49.07171" lon="2.13632">
        <ele>71.6</ele>
        <time>2022-02-17T09:52:00Z</time>
      </trkpt>
      <trkpt lat="49.07175" lon="2.13637">
        <ele>73</ele>
        <time>2022-02-17T09:53:22Z</time>
      </trkpt>
      <trkpt lat="49.07178" lon="2.13644">
        <ele>74.5</ele>
        <time>2022-02-17T09:57:18Z</time>
      </trkpt>
      <trkpt lat="49.07174" lon="2.13647">
        <ele>75.2</ele>
        <time>2022-02-17T10:02:15Z</time>
      </trkpt>
      <trkpt lat="49.07173" lon="2.13654">
        <ele>75.6</ele>
        <time>2022-02-17T10:02:21Z</time>
      </trkpt>
      <trkpt lat="49.07174" lon="2.13661">
        <ele>73.6</ele>
        <time>2022-02-17T10:02:52Z</time>
      </trkpt>
      <trkpt lat="49.07175" lon="2.13668">
        <ele>72.8</ele>
        <time>2022-02-17T10:02:59Z</time>
      </trkpt>
      <trkpt lat="49.07176" lon="2.13677">
        <ele>72.5</ele>
        <time>2022-02-17T10:03:03Z</time>
      </trkpt>
      <trkpt lat="49.07178" lon="2.13685">
        <ele>73.9</ele>
        <time>2022-02-17T10:03:09Z</time>
      </trkpt>
      <trkpt lat="49.07178" lon="2.13692">
        <ele>74.6</ele>
        <time>2022-02-17T10:03:15Z</time>
      </trkpt>
      <trkpt lat="49.07178" lon="2.137">
        <ele>72.9</ele>
        <time>2022-02-17T10:03:20Z</time>
      </trkpt>
      <trkpt lat="49.07178" lon="2.13707">
        <ele>72.2</ele>
        <time>2022-02-17T10:03:24Z</time>
      </trkpt>
      <trkpt lat="49.07179" lon="2.13715">
        <ele>72.2</ele>
        <time>2022-02-17T10:03:28Z</time>
      </trkpt>
      <trkpt lat="49.07181" lon="2.13722">
        <ele>72.7</ele>
        <time>2022-02-17T10:03:33Z</time>
      </trkpt>
      <trkpt lat="49.07181" lon="2.1373">
        <ele>73.2</ele>
        <time>2022-02-17T10:03:37Z</time>
      </trkpt>
      <trkpt lat="49.07182" lon="2.13737">
        <ele>72.6</ele>
        <time>2022-02-17T10:03:41Z</time>
      </trkpt>
      <trkpt lat="49.07181" lon="2.13744">
        <ele>71.2</ele>
        <time>2022-02-17T10:03:46Z</time>
      </trkpt>
      <trkpt lat="49.0718" lon="2.13752">
        <ele>70</ele>
        <time>2022-02-17T10:03:50Z</time>
      </trkpt>
      <trkpt lat="49.0718" lon="2.1376">
        <ele>69.8</ele>
        <time>2022-02-17T10:03:55Z</time>
      </trkpt>
      <trkpt lat="49.07178" lon="2.13768">
        <ele>70.7</ele>
        <time>2022-02-17T10:03:59Z</time>
      </trkpt>
      <trkpt lat="49.07176" lon="2.13775">
        <ele>70.7</ele>
        <time>2022-02-17T10:04:02Z</time>
      </trkpt>
      <trkpt lat="49.07174" lon="2.13783">
        <ele>70.7</ele>
        <time>2022-02-17T10:04:06Z</time>
      </trkpt>
      <trkpt lat="49.07172" lon="2.13791">
        <ele>70.8</ele>
        <time>2022-02-17T10:04:10Z</time>
      </trkpt>
      <trkpt lat="49.07171" lon="2.13799">
        <ele>71.7</ele>
        <time>2022-02-17T10:04:14Z</time>
      </trkpt>
      <trkpt lat="49.07171" lon="2.13807">
        <ele>71.7</ele>
        <time>2022-02-17T10:04:19Z</time>
      </trkpt>
      <trkpt lat="49.0717" lon="2.13816">
        <ele>70.3</ele>
        <time>2022-02-17T10:04:23Z</time>
      </trkpt>
      <trkpt lat="49.07169" lon="2.13824">
        <ele>68.9</ele>
        <time>2022-02-17T10:04:28Z</time>
      </trkpt>
      <trkpt lat="49.07169" lon="2.13833">
        <ele>69.1</ele>
        <time>2022-02-17T10:04:32Z</time>
      </trkpt>
      <trkpt lat="49.07169" lon="2.1384">
        <ele>70.7</ele>
        <time>2022-02-17T10:04:37Z</time>
      </trkpt>
      <trkpt lat="49.07169" lon="2.13848">
        <ele>71.8</ele>
        <time>2022-02-17T10:04:41Z</time>
      </trkpt>
      <trkpt lat="49.07169" lon="2.13857">
        <ele>71.4</ele>
        <time>2022-02-17T10:04:45Z</time>
      </trkpt>
      <trkpt lat="49.07169" lon="2.13865">
        <ele>69.5</ele>
        <time>2022-02-17T10:04:49Z</time>
      </trkpt>
      <trkpt lat="49.07167" lon="2.13873">
        <ele>67.7</ele>
        <time>2022-02-17T10:04:55Z</time>
      </trkpt>
      <trkpt lat="49.07165" lon="2.13881">
        <ele>67.3</ele>
        <time>2022-02-17T10:05:00Z</time>
      </trkpt>
      <trkpt lat="49.07164" lon="2.13889">
        <ele>66.4</ele>
        <time>2022-02-17T10:05:04Z</time>
      </trkpt>
      <trkpt lat="49.07163" lon="2.13897">
        <ele>65</ele>
        <time>2022-02-17T10:05:08Z</time>
      </trkpt>
      <trkpt lat="49.07162" lon="2.13904">
        <ele>64</ele>
        <time>2022-02-17T10:05:12Z</time>
      </trkpt>
      <trkpt lat="49.07163" lon="2.13912">
        <ele>63.2</ele>
        <time>2022-02-17T10:05:15Z</time>
      </trkpt>
      <trkpt lat="49.07164" lon="2.13919">
        <ele>63.6</ele>
        <time>2022-02-17T10:05:19Z</time>
      </trkpt>
      <trkpt lat="49.07165" lon="2.13926">
        <ele>64.2</ele>
        <time>2022-02-17T10:05:22Z</time>
      </trkpt>
      <trkpt lat="49.07166" lon="2.13934">
        <ele>64.4</ele>
        <time>2022-02-17T10:05:26Z</time>
      </trkpt>
      <trkpt lat="49.07166" lon="2.13943">
        <ele>63.8</ele>
        <time>2022-02-17T10:05:30Z</time>
      </trkpt>
      <trkpt lat="49.07167" lon="2.13951">
        <ele>63.6</ele>
        <time>2022-02-17T10:05:34Z</time>
      </trkpt>
      <trkpt lat="49.0717" lon="2.13959">
        <ele>64.6</ele>
        <time>2022-02-17T10:05:38Z</time>
      </trkpt>
      <trkpt lat="49.07173" lon="2.13967">
        <ele>64.7</ele>
        <time>2022-02-17T10:05:42Z</time>
      </trkpt>
      <trkpt lat="49.07174" lon="2.13974">
        <ele>64.5</ele>
        <time>2022-02-17T10:05:47Z</time>
      </trkpt>
      <trkpt lat="49.07176" lon="2.13983">
        <ele>64.8</ele>
        <time>2022-02-17T10:05:51Z</time>
      </trkpt>
      <trkpt lat="49.07177" lon="2.13991">
        <ele>65.5</ele>
        <time>2022-02-17T10:05:54Z</time>
      </trkpt>
      <trkpt lat="49.07177" lon="2.14">
        <ele>66.1</ele>
        <time>2022-02-17T10:05:59Z</time>
      </trkpt>
      <trkpt lat="49.07177" lon="2.14008">
        <ele>66.5</ele>
        <time>2022-02-17T10:06:03Z</time>
      </trkpt>
      <trkpt lat="49.07177" lon="2.14017">
        <ele>66.8</ele>
        <time>2022-02-17T10:06:07Z</time>
      </trkpt>
      <trkpt lat="49.07178" lon="2.14024">
        <ele>67.2</ele>
        <time>2022-02-17T10:06:11Z</time>
      </trkpt>
      <trkpt lat="49.07179" lon="2.14031">
        <ele>68</ele>
        <time>2022-02-17T10:06:14Z</time>
      </trkpt>
      <trkpt lat="49.07179" lon="2.14038">
        <ele>68.5</ele>
        <time>2022-02-17T10:06:18Z</time>
      </trkpt>
      <trkpt lat="49.0718" lon="2.14046">
        <ele>68.4</ele>
        <time>2022-02-17T10:06:22Z</time>
      </trkpt>
      <trkpt lat="49.07181" lon="2.14053">
        <ele>67.8</ele>
        <time>2022-02-17T10:06:27Z</time>
      </trkpt>
      <trkpt lat="49.07183" lon="2.1406">
        <ele>67.5</ele>
        <time>2022-02-17T10:06:31Z</time>
      </trkpt>
      <trkpt lat="49.07185" lon="2.14067">
        <ele>67.3</ele>
        <time>2022-02-17T10:06:35Z</time>
      </trkpt>
      <trkpt lat="49.07187" lon="2.14077">
        <ele>66.9</ele>
        <time>2022-02-17T10:06:40Z</time>
      </trkpt>
      <trkpt lat="49.07188" lon="2.14085">
        <ele>65.8</ele>
        <time>2022-02-17T10:06:44Z</time>
      </trkpt>
      <trkpt lat="49.07189" lon="2.14092">
        <ele>64.4</ele>
        <time>2022-02-17T10:06:49Z</time>
      </trkpt>
      <trkpt lat="49.07189" lon="2.141">
        <ele>63.8</ele>
        <time>2022-02-17T10:06:54Z</time>
      </trkpt>
      <trkpt lat="49.07188" lon="2.14107">
        <ele>65</ele>
        <time>2022-02-17T10:06:58Z</time>
      </trkpt>
      <trkpt lat="49.07187" lon="2.14114">
        <ele>68.1</ele>
        <time>2022-02-17T10:07:04Z</time>
      </trkpt>
      <trkpt lat="49.07185" lon="2.14121">
        <ele>68.6</ele>
        <time>2022-02-17T10:07:12Z</time>
      </trkpt>
      <trkpt lat="49.07179" lon="2.1412">
        <ele>69.8</ele>
        <time>2022-02-17T10:07:16Z</time>
      </trkpt>
      <trkpt lat="49.07174" lon="2.14122">
        <ele>70.6</ele>
        <time>2022-02-17T10:07:22Z</time>
      </trkpt>
      <trkpt lat="49.0717" lon="2.14126">
        <ele>70.5</ele>
        <time>2022-02-17T10:07:25Z</time>
      </trkpt>
      <trkpt lat="49.07164" lon="2.14131">
        <ele>70.3</ele>
        <time>2022-02-17T10:07:28Z</time>
      </trkpt>
      <trkpt lat="49.0716" lon="2.14135">
        <ele>70.4</ele>
        <time>2022-02-17T10:07:31Z</time>
      </trkpt>
      <trkpt lat="49.07156" lon="2.14138">
        <ele>70.2</ele>
        <time>2022-02-17T10:07:35Z</time>
      </trkpt>
      <trkpt lat="49.07151" lon="2.1414">
        <ele>69.6</ele>
        <time>2022-02-17T10:07:39Z</time>
      </trkpt>
      <trkpt lat="49.07147" lon="2.14143">
        <ele>68.5</ele>
        <time>2022-02-17T10:07:42Z</time>
      </trkpt>
      <trkpt lat="49.07142" lon="2.14145">
        <ele>67.6</ele>
        <time>2022-02-17T10:07:46Z</time>
      </trkpt>
      <trkpt lat="49.07137" lon="2.14148">
        <ele>67.4</ele>
        <time>2022-02-17T10:07:56Z</time>
      </trkpt>
      <trkpt lat="49.07134" lon="2.14144">
        <ele>68.9</ele>
        <time>2022-02-17T10:08:04Z</time>
      </trkpt>
      <trkpt lat="49.07129" lon="2.14147">
        <ele>66.5</ele>
        <time>2022-02-17T10:08:13Z</time>
      </trkpt>
      <trkpt lat="49.07132" lon="2.14152">
        <ele>63.5</ele>
        <time>2022-02-17T10:08:17Z</time>
      </trkpt>
      <trkpt lat="49.07132" lon="2.14161">
        <ele>62.1</ele>
        <time>2022-02-17T10:08:22Z</time>
      </trkpt>
      <trkpt lat="49.07131" lon="2.14168">
        <ele>58.7</ele>
        <time>2022-02-17T10:08:29Z</time>
      </trkpt>
      <trkpt lat="49.07128" lon="2.14177">
        <ele>58.4</ele>
        <time>2022-02-17T10:08:35Z</time>
      </trkpt>
      <trkpt lat="49.07126" lon="2.14184">
        <ele>58.7</ele>
        <time>2022-02-17T10:08:39Z</time>
      </trkpt>
      <trkpt lat="49.07126" lon="2.14191">
        <ele>59.8</ele>
        <time>2022-02-17T10:08:56Z</time>
      </trkpt>
      <trkpt lat="49.07123" lon="2.14197">
        <ele>61</ele>
        <time>2022-02-17T10:09:03Z</time>
      </trkpt>
      <trkpt lat="49.07121" lon="2.14204">
        <ele>61.5</ele>
        <time>2022-02-17T10:09:07Z</time>
      </trkpt>
      <trkpt lat="49.07117" lon="2.14209">
        <ele>62.3</ele>
        <time>2022-02-17T10:09:12Z</time>
      </trkpt>
      <trkpt lat="49.07114" lon="2.14215">
        <ele>63.1</ele>
        <time>2022-02-17T10:09:16Z</time>
      </trkpt>
      <trkpt lat="49.07113" lon="2.14225">
        <ele>64.5</ele>
        <time>2022-02-17T10:09:21Z</time>
      </trkpt>
      <trkpt lat="49.07113" lon="2.14234">
        <ele>65.7</ele>
        <time>2022-02-17T10:09:25Z</time>
      </trkpt>
      <trkpt lat="49.07112" lon="2.14241">
        <ele>69</ele>
        <time>2022-02-17T10:09:53Z</time>
      </trkpt>
      <trkpt lat="49.07111" lon="2.1425">
        <ele>66.2</ele>
        <time>2022-02-17T10:10:10Z</time>
      </trkpt>
      <trkpt lat="49.07109" lon="2.14256">
        <ele>66.1</ele>
        <time>2022-02-17T10:10:13Z</time>
      </trkpt>
      <trkpt lat="49.07109" lon="2.14264">
        <ele>66.6</ele>
        <time>2022-02-17T10:10:33Z</time>
      </trkpt>
      <trkpt lat="49.07108" lon="2.14271">
        <ele>66.4</ele>
        <time>2022-02-17T10:10:37Z</time>
      </trkpt>
      <trkpt lat="49.07107" lon="2.14279">
        <ele>66.7</ele>
        <time>2022-02-17T10:10:41Z</time>
      </trkpt>
      <trkpt lat="49.07106" lon="2.14287">
        <ele>67.1</ele>
        <time>2022-02-17T10:10:45Z</time>
      </trkpt>
      <trkpt lat="49.07105" lon="2.14294">
        <ele>66.8</ele>
        <time>2022-02-17T10:10:50Z</time>
      </trkpt>
      <trkpt lat="49.07106" lon="2.14302">
        <ele>66.9</ele>
        <time>2022-02-17T10:10:54Z</time>
      </trkpt>
      <trkpt lat="49.07107" lon="2.1431">
        <ele>67</ele>
        <time>2022-02-17T10:11:00Z</time>
      </trkpt>
      <trkpt lat="49.07107" lon="2.14317">
        <ele>66.2</ele>
        <time>2022-02-17T10:11:04Z</time>
      </trkpt>
      <trkpt lat="49.07106" lon="2.14325">
        <ele>64.4</ele>
        <time>2022-02-17T10:11:09Z</time>
      </trkpt>
      <trkpt lat="49.07103" lon="2.1433">
        <ele>63.2</ele>
        <time>2022-02-17T10:11:13Z</time>
      </trkpt>
      <trkpt lat="49.07101" lon="2.14338">
        <ele>63</ele>
        <time>2022-02-17T10:11:18Z</time>
      </trkpt>
      <trkpt lat="49.071" lon="2.14347">
        <ele>62.7</ele>
        <time>2022-02-17T10:11:24Z</time>
      </trkpt>
      <trkpt lat="49.07099" lon="2.14354">
        <ele>62.4</ele>
        <time>2022-02-17T10:11:28Z</time>
      </trkpt>
      <trkpt lat="49.07098" lon="2.14361">
        <ele>61.2</ele>
        <time>2022-02-17T10:11:33Z</time>
      </trkpt>
      <trkpt lat="49.07096" lon="2.14369">
        <ele>59.3</ele>
        <time>2022-02-17T10:11:37Z</time>
      </trkpt>
      <trkpt lat="49.07095" lon="2.14377">
        <ele>57.6</ele>
        <time>2022-02-17T10:11:42Z</time>
      </trkpt>
      <trkpt lat="49.07094" lon="2.14384">
        <ele>57</ele>
        <time>2022-02-17T10:11:45Z</time>
      </trkpt>
      <trkpt lat="49.07093" lon="2.14392">
        <ele>57</ele>
        <time>2022-02-17T10:11:51Z</time>
      </trkpt>
      <trkpt lat="49.0709" lon="2.14399">
        <ele>56.7</ele>
        <time>2022-02-17T10:11:56Z</time>
      </trkpt>
      <trkpt lat="49.07092" lon="2.14407">
        <ele>56.1</ele>
        <time>2022-02-17T10:12:00Z</time>
      </trkpt>
      <trkpt lat="49.07094" lon="2.14414">
        <ele>55.1</ele>
        <time>2022-02-17T10:12:04Z</time>
      </trkpt>
      <trkpt lat="49.07096" lon="2.14422">
        <ele>53.9</ele>
        <time>2022-02-17T10:12:09Z</time>
      </trkpt>
      <trkpt lat="49.07096" lon="2.14429">
        <ele>54.3</ele>
        <time>2022-02-17T10:12:13Z</time>
      </trkpt>
      <trkpt lat="49.07097" lon="2.14438">
        <ele>55.6</ele>
        <time>2022-02-17T10:12:18Z</time>
      </trkpt>
      <trkpt lat="49.07097" lon="2.14445">
        <ele>56.1</ele>
        <time>2022-02-17T10:12:22Z</time>
      </trkpt>
      <trkpt lat="49.07098" lon="2.14453">
        <ele>55.6</ele>
        <time>2022-02-17T10:12:27Z</time>
      </trkpt>
      <trkpt lat="49.07098" lon="2.14461">
        <ele>55.8</ele>
        <time>2022-02-17T10:12:33Z</time>
      </trkpt>
      <trkpt lat="49.07103" lon="2.14462">
        <ele>56.6</ele>
        <time>2022-02-17T10:12:39Z</time>
      </trkpt>
      <trkpt lat="49.07106" lon="2.14469">
        <ele>52.3</ele>
        <time>2022-02-17T10:12:52Z</time>
      </trkpt>
      <trkpt lat="49.07106" lon="2.14476">
        <ele>52.1</ele>
        <time>2022-02-17T10:12:56Z</time>
      </trkpt>
      <trkpt lat="49.07104" lon="2.14483">
        <ele>51.5</ele>
        <time>2022-02-17T10:13:01Z</time>
      </trkpt>
      <trkpt lat="49.07104" lon="2.1449">
        <ele>49.4</ele>
        <time>2022-02-17T10:13:06Z</time>
      </trkpt>
      <trkpt lat="49.07104" lon="2.14498">
        <ele>46.6</ele>
        <time>2022-02-17T10:13:12Z</time>
      </trkpt>
      <trkpt lat="49.07103" lon="2.14506">
        <ele>44.1</ele>
        <time>2022-02-17T10:13:18Z</time>
      </trkpt>
      <trkpt lat="49.07101" lon="2.14513">
        <ele>42.4</ele>
        <time>2022-02-17T10:13:22Z</time>
      </trkpt>
      <trkpt lat="49.07101" lon="2.14521">
        <ele>40.6</ele>
        <time>2022-02-17T10:13:27Z</time>
      </trkpt>
      <trkpt lat="49.07101" lon="2.14529">
        <ele>39.4</ele>
        <time>2022-02-17T10:13:33Z</time>
      </trkpt>
      <trkpt lat="49.07101" lon="2.14537">
        <ele>37.8</ele>
        <time>2022-02-17T10:13:38Z</time>
      </trkpt>
      <trkpt lat="49.07102" lon="2.14544">
        <ele>36.2</ele>
        <time>2022-02-17T10:13:42Z</time>
      </trkpt>
      <trkpt lat="49.07101" lon="2.14552">
        <ele>33.8</ele>
        <time>2022-02-17T10:13:48Z</time>
      </trkpt>
      <trkpt lat="49.07105" lon="2.14557">
        <ele>32.3</ele>
        <time>2022-02-17T10:13:53Z</time>
      </trkpt>
      <trkpt lat="49.07103" lon="2.14565">
        <ele>32.4</ele>
        <time>2022-02-17T10:13:59Z</time>
      </trkpt>
      <trkpt lat="49.071" lon="2.14571">
        <ele>32.3</ele>
        <time>2022-02-17T10:14:05Z</time>
      </trkpt>
      <trkpt lat="49.07102" lon="2.14579">
        <ele>32.7</ele>
        <time>2022-02-17T10:14:09Z</time>
      </trkpt>
      <trkpt lat="49.07106" lon="2.14583">
        <ele>32.8</ele>
        <time>2022-02-17T10:14:14Z</time>
      </trkpt>
      <trkpt lat="49.07109" lon="2.1459">
        <ele>31.9</ele>
        <time>2022-02-17T10:14:20Z</time>
      </trkpt>
      <trkpt lat="49.07109" lon="2.14597">
        <ele>31.3</ele>
        <time>2022-02-17T10:14:24Z</time>
      </trkpt>
      <trkpt lat="49.07113" lon="2.14603">
        <ele>28.9</ele>
        <time>2022-02-17T10:14:36Z</time>
      </trkpt>
      <trkpt lat="49.07116" lon="2.14609">
        <ele>28.6</ele>
        <time>2022-02-17T10:14:38Z</time>
      </trkpt>
      <trkpt lat="49.07119" lon="2.14613">
        <ele>28.6</ele>
        <time>2022-02-17T10:14:42Z</time>
      </trkpt>
      <trkpt lat="49.07122" lon="2.14619">
        <ele>28.8</ele>
        <time>2022-02-17T10:14:45Z</time>
      </trkpt>
      <trkpt lat="49.07123" lon="2.14626">
        <ele>28.7</ele>
        <time>2022-02-17T10:14:48Z</time>
      </trkpt>
      <trkpt lat="49.07122" lon="2.14634">
        <ele>28.3</ele>
        <time>2022-02-17T10:14:52Z</time>
      </trkpt>
      <trkpt lat="49.0712" lon="2.14642">
        <ele>28.2</ele>
        <time>2022-02-17T10:14:54Z</time>
      </trkpt>
      <trkpt lat="49.07121" lon="2.14651">
        <ele>27.9</ele>
        <time>2022-02-17T10:14:57Z</time>
      </trkpt>
      <trkpt lat="49.07121" lon="2.14661">
        <ele>27.6</ele>
        <time>2022-02-17T10:15:02Z</time>
      </trkpt>
      <trkpt lat="49.07122" lon="2.14669">
        <ele>27.4</ele>
        <time>2022-02-17T10:15:06Z</time>
      </trkpt>
      <trkpt lat="49.07123" lon="2.14677">
        <ele>27.4</ele>
        <time>2022-02-17T10:15:10Z</time>
      </trkpt>
      <trkpt lat="49.07124" lon="2.14685">
        <ele>27.4</ele>
        <time>2022-02-17T10:15:15Z</time>
      </trkpt>
      <trkpt lat="49.07126" lon="2.14692">
        <ele>27.7</ele>
        <time>2022-02-17T10:15:19Z</time>
      </trkpt>
      <trkpt lat="49.07128" lon="2.14699">
        <ele>27.7</ele>
        <time>2022-02-17T10:15:23Z</time>
      </trkpt>
      <trkpt lat="49.07128" lon="2.14709">
        <ele>27.6</ele>
        <time>2022-02-17T10:15:28Z</time>
      </trkpt>
      <trkpt lat="49.07129" lon="2.14716">
        <ele>27.7</ele>
        <time>2022-02-17T10:15:31Z</time>
      </trkpt>
      <trkpt lat="49.0713" lon="2.14724">
        <ele>28</ele>
        <time>2022-02-17T10:15:36Z</time>
      </trkpt>
      <trkpt lat="49.07133" lon="2.14731">
        <ele>28.6</ele>
        <time>2022-02-17T10:15:40Z</time>
      </trkpt>
      <trkpt lat="49.07136" lon="2.14736">
        <ele>29</ele>
        <time>2022-02-17T10:15:44Z</time>
      </trkpt>
      <trkpt lat="49.07138" lon="2.14742">
        <ele>30</ele>
        <time>2022-02-17T10:15:48Z</time>
      </trkpt>
      <trkpt lat="49.07141" lon="2.14748">
        <ele>31</ele>
        <time>2022-02-17T10:15:52Z</time>
      </trkpt>
      <trkpt lat="49.07145" lon="2.14753">
        <ele>31.6</ele>
        <time>2022-02-17T10:15:56Z</time>
      </trkpt>
      <trkpt lat="49.07149" lon="2.14756">
        <ele>30.8</ele>
        <time>2022-02-17T10:16:01Z</time>
      </trkpt>
      <trkpt lat="49.07154" lon="2.14759">
        <ele>29.6</ele>
        <time>2022-02-17T10:16:06Z</time>
      </trkpt>
      <trkpt lat="49.07158" lon="2.14767">
        <ele>29.6</ele>
        <time>2022-02-17T10:16:12Z</time>
      </trkpt>
      <trkpt lat="49.07159" lon="2.14775">
        <ele>29.4</ele>
        <time>2022-02-17T10:16:16Z</time>
      </trkpt>
      <trkpt lat="49.0716" lon="2.14783">
        <ele>29.1</ele>
        <time>2022-02-17T10:16:22Z</time>
      </trkpt>
      <trkpt lat="49.07162" lon="2.14791">
        <ele>29</ele>
        <time>2022-02-17T10:16:26Z</time>
      </trkpt>
      <trkpt lat="49.07165" lon="2.14797">
        <ele>29.2</ele>
        <time>2022-02-17T10:16:31Z</time>
      </trkpt>
      <trkpt lat="49.07167" lon="2.14804">
        <ele>30.3</ele>
        <time>2022-02-17T10:16:35Z</time>
      </trkpt>
      <trkpt lat="49.07169" lon="2.14813">
        <ele>30.8</ele>
        <time>2022-02-17T10:16:40Z</time>
      </trkpt>
      <trkpt lat="49.0717" lon="2.1482">
        <ele>30.7</ele>
        <time>2022-02-17T10:16:44Z</time>
      </trkpt>
      <trkpt lat="49.07172" lon="2.14828">
        <ele>30.8</ele>
        <time>2022-02-17T10:16:49Z</time>
      </trkpt>
      <trkpt lat="49.07174" lon="2.14835">
        <ele>31.2</ele>
        <time>2022-02-17T10:16:53Z</time>
      </trkpt>
      <trkpt lat="49.07175" lon="2.14844">
        <ele>31.2</ele>
        <time>2022-02-17T10:16:57Z</time>
      </trkpt>
      <trkpt lat="49.07177" lon="2.14851">
        <ele>30.8</ele>
        <time>2022-02-17T10:17:02Z</time>
      </trkpt>
      <trkpt lat="49.07178" lon="2.14858">
        <ele>30.9</ele>
        <time>2022-02-17T10:17:05Z</time>
      </trkpt>
      <trkpt lat="49.07179" lon="2.14865">
        <ele>30.8</ele>
        <time>2022-02-17T10:17:09Z</time>
      </trkpt>
      <trkpt lat="49.07182" lon="2.14871">
        <ele>31.2</ele>
        <time>2022-02-17T10:17:12Z</time>
      </trkpt>
      <trkpt lat="49.07184" lon="2.14878">
        <ele>30.6</ele>
        <time>2022-02-17T10:17:16Z</time>
      </trkpt>
      <trkpt lat="49.07186" lon="2.14885">
        <ele>30.2</ele>
        <time>2022-02-17T10:17:20Z</time>
      </trkpt>
      <trkpt lat="49.07188" lon="2.14893">
        <ele>30.6</ele>
        <time>2022-02-17T10:17:24Z</time>
      </trkpt>
      <trkpt lat="49.07191" lon="2.14901">
        <ele>31.3</ele>
        <time>2022-02-17T10:17:29Z</time>
      </trkpt>
      <trkpt lat="49.07193" lon="2.14907">
        <ele>31.8</ele>
        <time>2022-02-17T10:17:32Z</time>
      </trkpt>
      <trkpt lat="49.07197" lon="2.14914">
        <ele>32.3</ele>
        <time>2022-02-17T10:17:36Z</time>
      </trkpt>
      <trkpt lat="49.07199" lon="2.14921">
        <ele>33</ele>
        <time>2022-02-17T10:17:41Z</time>
      </trkpt>
      <trkpt lat="49.07202" lon="2.14926">
        <ele>33.6</ele>
        <time>2022-02-17T10:17:44Z</time>
      </trkpt>
      <trkpt lat="49.07204" lon="2.14933">
        <ele>33.2</ele>
        <time>2022-02-17T10:17:48Z</time>
      </trkpt>
      <trkpt lat="49.07204" lon="2.14942">
        <ele>31.6</ele>
        <time>2022-02-17T10:17:52Z</time>
      </trkpt>
      <trkpt lat="49.07202" lon="2.1495">
        <ele>30.9</ele>
        <time>2022-02-17T10:17:57Z</time>
      </trkpt>
      <trkpt lat="49.07201" lon="2.14958">
        <ele>31.4</ele>
        <time>2022-02-17T10:18:01Z</time>
      </trkpt>
      <trkpt lat="49.072" lon="2.14965">
        <ele>32.4</ele>
        <time>2022-02-17T10:18:04Z</time>
      </trkpt>
      <trkpt lat="49.07199" lon="2.14974">
        <ele>34</ele>
        <time>2022-02-17T10:18:08Z</time>
      </trkpt>
      <trkpt lat="49.07198" lon="2.14983">
        <ele>35.1</ele>
        <time>2022-02-17T10:18:13Z</time>
      </trkpt>
      <trkpt lat="49.07198" lon="2.1499">
        <ele>35.5</ele>
        <time>2022-02-17T10:18:16Z</time>
      </trkpt>
      <trkpt lat="49.07197" lon="2.14999">
        <ele>35.6</ele>
        <time>2022-02-17T10:18:20Z</time>
      </trkpt>
      <trkpt lat="49.07195" lon="2.15006">
        <ele>34.7</ele>
        <time>2022-02-17T10:18:25Z</time>
      </trkpt>
      <trkpt lat="49.07194" lon="2.15014">
        <ele>32.8</ele>
        <time>2022-02-17T10:18:35Z</time>
      </trkpt>
      <trkpt lat="49.07194" lon="2.15022">
        <ele>33.4</ele>
        <time>2022-02-17T10:18:40Z</time>
      </trkpt>
      <trkpt lat="49.07194" lon="2.15029">
        <ele>33.3</ele>
        <time>2022-02-17T10:18:44Z</time>
      </trkpt>
      <trkpt lat="49.07194" lon="2.15038">
        <ele>32.7</ele>
        <time>2022-02-17T10:18:48Z</time>
      </trkpt>
      <trkpt lat="49.07195" lon="2.15045">
        <ele>31.6</ele>
        <time>2022-02-17T10:18:52Z</time>
      </trkpt>
      <trkpt lat="49.07194" lon="2.15052">
        <ele>30.9</ele>
        <time>2022-02-17T10:18:56Z</time>
      </trkpt>
      <trkpt lat="49.07195" lon="2.1506">
        <ele>30.8</ele>
        <time>2022-02-17T10:18:59Z</time>
      </trkpt>
      <trkpt lat="49.07195" lon="2.15068">
        <ele>31.1</ele>
        <time>2022-02-17T10:19:04Z</time>
      </trkpt>
      <trkpt lat="49.07195" lon="2.15076">
        <ele>31.5</ele>
        <time>2022-02-17T10:19:08Z</time>
      </trkpt>
      <trkpt lat="49.07194" lon="2.15085">
        <ele>31.4</ele>
        <time>2022-02-17T10:19:12Z</time>
      </trkpt>
      <trkpt lat="49.07195" lon="2.15093">
        <ele>31.4</ele>
        <time>2022-02-17T10:19:17Z</time>
      </trkpt>
      <trkpt lat="49.07195" lon="2.15101">
        <ele>31.5</ele>
        <time>2022-02-17T10:19:20Z</time>
      </trkpt>
      <trkpt lat="49.07195" lon="2.15108">
        <ele>31.7</ele>
        <time>2022-02-17T10:19:24Z</time>
      </trkpt>
      <trkpt lat="49.07195" lon="2.15117">
        <ele>31.9</ele>
        <time>2022-02-17T10:19:27Z</time>
      </trkpt>
      <trkpt lat="49.07195" lon="2.15125">
        <ele>32</ele>
        <time>2022-02-17T10:19:31Z</time>
      </trkpt>
      <trkpt lat="49.07194" lon="2.15133">
        <ele>31.9</ele>
        <time>2022-02-17T10:19:35Z</time>
      </trkpt>
      <trkpt lat="49.07194" lon="2.15141">
        <ele>31.8</ele>
        <time>2022-02-17T10:19:39Z</time>
      </trkpt>
      <trkpt lat="49.07195" lon="2.15149">
        <ele>31.3</ele>
        <time>2022-02-17T10:19:43Z</time>
      </trkpt>
      <trkpt lat="49.07195" lon="2.15157">
        <ele>30.9</ele>
        <time>2022-02-17T10:19:47Z</time>
      </trkpt>
      <trkpt lat="49.07195" lon="2.15165">
        <ele>31.1</ele>
        <time>2022-02-17T10:19:51Z</time>
      </trkpt>
      <trkpt lat="49.07195" lon="2.15173">
        <ele>31.6</ele>
        <time>2022-02-17T10:19:55Z</time>
      </trkpt>
      <trkpt lat="49.07195" lon="2.15181">
        <ele>31.9</ele>
        <time>2022-02-17T10:20:00Z</time>
      </trkpt>
      <trkpt lat="49.07195" lon="2.1519">
        <ele>33.7</ele>
        <time>2022-02-17T10:20:22Z</time>
      </trkpt>
      <trkpt lat="49.07195" lon="2.15197">
        <ele>33.2</ele>
        <time>2022-02-17T10:20:26Z</time>
      </trkpt>
      <trkpt lat="49.07195" lon="2.15204">
        <ele>32.1</ele>
        <time>2022-02-17T10:20:30Z</time>
      </trkpt>
      <trkpt lat="49.07195" lon="2.15212">
        <ele>30.3</ele>
        <time>2022-02-17T10:20:34Z</time>
      </trkpt>
      <trkpt lat="49.07196" lon="2.15221">
        <ele>29.3</ele>
        <time>2022-02-17T10:20:38Z</time>
      </trkpt>
      <trkpt lat="49.07195" lon="2.15229">
        <ele>29</ele>
        <time>2022-02-17T10:20:42Z</time>
      </trkpt>
      <trkpt lat="49.07195" lon="2.15236">
        <ele>28.7</ele>
        <time>2022-02-17T10:20:47Z</time>
      </trkpt>
      <trkpt lat="49.07195" lon="2.15244">
        <ele>28.3</ele>
        <time>2022-02-17T10:20:51Z</time>
      </trkpt>
      <trkpt lat="49.07194" lon="2.15252">
        <ele>28.2</ele>
        <time>2022-02-17T10:20:55Z</time>
      </trkpt>
      <trkpt lat="49.07195" lon="2.1526">
        <ele>28.2</ele>
        <time>2022-02-17T10:20:59Z</time>
      </trkpt>
      <trkpt lat="49.07196" lon="2.15267">
        <ele>29.5</ele>
        <time>2022-02-17T10:21:03Z</time>
      </trkpt>
      <trkpt lat="49.07195" lon="2.15276">
        <ele>29.9</ele>
        <time>2022-02-17T10:21:08Z</time>
      </trkpt>
      <trkpt lat="49.07193" lon="2.15284">
        <ele>29.2</ele>
        <time>2022-02-17T10:21:12Z</time>
      </trkpt>
      <trkpt lat="49.07193" lon="2.15293">
        <ele>28.6</ele>
        <time>2022-02-17T10:21:16Z</time>
      </trkpt>
      <trkpt lat="49.07192" lon="2.15302">
        <ele>28.7</ele>
        <time>2022-02-17T10:21:21Z</time>
      </trkpt>
      <trkpt lat="49.07192" lon="2.15311">
        <ele>29.3</ele>
        <time>2022-02-17T10:21:25Z</time>
      </trkpt>
      <trkpt lat="49.07192" lon="2.15318">
        <ele>30</ele>
        <time>2022-02-17T10:21:29Z</time>
      </trkpt>
      <trkpt lat="49.07193" lon="2.15326">
        <ele>30</ele>
        <time>2022-02-17T10:21:33Z</time>
      </trkpt>
      <trkpt lat="49.07193" lon="2.15334">
        <ele>30.4</ele>
        <time>2022-02-17T10:21:37Z</time>
      </trkpt>
      <trkpt lat="49.07193" lon="2.15343">
        <ele>30.8</ele>
        <time>2022-02-17T10:21:41Z</time>
      </trkpt>
      <trkpt lat="49.07194" lon="2.1535">
        <ele>31.2</ele>
        <time>2022-02-17T10:21:44Z</time>
      </trkpt>
      <trkpt lat="49.07193" lon="2.15357">
        <ele>31.7</ele>
        <time>2022-02-17T10:21:48Z</time>
      </trkpt>
      <trkpt lat="49.07193" lon="2.15365">
        <ele>31.6</ele>
        <time>2022-02-17T10:21:52Z</time>
      </trkpt>
      <trkpt lat="49.07195" lon="2.15373">
        <ele>30.9</ele>
        <time>2022-02-17T10:21:56Z</time>
      </trkpt>
      <trkpt lat="49.07195" lon="2.1538">
        <ele>29.4</ele>
        <time>2022-02-17T10:22:00Z</time>
      </trkpt>
      <trkpt lat="49.07197" lon="2.15388">
        <ele>28</ele>
        <time>2022-02-17T10:22:04Z</time>
      </trkpt>
      <trkpt lat="49.07198" lon="2.15395">
        <ele>27.9</ele>
        <time>2022-02-17T10:22:08Z</time>
      </trkpt>
      <trkpt lat="49.07199" lon="2.15403">
        <ele>28.5</ele>
        <time>2022-02-17T10:22:12Z</time>
      </trkpt>
      <trkpt lat="49.072" lon="2.15411">
        <ele>29.1</ele>
        <time>2022-02-17T10:22:16Z</time>
      </trkpt>
      <trkpt lat="49.072" lon="2.15419">
        <ele>29.4</ele>
        <time>2022-02-17T10:22:20Z</time>
      </trkpt>
      <trkpt lat="49.07202" lon="2.15426">
        <ele>29.3</ele>
        <time>2022-02-17T10:22:24Z</time>
      </trkpt>
      <trkpt lat="49.07203" lon="2.15433">
        <ele>29</ele>
        <time>2022-02-17T10:22:28Z</time>
      </trkpt>
      <trkpt lat="49.07203" lon="2.1544">
        <ele>28.8</ele>
        <time>2022-02-17T10:22:32Z</time>
      </trkpt>
      <trkpt lat="49.07205" lon="2.15448">
        <ele>28.8</ele>
        <time>2022-02-17T10:22:36Z</time>
      </trkpt>
      <trkpt lat="49.07207" lon="2.15456">
        <ele>28.1</ele>
        <time>2022-02-17T10:22:40Z</time>
      </trkpt>
      <trkpt lat="49.07206" lon="2.15464">
        <ele>26.4</ele>
        <time>2022-02-17T10:22:45Z</time>
      </trkpt>
      <trkpt lat="49.07204" lon="2.15472">
        <ele>24.5</ele>
        <time>2022-02-17T10:22:49Z</time>
      </trkpt>
      <trkpt lat="49.07201" lon="2.15479">
        <ele>23.8</ele>
        <time>2022-02-17T10:22:53Z</time>
      </trkpt>
      <trkpt lat="49.072" lon="2.15486">
        <ele>23.7</ele>
        <time>2022-02-17T10:22:57Z</time>
      </trkpt>
      <trkpt lat="49.07197" lon="2.15494">
        <ele>24</ele>
        <time>2022-02-17T10:23:03Z</time>
      </trkpt>
      <trkpt lat="49.07192" lon="2.15495">
        <ele>24.5</ele>
        <time>2022-02-17T10:23:07Z</time>
      </trkpt>
      <trkpt lat="49.0719" lon="2.15503">
        <ele>25.4</ele>
        <time>2022-02-17T10:23:12Z</time>
      </trkpt>
      <trkpt lat="49.0719" lon="2.15512">
        <ele>26.8</ele>
        <time>2022-02-17T10:23:18Z</time>
      </trkpt>
      <trkpt lat="49.07186" lon="2.15516">
        <ele>29</ele>
        <time>2022-02-17T10:25:19Z</time>
      </trkpt>
      <trkpt lat="49.07183" lon="2.15523">
        <ele>29.1</ele>
        <time>2022-02-17T10:25:25Z</time>
      </trkpt>
      <trkpt lat="49.0718" lon="2.1553">
        <ele>28.5</ele>
        <time>2022-02-17T10:25:31Z</time>
      </trkpt>
      <trkpt lat="49.07178" lon="2.15538">
        <ele>28.2</ele>
        <time>2022-02-17T10:25:35Z</time>
      </trkpt>
      <trkpt lat="49.07177" lon="2.15545">
        <ele>28.4</ele>
        <time>2022-02-17T10:25:39Z</time>
      </trkpt>
      <trkpt lat="49.07175" lon="2.15552">
        <ele>28.6</ele>
        <time>2022-02-17T10:25:43Z</time>
      </trkpt>
      <trkpt lat="49.07173" lon="2.15558">
        <ele>29</ele>
        <time>2022-02-17T10:25:47Z</time>
      </trkpt>
      <trkpt lat="49.07171" lon="2.15567">
        <ele>28.9</ele>
        <time>2022-02-17T10:25:52Z</time>
      </trkpt>
      <trkpt lat="49.0717" lon="2.15576">
        <ele>28.5</ele>
        <time>2022-02-17T10:25:56Z</time>
      </trkpt>
      <trkpt lat="49.07169" lon="2.15584">
        <ele>28.8</ele>
        <time>2022-02-17T10:26:01Z</time>
      </trkpt>
      <trkpt lat="49.07167" lon="2.15592">
        <ele>29.6</ele>
        <time>2022-02-17T10:26:06Z</time>
      </trkpt>
      <trkpt lat="49.07166" lon="2.15599">
        <ele>29.4</ele>
        <time>2022-02-17T10:26:10Z</time>
      </trkpt>
      <trkpt lat="49.07165" lon="2.15606">
        <ele>28.1</ele>
        <time>2022-02-17T10:26:15Z</time>
      </trkpt>
      <trkpt lat="49.07165" lon="2.15613">
        <ele>27.9</ele>
        <time>2022-02-17T10:26:20Z</time>
      </trkpt>
      <trkpt lat="49.07163" lon="2.1562">
        <ele>28.3</ele>
        <time>2022-02-17T10:26:28Z</time>
      </trkpt>
      <trkpt lat="49.07163" lon="2.15627">
        <ele>29.5</ele>
        <time>2022-02-17T10:27:25Z</time>
      </trkpt>
      <trkpt lat="49.07162" lon="2.15634">
        <ele>29.4</ele>
        <time>2022-02-17T10:27:28Z</time>
      </trkpt>
      <trkpt lat="49.07162" lon="2.15642">
        <ele>29.7</ele>
        <time>2022-02-17T10:27:31Z</time>
      </trkpt>
      <trkpt lat="49.07161" lon="2.15648">
        <ele>30.1</ele>
        <time>2022-02-17T10:27:34Z</time>
      </trkpt>
      <trkpt lat="49.07161" lon="2.15657">
        <ele>30</ele>
        <time>2022-02-17T10:27:38Z</time>
      </trkpt>
      <trkpt lat="49.0716" lon="2.15665">
        <ele>29.7</ele>
        <time>2022-02-17T10:27:41Z</time>
      </trkpt>
      <trkpt lat="49.07159" lon="2.15672">
        <ele>29.4</ele>
        <time>2022-02-17T10:27:45Z</time>
      </trkpt>
      <trkpt lat="49.07157" lon="2.1568">
        <ele>29.3</ele>
        <time>2022-02-17T10:27:49Z</time>
      </trkpt>
      <trkpt lat="49.07155" lon="2.15689">
        <ele>29.2</ele>
        <time>2022-02-17T10:27:54Z</time>
      </trkpt>
      <trkpt lat="49.07153" lon="2.15697">
        <ele>29.2</ele>
        <time>2022-02-17T10:27:58Z</time>
      </trkpt>
      <trkpt lat="49.07152" lon="2.15705">
        <ele>28.9</ele>
        <time>2022-02-17T10:28:01Z</time>
      </trkpt>
      <trkpt lat="49.07151" lon="2.15712">
        <ele>29.2</ele>
        <time>2022-02-17T10:28:05Z</time>
      </trkpt>
      <trkpt lat="49.07149" lon="2.15721">
        <ele>29.5</ele>
        <time>2022-02-17T10:28:08Z</time>
      </trkpt>
      <trkpt lat="49.07147" lon="2.15729">
        <ele>30.1</ele>
        <time>2022-02-17T10:28:12Z</time>
      </trkpt>
      <trkpt lat="49.07145" lon="2.15737">
        <ele>30.3</ele>
        <time>2022-02-17T10:28:16Z</time>
      </trkpt>
      <trkpt lat="49.07143" lon="2.15743">
        <ele>30.6</ele>
        <time>2022-02-17T10:28:20Z</time>
      </trkpt>
      <trkpt lat="49.07141" lon="2.15752">
        <ele>30.7</ele>
        <time>2022-02-17T10:28:24Z</time>
      </trkpt>
      <trkpt lat="49.07139" lon="2.1576">
        <ele>30.6</ele>
        <time>2022-02-17T10:28:28Z</time>
      </trkpt>
      <trkpt lat="49.07138" lon="2.15767">
        <ele>30.6</ele>
        <time>2022-02-17T10:28:32Z</time>
      </trkpt>
      <trkpt lat="49.07136" lon="2.15773">
        <ele>30.5</ele>
        <time>2022-02-17T10:28:34Z</time>
      </trkpt>
      <trkpt lat="49.07135" lon="2.1578">
        <ele>30.5</ele>
        <time>2022-02-17T10:28:38Z</time>
      </trkpt>
      <trkpt lat="49.07133" lon="2.15789">
        <ele>30.6</ele>
        <time>2022-02-17T10:28:41Z</time>
      </trkpt>
      <trkpt lat="49.07131" lon="2.15797">
        <ele>30.7</ele>
        <time>2022-02-17T10:28:46Z</time>
      </trkpt>
      <trkpt lat="49.0713" lon="2.15805">
        <ele>31</ele>
        <time>2022-02-17T10:28:50Z</time>
      </trkpt>
      <trkpt lat="49.07128" lon="2.15813">
        <ele>31.3</ele>
        <time>2022-02-17T10:28:53Z</time>
      </trkpt>
      <trkpt lat="49.07127" lon="2.15824">
        <ele>31.4</ele>
        <time>2022-02-17T10:28:58Z</time>
      </trkpt>
      <trkpt lat="49.07125" lon="2.15833">
        <ele>31.5</ele>
        <time>2022-02-17T10:29:02Z</time>
      </trkpt>
      <trkpt lat="49.07123" lon="2.1584">
        <ele>31.2</ele>
        <time>2022-02-17T10:29:06Z</time>
      </trkpt>
      <trkpt lat="49.07122" lon="2.15848">
        <ele>30.7</ele>
        <time>2022-02-17T10:29:10Z</time>
      </trkpt>
      <trkpt lat="49.0712" lon="2.15856">
        <ele>30.6</ele>
        <time>2022-02-17T10:29:14Z</time>
      </trkpt>
      <trkpt lat="49.07119" lon="2.15864">
        <ele>31.3</ele>
        <time>2022-02-17T10:29:18Z</time>
      </trkpt>
      <trkpt lat="49.07118" lon="2.15874">
        <ele>31.7</ele>
        <time>2022-02-17T10:29:22Z</time>
      </trkpt>
      <trkpt lat="49.07116" lon="2.15882">
        <ele>31.4</ele>
        <time>2022-02-17T10:29:26Z</time>
      </trkpt>
      <trkpt lat="49.07116" lon="2.1589">
        <ele>31.3</ele>
        <time>2022-02-17T10:29:31Z</time>
      </trkpt>
      <trkpt lat="49.07115" lon="2.15899">
        <ele>31.5</ele>
        <time>2022-02-17T10:29:35Z</time>
      </trkpt>
      <trkpt lat="49.07114" lon="2.15907">
        <ele>31.2</ele>
        <time>2022-02-17T10:29:39Z</time>
      </trkpt>
      <trkpt lat="49.07113" lon="2.15914">
        <ele>30.6</ele>
        <time>2022-02-17T10:29:42Z</time>
      </trkpt>
      <trkpt lat="49.07112" lon="2.15922">
        <ele>30</ele>
        <time>2022-02-17T10:29:46Z</time>
      </trkpt>
      <trkpt lat="49.07111" lon="2.15929">
        <ele>29.5</ele>
        <time>2022-02-17T10:29:50Z</time>
      </trkpt>
      <trkpt lat="49.0711" lon="2.15937">
        <ele>29.2</ele>
        <time>2022-02-17T10:29:53Z</time>
      </trkpt>
      <trkpt lat="49.07109" lon="2.15947">
        <ele>29.4</ele>
        <time>2022-02-17T10:29:58Z</time>
      </trkpt>
      <trkpt lat="49.07107" lon="2.15955">
        <ele>30</ele>
        <time>2022-02-17T10:30:03Z</time>
      </trkpt>
      <trkpt lat="49.07106" lon="2.15963">
        <ele>30.2</ele>
        <time>2022-02-17T10:30:07Z</time>
      </trkpt>
      <trkpt lat="49.07106" lon="2.15971">
        <ele>30.2</ele>
        <time>2022-02-17T10:30:10Z</time>
      </trkpt>
      <trkpt lat="49.07104" lon="2.15978">
        <ele>30.3</ele>
        <time>2022-02-17T10:30:15Z</time>
      </trkpt>
      <trkpt lat="49.07104" lon="2.15985">
        <ele>30.3</ele>
        <time>2022-02-17T10:30:19Z</time>
      </trkpt>
      <trkpt lat="49.07104" lon="2.15994">
        <ele>30.7</ele>
        <time>2022-02-17T10:30:23Z</time>
      </trkpt>
      <trkpt lat="49.07104" lon="2.16001">
        <ele>31</ele>
        <time>2022-02-17T10:30:28Z</time>
      </trkpt>
      <trkpt lat="49.07105" lon="2.1601">
        <ele>31.2</ele>
        <time>2022-02-17T10:30:33Z</time>
      </trkpt>
      <trkpt lat="49.07106" lon="2.16018">
        <ele>31.3</ele>
        <time>2022-02-17T10:30:37Z</time>
      </trkpt>
      <trkpt lat="49.07107" lon="2.16025">
        <ele>31.2</ele>
        <time>2022-02-17T10:30:41Z</time>
      </trkpt>
      <trkpt lat="49.07108" lon="2.16033">
        <ele>30.9</ele>
        <time>2022-02-17T10:30:45Z</time>
      </trkpt>
      <trkpt lat="49.07109" lon="2.16041">
        <ele>30.7</ele>
        <time>2022-02-17T10:30:49Z</time>
      </trkpt>
      <trkpt lat="49.07111" lon="2.16049">
        <ele>30.8</ele>
        <time>2022-02-17T10:30:53Z</time>
      </trkpt>
      <trkpt lat="49.0711" lon="2.16057">
        <ele>30.9</ele>
        <time>2022-02-17T10:30:57Z</time>
      </trkpt>
      <trkpt lat="49.0711" lon="2.16065">
        <ele>30.8</ele>
        <time>2022-02-17T10:31:01Z</time>
      </trkpt>
      <trkpt lat="49.07111" lon="2.16073">
        <ele>30.5</ele>
        <time>2022-02-17T10:31:05Z</time>
      </trkpt>
      <trkpt lat="49.07111" lon="2.1608">
        <ele>30.7</ele>
        <time>2022-02-17T10:31:09Z</time>
      </trkpt>
      <trkpt lat="49.07113" lon="2.16087">
        <ele>31.1</ele>
        <time>2022-02-17T10:31:13Z</time>
      </trkpt>
      <trkpt lat="49.07113" lon="2.16095">
        <ele>31.5</ele>
        <time>2022-02-17T10:31:17Z</time>
      </trkpt>
      <trkpt lat="49.07114" lon="2.16103">
        <ele>31.2</ele>
        <time>2022-02-17T10:31:21Z</time>
      </trkpt>
      <trkpt lat="49.07113" lon="2.16112">
        <ele>30.7</ele>
        <time>2022-02-17T10:31:25Z</time>
      </trkpt>
      <trkpt lat="49.07113" lon="2.1612">
        <ele>30.3</ele>
        <time>2022-02-17T10:31:29Z</time>
      </trkpt>
      <trkpt lat="49.07113" lon="2.16128">
        <ele>30.4</ele>
        <time>2022-02-17T10:31:34Z</time>
      </trkpt>
      <trkpt lat="49.07114" lon="2.16135">
        <ele>30.4</ele>
        <time>2022-02-17T10:31:37Z</time>
      </trkpt>
      <trkpt lat="49.07116" lon="2.16142">
        <ele>30.5</ele>
        <time>2022-02-17T10:31:41Z</time>
      </trkpt>
      <trkpt lat="49.07117" lon="2.1615">
        <ele>30.6</ele>
        <time>2022-02-17T10:31:45Z</time>
      </trkpt>
      <trkpt lat="49.07116" lon="2.16157">
        <ele>30.8</ele>
        <time>2022-02-17T10:31:49Z</time>
      </trkpt>
      <trkpt lat="49.07116" lon="2.16165">
        <ele>30.7</ele>
        <time>2022-02-17T10:31:53Z</time>
      </trkpt>
      <trkpt lat="49.07116" lon="2.16173">
        <ele>30.7</ele>
        <time>2022-02-17T10:31:56Z</time>
      </trkpt>
      <trkpt lat="49.07116" lon="2.16181">
        <ele>31.4</ele>
        <time>2022-02-17T10:32:01Z</time>
      </trkpt>
      <trkpt lat="49.07118" lon="2.16188">
        <ele>32.2</ele>
        <time>2022-02-17T10:32:05Z</time>
      </trkpt>
      <trkpt lat="49.07119" lon="2.16194">
        <ele>32.5</ele>
        <time>2022-02-17T10:32:09Z</time>
      </trkpt>
      <trkpt lat="49.07115" lon="2.16198">
        <ele>31.7</ele>
        <time>2022-02-17T10:32:12Z</time>
      </trkpt>
      <trkpt lat="49.07116" lon="2.16205">
        <ele>31</ele>
        <time>2022-02-17T10:32:16Z</time>
      </trkpt>
      <trkpt lat="49.07119" lon="2.16213">
        <ele>30.9</ele>
        <time>2022-02-17T10:32:21Z</time>
      </trkpt>
      <trkpt lat="49.07114" lon="2.16212">
        <ele>29.7</ele>
        <time>2022-02-17T10:32:29Z</time>
      </trkpt>
      <trkpt lat="49.07116" lon="2.16222">
        <ele>27.7</ele>
        <time>2022-02-17T10:32:46Z</time>
      </trkpt>
      <trkpt lat="49.07118" lon="2.1623">
        <ele>27.7</ele>
        <time>2022-02-17T10:32:49Z</time>
      </trkpt>
      <trkpt lat="49.07119" lon="2.16237">
        <ele>28</ele>
        <time>2022-02-17T10:32:53Z</time>
      </trkpt>
      <trkpt lat="49.07119" lon="2.16245">
        <ele>28.1</ele>
        <time>2022-02-17T10:32:57Z</time>
      </trkpt>
      <trkpt lat="49.0712" lon="2.16253">
        <ele>27.9</ele>
        <time>2022-02-17T10:33:01Z</time>
      </trkpt>
      <trkpt lat="49.07123" lon="2.1626">
        <ele>27.5</ele>
        <time>2022-02-17T10:33:05Z</time>
      </trkpt>
      <trkpt lat="49.07125" lon="2.16268">
        <ele>27.5</ele>
        <time>2022-02-17T10:33:09Z</time>
      </trkpt>
      <trkpt lat="49.07127" lon="2.16275">
        <ele>27.6</ele>
        <time>2022-02-17T10:33:14Z</time>
      </trkpt>
      <trkpt lat="49.07128" lon="2.16283">
        <ele>27.4</ele>
        <time>2022-02-17T10:33:18Z</time>
      </trkpt>
      <trkpt lat="49.07128" lon="2.16291">
        <ele>27.1</ele>
        <time>2022-02-17T10:33:22Z</time>
      </trkpt>
      <trkpt lat="49.07127" lon="2.16299">
        <ele>27.1</ele>
        <time>2022-02-17T10:33:27Z</time>
      </trkpt>
      <trkpt lat="49.07126" lon="2.16307">
        <ele>27.3</ele>
        <time>2022-02-17T10:33:32Z</time>
      </trkpt>
      <trkpt lat="49.07129" lon="2.16314">
        <ele>27.5</ele>
        <time>2022-02-17T10:33:46Z</time>
      </trkpt>
      <trkpt lat="49.07128" lon="2.16321">
        <ele>28.3</ele>
        <time>2022-02-17T10:33:52Z</time>
      </trkpt>
      <trkpt lat="49.07128" lon="2.16328">
        <ele>28.9</ele>
        <time>2022-02-17T10:33:55Z</time>
      </trkpt>
      <trkpt lat="49.07128" lon="2.16338">
        <ele>31</ele>
        <time>2022-02-17T10:34:02Z</time>
      </trkpt>
      <trkpt lat="49.07127" lon="2.16346">
        <ele>32.1</ele>
        <time>2022-02-17T10:34:07Z</time>
      </trkpt>
      <trkpt lat="49.07126" lon="2.16353">
        <ele>32.6</ele>
        <time>2022-02-17T10:34:12Z</time>
      </trkpt>
      <trkpt lat="49.07125" lon="2.16361">
        <ele>32.2</ele>
        <time>2022-02-17T10:34:18Z</time>
      </trkpt>
      <trkpt lat="49.07124" lon="2.16369">
        <ele>31.6</ele>
        <time>2022-02-17T10:34:24Z</time>
      </trkpt>
      <trkpt lat="49.07123" lon="2.16376">
        <ele>31.1</ele>
        <time>2022-02-17T10:34:29Z</time>
      </trkpt>
      <trkpt lat="49.07123" lon="2.16384">
        <ele>30.8</ele>
        <time>2022-02-17T10:34:35Z</time>
      </trkpt>
      <trkpt lat="49.07123" lon="2.16393">
        <ele>31</ele>
        <time>2022-02-17T10:34:40Z</time>
      </trkpt>
      <trkpt lat="49.07123" lon="2.164">
        <ele>30.8</ele>
        <time>2022-02-17T10:34:46Z</time>
      </trkpt>
      <trkpt lat="49.07123" lon="2.16408">
        <ele>30.2</ele>
        <time>2022-02-17T10:34:53Z</time>
      </trkpt>
      <trkpt lat="49.07123" lon="2.16416">
        <ele>30.3</ele>
        <time>2022-02-17T10:34:58Z</time>
      </trkpt>
      <trkpt lat="49.07124" lon="2.16424">
        <ele>30.9</ele>
        <time>2022-02-17T10:35:02Z</time>
      </trkpt>
      <trkpt lat="49.07124" lon="2.16433">
        <ele>31.8</ele>
        <time>2022-02-17T10:35:08Z</time>
      </trkpt>
      <trkpt lat="49.07124" lon="2.16441">
        <ele>32.5</ele>
        <time>2022-02-17T10:35:12Z</time>
      </trkpt>
      <trkpt lat="49.07125" lon="2.16449">
        <ele>32.9</ele>
        <time>2022-02-17T10:35:18Z</time>
      </trkpt>
      <trkpt lat="49.07127" lon="2.16457">
        <ele>32.7</ele>
        <time>2022-02-17T10:35:22Z</time>
      </trkpt>
      <trkpt lat="49.07128" lon="2.16465">
        <ele>32</ele>
        <time>2022-02-17T10:35:27Z</time>
      </trkpt>
      <trkpt lat="49.07128" lon="2.16473">
        <ele>31.6</ele>
        <time>2022-02-17T10:35:31Z</time>
      </trkpt>
      <trkpt lat="49.0713" lon="2.1648">
        <ele>31.5</ele>
        <time>2022-02-17T10:35:35Z</time>
      </trkpt>
      <trkpt lat="49.07131" lon="2.16487">
        <ele>30.8</ele>
        <time>2022-02-17T10:35:39Z</time>
      </trkpt>
      <trkpt lat="49.07134" lon="2.16495">
        <ele>30.5</ele>
        <time>2022-02-17T10:35:43Z</time>
      </trkpt>
      <trkpt lat="49.07136" lon="2.16502">
        <ele>31.4</ele>
        <time>2022-02-17T10:35:49Z</time>
      </trkpt>
      <trkpt lat="49.07138" lon="2.16511">
        <ele>32.4</ele>
        <time>2022-02-17T10:35:54Z</time>
      </trkpt>
      <trkpt lat="49.07139" lon="2.16518">
        <ele>32.5</ele>
        <time>2022-02-17T10:35:58Z</time>
      </trkpt>
      <trkpt lat="49.07142" lon="2.16523">
        <ele>32.4</ele>
        <time>2022-02-17T10:36:03Z</time>
      </trkpt>
      <trkpt lat="49.07146" lon="2.1653">
        <ele>33.2</ele>
        <time>2022-02-17T10:36:07Z</time>
      </trkpt>
      <trkpt lat="49.07149" lon="2.16536">
        <ele>34.8</ele>
        <time>2022-02-17T10:36:13Z</time>
      </trkpt>
      <trkpt lat="49.07153" lon="2.16535">
        <ele>35.2</ele>
        <time>2022-02-17T10:36:18Z</time>
      </trkpt>
      <trkpt lat="49.07158" lon="2.16531">
        <ele>35.2</ele>
        <time>2022-02-17T10:36:23Z</time>
      </trkpt>
      <trkpt lat="49.07162" lon="2.16537">
        <ele>34.2</ele>
        <time>2022-02-17T10:36:28Z</time>
      </trkpt>
      <trkpt lat="49.07162" lon="2.16545">
        <ele>32.9</ele>
        <time>2022-02-17T10:36:32Z</time>
      </trkpt>
      <trkpt lat="49.0716" lon="2.16552">
        <ele>32</ele>
        <time>2022-02-17T10:36:37Z</time>
      </trkpt>
      <trkpt lat="49.07157" lon="2.16558">
        <ele>32.8</ele>
        <time>2022-02-17T10:36:45Z</time>
      </trkpt>
      <trkpt lat="49.0716" lon="2.16563">
        <ele>33.2</ele>
        <time>2022-02-17T10:36:49Z</time>
      </trkpt>
      <trkpt lat="49.07166" lon="2.16566">
        <ele>36.3</ele>
        <time>2022-02-17T10:37:07Z</time>
      </trkpt>
      <trkpt lat="49.07169" lon="2.16562">
        <ele>34.3</ele>
        <time>2022-02-17T10:37:19Z</time>
      </trkpt>
      <trkpt lat="49.07175" lon="2.16563">
        <ele>34.3</ele>
        <time>2022-02-17T10:37:25Z</time>
      </trkpt>
      <trkpt lat="49.07178" lon="2.16568">
        <ele>31.7</ele>
        <time>2022-02-17T10:37:33Z</time>
      </trkpt>
      <trkpt lat="49.07182" lon="2.16573">
        <ele>30.7</ele>
        <time>2022-02-17T10:37:39Z</time>
      </trkpt>
      <trkpt lat="49.07186" lon="2.16578">
        <ele>31.9</ele>
        <time>2022-02-17T10:37:49Z</time>
      </trkpt>
      <trkpt lat="49.0719" lon="2.16583">
        <ele>31.3</ele>
        <time>2022-02-17T10:37:58Z</time>
      </trkpt>
      <trkpt lat="49.07193" lon="2.16588">
        <ele>33</ele>
        <time>2022-02-17T10:38:05Z</time>
      </trkpt>
      <trkpt lat="49.07196" lon="2.16594">
        <ele>35.4</ele>
        <time>2022-02-17T10:38:10Z</time>
      </trkpt>
      <trkpt lat="49.072" lon="2.16599">
        <ele>37.6</ele>
        <time>2022-02-17T10:38:19Z</time>
      </trkpt>
      <trkpt lat="49.07201" lon="2.16606">
        <ele>37.6</ele>
        <time>2022-02-17T10:38:25Z</time>
      </trkpt>
      <trkpt lat="49.07203" lon="2.16614">
        <ele>36.9</ele>
        <time>2022-02-17T10:38:30Z</time>
      </trkpt>
      <trkpt lat="49.07205" lon="2.16621">
        <ele>36.1</ele>
        <time>2022-02-17T10:38:36Z</time>
      </trkpt>
      <trkpt lat="49.07204" lon="2.16629">
        <ele>36.5</ele>
        <time>2022-02-17T10:38:41Z</time>
      </trkpt>
      <trkpt lat="49.072" lon="2.16631">
        <ele>36.2</ele>
        <time>2022-02-17T10:38:48Z</time>
      </trkpt>
      <trkpt lat="49.07196" lon="2.16632">
        <ele>35.3</ele>
        <time>2022-02-17T10:38:56Z</time>
      </trkpt>
      <trkpt lat="49.07199" lon="2.16638">
        <ele>34.6</ele>
        <time>2022-02-17T10:39:35Z</time>
      </trkpt>
      <trkpt lat="49.07203" lon="2.16642">
        <ele>35.2</ele>
        <time>2022-02-17T10:39:40Z</time>
      </trkpt>
      <trkpt lat="49.07205" lon="2.16649">
        <ele>35.7</ele>
        <time>2022-02-17T10:39:47Z</time>
      </trkpt>
      <trkpt lat="49.0721" lon="2.16651">
        <ele>36.2</ele>
        <time>2022-02-17T10:39:58Z</time>
      </trkpt>
      <trkpt lat="49.07215" lon="2.16651">
        <ele>36.3</ele>
        <time>2022-02-17T10:40:04Z</time>
      </trkpt>
      <trkpt lat="49.07219" lon="2.16648">
        <ele>36.6</ele>
        <time>2022-02-17T10:40:12Z</time>
      </trkpt>
      <trkpt lat="49.07222" lon="2.16642">
        <ele>37</ele>
        <time>2022-02-17T10:40:19Z</time>
      </trkpt>
      <trkpt lat="49.0722" lon="2.16635">
        <ele>36.7</ele>
        <time>2022-02-17T10:40:28Z</time>
      </trkpt>
      <trkpt lat="49.0722" lon="2.16628">
        <ele>35.6</ele>
        <time>2022-02-17T10:40:33Z</time>
      </trkpt>
      <trkpt lat="49.07222" lon="2.16621">
        <ele>35.1</ele>
        <time>2022-02-17T10:40:38Z</time>
      </trkpt>
      <trkpt lat="49.07228" lon="2.16617">
        <ele>36.4</ele>
        <time>2022-02-17T10:40:47Z</time>
      </trkpt>
      <trkpt lat="49.07234" lon="2.16614">
        <ele>38.7</ele>
        <time>2022-02-17T10:40:49Z</time>
      </trkpt>
      <trkpt lat="49.07238" lon="2.16612">
        <ele>45.4</ele>
        <time>2022-02-17T10:40:58Z</time>
      </trkpt>
      <trkpt lat="49.07242" lon="2.16609">
        <ele>45.5</ele>
        <time>2022-02-17T10:41:08Z</time>
      </trkpt>
      <trkpt lat="49.07243" lon="2.16601">
        <ele>45.8</ele>
        <time>2022-02-17T10:41:13Z</time>
      </trkpt>
      <trkpt lat="49.07241" lon="2.16594">
        <ele>46.5</ele>
        <time>2022-02-17T10:41:20Z</time>
      </trkpt>
      <trkpt lat="49.07245" lon="2.16589">
        <ele>47.1</ele>
        <time>2022-02-17T10:41:26Z</time>
      </trkpt>
      <trkpt lat="49.07245" lon="2.16582">
        <ele>46.8</ele>
        <time>2022-02-17T10:41:49Z</time>
      </trkpt>
      <trkpt lat="49.07245" lon="2.16572">
        <ele>44.7</ele>
        <time>2022-02-17T10:41:56Z</time>
      </trkpt>
      <trkpt lat="49.07246" lon="2.16565">
        <ele>43.6</ele>
        <time>2022-02-17T10:42:00Z</time>
      </trkpt>
      <trkpt lat="49.07249" lon="2.16558">
        <ele>42.3</ele>
        <time>2022-02-17T10:42:05Z</time>
      </trkpt>
      <trkpt lat="49.07251" lon="2.16552">
        <ele>42.3</ele>
        <time>2022-02-17T10:42:10Z</time>
      </trkpt>
      <trkpt lat="49.07247" lon="2.1655">
        <ele>46</ele>
        <time>2022-02-17T10:42:26Z</time>
      </trkpt>
      <trkpt lat="49.07243" lon="2.16546">
        <ele>45.3</ele>
        <time>2022-02-17T10:42:29Z</time>
      </trkpt>
      <trkpt lat="49.07238" lon="2.16542">
        <ele>43.7</ele>
        <time>2022-02-17T10:42:34Z</time>
      </trkpt>
      <trkpt lat="49.07233" lon="2.16537">
        <ele>41.7</ele>
        <time>2022-02-17T10:42:38Z</time>
      </trkpt>
      <trkpt lat="49.07229" lon="2.16534">
        <ele>39.4</ele>
        <time>2022-02-17T10:42:43Z</time>
      </trkpt>
      <trkpt lat="49.07225" lon="2.16529">
        <ele>38.5</ele>
        <time>2022-02-17T10:42:48Z</time>
      </trkpt>
      <trkpt lat="49.07219" lon="2.16526">
        <ele>38.9</ele>
        <time>2022-02-17T10:42:53Z</time>
      </trkpt>
      <trkpt lat="49.07216" lon="2.16532">
        <ele>39.4</ele>
        <time>2022-02-17T10:42:57Z</time>
      </trkpt>
      <trkpt lat="49.07217" lon="2.16541">
        <ele>39.8</ele>
        <time>2022-02-17T10:43:00Z</time>
      </trkpt>
      <trkpt lat="49.07219" lon="2.16551">
        <ele>40.5</ele>
        <time>2022-02-17T10:43:04Z</time>
      </trkpt>
      <trkpt lat="49.07219" lon="2.1656">
        <ele>41.1</ele>
        <time>2022-02-17T10:43:08Z</time>
      </trkpt>
      <trkpt lat="49.07219" lon="2.16567">
        <ele>41.7</ele>
        <time>2022-02-17T10:43:14Z</time>
      </trkpt>
      <trkpt lat="49.07219" lon="2.16575">
        <ele>40.5</ele>
        <time>2022-02-17T10:43:24Z</time>
      </trkpt>
      <trkpt lat="49.07217" lon="2.16568">
        <ele>37.3</ele>
        <time>2022-02-17T10:43:47Z</time>
      </trkpt>
      <trkpt lat="49.0722" lon="2.16563">
        <ele>37.8</ele>
        <time>2022-02-17T10:43:50Z</time>
      </trkpt>
      <trkpt lat="49.07222" lon="2.16555">
        <ele>38.7</ele>
        <time>2022-02-17T10:43:53Z</time>
      </trkpt>
      <trkpt lat="49.07224" lon="2.16548">
        <ele>39.8</ele>
        <time>2022-02-17T10:43:57Z</time>
      </trkpt>
      <trkpt lat="49.0723" lon="2.1654">
        <ele>40.9</ele>
        <time>2022-02-17T10:44:01Z</time>
      </trkpt>
      <trkpt lat="49.07227" lon="2.16546">
        <ele>42.1</ele>
        <time>2022-02-17T10:44:05Z</time>
      </trkpt>
      <trkpt lat="49.07228" lon="2.16555">
        <ele>42.5</ele>
        <time>2022-02-17T10:44:17Z</time>
      </trkpt>
      <trkpt lat="49.07228" lon="2.16562">
        <ele>41.3</ele>
        <time>2022-02-17T10:44:22Z</time>
      </trkpt>
      <trkpt lat="49.07224" lon="2.16567">
        <ele>41</ele>
        <time>2022-02-17T10:44:28Z</time>
      </trkpt>
      <trkpt lat="49.07221" lon="2.16572">
        <ele>42.4</ele>
        <time>2022-02-17T10:44:34Z</time>
      </trkpt>
      <trkpt lat="49.07218" lon="2.16577">
        <ele>42.9</ele>
        <time>2022-02-17T10:44:39Z</time>
      </trkpt>
      <trkpt lat="49.07215" lon="2.16583">
        <ele>43.3</ele>
        <time>2022-02-17T10:44:53Z</time>
      </trkpt>
      <trkpt lat="49.0721" lon="2.16585">
        <ele>43.1</ele>
        <time>2022-02-17T10:45:01Z</time>
      </trkpt>
      <trkpt lat="49.07206" lon="2.16584">
        <ele>43.1</ele>
        <time>2022-02-17T10:45:07Z</time>
      </trkpt>
      <trkpt lat="49.07201" lon="2.16581">
        <ele>43.5</ele>
        <time>2022-02-17T10:45:13Z</time>
      </trkpt>
      <trkpt lat="49.07197" lon="2.16576">
        <ele>41.9</ele>
        <time>2022-02-17T10:45:21Z</time>
      </trkpt>
      <trkpt lat="49.07198" lon="2.16568">
        <ele>39.7</ele>
        <time>2022-02-17T10:45:30Z</time>
      </trkpt>
      <trkpt lat="49.07198" lon="2.16561">
        <ele>38.6</ele>
        <time>2022-02-17T10:45:35Z</time>
      </trkpt>
      <trkpt lat="49.07198" lon="2.16553">
        <ele>37.1</ele>
        <time>2022-02-17T10:45:39Z</time>
      </trkpt>
      <trkpt lat="49.07194" lon="2.16549">
        <ele>36.1</ele>
        <time>2022-02-17T10:45:44Z</time>
      </trkpt>
      <trkpt lat="49.07189" lon="2.1655">
        <ele>35.4</ele>
        <time>2022-02-17T10:45:48Z</time>
      </trkpt>
      <trkpt lat="49.07185" lon="2.16548">
        <ele>35.5</ele>
        <time>2022-02-17T10:45:54Z</time>
      </trkpt>
      <trkpt lat="49.07179" lon="2.1655">
        <ele>37.4</ele>
        <time>2022-02-17T10:46:00Z</time>
      </trkpt>
      <trkpt lat="49.07175" lon="2.16555">
        <ele>38.1</ele>
        <time>2022-02-17T10:46:05Z</time>
      </trkpt>
      <trkpt lat="49.07174" lon="2.16562">
        <ele>37.8</ele>
        <time>2022-02-17T10:46:09Z</time>
      </trkpt>
      <trkpt lat="49.07175" lon="2.16568">
        <ele>38</ele>
        <time>2022-02-17T10:46:13Z</time>
      </trkpt>
      <trkpt lat="49.07179" lon="2.16574">
        <ele>38.1</ele>
        <time>2022-02-17T10:46:18Z</time>
      </trkpt>
      <trkpt lat="49.0718" lon="2.16583">
        <ele>37.5</ele>
        <time>2022-02-17T10:46:24Z</time>
      </trkpt>
      <trkpt lat="49.07181" lon="2.16591">
        <ele>38.2</ele>
        <time>2022-02-17T10:46:29Z</time>
      </trkpt>
      <trkpt lat="49.07182" lon="2.166">
        <ele>39.2</ele>
        <time>2022-02-17T10:46:34Z</time>
      </trkpt>
      <trkpt lat="49.07181" lon="2.16608">
        <ele>40.2</ele>
        <time>2022-02-17T10:46:38Z</time>
      </trkpt>
      <trkpt lat="49.07182" lon="2.16614">
        <ele>42.2</ele>
        <time>2022-02-17T10:46:43Z</time>
      </trkpt>
      <trkpt lat="49.07184" lon="2.16621">
        <ele>43.7</ele>
        <time>2022-02-17T10:46:50Z</time>
      </trkpt>
      <trkpt lat="49.07179" lon="2.16622">
        <ele>43.1</ele>
        <time>2022-02-17T10:46:56Z</time>
      </trkpt>
      <trkpt lat="49.07181" lon="2.16629">
        <ele>41.1</ele>
        <time>2022-02-17T10:47:04Z</time>
      </trkpt>
      <trkpt lat="49.07186" lon="2.16631">
        <ele>39.8</ele>
        <time>2022-02-17T10:48:30Z</time>
      </trkpt>
      <trkpt lat="49.07191" lon="2.16632">
        <ele>39.6</ele>
        <time>2022-02-17T10:48:37Z</time>
      </trkpt>
      <trkpt lat="49.07194" lon="2.16639">
        <ele>40</ele>
        <time>2022-02-17T10:48:42Z</time>
      </trkpt>
      <trkpt lat="49.07196" lon="2.16646">
        <ele>40.8</ele>
        <time>2022-02-17T10:48:47Z</time>
      </trkpt>
      <trkpt lat="49.07198" lon="2.16652">
        <ele>41.8</ele>
        <time>2022-02-17T10:48:53Z</time>
      </trkpt>
      <trkpt lat="49.07196" lon="2.16659">
        <ele>41.9</ele>
        <time>2022-02-17T10:48:59Z</time>
      </trkpt>
      <trkpt lat="49.07191" lon="2.16663">
        <ele>41.3</ele>
        <time>2022-02-17T10:49:04Z</time>
      </trkpt>
      <trkpt lat="49.07186" lon="2.16666">
        <ele>40.8</ele>
        <time>2022-02-17T10:49:10Z</time>
      </trkpt>
      <trkpt lat="49.07185" lon="2.16659">
        <ele>39.6</ele>
        <time>2022-02-17T10:49:51Z</time>
      </trkpt>
      <trkpt lat="49.07183" lon="2.16653">
        <ele>39.3</ele>
        <time>2022-02-17T10:49:59Z</time>
      </trkpt>
      <trkpt lat="49.07177" lon="2.16653">
        <ele>39</ele>
        <time>2022-02-17T10:50:06Z</time>
      </trkpt>
      <trkpt lat="49.07173" lon="2.16657">
        <ele>38.6</ele>
        <time>2022-02-17T10:50:12Z</time>
      </trkpt>
      <trkpt lat="49.07168" lon="2.16659">
        <ele>37.4</ele>
        <time>2022-02-17T10:50:18Z</time>
      </trkpt>
      <trkpt lat="49.07164" lon="2.16665">
        <ele>35.9</ele>
        <time>2022-02-17T10:50:24Z</time>
      </trkpt>
      <trkpt lat="49.0716" lon="2.16665">
        <ele>35.5</ele>
        <time>2022-02-17T10:50:30Z</time>
      </trkpt>
      <trkpt lat="49.07161" lon="2.16658">
        <ele>37.3</ele>
        <time>2022-02-17T10:51:35Z</time>
      </trkpt>
      <trkpt lat="49.07162" lon="2.16651">
        <ele>37.2</ele>
        <time>2022-02-17T10:51:40Z</time>
      </trkpt>
      <trkpt lat="49.07165" lon="2.16645">
        <ele>37.2</ele>
        <time>2022-02-17T10:51:44Z</time>
      </trkpt>
      <trkpt lat="49.0716" lon="2.16641">
        <ele>36.6</ele>
        <time>2022-02-17T10:51:50Z</time>
      </trkpt>
      <trkpt lat="49.07156" lon="2.16645">
        <ele>35.7</ele>
        <time>2022-02-17T10:51:54Z</time>
      </trkpt>
      <trkpt lat="49.07151" lon="2.1665">
        <ele>35.1</ele>
        <time>2022-02-17T10:51:59Z</time>
      </trkpt>
      <trkpt lat="49.07149" lon="2.16656">
        <ele>34.4</ele>
        <time>2022-02-17T10:52:06Z</time>
      </trkpt>
      <trkpt lat="49.07145" lon="2.16649">
        <ele>33.7</ele>
        <time>2022-02-17T10:52:17Z</time>
      </trkpt>
      <trkpt lat="49.07147" lon="2.16643">
        <ele>33.4</ele>
        <time>2022-02-17T10:52:21Z</time>
      </trkpt>
      <trkpt lat="49.07144" lon="2.16636">
        <ele>32.1</ele>
        <time>2022-02-17T10:52:30Z</time>
      </trkpt>
      <trkpt lat="49.07141" lon="2.16641">
        <ele>31.6</ele>
        <time>2022-02-17T10:52:38Z</time>
      </trkpt>
      <trkpt lat="49.0714" lon="2.16649">
        <ele>29.6</ele>
        <time>2022-02-17T10:52:44Z</time>
      </trkpt>
      <trkpt lat="49.07141" lon="2.16656">
        <ele>28.6</ele>
        <time>2022-02-17T10:52:51Z</time>
      </trkpt>
      <trkpt lat="49.0714" lon="2.16663">
        <ele>28.4</ele>
        <time>2022-02-17T10:53:00Z</time>
      </trkpt>
      <trkpt lat="49.07139" lon="2.16653">
        <ele>24</ele>
        <time>2022-02-17T10:53:24Z</time>
      </trkpt>
      <trkpt lat="49.07139" lon="2.16645">
        <ele>24.9</ele>
        <time>2022-02-17T10:53:30Z</time>
      </trkpt>
      <trkpt lat="49.07139" lon="2.16637">
        <ele>25.9</ele>
        <time>2022-02-17T10:53:36Z</time>
      </trkpt>
      <trkpt lat="49.07144" lon="2.1664">
        <ele>28.9</ele>
        <time>2022-02-17T10:53:45Z</time>
      </trkpt>
      <trkpt lat="49.07145" lon="2.16648">
        <ele>30</ele>
        <time>2022-02-17T10:53:51Z</time>
      </trkpt>
      <trkpt lat="49.07146" lon="2.16655">
        <ele>31.4</ele>
        <time>2022-02-17T10:53:58Z</time>
      </trkpt>
      <trkpt lat="49.07152" lon="2.16653">
        <ele>32.2</ele>
        <time>2022-02-17T10:54:04Z</time>
      </trkpt>
      <trkpt lat="49.07155" lon="2.16647">
        <ele>32.7</ele>
        <time>2022-02-17T10:55:26Z</time>
      </trkpt>
      <trkpt lat="49.07158" lon="2.16641">
        <ele>33</ele>
        <time>2022-02-17T10:55:31Z</time>
      </trkpt>
      <trkpt lat="49.07163" lon="2.16644">
        <ele>33.5</ele>
        <time>2022-02-17T10:55:38Z</time>
      </trkpt>
      <trkpt lat="49.07167" lon="2.16642">
        <ele>34.5</ele>
        <time>2022-02-17T10:55:43Z</time>
      </trkpt>
      <trkpt lat="49.07169" lon="2.16634">
        <ele>35</ele>
        <time>2022-02-17T10:55:48Z</time>
      </trkpt>
      <trkpt lat="49.07166" lon="2.16626">
        <ele>34.8</ele>
        <time>2022-02-17T10:55:52Z</time>
      </trkpt>
      <trkpt lat="49.07167" lon="2.16618">
        <ele>34.7</ele>
        <time>2022-02-17T10:55:56Z</time>
      </trkpt>
      <trkpt lat="49.07171" lon="2.16615">
        <ele>34.6</ele>
        <time>2022-02-17T10:56:01Z</time>
      </trkpt>
      <trkpt lat="49.07176" lon="2.16613">
        <ele>35.5</ele>
        <time>2022-02-17T10:56:09Z</time>
      </trkpt>
      <trkpt lat="49.07174" lon="2.16605">
        <ele>36.5</ele>
        <time>2022-02-17T10:56:13Z</time>
      </trkpt>
      <trkpt lat="49.07176" lon="2.16598">
        <ele>37</ele>
        <time>2022-02-17T10:56:21Z</time>
      </trkpt>
      <trkpt lat="49.07173" lon="2.16592">
        <ele>37.3</ele>
        <time>2022-02-17T10:56:26Z</time>
      </trkpt>
      <trkpt lat="49.07169" lon="2.16587">
        <ele>37.6</ele>
        <time>2022-02-17T10:56:31Z</time>
      </trkpt>
      <trkpt lat="49.07168" lon="2.1658">
        <ele>37.7</ele>
        <time>2022-02-17T10:56:35Z</time>
      </trkpt>
      <trkpt lat="49.07167" lon="2.16573">
        <ele>37.6</ele>
        <time>2022-02-17T10:56:39Z</time>
      </trkpt>
      <trkpt lat="49.07166" lon="2.16564">
        <ele>36.7</ele>
        <time>2022-02-17T10:56:44Z</time>
      </trkpt>
      <trkpt lat="49.07163" lon="2.16557">
        <ele>35.3</ele>
        <time>2022-02-17T10:56:50Z</time>
      </trkpt>
      <trkpt lat="49.07157" lon="2.1656">
        <ele>34.4</ele>
        <time>2022-02-17T10:56:54Z</time>
      </trkpt>
      <trkpt lat="49.07153" lon="2.16565">
        <ele>33.1</ele>
        <time>2022-02-17T10:56:59Z</time>
      </trkpt>
      <trkpt lat="49.07147" lon="2.16571">
        <ele>31.5</ele>
        <time>2022-02-17T10:57:04Z</time>
      </trkpt>
      <trkpt lat="49.07143" lon="2.16575">
        <ele>30.8</ele>
        <time>2022-02-17T10:57:09Z</time>
      </trkpt>
      <trkpt lat="49.07139" lon="2.16577">
        <ele>30.6</ele>
        <time>2022-02-17T10:57:13Z</time>
      </trkpt>
      <trkpt lat="49.07134" lon="2.16576">
        <ele>29.9</ele>
        <time>2022-02-17T10:57:17Z</time>
      </trkpt>
      <trkpt lat="49.07129" lon="2.16576">
        <ele>29.3</ele>
        <time>2022-02-17T10:57:21Z</time>
      </trkpt>
      <trkpt lat="49.07125" lon="2.16578">
        <ele>28.9</ele>
        <time>2022-02-17T10:57:26Z</time>
      </trkpt>
      <trkpt lat="49.07123" lon="2.16587">
        <ele>29</ele>
        <time>2022-02-17T10:57:31Z</time>
      </trkpt>
      <trkpt lat="49.07122" lon="2.16594">
        <ele>29.4</ele>
        <time>2022-02-17T10:57:35Z</time>
      </trkpt>
      <trkpt lat="49.0712" lon="2.166">
        <ele>29.5</ele>
        <time>2022-02-17T10:57:38Z</time>
      </trkpt>
      <trkpt lat="49.07117" lon="2.16607">
        <ele>29.4</ele>
        <time>2022-02-17T10:57:42Z</time>
      </trkpt>
      <trkpt lat="49.07115" lon="2.16613">
        <ele>28.9</ele>
        <time>2022-02-17T10:57:45Z</time>
      </trkpt>
      <trkpt lat="49.07114" lon="2.1662">
        <ele>28.6</ele>
        <time>2022-02-17T10:57:50Z</time>
      </trkpt>
      <trkpt lat="49.07111" lon="2.16627">
        <ele>28.6</ele>
        <time>2022-02-17T10:57:54Z</time>
      </trkpt>
      <trkpt lat="49.0711" lon="2.16635">
        <ele>28.8</ele>
        <time>2022-02-17T10:57:59Z</time>
      </trkpt>
      <trkpt lat="49.07107" lon="2.16641">
        <ele>28.8</ele>
        <time>2022-02-17T10:58:03Z</time>
      </trkpt>
      <trkpt lat="49.07105" lon="2.16649">
        <ele>27.9</ele>
        <time>2022-02-17T10:58:06Z</time>
      </trkpt>
      <trkpt lat="49.07104" lon="2.16656">
        <ele>26.4</ele>
        <time>2022-02-17T10:58:09Z</time>
      </trkpt>
      <trkpt lat="49.07104" lon="2.16665">
        <ele>25.3</ele>
        <time>2022-02-17T10:58:13Z</time>
      </trkpt>
      <trkpt lat="49.07104" lon="2.16672">
        <ele>25.4</ele>
        <time>2022-02-17T10:58:16Z</time>
      </trkpt>
      <trkpt lat="49.07104" lon="2.16679">
        <ele>26.1</ele>
        <time>2022-02-17T10:58:19Z</time>
      </trkpt>
      <trkpt lat="49.07105" lon="2.16687">
        <ele>27</ele>
        <time>2022-02-17T10:58:23Z</time>
      </trkpt>
      <trkpt lat="49.07104" lon="2.16695">
        <ele>27.5</ele>
        <time>2022-02-17T10:58:26Z</time>
      </trkpt>
      <trkpt lat="49.07104" lon="2.16703">
        <ele>26.9</ele>
        <time>2022-02-17T10:58:30Z</time>
      </trkpt>
      <trkpt lat="49.07103" lon="2.16711">
        <ele>25.8</ele>
        <time>2022-02-17T10:58:34Z</time>
      </trkpt>
      <trkpt lat="49.07102" lon="2.16719">
        <ele>25</ele>
        <time>2022-02-17T10:58:38Z</time>
      </trkpt>
      <trkpt lat="49.07102" lon="2.16727">
        <ele>24.2</ele>
        <time>2022-02-17T10:58:42Z</time>
      </trkpt>
      <trkpt lat="49.07102" lon="2.16736">
        <ele>23.5</ele>
        <time>2022-02-17T10:58:46Z</time>
      </trkpt>
      <trkpt lat="49.07101" lon="2.16744">
        <ele>23.6</ele>
        <time>2022-02-17T10:58:51Z</time>
      </trkpt>
      <trkpt lat="49.07102" lon="2.16753">
        <ele>24.1</ele>
        <time>2022-02-17T10:58:55Z</time>
      </trkpt>
      <trkpt lat="49.07106" lon="2.1675">
        <ele>23.7</ele>
        <time>2022-02-17T10:58:59Z</time>
      </trkpt>
      <trkpt lat="49.07103" lon="2.16742">
        <ele>22.3</ele>
        <time>2022-02-17T10:59:02Z</time>
      </trkpt>
      <trkpt lat="49.07103" lon="2.1675">
        <ele>21.1</ele>
        <time>2022-02-17T10:59:08Z</time>
      </trkpt>
      <trkpt lat="49.07103" lon="2.16758">
        <ele>20.8</ele>
        <time>2022-02-17T10:59:12Z</time>
      </trkpt>
      <trkpt lat="49.07102" lon="2.16768">
        <ele>20.8</ele>
        <time>2022-02-17T10:59:15Z</time>
      </trkpt>
      <trkpt lat="49.07101" lon="2.16775">
        <ele>20.6</ele>
        <time>2022-02-17T10:59:18Z</time>
      </trkpt>
      <trkpt lat="49.07101" lon="2.16782">
        <ele>20.8</ele>
        <time>2022-02-17T10:59:21Z</time>
      </trkpt>
      <trkpt lat="49.07101" lon="2.1679">
        <ele>21.1</ele>
        <time>2022-02-17T10:59:24Z</time>
      </trkpt>
      <trkpt lat="49.07101" lon="2.16797">
        <ele>21.5</ele>
        <time>2022-02-17T10:59:28Z</time>
      </trkpt>
      <trkpt lat="49.07101" lon="2.16805">
        <ele>22.2</ele>
        <time>2022-02-17T10:59:31Z</time>
      </trkpt>
      <trkpt lat="49.071" lon="2.16813">
        <ele>22.2</ele>
        <time>2022-02-17T10:59:35Z</time>
      </trkpt>
      <trkpt lat="49.071" lon="2.16821">
        <ele>21.6</ele>
        <time>2022-02-17T10:59:39Z</time>
      </trkpt>
      <trkpt lat="49.071" lon="2.16829">
        <ele>21.7</ele>
        <time>2022-02-17T10:59:43Z</time>
      </trkpt>
      <trkpt lat="49.07101" lon="2.16838">
        <ele>22.5</ele>
        <time>2022-02-17T10:59:48Z</time>
      </trkpt>
      <trkpt lat="49.07105" lon="2.16844">
        <ele>22.9</ele>
        <time>2022-02-17T10:59:52Z</time>
      </trkpt>
      <trkpt lat="49.07111" lon="2.16843">
        <ele>22.7</ele>
        <time>2022-02-17T10:59:55Z</time>
      </trkpt>
      <trkpt lat="49.07116" lon="2.16841">
        <ele>22.4</ele>
        <time>2022-02-17T10:59:58Z</time>
      </trkpt>
      <trkpt lat="49.07121" lon="2.1684">
        <ele>22.6</ele>
        <time>2022-02-17T11:00:02Z</time>
      </trkpt>
      <trkpt lat="49.07123" lon="2.16847">
        <ele>23.3</ele>
        <time>2022-02-17T11:00:06Z</time>
      </trkpt>
      <trkpt lat="49.07118" lon="2.16848">
        <ele>23.7</ele>
        <time>2022-02-17T11:00:10Z</time>
      </trkpt>
      <trkpt lat="49.07123" lon="2.16842">
        <ele>24.4</ele>
        <time>2022-02-17T11:00:19Z</time>
      </trkpt>
      <trkpt lat="49.07128" lon="2.16836">
        <ele>24.1</ele>
        <time>2022-02-17T11:00:23Z</time>
      </trkpt>
      <trkpt lat="49.07133" lon="2.16834">
        <ele>23.4</ele>
        <time>2022-02-17T11:00:27Z</time>
      </trkpt>
      <trkpt lat="49.07138" lon="2.16828">
        <ele>22.7</ele>
        <time>2022-02-17T11:00:32Z</time>
      </trkpt>
      <trkpt lat="49.07143" lon="2.16824">
        <ele>22.4</ele>
        <time>2022-02-17T11:00:36Z</time>
      </trkpt>
      <trkpt lat="49.07147" lon="2.16818">
        <ele>22.8</ele>
        <time>2022-02-17T11:00:39Z</time>
      </trkpt>
      <trkpt lat="49.0715" lon="2.16813">
        <ele>23.7</ele>
        <time>2022-02-17T11:00:42Z</time>
      </trkpt>
      <trkpt lat="49.07155" lon="2.1681">
        <ele>24.1</ele>
        <time>2022-02-17T11:00:45Z</time>
      </trkpt>
      <trkpt lat="49.07159" lon="2.16807">
        <ele>24.9</ele>
        <time>2022-02-17T11:00:49Z</time>
      </trkpt>
      <trkpt lat="49.07164" lon="2.16803">
        <ele>25.3</ele>
        <time>2022-02-17T11:00:52Z</time>
      </trkpt>
      <trkpt lat="49.07169" lon="2.16799">
        <ele>25.7</ele>
        <time>2022-02-17T11:00:56Z</time>
      </trkpt>
      <trkpt lat="49.07172" lon="2.16793">
        <ele>25</ele>
        <time>2022-02-17T11:01:02Z</time>
      </trkpt>
      <trkpt lat="49.07176" lon="2.16788">
        <ele>24.5</ele>
        <time>2022-02-17T11:01:07Z</time>
      </trkpt>
      <trkpt lat="49.0718" lon="2.16784">
        <ele>23.9</ele>
        <time>2022-02-17T11:01:11Z</time>
      </trkpt>
      <trkpt lat="49.07184" lon="2.16781">
        <ele>24.8</ele>
        <time>2022-02-17T11:01:16Z</time>
      </trkpt>
      <trkpt lat="49.07183" lon="2.16774">
        <ele>21.1</ele>
        <time>2022-02-17T11:01:24Z</time>
      </trkpt>
      <trkpt lat="49.07187" lon="2.16777">
        <ele>18.1</ele>
        <time>2022-02-17T11:01:33Z</time>
      </trkpt>
      <trkpt lat="49.07191" lon="2.1678">
        <ele>19.1</ele>
        <time>2022-02-17T11:01:37Z</time>
      </trkpt>
      <trkpt lat="49.07195" lon="2.16784">
        <ele>20.9</ele>
        <time>2022-02-17T11:01:40Z</time>
      </trkpt>
      <trkpt lat="49.07198" lon="2.1679">
        <ele>21.5</ele>
        <time>2022-02-17T11:01:43Z</time>
      </trkpt>
      <trkpt lat="49.072" lon="2.16796">
        <ele>21.1</ele>
        <time>2022-02-17T11:01:46Z</time>
      </trkpt>
      <trkpt lat="49.07203" lon="2.16801">
        <ele>19.8</ele>
        <time>2022-02-17T11:01:50Z</time>
      </trkpt>
      <trkpt lat="49.07204" lon="2.16809">
        <ele>19.4</ele>
        <time>2022-02-17T11:01:55Z</time>
      </trkpt>
      <trkpt lat="49.07208" lon="2.16813">
        <ele>19.7</ele>
        <time>2022-02-17T11:01:59Z</time>
      </trkpt>
      <trkpt lat="49.07212" lon="2.16818">
        <ele>19.3</ele>
        <time>2022-02-17T11:02:04Z</time>
      </trkpt>
      <trkpt lat="49.07216" lon="2.16823">
        <ele>18.4</ele>
        <time>2022-02-17T11:02:08Z</time>
      </trkpt>
      <trkpt lat="49.07219" lon="2.16829">
        <ele>16.9</ele>
        <time>2022-02-17T11:02:12Z</time>
      </trkpt>
      <trkpt lat="49.07222" lon="2.16835">
        <ele>15.9</ele>
        <time>2022-02-17T11:02:16Z</time>
      </trkpt>
      <trkpt lat="49.07226" lon="2.16842">
        <ele>15.3</ele>
        <time>2022-02-17T11:02:21Z</time>
      </trkpt>
      <trkpt lat="49.0723" lon="2.16848">
        <ele>13.9</ele>
        <time>2022-02-17T11:02:25Z</time>
      </trkpt>
      <trkpt lat="49.07234" lon="2.16853">
        <ele>12.5</ele>
        <time>2022-02-17T11:02:29Z</time>
      </trkpt>
      <trkpt lat="49.07237" lon="2.1686">
        <ele>11.8</ele>
        <time>2022-02-17T11:02:33Z</time>
      </trkpt>
      <trkpt lat="49.07238" lon="2.16868">
        <ele>11.5</ele>
        <time>2022-02-17T11:02:37Z</time>
      </trkpt>
      <trkpt lat="49.0724" lon="2.16875">
        <ele>11.2</ele>
        <time>2022-02-17T11:02:41Z</time>
      </trkpt>
      <trkpt lat="49.07242" lon="2.16883">
        <ele>10.5</ele>
        <time>2022-02-17T11:02:45Z</time>
      </trkpt>
      <trkpt lat="49.07243" lon="2.1689">
        <ele>10</ele>
        <time>2022-02-17T11:02:48Z</time>
      </trkpt>
      <trkpt lat="49.07245" lon="2.16898">
        <ele>9.6</ele>
        <time>2022-02-17T11:02:52Z</time>
      </trkpt>
      <trkpt lat="49.07246" lon="2.16905">
        <ele>8.8</ele>
        <time>2022-02-17T11:02:55Z</time>
      </trkpt>
      <trkpt lat="49.07247" lon="2.16913">
        <ele>8.6</ele>
        <time>2022-02-17T11:02:59Z</time>
      </trkpt>
      <trkpt lat="49.07249" lon="2.16922">
        <ele>9</ele>
        <time>2022-02-17T11:03:04Z</time>
      </trkpt>
      <trkpt lat="49.0725" lon="2.16929">
        <ele>9.2</ele>
        <time>2022-02-17T11:03:08Z</time>
      </trkpt>
      <trkpt lat="49.07252" lon="2.16937">
        <ele>9.2</ele>
        <time>2022-02-17T11:03:12Z</time>
      </trkpt>
      <trkpt lat="49.07254" lon="2.16944">
        <ele>9.2</ele>
        <time>2022-02-17T11:03:16Z</time>
      </trkpt>
      <trkpt lat="49.07255" lon="2.16951">
        <ele>9.6</ele>
        <time>2022-02-17T11:03:20Z</time>
      </trkpt>
      <trkpt lat="49.07257" lon="2.16959">
        <ele>10.1</ele>
        <time>2022-02-17T11:03:24Z</time>
      </trkpt>
      <trkpt lat="49.07258" lon="2.16966">
        <ele>10.8</ele>
        <time>2022-02-17T11:03:28Z</time>
      </trkpt>
      <trkpt lat="49.07259" lon="2.16973">
        <ele>11.1</ele>
        <time>2022-02-17T11:03:32Z</time>
      </trkpt>
      <trkpt lat="49.07261" lon="2.16983">
        <ele>11.4</ele>
        <time>2022-02-17T11:03:36Z</time>
      </trkpt>
      <trkpt lat="49.07262" lon="2.1699">
        <ele>12.4</ele>
        <time>2022-02-17T11:03:39Z</time>
      </trkpt>
      <trkpt lat="49.07262" lon="2.16999">
        <ele>14.4</ele>
        <time>2022-02-17T11:03:43Z</time>
      </trkpt>
      <trkpt lat="49.07263" lon="2.17007">
        <ele>15.5</ele>
        <time>2022-02-17T11:03:48Z</time>
      </trkpt>
      <trkpt lat="49.07262" lon="2.17014">
        <ele>16.1</ele>
        <time>2022-02-17T11:03:51Z</time>
      </trkpt>
      <trkpt lat="49.0726" lon="2.1702">
        <ele>18</ele>
        <time>2022-02-17T11:03:54Z</time>
      </trkpt>
      <trkpt lat="49.07259" lon="2.17028">
        <ele>20.6</ele>
        <time>2022-02-17T11:03:57Z</time>
      </trkpt>
      <trkpt lat="49.07257" lon="2.17034">
        <ele>22.5</ele>
        <time>2022-02-17T11:04:01Z</time>
      </trkpt>
      <trkpt lat="49.07255" lon="2.17042">
        <ele>23.5</ele>
        <time>2022-02-17T11:04:05Z</time>
      </trkpt>
      <trkpt lat="49.07251" lon="2.17047">
        <ele>23.9</ele>
        <time>2022-02-17T11:04:09Z</time>
      </trkpt>
      <trkpt lat="49.07246" lon="2.1705">
        <ele>24.4</ele>
        <time>2022-02-17T11:04:13Z</time>
      </trkpt>
      <trkpt lat="49.07241" lon="2.17054">
        <ele>24.7</ele>
        <time>2022-02-17T11:04:17Z</time>
      </trkpt>
      <trkpt lat="49.07237" lon="2.17059">
        <ele>23.9</ele>
        <time>2022-02-17T11:04:21Z</time>
      </trkpt>
      <trkpt lat="49.07232" lon="2.17063">
        <ele>22.7</ele>
        <time>2022-02-17T11:04:26Z</time>
      </trkpt>
      <trkpt lat="49.07228" lon="2.17067">
        <ele>22.2</ele>
        <time>2022-02-17T11:04:30Z</time>
      </trkpt>
      <trkpt lat="49.07224" lon="2.17071">
        <ele>22.8</ele>
        <time>2022-02-17T11:04:34Z</time>
      </trkpt>
      <trkpt lat="49.07219" lon="2.17074">
        <ele>25</ele>
        <time>2022-02-17T11:04:38Z</time>
      </trkpt>
      <trkpt lat="49.07214" lon="2.17078">
        <ele>26.2</ele>
        <time>2022-02-17T11:04:42Z</time>
      </trkpt>
      <trkpt lat="49.07209" lon="2.17081">
        <ele>26.2</ele>
        <time>2022-02-17T11:04:47Z</time>
      </trkpt>
      <trkpt lat="49.07205" lon="2.17084">
        <ele>26.6</ele>
        <time>2022-02-17T11:04:51Z</time>
      </trkpt>
      <trkpt lat="49.072" lon="2.17088">
        <ele>27.2</ele>
        <time>2022-02-17T11:04:55Z</time>
      </trkpt>
      <trkpt lat="49.07195" lon="2.17091">
        <ele>27.8</ele>
        <time>2022-02-17T11:04:59Z</time>
      </trkpt>
      <trkpt lat="49.07191" lon="2.17096">
        <ele>28</ele>
        <time>2022-02-17T11:05:03Z</time>
      </trkpt>
      <trkpt lat="49.07185" lon="2.171">
        <ele>28</ele>
        <time>2022-02-17T11:05:08Z</time>
      </trkpt>
      <trkpt lat="49.07181" lon="2.17105">
        <ele>28.7</ele>
        <time>2022-02-17T11:05:13Z</time>
      </trkpt>
      <trkpt lat="49.07176" lon="2.1711">
        <ele>29.4</ele>
        <time>2022-02-17T11:05:17Z</time>
      </trkpt>
      <trkpt lat="49.07173" lon="2.17115">
        <ele>29.7</ele>
        <time>2022-02-17T11:05:21Z</time>
      </trkpt>
      <trkpt lat="49.07171" lon="2.17122">
        <ele>30.4</ele>
        <time>2022-02-17T11:05:25Z</time>
      </trkpt>
      <trkpt lat="49.07174" lon="2.17127">
        <ele>32.2</ele>
        <time>2022-02-17T11:05:29Z</time>
      </trkpt>
      <trkpt lat="49.0717" lon="2.17132">
        <ele>34.2</ele>
        <time>2022-02-17T11:06:22Z</time>
      </trkpt>
      <trkpt lat="49.07166" lon="2.17137">
        <ele>32.1</ele>
        <time>2022-02-17T11:06:35Z</time>
      </trkpt>
      <trkpt lat="49.07161" lon="2.1714">
        <ele>31.2</ele>
        <time>2022-02-17T11:06:49Z</time>
      </trkpt>
      <trkpt lat="49.07167" lon="2.17141">
        <ele>27.8</ele>
        <time>2022-02-17T11:06:59Z</time>
      </trkpt>
      <trkpt lat="49.0717" lon="2.17134">
        <ele>25.8</ele>
        <time>2022-02-17T11:07:03Z</time>
      </trkpt>
      <trkpt lat="49.07173" lon="2.17127">
        <ele>25.4</ele>
        <time>2022-02-17T11:07:06Z</time>
      </trkpt>
      <trkpt lat="49.07174" lon="2.1712">
        <ele>25.5</ele>
        <time>2022-02-17T11:07:11Z</time>
      </trkpt>
      <trkpt lat="49.07176" lon="2.17113">
        <ele>27.5</ele>
        <time>2022-02-17T11:07:28Z</time>
      </trkpt>
      <trkpt lat="49.07179" lon="2.17107">
        <ele>26.9</ele>
        <time>2022-02-17T11:07:32Z</time>
      </trkpt>
      <trkpt lat="49.07184" lon="2.17102">
        <ele>27</ele>
        <time>2022-02-17T11:07:35Z</time>
      </trkpt>
      <trkpt lat="49.07188" lon="2.17098">
        <ele>27.1</ele>
        <time>2022-02-17T11:07:39Z</time>
      </trkpt>
      <trkpt lat="49.07192" lon="2.17094">
        <ele>27.2</ele>
        <time>2022-02-17T11:07:43Z</time>
      </trkpt>
      <trkpt lat="49.07197" lon="2.1709">
        <ele>26.8</ele>
        <time>2022-02-17T11:07:48Z</time>
      </trkpt>
      <trkpt lat="49.07201" lon="2.17085">
        <ele>26.1</ele>
        <time>2022-02-17T11:07:53Z</time>
      </trkpt>
      <trkpt lat="49.07207" lon="2.17082">
        <ele>25.8</ele>
        <time>2022-02-17T11:07:57Z</time>
      </trkpt>
      <trkpt lat="49.07212" lon="2.17078">
        <ele>25.6</ele>
        <time>2022-02-17T11:08:01Z</time>
      </trkpt>
      <trkpt lat="49.07217" lon="2.17074">
        <ele>25.9</ele>
        <time>2022-02-17T11:08:06Z</time>
      </trkpt>
      <trkpt lat="49.07221" lon="2.17069">
        <ele>24.3</ele>
        <time>2022-02-17T11:08:20Z</time>
      </trkpt>
      <trkpt lat="49.07225" lon="2.17065">
        <ele>23.7</ele>
        <time>2022-02-17T11:08:25Z</time>
      </trkpt>
      <trkpt lat="49.0723" lon="2.17059">
        <ele>24.2</ele>
        <time>2022-02-17T11:08:31Z</time>
      </trkpt>
      <trkpt lat="49.07234" lon="2.17055">
        <ele>25.5</ele>
        <time>2022-02-17T11:08:36Z</time>
      </trkpt>
      <trkpt lat="49.07239" lon="2.17053">
        <ele>26.8</ele>
        <time>2022-02-17T11:08:40Z</time>
      </trkpt>
      <trkpt lat="49.07245" lon="2.17052">
        <ele>28.4</ele>
        <time>2022-02-17T11:08:45Z</time>
      </trkpt>
      <trkpt lat="49.07249" lon="2.17047">
        <ele>29.8</ele>
        <time>2022-02-17T11:08:49Z</time>
      </trkpt>
      <trkpt lat="49.07255" lon="2.17044">
        <ele>30.7</ele>
        <time>2022-02-17T11:08:54Z</time>
      </trkpt>
      <trkpt lat="49.0726" lon="2.17042">
        <ele>30.4</ele>
        <time>2022-02-17T11:08:58Z</time>
      </trkpt>
      <trkpt lat="49.07265" lon="2.17038">
        <ele>30.1</ele>
        <time>2022-02-17T11:09:02Z</time>
      </trkpt>
      <trkpt lat="49.07269" lon="2.17034">
        <ele>30</ele>
        <time>2022-02-17T11:09:05Z</time>
      </trkpt>
      <trkpt lat="49.07273" lon="2.17029">
        <ele>29.7</ele>
        <time>2022-02-17T11:09:09Z</time>
      </trkpt>
      <trkpt lat="49.07277" lon="2.17023">
        <ele>28.5</ele>
        <time>2022-02-17T11:09:14Z</time>
      </trkpt>
      <trkpt lat="49.07281" lon="2.1702">
        <ele>27.2</ele>
        <time>2022-02-17T11:09:18Z</time>
      </trkpt>
      <trkpt lat="49.07286" lon="2.17022">
        <ele>26.9</ele>
        <time>2022-02-17T11:09:22Z</time>
      </trkpt>
      <trkpt lat="49.07291" lon="2.1702">
        <ele>27.2</ele>
        <time>2022-02-17T11:09:26Z</time>
      </trkpt>
      <trkpt lat="49.07297" lon="2.1702">
        <ele>28.1</ele>
        <time>2022-02-17T11:09:30Z</time>
      </trkpt>
      <trkpt lat="49.07301" lon="2.17019">
        <ele>28.1</ele>
        <time>2022-02-17T11:09:35Z</time>
      </trkpt>
      <trkpt lat="49.07307" lon="2.17016">
        <ele>29</ele>
        <time>2022-02-17T11:09:39Z</time>
      </trkpt>
      <trkpt lat="49.07312" lon="2.17016">
        <ele>31</ele>
        <time>2022-02-17T11:09:42Z</time>
      </trkpt>
      <trkpt lat="49.07318" lon="2.17015">
        <ele>31.7</ele>
        <time>2022-02-17T11:09:47Z</time>
      </trkpt>
      <trkpt lat="49.07324" lon="2.17013">
        <ele>30.4</ele>
        <time>2022-02-17T11:09:51Z</time>
      </trkpt>
      <trkpt lat="49.07328" lon="2.17009">
        <ele>29.1</ele>
        <time>2022-02-17T11:09:55Z</time>
      </trkpt>
      <trkpt lat="49.07331" lon="2.17003">
        <ele>29.5</ele>
        <time>2022-02-17T11:09:59Z</time>
      </trkpt>
      <trkpt lat="49.07335" lon="2.17006">
        <ele>30.1</ele>
        <time>2022-02-17T11:10:06Z</time>
      </trkpt>
      <trkpt lat="49.07335" lon="2.17014">
        <ele>30.1</ele>
        <time>2022-02-17T11:10:10Z</time>
      </trkpt>
      <trkpt lat="49.07336" lon="2.17022">
        <ele>31.1</ele>
        <time>2022-02-17T11:10:16Z</time>
      </trkpt>
      <trkpt lat="49.07337" lon="2.17029">
        <ele>32.9</ele>
        <time>2022-02-17T11:10:23Z</time>
      </trkpt>
      <trkpt lat="49.0734" lon="2.17035">
        <ele>34</ele>
        <time>2022-02-17T11:10:29Z</time>
      </trkpt>
      <trkpt lat="49.07345" lon="2.17039">
        <ele>33.8</ele>
        <time>2022-02-17T11:10:35Z</time>
      </trkpt>
      <trkpt lat="49.07346" lon="2.17048">
        <ele>33.1</ele>
        <time>2022-02-17T11:10:41Z</time>
      </trkpt>
      <trkpt lat="49.07347" lon="2.17056">
        <ele>32.4</ele>
        <time>2022-02-17T11:10:46Z</time>
      </trkpt>
      <trkpt lat="49.07347" lon="2.17064">
        <ele>32.4</ele>
        <time>2022-02-17T11:10:52Z</time>
      </trkpt>
      <trkpt lat="49.07344" lon="2.1707">
        <ele>33.6</ele>
        <time>2022-02-17T11:10:59Z</time>
      </trkpt>
      <trkpt lat="49.07343" lon="2.17077">
        <ele>35.2</ele>
        <time>2022-02-17T11:11:05Z</time>
      </trkpt>
      <trkpt lat="49.07342" lon="2.17085">
        <ele>35.7</ele>
        <time>2022-02-17T11:11:10Z</time>
      </trkpt>
      <trkpt lat="49.07342" lon="2.17092">
        <ele>36.8</ele>
        <time>2022-02-17T11:11:17Z</time>
      </trkpt>
      <trkpt lat="49.07341" lon="2.171">
        <ele>39.5</ele>
        <time>2022-02-17T11:11:25Z</time>
      </trkpt>
      <trkpt lat="49.07341" lon="2.17107">
        <ele>42.7</ele>
        <time>2022-02-17T11:11:32Z</time>
      </trkpt>
      <trkpt lat="49.0734" lon="2.17114">
        <ele>44.6</ele>
        <time>2022-02-17T11:11:38Z</time>
      </trkpt>
      <trkpt lat="49.07339" lon="2.17121">
        <ele>46.4</ele>
        <time>2022-02-17T11:11:43Z</time>
      </trkpt>
      <trkpt lat="49.07338" lon="2.17129">
        <ele>46.6</ele>
        <time>2022-02-17T11:11:49Z</time>
      </trkpt>
      <trkpt lat="49.07338" lon="2.17137">
        <ele>47</ele>
        <time>2022-02-17T11:11:56Z</time>
      </trkpt>
      <trkpt lat="49.07339" lon="2.17144">
        <ele>48.8</ele>
        <time>2022-02-17T11:12:03Z</time>
      </trkpt>
      <trkpt lat="49.0734" lon="2.17151">
        <ele>50.8</ele>
        <time>2022-02-17T11:12:08Z</time>
      </trkpt>
      <trkpt lat="49.07341" lon="2.17159">
        <ele>52</ele>
        <time>2022-02-17T11:12:13Z</time>
      </trkpt>
      <trkpt lat="49.07343" lon="2.17167">
        <ele>52</ele>
        <time>2022-02-17T11:12:19Z</time>
      </trkpt>
      <trkpt lat="49.07346" lon="2.17174">
        <ele>51.2</ele>
        <time>2022-02-17T11:12:25Z</time>
      </trkpt>
      <trkpt lat="49.07345" lon="2.17182">
        <ele>50.3</ele>
        <time>2022-02-17T11:12:32Z</time>
      </trkpt>
      <trkpt lat="49.07343" lon="2.17189">
        <ele>49.9</ele>
        <time>2022-02-17T11:12:39Z</time>
      </trkpt>
      <trkpt lat="49.07346" lon="2.17196">
        <ele>49.7</ele>
        <time>2022-02-17T11:12:45Z</time>
      </trkpt>
      <trkpt lat="49.07348" lon="2.17202">
        <ele>49.7</ele>
        <time>2022-02-17T11:12:50Z</time>
      </trkpt>
      <trkpt lat="49.0735" lon="2.1721">
        <ele>49.4</ele>
        <time>2022-02-17T11:12:56Z</time>
      </trkpt>
      <trkpt lat="49.07352" lon="2.17216">
        <ele>49.5</ele>
        <time>2022-02-17T11:13:01Z</time>
      </trkpt>
      <trkpt lat="49.07353" lon="2.17225">
        <ele>50.1</ele>
        <time>2022-02-17T11:13:06Z</time>
      </trkpt>
      <trkpt lat="49.07355" lon="2.17232">
        <ele>50.8</ele>
        <time>2022-02-17T11:13:11Z</time>
      </trkpt>
      <trkpt lat="49.07356" lon="2.1724">
        <ele>51.1</ele>
        <time>2022-02-17T11:13:15Z</time>
      </trkpt>
      <trkpt lat="49.07357" lon="2.17247">
        <ele>51.2</ele>
        <time>2022-02-17T11:13:20Z</time>
      </trkpt>
      <trkpt lat="49.07359" lon="2.17254">
        <ele>51.1</ele>
        <time>2022-02-17T11:13:24Z</time>
      </trkpt>
      <trkpt lat="49.07361" lon="2.17261">
        <ele>50.9</ele>
        <time>2022-02-17T11:13:29Z</time>
      </trkpt>
      <trkpt lat="49.07363" lon="2.17268">
        <ele>51</ele>
        <time>2022-02-17T11:13:33Z</time>
      </trkpt>
      <trkpt lat="49.07365" lon="2.17276">
        <ele>51.4</ele>
        <time>2022-02-17T11:13:39Z</time>
      </trkpt>
      <trkpt lat="49.07366" lon="2.17283">
        <ele>51.8</ele>
        <time>2022-02-17T11:13:43Z</time>
      </trkpt>
      <trkpt lat="49.07367" lon="2.17292">
        <ele>52.1</ele>
        <time>2022-02-17T11:13:48Z</time>
      </trkpt>
      <trkpt lat="49.07368" lon="2.17299">
        <ele>51.9</ele>
        <time>2022-02-17T11:13:52Z</time>
      </trkpt>
      <trkpt lat="49.0737" lon="2.17306">
        <ele>51.7</ele>
        <time>2022-02-17T11:13:56Z</time>
      </trkpt>
      <trkpt lat="49.07371" lon="2.17313">
        <ele>51.7</ele>
        <time>2022-02-17T11:14:01Z</time>
      </trkpt>
      <trkpt lat="49.07372" lon="2.17319">
        <ele>51.6</ele>
        <time>2022-02-17T11:14:05Z</time>
      </trkpt>
      <trkpt lat="49.07374" lon="2.17328">
        <ele>51.4</ele>
        <time>2022-02-17T11:14:09Z</time>
      </trkpt>
      <trkpt lat="49.07376" lon="2.17335">
        <ele>51.3</ele>
        <time>2022-02-17T11:14:14Z</time>
      </trkpt>
      <trkpt lat="49.07377" lon="2.17343">
        <ele>51.3</ele>
        <time>2022-02-17T11:14:18Z</time>
      </trkpt>
      <trkpt lat="49.07378" lon="2.17351">
        <ele>51.5</ele>
        <time>2022-02-17T11:14:23Z</time>
      </trkpt>
      <trkpt lat="49.0738" lon="2.17358">
        <ele>51.7</ele>
        <time>2022-02-17T11:14:28Z</time>
      </trkpt>
      <trkpt lat="49.07383" lon="2.17366">
        <ele>51.9</ele>
        <time>2022-02-17T11:14:33Z</time>
      </trkpt>
      <trkpt lat="49.07383" lon="2.17373">
        <ele>52.2</ele>
        <time>2022-02-17T11:14:38Z</time>
      </trkpt>
      <trkpt lat="49.07385" lon="2.17381">
        <ele>52.4</ele>
        <time>2022-02-17T11:14:42Z</time>
      </trkpt>
      <trkpt lat="49.07388" lon="2.17388">
        <ele>52</ele>
        <time>2022-02-17T11:14:46Z</time>
      </trkpt>
      <trkpt lat="49.0739" lon="2.17394">
        <ele>51.3</ele>
        <time>2022-02-17T11:14:50Z</time>
      </trkpt>
      <trkpt lat="49.07391" lon="2.17401">
        <ele>51.1</ele>
        <time>2022-02-17T11:14:55Z</time>
      </trkpt>
      <trkpt lat="49.07393" lon="2.17408">
        <ele>51</ele>
        <time>2022-02-17T11:14:59Z</time>
      </trkpt>
      <trkpt lat="49.07395" lon="2.17415">
        <ele>50.7</ele>
        <time>2022-02-17T11:15:03Z</time>
      </trkpt>
      <trkpt lat="49.07397" lon="2.17422">
        <ele>50.7</ele>
        <time>2022-02-17T11:15:07Z</time>
      </trkpt>
      <trkpt lat="49.074" lon="2.17429">
        <ele>50.9</ele>
        <time>2022-02-17T11:15:12Z</time>
      </trkpt>
      <trkpt lat="49.07401" lon="2.17437">
        <ele>51.3</ele>
        <time>2022-02-17T11:15:16Z</time>
      </trkpt>
      <trkpt lat="49.07402" lon="2.17444">
        <ele>51.7</ele>
        <time>2022-02-17T11:15:20Z</time>
      </trkpt>
      <trkpt lat="49.07404" lon="2.17451">
        <ele>52.1</ele>
        <time>2022-02-17T11:15:24Z</time>
      </trkpt>
      <trkpt lat="49.07407" lon="2.17457">
        <ele>52.3</ele>
        <time>2022-02-17T11:15:29Z</time>
      </trkpt>
      <trkpt lat="49.07409" lon="2.17463">
        <ele>52.3</ele>
        <time>2022-02-17T11:15:33Z</time>
      </trkpt>
      <trkpt lat="49.07411" lon="2.17471">
        <ele>52.1</ele>
        <time>2022-02-17T11:15:37Z</time>
      </trkpt>
      <trkpt lat="49.07413" lon="2.17479">
        <ele>51.8</ele>
        <time>2022-02-17T11:15:41Z</time>
      </trkpt>
      <trkpt lat="49.07415" lon="2.17485">
        <ele>51.4</ele>
        <time>2022-02-17T11:15:45Z</time>
      </trkpt>
      <trkpt lat="49.07417" lon="2.17492">
        <ele>50.9</ele>
        <time>2022-02-17T11:15:50Z</time>
      </trkpt>
      <trkpt lat="49.0742" lon="2.17499">
        <ele>50.7</ele>
        <time>2022-02-17T11:15:54Z</time>
      </trkpt>
      <trkpt lat="49.07422" lon="2.17507">
        <ele>51</ele>
        <time>2022-02-17T11:15:58Z</time>
      </trkpt>
      <trkpt lat="49.07424" lon="2.17515">
        <ele>51.3</ele>
        <time>2022-02-17T11:16:02Z</time>
      </trkpt>
      <trkpt lat="49.07426" lon="2.17522">
        <ele>51.6</ele>
        <time>2022-02-17T11:16:07Z</time>
      </trkpt>
      <trkpt lat="49.07428" lon="2.1753">
        <ele>52</ele>
        <time>2022-02-17T11:16:11Z</time>
      </trkpt>
      <trkpt lat="49.0743" lon="2.17537">
        <ele>52.3</ele>
        <time>2022-02-17T11:16:15Z</time>
      </trkpt>
      <trkpt lat="49.07432" lon="2.17544">
        <ele>52.4</ele>
        <time>2022-02-17T11:16:19Z</time>
      </trkpt>
      <trkpt lat="49.07433" lon="2.17551">
        <ele>52.2</ele>
        <time>2022-02-17T11:16:24Z</time>
      </trkpt>
      <trkpt lat="49.07435" lon="2.17558">
        <ele>52.1</ele>
        <time>2022-02-17T11:16:28Z</time>
      </trkpt>
      <trkpt lat="49.07437" lon="2.17565">
        <ele>52.3</ele>
        <time>2022-02-17T11:16:32Z</time>
      </trkpt>
      <trkpt lat="49.0744" lon="2.17572">
        <ele>52.4</ele>
        <time>2022-02-17T11:16:37Z</time>
      </trkpt>
      <trkpt lat="49.07442" lon="2.1758">
        <ele>52.3</ele>
        <time>2022-02-17T11:16:41Z</time>
      </trkpt>
      <trkpt lat="49.07444" lon="2.17587">
        <ele>52.3</ele>
        <time>2022-02-17T11:16:46Z</time>
      </trkpt>
      <trkpt lat="49.07446" lon="2.17594">
        <ele>52.4</ele>
        <time>2022-02-17T11:16:51Z</time>
      </trkpt>
      <trkpt lat="49.07448" lon="2.17602">
        <ele>52.5</ele>
        <time>2022-02-17T11:16:56Z</time>
      </trkpt>
      <trkpt lat="49.0745" lon="2.17609">
        <ele>54.3</ele>
        <time>2022-02-17T11:17:28Z</time>
      </trkpt>
      <trkpt lat="49.07453" lon="2.17617">
        <ele>54.7</ele>
        <time>2022-02-17T11:17:33Z</time>
      </trkpt>
      <trkpt lat="49.07454" lon="2.17624">
        <ele>54.6</ele>
        <time>2022-02-17T11:17:37Z</time>
      </trkpt>
      <trkpt lat="49.07457" lon="2.17632">
        <ele>54.2</ele>
        <time>2022-02-17T11:17:42Z</time>
      </trkpt>
      <trkpt lat="49.07459" lon="2.17638">
        <ele>53.8</ele>
        <time>2022-02-17T11:17:46Z</time>
      </trkpt>
      <trkpt lat="49.07461" lon="2.17645">
        <ele>53.6</ele>
        <time>2022-02-17T11:17:50Z</time>
      </trkpt>
      <trkpt lat="49.07463" lon="2.17652">
        <ele>53.6</ele>
        <time>2022-02-17T11:17:55Z</time>
      </trkpt>
      <trkpt lat="49.07465" lon="2.17659">
        <ele>53.7</ele>
        <time>2022-02-17T11:17:59Z</time>
      </trkpt>
      <trkpt lat="49.07468" lon="2.17666">
        <ele>53.9</ele>
        <time>2022-02-17T11:18:03Z</time>
      </trkpt>
      <trkpt lat="49.0747" lon="2.17674">
        <ele>54</ele>
        <time>2022-02-17T11:18:08Z</time>
      </trkpt>
      <trkpt lat="49.07472" lon="2.17681">
        <ele>54.1</ele>
        <time>2022-02-17T11:18:12Z</time>
      </trkpt>
      <trkpt lat="49.07474" lon="2.17687">
        <ele>54</ele>
        <time>2022-02-17T11:18:16Z</time>
      </trkpt>
      <trkpt lat="49.07476" lon="2.17694">
        <ele>53.8</ele>
        <time>2022-02-17T11:18:19Z</time>
      </trkpt>
      <trkpt lat="49.07479" lon="2.177">
        <ele>53.6</ele>
        <time>2022-02-17T11:18:24Z</time>
      </trkpt>
      <trkpt lat="49.07482" lon="2.17708">
        <ele>53.8</ele>
        <time>2022-02-17T11:18:28Z</time>
      </trkpt>
      <trkpt lat="49.07484" lon="2.17715">
        <ele>54.1</ele>
        <time>2022-02-17T11:18:33Z</time>
      </trkpt>
      <trkpt lat="49.07486" lon="2.17722">
        <ele>54.3</ele>
        <time>2022-02-17T11:18:37Z</time>
      </trkpt>
      <trkpt lat="49.07488" lon="2.17728">
        <ele>54.3</ele>
        <time>2022-02-17T11:18:41Z</time>
      </trkpt>
      <trkpt lat="49.07491" lon="2.17736">
        <ele>54.1</ele>
        <time>2022-02-17T11:18:46Z</time>
      </trkpt>
      <trkpt lat="49.07493" lon="2.17742">
        <ele>53.9</ele>
        <time>2022-02-17T11:18:50Z</time>
      </trkpt>
      <trkpt lat="49.07494" lon="2.17749">
        <ele>54</ele>
        <time>2022-02-17T11:18:53Z</time>
      </trkpt>
      <trkpt lat="49.07496" lon="2.17756">
        <ele>54.4</ele>
        <time>2022-02-17T11:18:57Z</time>
      </trkpt>
      <trkpt lat="49.07498" lon="2.17763">
        <ele>54.6</ele>
        <time>2022-02-17T11:19:01Z</time>
      </trkpt>
      <trkpt lat="49.075" lon="2.17771">
        <ele>54.4</ele>
        <time>2022-02-17T11:19:06Z</time>
      </trkpt>
      <trkpt lat="49.07502" lon="2.17778">
        <ele>54.3</ele>
        <time>2022-02-17T11:19:10Z</time>
      </trkpt>
      <trkpt lat="49.07504" lon="2.17784">
        <ele>53.7</ele>
        <time>2022-02-17T11:19:14Z</time>
      </trkpt>
      <trkpt lat="49.07507" lon="2.17791">
        <ele>53.5</ele>
        <time>2022-02-17T11:19:18Z</time>
      </trkpt>
      <trkpt lat="49.07509" lon="2.17799">
        <ele>53.4</ele>
        <time>2022-02-17T11:19:23Z</time>
      </trkpt>
      <trkpt lat="49.0751" lon="2.17805">
        <ele>53.2</ele>
        <time>2022-02-17T11:19:26Z</time>
      </trkpt>
      <trkpt lat="49.07508" lon="2.17813">
        <ele>53.1</ele>
        <time>2022-02-17T11:19:31Z</time>
      </trkpt>
      <trkpt lat="49.07504" lon="2.17817">
        <ele>53.4</ele>
        <time>2022-02-17T11:19:34Z</time>
      </trkpt>
      <trkpt lat="49.075" lon="2.17821">
        <ele>53.9</ele>
        <time>2022-02-17T11:19:37Z</time>
      </trkpt>
      <trkpt lat="49.07496" lon="2.17828">
        <ele>54.6</ele>
        <time>2022-02-17T11:19:41Z</time>
      </trkpt>
      <trkpt lat="49.07491" lon="2.17831">
        <ele>54.5</ele>
        <time>2022-02-17T11:19:45Z</time>
      </trkpt>
      <trkpt lat="49.07487" lon="2.17835">
        <ele>54.3</ele>
        <time>2022-02-17T11:19:50Z</time>
      </trkpt>
      <trkpt lat="49.07488" lon="2.17843">
        <ele>55.1</ele>
        <time>2022-02-17T11:19:55Z</time>
      </trkpt>
      <trkpt lat="49.07491" lon="2.1785">
        <ele>56.3</ele>
        <time>2022-02-17T11:19:59Z</time>
      </trkpt>
      <trkpt lat="49.07493" lon="2.17858">
        <ele>56.2</ele>
        <time>2022-02-17T11:20:05Z</time>
      </trkpt>
      <trkpt lat="49.07494" lon="2.17866">
        <ele>55.6</ele>
        <time>2022-02-17T11:20:09Z</time>
      </trkpt>
      <trkpt lat="49.07494" lon="2.17873">
        <ele>55.3</ele>
        <time>2022-02-17T11:20:14Z</time>
      </trkpt>
      <trkpt lat="49.07499" lon="2.17876">
        <ele>54.8</ele>
        <time>2022-02-17T11:20:18Z</time>
      </trkpt>
      <trkpt lat="49.07504" lon="2.17879">
        <ele>54.3</ele>
        <time>2022-02-17T11:20:23Z</time>
      </trkpt>
      <trkpt lat="49.07509" lon="2.17879">
        <ele>54.1</ele>
        <time>2022-02-17T11:20:27Z</time>
      </trkpt>
      <trkpt lat="49.07514" lon="2.17878">
        <ele>54.1</ele>
        <time>2022-02-17T11:20:32Z</time>
      </trkpt>
      <trkpt lat="49.07519" lon="2.17877">
        <ele>54.5</ele>
        <time>2022-02-17T11:20:37Z</time>
      </trkpt>
      <trkpt lat="49.07525" lon="2.17877">
        <ele>54.7</ele>
        <time>2022-02-17T11:20:42Z</time>
      </trkpt>
      <trkpt lat="49.07526" lon="2.17883">
        <ele>54.4</ele>
        <time>2022-02-17T11:20:47Z</time>
      </trkpt>
      <trkpt lat="49.07527" lon="2.17891">
        <ele>54.3</ele>
        <time>2022-02-17T11:20:52Z</time>
      </trkpt>
      <trkpt lat="49.0753" lon="2.17898">
        <ele>54.4</ele>
        <time>2022-02-17T11:20:57Z</time>
      </trkpt>
      <trkpt lat="49.07528" lon="2.17891">
        <ele>55.4</ele>
        <time>2022-02-17T11:23:13Z</time>
      </trkpt>
      <trkpt lat="49.07526" lon="2.17885">
        <ele>57</ele>
        <time>2022-02-17T11:24:02Z</time>
      </trkpt>
      <trkpt lat="49.07524" lon="2.17877">
        <ele>57</ele>
        <time>2022-02-17T11:24:23Z</time>
      </trkpt>
      <trkpt lat="49.07518" lon="2.17877">
        <ele>57</ele>
        <time>2022-02-17T11:24:30Z</time>
      </trkpt>
      <trkpt lat="49.07515" lon="2.17882">
        <ele>57.1</ele>
        <time>2022-02-17T11:24:35Z</time>
      </trkpt>
      <trkpt lat="49.07509" lon="2.17882">
        <ele>57.1</ele>
        <time>2022-02-17T11:24:40Z</time>
      </trkpt>
      <trkpt lat="49.07504" lon="2.17882">
        <ele>57</ele>
        <time>2022-02-17T11:24:45Z</time>
      </trkpt>
      <trkpt lat="49.07499" lon="2.17881">
        <ele>56.2</ele>
        <time>2022-02-17T11:24:52Z</time>
      </trkpt>
      <trkpt lat="49.07497" lon="2.17875">
        <ele>56.1</ele>
        <time>2022-02-17T11:24:56Z</time>
      </trkpt>
      <trkpt lat="49.07493" lon="2.17871">
        <ele>56.1</ele>
        <time>2022-02-17T11:25:01Z</time>
      </trkpt>
      <trkpt lat="49.07492" lon="2.17863">
        <ele>56.1</ele>
        <time>2022-02-17T11:25:06Z</time>
      </trkpt>
      <trkpt lat="49.07491" lon="2.17855">
        <ele>55.7</ele>
        <time>2022-02-17T11:25:11Z</time>
      </trkpt>
      <trkpt lat="49.0749" lon="2.17847">
        <ele>55.6</ele>
        <time>2022-02-17T11:25:16Z</time>
      </trkpt>
      <trkpt lat="49.07491" lon="2.17838">
        <ele>56.1</ele>
        <time>2022-02-17T11:25:20Z</time>
      </trkpt>
      <trkpt lat="49.07491" lon="2.17831">
        <ele>57.1</ele>
        <time>2022-02-17T11:25:25Z</time>
      </trkpt>
      <trkpt lat="49.07489" lon="2.17824">
        <ele>56.5</ele>
        <time>2022-02-17T11:25:32Z</time>
      </trkpt>
      <trkpt lat="49.07484" lon="2.17825">
        <ele>55.8</ele>
        <time>2022-02-17T11:25:37Z</time>
      </trkpt>
      <trkpt lat="49.07479" lon="2.17828">
        <ele>55.8</ele>
        <time>2022-02-17T11:25:42Z</time>
      </trkpt>
      <trkpt lat="49.07474" lon="2.1783">
        <ele>55.3</ele>
        <time>2022-02-17T11:25:47Z</time>
      </trkpt>
      <trkpt lat="49.0747" lon="2.17831">
        <ele>54.6</ele>
        <time>2022-02-17T11:25:53Z</time>
      </trkpt>
      <trkpt lat="49.07465" lon="2.17829">
        <ele>53.3</ele>
        <time>2022-02-17T11:25:58Z</time>
      </trkpt>
      <trkpt lat="49.0746" lon="2.17828">
        <ele>52.8</ele>
        <time>2022-02-17T11:26:03Z</time>
      </trkpt>
      <trkpt lat="49.07455" lon="2.17826">
        <ele>53.1</ele>
        <time>2022-02-17T11:26:09Z</time>
      </trkpt>
      <trkpt lat="49.0745" lon="2.17826">
        <ele>53.6</ele>
        <time>2022-02-17T11:26:16Z</time>
      </trkpt>
      <trkpt lat="49.07446" lon="2.17822">
        <ele>53.5</ele>
        <time>2022-02-17T11:26:22Z</time>
      </trkpt>
      <trkpt lat="49.07441" lon="2.17818">
        <ele>53.1</ele>
        <time>2022-02-17T11:26:27Z</time>
      </trkpt>
      <trkpt lat="49.07437" lon="2.17815">
        <ele>52.9</ele>
        <time>2022-02-17T11:26:33Z</time>
      </trkpt>
      <trkpt lat="49.07432" lon="2.17812">
        <ele>52.8</ele>
        <time>2022-02-17T11:26:38Z</time>
      </trkpt>
      <trkpt lat="49.07428" lon="2.17809">
        <ele>51.1</ele>
        <time>2022-02-17T11:26:54Z</time>
      </trkpt>
      <trkpt lat="49.07424" lon="2.17806">
        <ele>51.2</ele>
        <time>2022-02-17T11:26:57Z</time>
      </trkpt>
      <trkpt lat="49.0742" lon="2.17802">
        <ele>51.3</ele>
        <time>2022-02-17T11:27:00Z</time>
      </trkpt>
      <trkpt lat="49.07415" lon="2.17797">
        <ele>51.4</ele>
        <time>2022-02-17T11:27:05Z</time>
      </trkpt>
      <trkpt lat="49.0741" lon="2.17793">
        <ele>51.5</ele>
        <time>2022-02-17T11:27:09Z</time>
      </trkpt>
      <trkpt lat="49.07406" lon="2.1779">
        <ele>51.6</ele>
        <time>2022-02-17T11:27:14Z</time>
      </trkpt>
      <trkpt lat="49.07401" lon="2.17786">
        <ele>51.7</ele>
        <time>2022-02-17T11:27:18Z</time>
      </trkpt>
      <trkpt lat="49.07397" lon="2.17782">
        <ele>51.5</ele>
        <time>2022-02-17T11:27:22Z</time>
      </trkpt>
      <trkpt lat="49.07393" lon="2.17778">
        <ele>51.4</ele>
        <time>2022-02-17T11:27:25Z</time>
      </trkpt>
      <trkpt lat="49.07388" lon="2.17774">
        <ele>51.5</ele>
        <time>2022-02-17T11:27:30Z</time>
      </trkpt>
      <trkpt lat="49.07383" lon="2.1777">
        <ele>51.6</ele>
        <time>2022-02-17T11:27:34Z</time>
      </trkpt>
      <trkpt lat="49.07379" lon="2.17767">
        <ele>51.5</ele>
        <time>2022-02-17T11:27:38Z</time>
      </trkpt>
      <trkpt lat="49.07374" lon="2.17763">
        <ele>51.2</ele>
        <time>2022-02-17T11:27:42Z</time>
      </trkpt>
      <trkpt lat="49.0737" lon="2.1776">
        <ele>50.8</ele>
        <time>2022-02-17T11:27:46Z</time>
      </trkpt>
      <trkpt lat="49.07365" lon="2.17757">
        <ele>50.5</ele>
        <time>2022-02-17T11:27:50Z</time>
      </trkpt>
      <trkpt lat="49.0736" lon="2.17753">
        <ele>50.2</ele>
        <time>2022-02-17T11:27:55Z</time>
      </trkpt>
      <trkpt lat="49.07355" lon="2.1775">
        <ele>49.9</ele>
        <time>2022-02-17T11:27:59Z</time>
      </trkpt>
      <trkpt lat="49.0735" lon="2.17747">
        <ele>49.5</ele>
        <time>2022-02-17T11:28:03Z</time>
      </trkpt>
      <trkpt lat="49.07345" lon="2.17744">
        <ele>49</ele>
        <time>2022-02-17T11:28:08Z</time>
      </trkpt>
      <trkpt lat="49.0734" lon="2.17741">
        <ele>48.7</ele>
        <time>2022-02-17T11:28:12Z</time>
      </trkpt>
      <trkpt lat="49.07334" lon="2.1774">
        <ele>48.6</ele>
        <time>2022-02-17T11:28:16Z</time>
      </trkpt>
      <trkpt lat="49.07328" lon="2.17737">
        <ele>48.3</ele>
        <time>2022-02-17T11:28:21Z</time>
      </trkpt>
      <trkpt lat="49.07324" lon="2.17735">
        <ele>47.7</ele>
        <time>2022-02-17T11:28:25Z</time>
      </trkpt>
      <trkpt lat="49.07319" lon="2.17731">
        <ele>47.2</ele>
        <time>2022-02-17T11:28:29Z</time>
      </trkpt>
      <trkpt lat="49.07314" lon="2.17727">
        <ele>47.2</ele>
        <time>2022-02-17T11:28:33Z</time>
      </trkpt>
      <trkpt lat="49.07309" lon="2.17724">
        <ele>47.3</ele>
        <time>2022-02-17T11:28:38Z</time>
      </trkpt>
      <trkpt lat="49.07303" lon="2.17722">
        <ele>47.4</ele>
        <time>2022-02-17T11:28:42Z</time>
      </trkpt>
      <trkpt lat="49.073" lon="2.1773">
        <ele>48</ele>
        <time>2022-02-17T11:28:49Z</time>
      </trkpt>
      <trkpt lat="49.07295" lon="2.17726">
        <ele>48.6</ele>
        <time>2022-02-17T11:28:55Z</time>
      </trkpt>
      <trkpt lat="49.07292" lon="2.17721">
        <ele>48.4</ele>
        <time>2022-02-17T11:28:58Z</time>
      </trkpt>
      <trkpt lat="49.07288" lon="2.17717">
        <ele>49</ele>
        <time>2022-02-17T11:29:01Z</time>
      </trkpt>
      <trkpt lat="49.07284" lon="2.17713">
        <ele>49.8</ele>
        <time>2022-02-17T11:29:04Z</time>
      </trkpt>
      <trkpt lat="49.07279" lon="2.17709">
        <ele>50.3</ele>
        <time>2022-02-17T11:29:08Z</time>
      </trkpt>
      <trkpt lat="49.07274" lon="2.17706">
        <ele>50</ele>
        <time>2022-02-17T11:29:12Z</time>
      </trkpt>
      <trkpt lat="49.0727" lon="2.17704">
        <ele>49.8</ele>
        <time>2022-02-17T11:29:17Z</time>
      </trkpt>
      <trkpt lat="49.07265" lon="2.17702">
        <ele>49.4</ele>
        <time>2022-02-17T11:29:21Z</time>
      </trkpt>
      <trkpt lat="49.0726" lon="2.17699">
        <ele>49.2</ele>
        <time>2022-02-17T11:29:25Z</time>
      </trkpt>
      <trkpt lat="49.07256" lon="2.17696">
        <ele>49</ele>
        <time>2022-02-17T11:29:29Z</time>
      </trkpt>
      <trkpt lat="49.07251" lon="2.17695">
        <ele>49</ele>
        <time>2022-02-17T11:29:33Z</time>
      </trkpt>
      <trkpt lat="49.07248" lon="2.17689">
        <ele>49.1</ele>
        <time>2022-02-17T11:29:38Z</time>
      </trkpt>
      <trkpt lat="49.07245" lon="2.17682">
        <ele>49</ele>
        <time>2022-02-17T11:29:42Z</time>
      </trkpt>
      <trkpt lat="49.07242" lon="2.17676">
        <ele>48.6</ele>
        <time>2022-02-17T11:29:46Z</time>
      </trkpt>
      <trkpt lat="49.07239" lon="2.17668">
        <ele>47.8</ele>
        <time>2022-02-17T11:29:50Z</time>
      </trkpt>
      <trkpt lat="49.07236" lon="2.17662">
        <ele>47.6</ele>
        <time>2022-02-17T11:29:55Z</time>
      </trkpt>
      <trkpt lat="49.07232" lon="2.17657">
        <ele>47.7</ele>
        <time>2022-02-17T11:29:59Z</time>
      </trkpt>
      <trkpt lat="49.07227" lon="2.17661">
        <ele>47.8</ele>
        <time>2022-02-17T11:30:04Z</time>
      </trkpt>
      <trkpt lat="49.07226" lon="2.17669">
        <ele>47.4</ele>
        <time>2022-02-17T11:30:07Z</time>
      </trkpt>
      <trkpt lat="49.07221" lon="2.17669">
        <ele>47</ele>
        <time>2022-02-17T11:30:11Z</time>
      </trkpt>
      <trkpt lat="49.07216" lon="2.17671">
        <ele>46.6</ele>
        <time>2022-02-17T11:30:15Z</time>
      </trkpt>
      <trkpt lat="49.07212" lon="2.17671">
        <ele>45.8</ele>
        <time>2022-02-17T11:30:19Z</time>
      </trkpt>
      <trkpt lat="49.07208" lon="2.17676">
        <ele>44.7</ele>
        <time>2022-02-17T11:30:24Z</time>
      </trkpt>
      <trkpt lat="49.07203" lon="2.17673">
        <ele>45</ele>
        <time>2022-02-17T11:30:31Z</time>
      </trkpt>
      <trkpt lat="49.07202" lon="2.17666">
        <ele>45.6</ele>
        <time>2022-02-17T11:30:34Z</time>
      </trkpt>
      <trkpt lat="49.072" lon="2.17658">
        <ele>46.5</ele>
        <time>2022-02-17T11:30:40Z</time>
      </trkpt>
      <trkpt lat="49.07196" lon="2.17653">
        <ele>47.7</ele>
        <time>2022-02-17T11:30:46Z</time>
      </trkpt>
      <trkpt lat="49.0719" lon="2.17653">
        <ele>48.2</ele>
        <time>2022-02-17T11:30:53Z</time>
      </trkpt>
      <trkpt lat="49.07185" lon="2.17653">
        <ele>47.5</ele>
        <time>2022-02-17T11:30:59Z</time>
      </trkpt>
      <trkpt lat="49.07181" lon="2.17648">
        <ele>46.6</ele>
        <time>2022-02-17T11:31:05Z</time>
      </trkpt>
      <trkpt lat="49.07181" lon="2.1764">
        <ele>46.2</ele>
        <time>2022-02-17T11:31:10Z</time>
      </trkpt>
      <trkpt lat="49.07181" lon="2.17633">
        <ele>44.7</ele>
        <time>2022-02-17T11:31:15Z</time>
      </trkpt>
      <trkpt lat="49.0718" lon="2.17626">
        <ele>42.4</ele>
        <time>2022-02-17T11:31:19Z</time>
      </trkpt>
      <trkpt lat="49.0718" lon="2.17618">
        <ele>41</ele>
        <time>2022-02-17T11:31:25Z</time>
      </trkpt>
      <trkpt lat="49.07179" lon="2.17611">
        <ele>40.8</ele>
        <time>2022-02-17T11:31:30Z</time>
      </trkpt>
      <trkpt lat="49.07178" lon="2.17603">
        <ele>41.1</ele>
        <time>2022-02-17T11:31:35Z</time>
      </trkpt>
      <trkpt lat="49.07178" lon="2.17596">
        <ele>41.1</ele>
        <time>2022-02-17T11:31:39Z</time>
      </trkpt>
      <trkpt lat="49.07181" lon="2.17589">
        <ele>41</ele>
        <time>2022-02-17T11:31:44Z</time>
      </trkpt>
      <trkpt lat="49.07185" lon="2.17586">
        <ele>39.7</ele>
        <time>2022-02-17T11:31:50Z</time>
      </trkpt>
      <trkpt lat="49.07191" lon="2.17591">
        <ele>36.4</ele>
        <time>2022-02-17T11:32:02Z</time>
      </trkpt>
      <trkpt lat="49.07195" lon="2.1759">
        <ele>36.5</ele>
        <time>2022-02-17T11:32:07Z</time>
      </trkpt>
      <trkpt lat="49.072" lon="2.17593">
        <ele>36.6</ele>
        <time>2022-02-17T11:32:25Z</time>
      </trkpt>
      <trkpt lat="49.07202" lon="2.176">
        <ele>35.8</ele>
        <time>2022-02-17T11:32:31Z</time>
      </trkpt>
      <trkpt lat="49.07201" lon="2.17607">
        <ele>34</ele>
        <time>2022-02-17T11:32:46Z</time>
      </trkpt>
      <trkpt lat="49.07202" lon="2.17614">
        <ele>36.8</ele>
        <time>2022-02-17T11:33:18Z</time>
      </trkpt>
      <trkpt lat="49.07199" lon="2.17619">
        <ele>37.1</ele>
        <time>2022-02-17T11:33:22Z</time>
      </trkpt>
      <trkpt lat="49.07201" lon="2.17626">
        <ele>39.7</ele>
        <time>2022-02-17T11:33:39Z</time>
      </trkpt>
      <trkpt lat="49.07205" lon="2.1763">
        <ele>41.7</ele>
        <time>2022-02-17T11:33:47Z</time>
      </trkpt>
      <trkpt lat="49.07207" lon="2.17637">
        <ele>41.3</ele>
        <time>2022-02-17T11:33:58Z</time>
      </trkpt>
      <trkpt lat="49.07203" lon="2.17641">
        <ele>35.6</ele>
        <time>2022-02-17T11:34:14Z</time>
      </trkpt>
      <trkpt lat="49.07199" lon="2.17645">
        <ele>38.4</ele>
        <time>2022-02-17T11:34:48Z</time>
      </trkpt>
      <trkpt lat="49.07194" lon="2.17645">
        <ele>40.8</ele>
        <time>2022-02-17T11:36:12Z</time>
      </trkpt>
      <trkpt lat="49.072" lon="2.17643">
        <ele>40</ele>
        <time>2022-02-17T11:36:17Z</time>
      </trkpt>
      <trkpt lat="49.07199" lon="2.17636">
        <ele>40.7</ele>
        <time>2022-02-17T11:36:50Z</time>
      </trkpt>
      <trkpt lat="49.07194" lon="2.17636">
        <ele>40.4</ele>
        <time>2022-02-17T11:36:57Z</time>
      </trkpt>
      <trkpt lat="49.07189" lon="2.17639">
        <ele>39.4</ele>
        <time>2022-02-17T11:37:12Z</time>
      </trkpt>
      <trkpt lat="49.07177" lon="2.1763">
        <ele>38.8</ele>
        <time>2022-02-17T11:37:30Z</time>
      </trkpt>
      <trkpt lat="49.0717" lon="2.17629">
        <ele>31.7</ele>
        <time>2022-02-17T11:37:32Z</time>
      </trkpt>
      <trkpt lat="49.07179" lon="2.17612">
        <ele>37.1</ele>
        <time>2022-02-17T11:37:41Z</time>
      </trkpt>
      <trkpt lat="49.07185" lon="2.1761">
        <ele>45.5</ele>
        <time>2022-02-17T11:37:46Z</time>
      </trkpt>
      <trkpt lat="49.07189" lon="2.17614">
        <ele>44.7</ele>
        <time>2022-02-17T11:37:53Z</time>
      </trkpt>
      <trkpt lat="49.07189" lon="2.17621">
        <ele>45</ele>
        <time>2022-02-17T11:38:06Z</time>
      </trkpt>
      <trkpt lat="49.07187" lon="2.17614">
        <ele>40.2</ele>
        <time>2022-02-17T11:38:21Z</time>
      </trkpt>
      <trkpt lat="49.07191" lon="2.17608">
        <ele>39.7</ele>
        <time>2022-02-17T11:38:27Z</time>
      </trkpt>
      <trkpt lat="49.07195" lon="2.17603">
        <ele>39.6</ele>
        <time>2022-02-17T11:38:30Z</time>
      </trkpt>
      <trkpt lat="49.07198" lon="2.17597">
        <ele>39.4</ele>
        <time>2022-02-17T11:38:36Z</time>
      </trkpt>
      <trkpt lat="49.07197" lon="2.17589">
        <ele>40</ele>
        <time>2022-02-17T11:38:44Z</time>
      </trkpt>
      <trkpt lat="49.07196" lon="2.17583">
        <ele>41.8</ele>
        <time>2022-02-17T11:38:51Z</time>
      </trkpt>
      <trkpt lat="49.07191" lon="2.17584">
        <ele>42.6</ele>
        <time>2022-02-17T11:39:02Z</time>
      </trkpt>
      <trkpt lat="49.07186" lon="2.17588">
        <ele>43.8</ele>
        <time>2022-02-17T11:39:08Z</time>
      </trkpt>
      <trkpt lat="49.07181" lon="2.17588">
        <ele>44</ele>
        <time>2022-02-17T11:39:11Z</time>
      </trkpt>
      <trkpt lat="49.07177" lon="2.17593">
        <ele>43.5</ele>
        <time>2022-02-17T11:39:16Z</time>
      </trkpt>
      <trkpt lat="49.07176" lon="2.176">
        <ele>42.1</ele>
        <time>2022-02-17T11:39:23Z</time>
      </trkpt>
      <trkpt lat="49.07175" lon="2.17607">
        <ele>41.1</ele>
        <time>2022-02-17T11:39:28Z</time>
      </trkpt>
      <trkpt lat="49.07176" lon="2.17614">
        <ele>40.5</ele>
        <time>2022-02-17T11:39:34Z</time>
      </trkpt>
      <trkpt lat="49.07177" lon="2.1762">
        <ele>39.8</ele>
        <time>2022-02-17T11:39:40Z</time>
      </trkpt>
      <trkpt lat="49.07178" lon="2.17628">
        <ele>39.1</ele>
        <time>2022-02-17T11:39:46Z</time>
      </trkpt>
      <trkpt lat="49.07178" lon="2.17635">
        <ele>38.1</ele>
        <time>2022-02-17T11:39:52Z</time>
      </trkpt>
      <trkpt lat="49.07178" lon="2.17642">
        <ele>37.9</ele>
        <time>2022-02-17T11:39:59Z</time>
      </trkpt>
      <trkpt lat="49.07182" lon="2.17645">
        <ele>40.6</ele>
        <time>2022-02-17T11:50:53Z</time>
      </trkpt>
      <trkpt lat="49.07183" lon="2.17636">
        <ele>42</ele>
        <time>2022-02-17T12:04:46Z</time>
      </trkpt>
      <trkpt lat="49.07178" lon="2.17641">
        <ele>40.6</ele>
        <time>2022-02-17T12:04:58Z</time>
      </trkpt>
      <trkpt lat="49.07177" lon="2.17649">
        <ele>39.2</ele>
        <time>2022-02-17T12:05:02Z</time>
      </trkpt>
      <trkpt lat="49.0718" lon="2.17644">
        <ele>39.6</ele>
        <time>2022-02-17T12:09:07Z</time>
      </trkpt>
      <trkpt lat="49.07175" lon="2.17644">
        <ele>37.8</ele>
        <time>2022-02-17T12:11:51Z</time>
      </trkpt>
      <trkpt lat="49.07179" lon="2.17648">
        <ele>36.6</ele>
        <time>2022-02-17T12:13:27Z</time>
      </trkpt>
      <trkpt lat="49.07183" lon="2.17646">
        <ele>38.1</ele>
        <time>2022-02-17T12:15:20Z</time>
      </trkpt>
      <trkpt lat="49.07182" lon="2.17639">
        <ele>38.9</ele>
        <time>2022-02-17T12:15:40Z</time>
      </trkpt>
      <trkpt lat="49.07184" lon="2.17632">
        <ele>38.4</ele>
        <time>2022-02-17T12:15:45Z</time>
      </trkpt>
      <trkpt lat="49.07185" lon="2.17625">
        <ele>38.5</ele>
        <time>2022-02-17T12:15:50Z</time>
      </trkpt>
      <trkpt lat="49.07186" lon="2.17615">
        <ele>38.8</ele>
        <time>2022-02-17T12:15:54Z</time>
      </trkpt>
      <trkpt lat="49.07187" lon="2.17606">
        <ele>39.7</ele>
        <time>2022-02-17T12:15:59Z</time>
      </trkpt>
      <trkpt lat="49.07186" lon="2.17598">
        <ele>40.9</ele>
        <time>2022-02-17T12:16:03Z</time>
      </trkpt>
      <trkpt lat="49.07183" lon="2.17591">
        <ele>42.1</ele>
        <time>2022-02-17T12:16:07Z</time>
      </trkpt>
      <trkpt lat="49.07178" lon="2.17588">
        <ele>43</ele>
        <time>2022-02-17T12:16:12Z</time>
      </trkpt>
      <trkpt lat="49.07175" lon="2.17584">
        <ele>43</ele>
        <time>2022-02-17T12:16:16Z</time>
      </trkpt>
      <trkpt lat="49.0717" lon="2.17581">
        <ele>41.6</ele>
        <time>2022-02-17T12:16:23Z</time>
      </trkpt>
      <trkpt lat="49.07166" lon="2.17577">
        <ele>41.5</ele>
        <time>2022-02-17T12:16:30Z</time>
      </trkpt>
      <trkpt lat="49.07163" lon="2.17572">
        <ele>42.1</ele>
        <time>2022-02-17T12:16:37Z</time>
      </trkpt>
      <trkpt lat="49.07158" lon="2.1757">
        <ele>41.1</ele>
        <time>2022-02-17T12:16:46Z</time>
      </trkpt>
      <trkpt lat="49.07156" lon="2.17562">
        <ele>40.4</ele>
        <time>2022-02-17T12:16:52Z</time>
      </trkpt>
      <trkpt lat="49.07155" lon="2.17555">
        <ele>37.9</ele>
        <time>2022-02-17T12:16:58Z</time>
      </trkpt>
      <trkpt lat="49.07154" lon="2.17547">
        <ele>36</ele>
        <time>2022-02-17T12:17:04Z</time>
      </trkpt>
      <trkpt lat="49.07153" lon="2.1754">
        <ele>36</ele>
        <time>2022-02-17T12:17:08Z</time>
      </trkpt>
      <trkpt lat="49.07151" lon="2.17532">
        <ele>36.6</ele>
        <time>2022-02-17T12:17:12Z</time>
      </trkpt>
      <trkpt lat="49.07149" lon="2.17525">
        <ele>37.1</ele>
        <time>2022-02-17T12:17:16Z</time>
      </trkpt>
      <trkpt lat="49.07149" lon="2.17518">
        <ele>36.7</ele>
        <time>2022-02-17T12:17:22Z</time>
      </trkpt>
      <trkpt lat="49.07148" lon="2.1751">
        <ele>34.5</ele>
        <time>2022-02-17T12:17:32Z</time>
      </trkpt>
      <trkpt lat="49.07148" lon="2.17502">
        <ele>34.4</ele>
        <time>2022-02-17T12:17:38Z</time>
      </trkpt>
      <trkpt lat="49.07149" lon="2.17495">
        <ele>34.2</ele>
        <time>2022-02-17T12:17:42Z</time>
      </trkpt>
      <trkpt lat="49.0715" lon="2.17488">
        <ele>33.6</ele>
        <time>2022-02-17T12:17:46Z</time>
      </trkpt>
      <trkpt lat="49.07151" lon="2.17481">
        <ele>32.1</ele>
        <time>2022-02-17T12:17:50Z</time>
      </trkpt>
      <trkpt lat="49.07151" lon="2.17473">
        <ele>29.6</ele>
        <time>2022-02-17T12:17:56Z</time>
      </trkpt>
      <trkpt lat="49.0715" lon="2.17465">
        <ele>28</ele>
        <time>2022-02-17T12:18:02Z</time>
      </trkpt>
      <trkpt lat="49.07149" lon="2.17472">
        <ele>27.8</ele>
        <time>2022-02-17T12:18:06Z</time>
      </trkpt>
      <trkpt lat="49.07147" lon="2.17465">
        <ele>31</ele>
        <time>2022-02-17T12:18:11Z</time>
      </trkpt>
      <trkpt lat="49.07146" lon="2.17458">
        <ele>32.5</ele>
        <time>2022-02-17T12:18:14Z</time>
      </trkpt>
      <trkpt lat="49.07147" lon="2.17451">
        <ele>31.9</ele>
        <time>2022-02-17T12:18:18Z</time>
      </trkpt>
      <trkpt lat="49.07147" lon="2.17444">
        <ele>30.3</ele>
        <time>2022-02-17T12:18:21Z</time>
      </trkpt>
      <trkpt lat="49.07147" lon="2.17436">
        <ele>28.2</ele>
        <time>2022-02-17T12:18:24Z</time>
      </trkpt>
      <trkpt lat="49.07147" lon="2.17428">
        <ele>26.6</ele>
        <time>2022-02-17T12:18:28Z</time>
      </trkpt>
      <trkpt lat="49.07146" lon="2.1742">
        <ele>25.2</ele>
        <time>2022-02-17T12:18:32Z</time>
      </trkpt>
      <trkpt lat="49.07145" lon="2.17413">
        <ele>24.4</ele>
        <time>2022-02-17T12:18:37Z</time>
      </trkpt>
      <trkpt lat="49.07144" lon="2.17405">
        <ele>24.1</ele>
        <time>2022-02-17T12:18:41Z</time>
      </trkpt>
      <trkpt lat="49.07143" lon="2.17397">
        <ele>23.9</ele>
        <time>2022-02-17T12:18:45Z</time>
      </trkpt>
      <trkpt lat="49.0714" lon="2.17391">
        <ele>23.3</ele>
        <time>2022-02-17T12:18:49Z</time>
      </trkpt>
      <trkpt lat="49.07141" lon="2.17383">
        <ele>23.4</ele>
        <time>2022-02-17T12:18:53Z</time>
      </trkpt>
      <trkpt lat="49.0714" lon="2.17376">
        <ele>23.8</ele>
        <time>2022-02-17T12:18:57Z</time>
      </trkpt>
      <trkpt lat="49.07138" lon="2.17367">
        <ele>24.6</ele>
        <time>2022-02-17T12:19:01Z</time>
      </trkpt>
      <trkpt lat="49.07137" lon="2.17358">
        <ele>26</ele>
        <time>2022-02-17T12:19:05Z</time>
      </trkpt>
      <trkpt lat="49.07137" lon="2.17349">
        <ele>27.6</ele>
        <time>2022-02-17T12:19:09Z</time>
      </trkpt>
      <trkpt lat="49.07138" lon="2.17341">
        <ele>28.8</ele>
        <time>2022-02-17T12:19:12Z</time>
      </trkpt>
      <trkpt lat="49.07138" lon="2.17333">
        <ele>30.5</ele>
        <time>2022-02-17T12:19:17Z</time>
      </trkpt>
      <trkpt lat="49.07138" lon="2.17325">
        <ele>31.9</ele>
        <time>2022-02-17T12:19:21Z</time>
      </trkpt>
      <trkpt lat="49.07138" lon="2.17316">
        <ele>32.9</ele>
        <time>2022-02-17T12:19:25Z</time>
      </trkpt>
      <trkpt lat="49.07137" lon="2.17308">
        <ele>33.6</ele>
        <time>2022-02-17T12:19:29Z</time>
      </trkpt>
      <trkpt lat="49.07137" lon="2.17298">
        <ele>33.9</ele>
        <time>2022-02-17T12:19:35Z</time>
      </trkpt>
      <trkpt lat="49.07137" lon="2.1729">
        <ele>33.8</ele>
        <time>2022-02-17T12:19:39Z</time>
      </trkpt>
      <trkpt lat="49.07136" lon="2.17282">
        <ele>34.2</ele>
        <time>2022-02-17T12:19:43Z</time>
      </trkpt>
      <trkpt lat="49.07135" lon="2.17274">
        <ele>35</ele>
        <time>2022-02-17T12:19:46Z</time>
      </trkpt>
      <trkpt lat="49.07134" lon="2.17267">
        <ele>34.8</ele>
        <time>2022-02-17T12:19:51Z</time>
      </trkpt>
      <trkpt lat="49.07135" lon="2.17259">
        <ele>32.4</ele>
        <time>2022-02-17T12:19:56Z</time>
      </trkpt>
      <trkpt lat="49.07135" lon="2.17251">
        <ele>31.8</ele>
        <time>2022-02-17T12:20:00Z</time>
      </trkpt>
      <trkpt lat="49.07135" lon="2.17244">
        <ele>32</ele>
        <time>2022-02-17T12:20:05Z</time>
      </trkpt>
      <trkpt lat="49.07135" lon="2.17236">
        <ele>32</ele>
        <time>2022-02-17T12:20:09Z</time>
      </trkpt>
      <trkpt lat="49.07135" lon="2.17229">
        <ele>31.7</ele>
        <time>2022-02-17T12:20:13Z</time>
      </trkpt>
      <trkpt lat="49.07134" lon="2.1722">
        <ele>31.3</ele>
        <time>2022-02-17T12:20:18Z</time>
      </trkpt>
      <trkpt lat="49.07133" lon="2.17212">
        <ele>30.9</ele>
        <time>2022-02-17T12:20:22Z</time>
      </trkpt>
      <trkpt lat="49.07132" lon="2.17204">
        <ele>30.8</ele>
        <time>2022-02-17T12:20:27Z</time>
      </trkpt>
      <trkpt lat="49.07131" lon="2.17197">
        <ele>31.1</ele>
        <time>2022-02-17T12:20:31Z</time>
      </trkpt>
      <trkpt lat="49.07129" lon="2.17189">
        <ele>31.6</ele>
        <time>2022-02-17T12:20:36Z</time>
      </trkpt>
      <trkpt lat="49.07129" lon="2.17182">
        <ele>31.7</ele>
        <time>2022-02-17T12:20:40Z</time>
      </trkpt>
      <trkpt lat="49.07128" lon="2.17173">
        <ele>30.9</ele>
        <time>2022-02-17T12:20:44Z</time>
      </trkpt>
      <trkpt lat="49.07125" lon="2.17167">
        <ele>29.1</ele>
        <time>2022-02-17T12:20:49Z</time>
      </trkpt>
      <trkpt lat="49.07121" lon="2.17162">
        <ele>27.3</ele>
        <time>2022-02-17T12:20:53Z</time>
      </trkpt>
      <trkpt lat="49.07117" lon="2.17158">
        <ele>26.5</ele>
        <time>2022-02-17T12:20:58Z</time>
      </trkpt>
      <trkpt lat="49.07113" lon="2.17153">
        <ele>25.6</ele>
        <time>2022-02-17T12:21:02Z</time>
      </trkpt>
      <trkpt lat="49.07109" lon="2.17148">
        <ele>24.7</ele>
        <time>2022-02-17T12:21:06Z</time>
      </trkpt>
      <trkpt lat="49.07106" lon="2.17144">
        <ele>24.2</ele>
        <time>2022-02-17T12:21:11Z</time>
      </trkpt>
      <trkpt lat="49.07101" lon="2.17144">
        <ele>24.1</ele>
        <time>2022-02-17T12:21:15Z</time>
      </trkpt>
      <trkpt lat="49.07097" lon="2.17141">
        <ele>25.1</ele>
        <time>2022-02-17T12:21:21Z</time>
      </trkpt>
      <trkpt lat="49.07093" lon="2.17135">
        <ele>25.3</ele>
        <time>2022-02-17T12:21:25Z</time>
      </trkpt>
      <trkpt lat="49.0709" lon="2.17129">
        <ele>24.8</ele>
        <time>2022-02-17T12:21:30Z</time>
      </trkpt>
      <trkpt lat="49.07086" lon="2.17129">
        <ele>24.7</ele>
        <time>2022-02-17T12:21:36Z</time>
      </trkpt>
      <trkpt lat="49.07085" lon="2.17123">
        <ele>25.9</ele>
        <time>2022-02-17T12:21:45Z</time>
      </trkpt>
      <trkpt lat="49.07081" lon="2.1712">
        <ele>26.1</ele>
        <time>2022-02-17T12:22:04Z</time>
      </trkpt>
      <trkpt lat="49.07075" lon="2.1712">
        <ele>25.4</ele>
        <time>2022-02-17T12:22:11Z</time>
      </trkpt>
      <trkpt lat="49.07071" lon="2.17122">
        <ele>23.9</ele>
        <time>2022-02-17T12:22:57Z</time>
      </trkpt>
      <trkpt lat="49.07066" lon="2.17123">
        <ele>23.7</ele>
        <time>2022-02-17T12:23:03Z</time>
      </trkpt>
      <trkpt lat="49.07067" lon="2.1713">
        <ele>21.4</ele>
        <time>2022-02-17T12:23:17Z</time>
      </trkpt>
      <trkpt lat="49.07067" lon="2.17138">
        <ele>21.2</ele>
        <time>2022-02-17T12:23:21Z</time>
      </trkpt>
      <trkpt lat="49.07065" lon="2.17145">
        <ele>19.9</ele>
        <time>2022-02-17T12:23:46Z</time>
      </trkpt>
      <trkpt lat="49.07064" lon="2.17137">
        <ele>20.1</ele>
        <time>2022-02-17T12:24:16Z</time>
      </trkpt>
      <trkpt lat="49.07065" lon="2.17129">
        <ele>20.6</ele>
        <time>2022-02-17T12:24:31Z</time>
      </trkpt>
      <trkpt lat="49.07068" lon="2.17124">
        <ele>20.7</ele>
        <time>2022-02-17T12:24:35Z</time>
      </trkpt>
      <trkpt lat="49.07074" lon="2.17123">
        <ele>20.7</ele>
        <time>2022-02-17T12:24:38Z</time>
      </trkpt>
      <trkpt lat="49.0708" lon="2.17124">
        <ele>20.9</ele>
        <time>2022-02-17T12:24:43Z</time>
      </trkpt>
      <trkpt lat="49.07085" lon="2.17127">
        <ele>21.4</ele>
        <time>2022-02-17T12:24:46Z</time>
      </trkpt>
      <trkpt lat="49.07089" lon="2.17131">
        <ele>22.2</ele>
        <time>2022-02-17T12:24:50Z</time>
      </trkpt>
      <trkpt lat="49.07094" lon="2.17134">
        <ele>22.9</ele>
        <time>2022-02-17T12:24:54Z</time>
      </trkpt>
      <trkpt lat="49.07098" lon="2.17138">
        <ele>23.4</ele>
        <time>2022-02-17T12:24:57Z</time>
      </trkpt>
      <trkpt lat="49.07103" lon="2.17143">
        <ele>23.7</ele>
        <time>2022-02-17T12:25:01Z</time>
      </trkpt>
      <trkpt lat="49.07107" lon="2.17149">
        <ele>23.7</ele>
        <time>2022-02-17T12:25:06Z</time>
      </trkpt>
      <trkpt lat="49.07102" lon="2.17145">
        <ele>22.5</ele>
        <time>2022-02-17T12:25:56Z</time>
      </trkpt>
      <trkpt lat="49.07099" lon="2.17139">
        <ele>22.9</ele>
        <time>2022-02-17T12:26:01Z</time>
      </trkpt>
      <trkpt lat="49.07094" lon="2.17136">
        <ele>23</ele>
        <time>2022-02-17T12:26:05Z</time>
      </trkpt>
      <trkpt lat="49.0709" lon="2.17133">
        <ele>23</ele>
        <time>2022-02-17T12:26:10Z</time>
      </trkpt>
      <trkpt lat="49.07085" lon="2.17125">
        <ele>23</ele>
        <time>2022-02-17T12:26:14Z</time>
      </trkpt>
      <trkpt lat="49.07081" lon="2.17119">
        <ele>24.4</ele>
        <time>2022-02-17T12:26:29Z</time>
      </trkpt>
      <trkpt lat="49.07078" lon="2.17111">
        <ele>24.3</ele>
        <time>2022-02-17T12:26:34Z</time>
      </trkpt>
      <trkpt lat="49.07072" lon="2.1711">
        <ele>24.3</ele>
        <time>2022-02-17T12:26:37Z</time>
      </trkpt>
      <trkpt lat="49.07068" lon="2.1711">
        <ele>24.4</ele>
        <time>2022-02-17T12:26:40Z</time>
      </trkpt>
      <trkpt lat="49.07063" lon="2.17109">
        <ele>24.5</ele>
        <time>2022-02-17T12:26:43Z</time>
      </trkpt>
      <trkpt lat="49.07058" lon="2.17103">
        <ele>24.9</ele>
        <time>2022-02-17T12:26:46Z</time>
      </trkpt>
      <trkpt lat="49.07055" lon="2.17098">
        <ele>25.4</ele>
        <time>2022-02-17T12:26:51Z</time>
      </trkpt>
      <trkpt lat="49.07054" lon="2.1709">
        <ele>25.9</ele>
        <time>2022-02-17T12:26:58Z</time>
      </trkpt>
      <trkpt lat="49.07052" lon="2.17083">
        <ele>25.5</ele>
        <time>2022-02-17T12:27:03Z</time>
      </trkpt>
      <trkpt lat="49.07049" lon="2.17077">
        <ele>25.2</ele>
        <time>2022-02-17T12:27:07Z</time>
      </trkpt>
      <trkpt lat="49.07046" lon="2.17069">
        <ele>24.8</ele>
        <time>2022-02-17T12:27:11Z</time>
      </trkpt>
      <trkpt lat="49.07043" lon="2.17063">
        <ele>24.8</ele>
        <time>2022-02-17T12:27:16Z</time>
      </trkpt>
      <trkpt lat="49.07041" lon="2.17057">
        <ele>25</ele>
        <time>2022-02-17T12:27:20Z</time>
      </trkpt>
      <trkpt lat="49.07035" lon="2.17056">
        <ele>25.1</ele>
        <time>2022-02-17T12:27:26Z</time>
      </trkpt>
      <trkpt lat="49.0703" lon="2.17058">
        <ele>24.2</ele>
        <time>2022-02-17T12:27:30Z</time>
      </trkpt>
      <trkpt lat="49.07026" lon="2.17061">
        <ele>22.8</ele>
        <time>2022-02-17T12:27:33Z</time>
      </trkpt>
      <trkpt lat="49.0702" lon="2.17063">
        <ele>21.5</ele>
        <time>2022-02-17T12:27:38Z</time>
      </trkpt>
      <trkpt lat="49.07014" lon="2.17066">
        <ele>20.1</ele>
        <time>2022-02-17T12:27:42Z</time>
      </trkpt>
      <trkpt lat="49.0701" lon="2.1707">
        <ele>19.5</ele>
        <time>2022-02-17T12:27:45Z</time>
      </trkpt>
      <trkpt lat="49.07006" lon="2.17073">
        <ele>19.6</ele>
        <time>2022-02-17T12:27:49Z</time>
      </trkpt>
      <trkpt lat="49.07" lon="2.17077">
        <ele>20.2</ele>
        <time>2022-02-17T12:27:53Z</time>
      </trkpt>
      <trkpt lat="49.06996" lon="2.17079">
        <ele>20.5</ele>
        <time>2022-02-17T12:27:57Z</time>
      </trkpt>
      <trkpt lat="49.0699" lon="2.17081">
        <ele>20.3</ele>
        <time>2022-02-17T12:28:01Z</time>
      </trkpt>
      <trkpt lat="49.06985" lon="2.17082">
        <ele>19.6</ele>
        <time>2022-02-17T12:28:05Z</time>
      </trkpt>
      <trkpt lat="49.06979" lon="2.17083">
        <ele>18.8</ele>
        <time>2022-02-17T12:28:10Z</time>
      </trkpt>
      <trkpt lat="49.06974" lon="2.17083">
        <ele>18.8</ele>
        <time>2022-02-17T12:28:14Z</time>
      </trkpt>
      <trkpt lat="49.06969" lon="2.17082">
        <ele>19.4</ele>
        <time>2022-02-17T12:28:18Z</time>
      </trkpt>
      <trkpt lat="49.06964" lon="2.17082">
        <ele>19.8</ele>
        <time>2022-02-17T12:28:22Z</time>
      </trkpt>
      <trkpt lat="49.06959" lon="2.17083">
        <ele>19.7</ele>
        <time>2022-02-17T12:28:25Z</time>
      </trkpt>
      <trkpt lat="49.06954" lon="2.17083">
        <ele>19.6</ele>
        <time>2022-02-17T12:28:29Z</time>
      </trkpt>
      <trkpt lat="49.06949" lon="2.17083">
        <ele>19.9</ele>
        <time>2022-02-17T12:28:34Z</time>
      </trkpt>
      <trkpt lat="49.06944" lon="2.17083">
        <ele>20.4</ele>
        <time>2022-02-17T12:28:38Z</time>
      </trkpt>
      <trkpt lat="49.06938" lon="2.17081">
        <ele>20.8</ele>
        <time>2022-02-17T12:28:42Z</time>
      </trkpt>
      <trkpt lat="49.06933" lon="2.17084">
        <ele>21.7</ele>
        <time>2022-02-17T12:28:48Z</time>
      </trkpt>
      <trkpt lat="49.06928" lon="2.17085">
        <ele>22.4</ele>
        <time>2022-02-17T12:28:53Z</time>
      </trkpt>
      <trkpt lat="49.06924" lon="2.17082">
        <ele>22.3</ele>
        <time>2022-02-17T12:28:56Z</time>
      </trkpt>
      <trkpt lat="49.06918" lon="2.17081">
        <ele>21.2</ele>
        <time>2022-02-17T12:29:01Z</time>
      </trkpt>
      <trkpt lat="49.06912" lon="2.17079">
        <ele>18.2</ele>
        <time>2022-02-17T12:29:14Z</time>
      </trkpt>
      <trkpt lat="49.06908" lon="2.17077">
        <ele>17.6</ele>
        <time>2022-02-17T12:29:17Z</time>
      </trkpt>
      <trkpt lat="49.06903" lon="2.17076">
        <ele>17</ele>
        <time>2022-02-17T12:29:21Z</time>
      </trkpt>
      <trkpt lat="49.06895" lon="2.17086">
        <ele>17.1</ele>
        <time>2022-02-17T12:29:26Z</time>
      </trkpt>
      <trkpt lat="49.06891" lon="2.17095">
        <ele>17.3</ele>
        <time>2022-02-17T12:29:27Z</time>
      </trkpt>
      <trkpt lat="49.06888" lon="2.171">
        <ele>17.7</ele>
        <time>2022-02-17T12:29:29Z</time>
      </trkpt>
      <trkpt lat="49.06882" lon="2.17106">
        <ele>18.8</ele>
        <time>2022-02-17T12:29:35Z</time>
      </trkpt>
      <trkpt lat="49.06877" lon="2.17105">
        <ele>19.2</ele>
        <time>2022-02-17T12:29:38Z</time>
      </trkpt>
      <trkpt lat="49.06872" lon="2.17104">
        <ele>19.3</ele>
        <time>2022-02-17T12:29:41Z</time>
      </trkpt>
      <trkpt lat="49.06867" lon="2.17103">
        <ele>19.2</ele>
        <time>2022-02-17T12:29:44Z</time>
      </trkpt>
      <trkpt lat="49.06861" lon="2.17104">
        <ele>18</ele>
        <time>2022-02-17T12:29:48Z</time>
      </trkpt>
      <trkpt lat="49.06856" lon="2.17106">
        <ele>17.3</ele>
        <time>2022-02-17T12:29:52Z</time>
      </trkpt>
      <trkpt lat="49.0685" lon="2.17107">
        <ele>17.6</ele>
        <time>2022-02-17T12:29:56Z</time>
      </trkpt>
      <trkpt lat="49.06845" lon="2.17107">
        <ele>18.4</ele>
        <time>2022-02-17T12:29:59Z</time>
      </trkpt>
      <trkpt lat="49.06839" lon="2.17108">
        <ele>19.3</ele>
        <time>2022-02-17T12:30:03Z</time>
      </trkpt>
      <trkpt lat="49.06835" lon="2.1711">
        <ele>19.9</ele>
        <time>2022-02-17T12:30:06Z</time>
      </trkpt>
      <trkpt lat="49.0683" lon="2.17112">
        <ele>20.3</ele>
        <time>2022-02-17T12:30:11Z</time>
      </trkpt>
      <trkpt lat="49.06826" lon="2.17117">
        <ele>20.4</ele>
        <time>2022-02-17T12:30:15Z</time>
      </trkpt>
      <trkpt lat="49.06826" lon="2.17125">
        <ele>20.4</ele>
        <time>2022-02-17T12:30:19Z</time>
      </trkpt>
      <trkpt lat="49.06827" lon="2.17134">
        <ele>20.3</ele>
        <time>2022-02-17T12:30:24Z</time>
      </trkpt>
      <trkpt lat="49.06828" lon="2.1714">
        <ele>20</ele>
        <time>2022-02-17T12:30:27Z</time>
      </trkpt>
      <trkpt lat="49.0683" lon="2.17148">
        <ele>19.1</ele>
        <time>2022-02-17T12:30:31Z</time>
      </trkpt>
      <trkpt lat="49.06832" lon="2.17156">
        <ele>18.5</ele>
        <time>2022-02-17T12:30:35Z</time>
      </trkpt>
      <trkpt lat="49.06833" lon="2.17163">
        <ele>18.5</ele>
        <time>2022-02-17T12:30:40Z</time>
      </trkpt>
      <trkpt lat="49.06835" lon="2.1717">
        <ele>18.7</ele>
        <time>2022-02-17T12:30:44Z</time>
      </trkpt>
      <trkpt lat="49.06838" lon="2.17177">
        <ele>18.7</ele>
        <time>2022-02-17T12:30:48Z</time>
      </trkpt>
      <trkpt lat="49.06839" lon="2.17185">
        <ele>18.9</ele>
        <time>2022-02-17T12:30:52Z</time>
      </trkpt>
      <trkpt lat="49.06841" lon="2.17193">
        <ele>18.8</ele>
        <time>2022-02-17T12:30:56Z</time>
      </trkpt>
      <trkpt lat="49.06843" lon="2.17202">
        <ele>18.4</ele>
        <time>2022-02-17T12:31:00Z</time>
      </trkpt>
      <trkpt lat="49.06844" lon="2.17208">
        <ele>18</ele>
        <time>2022-02-17T12:31:04Z</time>
      </trkpt>
      <trkpt lat="49.06845" lon="2.17217">
        <ele>17.9</ele>
        <time>2022-02-17T12:31:08Z</time>
      </trkpt>
      <trkpt lat="49.06846" lon="2.17224">
        <ele>18.1</ele>
        <time>2022-02-17T12:31:11Z</time>
      </trkpt>
      <trkpt lat="49.06847" lon="2.17232">
        <ele>18.6</ele>
        <time>2022-02-17T12:31:15Z</time>
      </trkpt>
      <trkpt lat="49.06849" lon="2.17241">
        <ele>19.6</ele>
        <time>2022-02-17T12:31:18Z</time>
      </trkpt>
      <trkpt lat="49.0685" lon="2.17249">
        <ele>19.8</ele>
        <time>2022-02-17T12:31:22Z</time>
      </trkpt>
      <trkpt lat="49.06852" lon="2.17257">
        <ele>19.7</ele>
        <time>2022-02-17T12:31:26Z</time>
      </trkpt>
      <trkpt lat="49.06853" lon="2.17264">
        <ele>20</ele>
        <time>2022-02-17T12:31:30Z</time>
      </trkpt>
      <trkpt lat="49.06855" lon="2.17272">
        <ele>20.5</ele>
        <time>2022-02-17T12:31:34Z</time>
      </trkpt>
      <trkpt lat="49.06856" lon="2.1728">
        <ele>20.8</ele>
        <time>2022-02-17T12:31:38Z</time>
      </trkpt>
      <trkpt lat="49.06858" lon="2.17288">
        <ele>20.5</ele>
        <time>2022-02-17T12:31:42Z</time>
      </trkpt>
      <trkpt lat="49.0686" lon="2.17296">
        <ele>20.3</ele>
        <time>2022-02-17T12:31:46Z</time>
      </trkpt>
      <trkpt lat="49.06862" lon="2.17304">
        <ele>20.1</ele>
        <time>2022-02-17T12:31:51Z</time>
      </trkpt>
      <trkpt lat="49.06863" lon="2.17312">
        <ele>19.9</ele>
        <time>2022-02-17T12:31:55Z</time>
      </trkpt>
      <trkpt lat="49.06865" lon="2.1732">
        <ele>19.4</ele>
        <time>2022-02-17T12:31:59Z</time>
      </trkpt>
      <trkpt lat="49.06867" lon="2.17328">
        <ele>19.3</ele>
        <time>2022-02-17T12:32:03Z</time>
      </trkpt>
      <trkpt lat="49.06868" lon="2.17335">
        <ele>19.2</ele>
        <time>2022-02-17T12:32:07Z</time>
      </trkpt>
      <trkpt lat="49.06869" lon="2.17342">
        <ele>19.4</ele>
        <time>2022-02-17T12:32:10Z</time>
      </trkpt>
      <trkpt lat="49.0687" lon="2.17349">
        <ele>19.5</ele>
        <time>2022-02-17T12:32:13Z</time>
      </trkpt>
      <trkpt lat="49.06872" lon="2.17357">
        <ele>20.1</ele>
        <time>2022-02-17T12:32:17Z</time>
      </trkpt>
      <trkpt lat="49.06874" lon="2.17366">
        <ele>20.5</ele>
        <time>2022-02-17T12:32:21Z</time>
      </trkpt>
      <trkpt lat="49.06873" lon="2.17374">
        <ele>21</ele>
        <time>2022-02-17T12:32:25Z</time>
      </trkpt>
      <trkpt lat="49.06869" lon="2.17381">
        <ele>22.2</ele>
        <time>2022-02-17T12:32:29Z</time>
      </trkpt>
      <trkpt lat="49.06865" lon="2.17387">
        <ele>22.6</ele>
        <time>2022-02-17T12:32:33Z</time>
      </trkpt>
      <trkpt lat="49.0686" lon="2.17391">
        <ele>21.4</ele>
        <time>2022-02-17T12:32:37Z</time>
      </trkpt>
      <trkpt lat="49.06855" lon="2.17393">
        <ele>20</ele>
        <time>2022-02-17T12:32:41Z</time>
      </trkpt>
      <trkpt lat="49.06851" lon="2.17396">
        <ele>19.2</ele>
        <time>2022-02-17T12:32:45Z</time>
      </trkpt>
      <trkpt lat="49.06846" lon="2.174">
        <ele>18.9</ele>
        <time>2022-02-17T12:32:49Z</time>
      </trkpt>
      <trkpt lat="49.06843" lon="2.17404">
        <ele>19</ele>
        <time>2022-02-17T12:32:53Z</time>
      </trkpt>
      <trkpt lat="49.06838" lon="2.17407">
        <ele>18.9</ele>
        <time>2022-02-17T12:32:57Z</time>
      </trkpt>
      <trkpt lat="49.06834" lon="2.17412">
        <ele>18.6</ele>
        <time>2022-02-17T12:33:01Z</time>
      </trkpt>
      <trkpt lat="49.06829" lon="2.17416">
        <ele>19.1</ele>
        <time>2022-02-17T12:33:05Z</time>
      </trkpt>
      <trkpt lat="49.06825" lon="2.17419">
        <ele>20.3</ele>
        <time>2022-02-17T12:33:09Z</time>
      </trkpt>
      <trkpt lat="49.0682" lon="2.17424">
        <ele>21.1</ele>
        <time>2022-02-17T12:33:13Z</time>
      </trkpt>
      <trkpt lat="49.06816" lon="2.17429">
        <ele>21.3</ele>
        <time>2022-02-17T12:33:17Z</time>
      </trkpt>
      <trkpt lat="49.06811" lon="2.17433">
        <ele>21.9</ele>
        <time>2022-02-17T12:33:22Z</time>
      </trkpt>
      <trkpt lat="49.06806" lon="2.17435">
        <ele>22.1</ele>
        <time>2022-02-17T12:33:25Z</time>
      </trkpt>
      <trkpt lat="49.06802" lon="2.17439">
        <ele>22.4</ele>
        <time>2022-02-17T12:33:29Z</time>
      </trkpt>
      <trkpt lat="49.06798" lon="2.17444">
        <ele>22</ele>
        <time>2022-02-17T12:33:33Z</time>
      </trkpt>
      <trkpt lat="49.06794" lon="2.17448">
        <ele>21.3</ele>
        <time>2022-02-17T12:33:37Z</time>
      </trkpt>
      <trkpt lat="49.0679" lon="2.17453">
        <ele>20.6</ele>
        <time>2022-02-17T12:33:41Z</time>
      </trkpt>
      <trkpt lat="49.06786" lon="2.17456">
        <ele>20.2</ele>
        <time>2022-02-17T12:33:46Z</time>
      </trkpt>
      <trkpt lat="49.0678" lon="2.17456">
        <ele>21.5</ele>
        <time>2022-02-17T12:33:52Z</time>
      </trkpt>
      <trkpt lat="49.06781" lon="2.17448">
        <ele>22.3</ele>
        <time>2022-02-17T12:34:05Z</time>
      </trkpt>
      <trkpt lat="49.06778" lon="2.17441">
        <ele>21.8</ele>
        <time>2022-02-17T12:34:10Z</time>
      </trkpt>
      <trkpt lat="49.06781" lon="2.17435">
        <ele>19.5</ele>
        <time>2022-02-17T12:34:27Z</time>
      </trkpt>
      <trkpt lat="49.06787" lon="2.17433">
        <ele>14.7</ele>
        <time>2022-02-17T12:34:31Z</time>
      </trkpt>
      <trkpt lat="49.06783" lon="2.17427">
        <ele>15.9</ele>
        <time>2022-02-17T12:34:37Z</time>
      </trkpt>
      <trkpt lat="49.0678" lon="2.17421">
        <ele>20.2</ele>
        <time>2022-02-17T12:34:42Z</time>
      </trkpt>
      <trkpt lat="49.06776" lon="2.17414">
        <ele>20.3</ele>
        <time>2022-02-17T12:34:45Z</time>
      </trkpt>
      <trkpt lat="49.06772" lon="2.1741">
        <ele>20.2</ele>
        <time>2022-02-17T12:34:47Z</time>
      </trkpt>
      <trkpt lat="49.06767" lon="2.17407">
        <ele>20.1</ele>
        <time>2022-02-17T12:34:49Z</time>
      </trkpt>
      <trkpt lat="49.06763" lon="2.17404">
        <ele>20.1</ele>
        <time>2022-02-17T12:34:51Z</time>
      </trkpt>
      <trkpt lat="49.06758" lon="2.174">
        <ele>20.2</ele>
        <time>2022-02-17T12:34:55Z</time>
      </trkpt>
      <trkpt lat="49.06754" lon="2.17398">
        <ele>19.8</ele>
        <time>2022-02-17T12:34:57Z</time>
      </trkpt>
      <trkpt lat="49.0675" lon="2.17394">
        <ele>19</ele>
        <time>2022-02-17T12:35:01Z</time>
      </trkpt>
      <trkpt lat="49.06745" lon="2.17387">
        <ele>17.5</ele>
        <time>2022-02-17T12:35:05Z</time>
      </trkpt>
      <trkpt lat="49.06742" lon="2.17381">
        <ele>17.3</ele>
        <time>2022-02-17T12:35:09Z</time>
      </trkpt>
      <trkpt lat="49.06739" lon="2.17376">
        <ele>17.9</ele>
        <time>2022-02-17T12:35:13Z</time>
      </trkpt>
      <trkpt lat="49.06735" lon="2.17371">
        <ele>17.9</ele>
        <time>2022-02-17T12:35:17Z</time>
      </trkpt>
      <trkpt lat="49.06732" lon="2.17365">
        <ele>17.2</ele>
        <time>2022-02-17T12:35:21Z</time>
      </trkpt>
      <trkpt lat="49.06728" lon="2.1736">
        <ele>16.3</ele>
        <time>2022-02-17T12:35:25Z</time>
      </trkpt>
      <trkpt lat="49.06725" lon="2.17355">
        <ele>15.8</ele>
        <time>2022-02-17T12:35:28Z</time>
      </trkpt>
      <trkpt lat="49.06721" lon="2.1735">
        <ele>15.6</ele>
        <time>2022-02-17T12:35:32Z</time>
      </trkpt>
      <trkpt lat="49.06717" lon="2.17345">
        <ele>15.6</ele>
        <time>2022-02-17T12:35:36Z</time>
      </trkpt>
      <trkpt lat="49.06712" lon="2.1734">
        <ele>16.2</ele>
        <time>2022-02-17T12:35:41Z</time>
      </trkpt>
      <trkpt lat="49.06708" lon="2.17336">
        <ele>17.1</ele>
        <time>2022-02-17T12:35:45Z</time>
      </trkpt>
      <trkpt lat="49.06704" lon="2.17331">
        <ele>16.7</ele>
        <time>2022-02-17T12:35:49Z</time>
      </trkpt>
      <trkpt lat="49.067" lon="2.17325">
        <ele>15.8</ele>
        <time>2022-02-17T12:35:53Z</time>
      </trkpt>
      <trkpt lat="49.06697" lon="2.17319">
        <ele>15.5</ele>
        <time>2022-02-17T12:35:57Z</time>
      </trkpt>
      <trkpt lat="49.06693" lon="2.17313">
        <ele>16</ele>
        <time>2022-02-17T12:36:01Z</time>
      </trkpt>
      <trkpt lat="49.06689" lon="2.17308">
        <ele>16.9</ele>
        <time>2022-02-17T12:36:05Z</time>
      </trkpt>
      <trkpt lat="49.06687" lon="2.17302">
        <ele>17.4</ele>
        <time>2022-02-17T12:36:09Z</time>
      </trkpt>
      <trkpt lat="49.06684" lon="2.17297">
        <ele>17.7</ele>
        <time>2022-02-17T12:36:13Z</time>
      </trkpt>
      <trkpt lat="49.0668" lon="2.17291">
        <ele>17.1</ele>
        <time>2022-02-17T12:36:17Z</time>
      </trkpt>
      <trkpt lat="49.06677" lon="2.17286">
        <ele>16.5</ele>
        <time>2022-02-17T12:36:21Z</time>
      </trkpt>
      <trkpt lat="49.06674" lon="2.1728">
        <ele>16.2</ele>
        <time>2022-02-17T12:36:25Z</time>
      </trkpt>
      <trkpt lat="49.0667" lon="2.17274">
        <ele>15.4</ele>
        <time>2022-02-17T12:36:29Z</time>
      </trkpt>
      <trkpt lat="49.06667" lon="2.17268">
        <ele>13.6</ele>
        <time>2022-02-17T12:36:33Z</time>
      </trkpt>
      <trkpt lat="49.06664" lon="2.17263">
        <ele>13.4</ele>
        <time>2022-02-17T12:36:37Z</time>
      </trkpt>
      <trkpt lat="49.06659" lon="2.17262">
        <ele>15</ele>
        <time>2022-02-17T12:36:42Z</time>
      </trkpt>
      <trkpt lat="49.06655" lon="2.17258">
        <ele>16.8</ele>
        <time>2022-02-17T12:36:46Z</time>
      </trkpt>
      <trkpt lat="49.06652" lon="2.17253">
        <ele>17.3</ele>
        <time>2022-02-17T12:36:50Z</time>
      </trkpt>
      <trkpt lat="49.06649" lon="2.17247">
        <ele>17.1</ele>
        <time>2022-02-17T12:36:54Z</time>
      </trkpt>
      <trkpt lat="49.06645" lon="2.17242">
        <ele>17.3</ele>
        <time>2022-02-17T12:36:58Z</time>
      </trkpt>
      <trkpt lat="49.06642" lon="2.17236">
        <ele>17.6</ele>
        <time>2022-02-17T12:37:02Z</time>
      </trkpt>
      <trkpt lat="49.06638" lon="2.17232">
        <ele>17.4</ele>
        <time>2022-02-17T12:37:06Z</time>
      </trkpt>
      <trkpt lat="49.06634" lon="2.17227">
        <ele>17.6</ele>
        <time>2022-02-17T12:37:10Z</time>
      </trkpt>
      <trkpt lat="49.0663" lon="2.17223">
        <ele>17.9</ele>
        <time>2022-02-17T12:37:14Z</time>
      </trkpt>
      <trkpt lat="49.06625" lon="2.17219">
        <ele>18</ele>
        <time>2022-02-17T12:37:18Z</time>
      </trkpt>
      <trkpt lat="49.06622" lon="2.17215">
        <ele>17.5</ele>
        <time>2022-02-17T12:37:22Z</time>
      </trkpt>
      <trkpt lat="49.06617" lon="2.1721">
        <ele>16</ele>
        <time>2022-02-17T12:37:26Z</time>
      </trkpt>
      <trkpt lat="49.06613" lon="2.17205">
        <ele>14.5</ele>
        <time>2022-02-17T12:37:30Z</time>
      </trkpt>
      <trkpt lat="49.06608" lon="2.17201">
        <ele>14</ele>
        <time>2022-02-17T12:37:34Z</time>
      </trkpt>
      <trkpt lat="49.06605" lon="2.17196">
        <ele>14.1</ele>
        <time>2022-02-17T12:37:38Z</time>
      </trkpt>
      <trkpt lat="49.06601" lon="2.1719">
        <ele>14.3</ele>
        <time>2022-02-17T12:37:42Z</time>
      </trkpt>
      <trkpt lat="49.06596" lon="2.17185">
        <ele>15.1</ele>
        <time>2022-02-17T12:37:46Z</time>
      </trkpt>
      <trkpt lat="49.06593" lon="2.1718">
        <ele>15.4</ele>
        <time>2022-02-17T12:37:50Z</time>
      </trkpt>
      <trkpt lat="49.06588" lon="2.17174">
        <ele>15.9</ele>
        <time>2022-02-17T12:37:55Z</time>
      </trkpt>
      <trkpt lat="49.06585" lon="2.17167">
        <ele>16.1</ele>
        <time>2022-02-17T12:37:59Z</time>
      </trkpt>
      <trkpt lat="49.06581" lon="2.1716">
        <ele>16.2</ele>
        <time>2022-02-17T12:38:04Z</time>
      </trkpt>
      <trkpt lat="49.06579" lon="2.17153">
        <ele>16.7</ele>
        <time>2022-02-17T12:38:08Z</time>
      </trkpt>
      <trkpt lat="49.06575" lon="2.17148">
        <ele>16.5</ele>
        <time>2022-02-17T12:38:12Z</time>
      </trkpt>
      <trkpt lat="49.06572" lon="2.17142">
        <ele>16.2</ele>
        <time>2022-02-17T12:38:16Z</time>
      </trkpt>
      <trkpt lat="49.06568" lon="2.17137">
        <ele>15.8</ele>
        <time>2022-02-17T12:38:20Z</time>
      </trkpt>
      <trkpt lat="49.06565" lon="2.17132">
        <ele>15.8</ele>
        <time>2022-02-17T12:38:24Z</time>
      </trkpt>
      <trkpt lat="49.06561" lon="2.17126">
        <ele>15.6</ele>
        <time>2022-02-17T12:38:28Z</time>
      </trkpt>
      <trkpt lat="49.06558" lon="2.17121">
        <ele>15.2</ele>
        <time>2022-02-17T12:38:31Z</time>
      </trkpt>
      <trkpt lat="49.06555" lon="2.17115">
        <ele>14.2</ele>
        <time>2022-02-17T12:38:35Z</time>
      </trkpt>
      <trkpt lat="49.06551" lon="2.17108">
        <ele>13.5</ele>
        <time>2022-02-17T12:38:39Z</time>
      </trkpt>
      <trkpt lat="49.06548" lon="2.17102">
        <ele>13.3</ele>
        <time>2022-02-17T12:38:43Z</time>
      </trkpt>
      <trkpt lat="49.06544" lon="2.17098">
        <ele>13.7</ele>
        <time>2022-02-17T12:38:47Z</time>
      </trkpt>
      <trkpt lat="49.06539" lon="2.17093">
        <ele>13.7</ele>
        <time>2022-02-17T12:38:51Z</time>
      </trkpt>
      <trkpt lat="49.06536" lon="2.17087">
        <ele>13.8</ele>
        <time>2022-02-17T12:38:55Z</time>
      </trkpt>
      <trkpt lat="49.06533" lon="2.17081">
        <ele>13.5</ele>
        <time>2022-02-17T12:38:59Z</time>
      </trkpt>
      <trkpt lat="49.0653" lon="2.17075">
        <ele>13.6</ele>
        <time>2022-02-17T12:39:03Z</time>
      </trkpt>
      <trkpt lat="49.06527" lon="2.17069">
        <ele>13.6</ele>
        <time>2022-02-17T12:39:08Z</time>
      </trkpt>
      <trkpt lat="49.06523" lon="2.17063">
        <ele>14.2</ele>
        <time>2022-02-17T12:39:13Z</time>
      </trkpt>
      <trkpt lat="49.0652" lon="2.17056">
        <ele>15</ele>
        <time>2022-02-17T12:39:17Z</time>
      </trkpt>
      <trkpt lat="49.06518" lon="2.1705">
        <ele>15.8</ele>
        <time>2022-02-17T12:39:21Z</time>
      </trkpt>
      <trkpt lat="49.06515" lon="2.17043">
        <ele>17.1</ele>
        <time>2022-02-17T12:39:24Z</time>
      </trkpt>
      <trkpt lat="49.06512" lon="2.17037">
        <ele>18.1</ele>
        <time>2022-02-17T12:39:28Z</time>
      </trkpt>
      <trkpt lat="49.06509" lon="2.17031">
        <ele>18.5</ele>
        <time>2022-02-17T12:39:32Z</time>
      </trkpt>
      <trkpt lat="49.06506" lon="2.17025">
        <ele>18.3</ele>
        <time>2022-02-17T12:39:36Z</time>
      </trkpt>
      <trkpt lat="49.06504" lon="2.17017">
        <ele>18.3</ele>
        <time>2022-02-17T12:39:40Z</time>
      </trkpt>
      <trkpt lat="49.06501" lon="2.1701">
        <ele>18.9</ele>
        <time>2022-02-17T12:39:44Z</time>
      </trkpt>
      <trkpt lat="49.06499" lon="2.17003">
        <ele>19.2</ele>
        <time>2022-02-17T12:39:47Z</time>
      </trkpt>
      <trkpt lat="49.06497" lon="2.16996">
        <ele>18.9</ele>
        <time>2022-02-17T12:39:51Z</time>
      </trkpt>
      <trkpt lat="49.06494" lon="2.16989">
        <ele>18.2</ele>
        <time>2022-02-17T12:39:54Z</time>
      </trkpt>
      <trkpt lat="49.06491" lon="2.16982">
        <ele>17.7</ele>
        <time>2022-02-17T12:39:58Z</time>
      </trkpt>
      <trkpt lat="49.06488" lon="2.16976">
        <ele>17.2</ele>
        <time>2022-02-17T12:40:02Z</time>
      </trkpt>
      <trkpt lat="49.06486" lon="2.16968">
        <ele>16.6</ele>
        <time>2022-02-17T12:40:06Z</time>
      </trkpt>
      <trkpt lat="49.06484" lon="2.16961">
        <ele>16</ele>
        <time>2022-02-17T12:40:10Z</time>
      </trkpt>
      <trkpt lat="49.06483" lon="2.16953">
        <ele>15.2</ele>
        <time>2022-02-17T12:40:15Z</time>
      </trkpt>
      <trkpt lat="49.0648" lon="2.16944">
        <ele>14.5</ele>
        <time>2022-02-17T12:40:19Z</time>
      </trkpt>
      <trkpt lat="49.06478" lon="2.16937">
        <ele>14.5</ele>
        <time>2022-02-17T12:40:24Z</time>
      </trkpt>
      <trkpt lat="49.06476" lon="2.1693">
        <ele>15.1</ele>
        <time>2022-02-17T12:40:28Z</time>
      </trkpt>
      <trkpt lat="49.06473" lon="2.16924">
        <ele>15.7</ele>
        <time>2022-02-17T12:40:31Z</time>
      </trkpt>
      <trkpt lat="49.06472" lon="2.16917">
        <ele>15.9</ele>
        <time>2022-02-17T12:40:35Z</time>
      </trkpt>
      <trkpt lat="49.0647" lon="2.16909">
        <ele>16</ele>
        <time>2022-02-17T12:40:39Z</time>
      </trkpt>
      <trkpt lat="49.06468" lon="2.16903">
        <ele>16.3</ele>
        <time>2022-02-17T12:40:42Z</time>
      </trkpt>
      <trkpt lat="49.06466" lon="2.16895">
        <ele>17</ele>
        <time>2022-02-17T12:40:46Z</time>
      </trkpt>
      <trkpt lat="49.06464" lon="2.16887">
        <ele>16.9</ele>
        <time>2022-02-17T12:40:50Z</time>
      </trkpt>
      <trkpt lat="49.06463" lon="2.1688">
        <ele>16.2</ele>
        <time>2022-02-17T12:40:53Z</time>
      </trkpt>
      <trkpt lat="49.06462" lon="2.16873">
        <ele>15.7</ele>
        <time>2022-02-17T12:40:57Z</time>
      </trkpt>
      <trkpt lat="49.0646" lon="2.16865">
        <ele>15.6</ele>
        <time>2022-02-17T12:41:01Z</time>
      </trkpt>
      <trkpt lat="49.06459" lon="2.16858">
        <ele>15.6</ele>
        <time>2022-02-17T12:41:04Z</time>
      </trkpt>
      <trkpt lat="49.06459" lon="2.16849">
        <ele>15</ele>
        <time>2022-02-17T12:41:09Z</time>
      </trkpt>
      <trkpt lat="49.06458" lon="2.16842">
        <ele>14.6</ele>
        <time>2022-02-17T12:41:13Z</time>
      </trkpt>
      <trkpt lat="49.06457" lon="2.16833">
        <ele>14.9</ele>
        <time>2022-02-17T12:41:17Z</time>
      </trkpt>
      <trkpt lat="49.06456" lon="2.16825">
        <ele>15.1</ele>
        <time>2022-02-17T12:41:21Z</time>
      </trkpt>
      <trkpt lat="49.06455" lon="2.16817">
        <ele>15</ele>
        <time>2022-02-17T12:41:25Z</time>
      </trkpt>
      <trkpt lat="49.06454" lon="2.1681">
        <ele>14.3</ele>
        <time>2022-02-17T12:41:29Z</time>
      </trkpt>
      <trkpt lat="49.06453" lon="2.16802">
        <ele>14.2</ele>
        <time>2022-02-17T12:41:32Z</time>
      </trkpt>
      <trkpt lat="49.06453" lon="2.16794">
        <ele>14.6</ele>
        <time>2022-02-17T12:41:36Z</time>
      </trkpt>
      <trkpt lat="49.06452" lon="2.16785">
        <ele>14.8</ele>
        <time>2022-02-17T12:41:40Z</time>
      </trkpt>
      <trkpt lat="49.06452" lon="2.16777">
        <ele>14.5</ele>
        <time>2022-02-17T12:41:44Z</time>
      </trkpt>
      <trkpt lat="49.06452" lon="2.1677">
        <ele>13.8</ele>
        <time>2022-02-17T12:41:48Z</time>
      </trkpt>
      <trkpt lat="49.06452" lon="2.16762">
        <ele>13.7</ele>
        <time>2022-02-17T12:41:52Z</time>
      </trkpt>
      <trkpt lat="49.06452" lon="2.16754">
        <ele>13.8</ele>
        <time>2022-02-17T12:41:56Z</time>
      </trkpt>
      <trkpt lat="49.06452" lon="2.16746">
        <ele>13.6</ele>
        <time>2022-02-17T12:41:59Z</time>
      </trkpt>
      <trkpt lat="49.06452" lon="2.16738">
        <ele>13.3</ele>
        <time>2022-02-17T12:42:03Z</time>
      </trkpt>
      <trkpt lat="49.06451" lon="2.16729">
        <ele>14</ele>
        <time>2022-02-17T12:42:07Z</time>
      </trkpt>
      <trkpt lat="49.06452" lon="2.16719">
        <ele>14.6</ele>
        <time>2022-02-17T12:42:12Z</time>
      </trkpt>
      <trkpt lat="49.06452" lon="2.16712">
        <ele>15.2</ele>
        <time>2022-02-17T12:42:16Z</time>
      </trkpt>
      <trkpt lat="49.06453" lon="2.16703">
        <ele>16.4</ele>
        <time>2022-02-17T12:42:20Z</time>
      </trkpt>
      <trkpt lat="49.06454" lon="2.16695">
        <ele>17.3</ele>
        <time>2022-02-17T12:42:23Z</time>
      </trkpt>
      <trkpt lat="49.06455" lon="2.16687">
        <ele>17.6</ele>
        <time>2022-02-17T12:42:27Z</time>
      </trkpt>
      <trkpt lat="49.06456" lon="2.16678">
        <ele>18.8</ele>
        <time>2022-02-17T12:42:31Z</time>
      </trkpt>
      <trkpt lat="49.06456" lon="2.16671">
        <ele>19.9</ele>
        <time>2022-02-17T12:42:34Z</time>
      </trkpt>
      <trkpt lat="49.06457" lon="2.16662">
        <ele>20.5</ele>
        <time>2022-02-17T12:42:38Z</time>
      </trkpt>
      <trkpt lat="49.06458" lon="2.16653">
        <ele>20.5</ele>
        <time>2022-02-17T12:42:42Z</time>
      </trkpt>
      <trkpt lat="49.0646" lon="2.16645">
        <ele>20.4</ele>
        <time>2022-02-17T12:42:46Z</time>
      </trkpt>
      <trkpt lat="49.06461" lon="2.16638">
        <ele>20.5</ele>
        <time>2022-02-17T12:42:49Z</time>
      </trkpt>
      <trkpt lat="49.06461" lon="2.1663">
        <ele>20.6</ele>
        <time>2022-02-17T12:42:53Z</time>
      </trkpt>
      <trkpt lat="49.06463" lon="2.16621">
        <ele>20.5</ele>
        <time>2022-02-17T12:42:58Z</time>
      </trkpt>
      <trkpt lat="49.06465" lon="2.16614">
        <ele>20.6</ele>
        <time>2022-02-17T12:43:02Z</time>
      </trkpt>
      <trkpt lat="49.06467" lon="2.16604">
        <ele>21.4</ele>
        <time>2022-02-17T12:43:07Z</time>
      </trkpt>
      <trkpt lat="49.06468" lon="2.16596">
        <ele>21.9</ele>
        <time>2022-02-17T12:43:11Z</time>
      </trkpt>
      <trkpt lat="49.0647" lon="2.16588">
        <ele>21.3</ele>
        <time>2022-02-17T12:43:15Z</time>
      </trkpt>
      <trkpt lat="49.06471" lon="2.1658">
        <ele>20.8</ele>
        <time>2022-02-17T12:43:18Z</time>
      </trkpt>
      <trkpt lat="49.06472" lon="2.16573">
        <ele>21</ele>
        <time>2022-02-17T12:43:22Z</time>
      </trkpt>
      <trkpt lat="49.06473" lon="2.16566">
        <ele>21.1</ele>
        <time>2022-02-17T12:43:26Z</time>
      </trkpt>
      <trkpt lat="49.06475" lon="2.1656">
        <ele>21.2</ele>
        <time>2022-02-17T12:43:30Z</time>
      </trkpt>
      <trkpt lat="49.06477" lon="2.16553">
        <ele>20.9</ele>
        <time>2022-02-17T12:43:33Z</time>
      </trkpt>
      <trkpt lat="49.06479" lon="2.16547">
        <ele>20.8</ele>
        <time>2022-02-17T12:43:37Z</time>
      </trkpt>
      <trkpt lat="49.06482" lon="2.16541">
        <ele>20.3</ele>
        <time>2022-02-17T12:43:41Z</time>
      </trkpt>
      <trkpt lat="49.06484" lon="2.16533">
        <ele>20.7</ele>
        <time>2022-02-17T12:43:45Z</time>
      </trkpt>
      <trkpt lat="49.06485" lon="2.16525">
        <ele>21.9</ele>
        <time>2022-02-17T12:43:49Z</time>
      </trkpt>
      <trkpt lat="49.06486" lon="2.16517">
        <ele>23.3</ele>
        <time>2022-02-17T12:43:53Z</time>
      </trkpt>
      <trkpt lat="49.06485" lon="2.1651">
        <ele>23.9</ele>
        <time>2022-02-17T12:43:57Z</time>
      </trkpt>
      <trkpt lat="49.06485" lon="2.16501">
        <ele>24.2</ele>
        <time>2022-02-17T12:44:01Z</time>
      </trkpt>
      <trkpt lat="49.06487" lon="2.16492">
        <ele>23.5</ele>
        <time>2022-02-17T12:44:06Z</time>
      </trkpt>
      <trkpt lat="49.0649" lon="2.16484">
        <ele>22.6</ele>
        <time>2022-02-17T12:44:10Z</time>
      </trkpt>
      <trkpt lat="49.06491" lon="2.16476">
        <ele>21.5</ele>
        <time>2022-02-17T12:44:13Z</time>
      </trkpt>
      <trkpt lat="49.06493" lon="2.16468">
        <ele>21.4</ele>
        <time>2022-02-17T12:44:17Z</time>
      </trkpt>
      <trkpt lat="49.06494" lon="2.1646">
        <ele>21.1</ele>
        <time>2022-02-17T12:44:21Z</time>
      </trkpt>
      <trkpt lat="49.06495" lon="2.16453">
        <ele>21.4</ele>
        <time>2022-02-17T12:44:25Z</time>
      </trkpt>
      <trkpt lat="49.06497" lon="2.16445">
        <ele>23.2</ele>
        <time>2022-02-17T12:44:29Z</time>
      </trkpt>
      <trkpt lat="49.06499" lon="2.16438">
        <ele>24</ele>
        <time>2022-02-17T12:44:33Z</time>
      </trkpt>
      <trkpt lat="49.065" lon="2.1643">
        <ele>24</ele>
        <time>2022-02-17T12:44:37Z</time>
      </trkpt>
      <trkpt lat="49.06501" lon="2.16423">
        <ele>23.7</ele>
        <time>2022-02-17T12:44:40Z</time>
      </trkpt>
      <trkpt lat="49.06495" lon="2.16427">
        <ele>22.4</ele>
        <time>2022-02-17T12:44:46Z</time>
      </trkpt>
      <trkpt lat="49.06492" lon="2.16419">
        <ele>21</ele>
        <time>2022-02-17T12:44:57Z</time>
      </trkpt>
      <trkpt lat="49.06491" lon="2.16412">
        <ele>21.9</ele>
        <time>2022-02-17T12:45:01Z</time>
      </trkpt>
      <trkpt lat="49.06494" lon="2.16417">
        <ele>18.1</ele>
        <time>2022-02-17T12:48:43Z</time>
      </trkpt>
      <trkpt lat="49.06498" lon="2.16411">
        <ele>17.6</ele>
        <time>2022-02-17T12:48:48Z</time>
      </trkpt>
      <trkpt lat="49.06499" lon="2.16404">
        <ele>17.6</ele>
        <time>2022-02-17T12:48:52Z</time>
      </trkpt>
      <trkpt lat="49.06499" lon="2.16395">
        <ele>18.1</ele>
        <time>2022-02-17T12:48:56Z</time>
      </trkpt>
      <trkpt lat="49.06499" lon="2.16387">
        <ele>19.1</ele>
        <time>2022-02-17T12:49:00Z</time>
      </trkpt>
      <trkpt lat="49.06498" lon="2.16379">
        <ele>19.2</ele>
        <time>2022-02-17T12:49:04Z</time>
      </trkpt>
      <trkpt lat="49.06499" lon="2.16372">
        <ele>18.6</ele>
        <time>2022-02-17T12:49:09Z</time>
      </trkpt>
      <trkpt lat="49.065" lon="2.16363">
        <ele>18.2</ele>
        <time>2022-02-17T12:49:13Z</time>
      </trkpt>
      <trkpt lat="49.06501" lon="2.16355">
        <ele>19.3</ele>
        <time>2022-02-17T12:49:17Z</time>
      </trkpt>
      <trkpt lat="49.06501" lon="2.16347">
        <ele>20.7</ele>
        <time>2022-02-17T12:49:21Z</time>
      </trkpt>
      <trkpt lat="49.06501" lon="2.16337">
        <ele>22.2</ele>
        <time>2022-02-17T12:49:26Z</time>
      </trkpt>
      <trkpt lat="49.06501" lon="2.16329">
        <ele>22.4</ele>
        <time>2022-02-17T12:49:30Z</time>
      </trkpt>
      <trkpt lat="49.06501" lon="2.16321">
        <ele>22.4</ele>
        <time>2022-02-17T12:49:34Z</time>
      </trkpt>
      <trkpt lat="49.06501" lon="2.16313">
        <ele>21.6</ele>
        <time>2022-02-17T12:49:38Z</time>
      </trkpt>
      <trkpt lat="49.06502" lon="2.16305">
        <ele>21.2</ele>
        <time>2022-02-17T12:49:42Z</time>
      </trkpt>
      <trkpt lat="49.06502" lon="2.16298">
        <ele>21.8</ele>
        <time>2022-02-17T12:49:45Z</time>
      </trkpt>
      <trkpt lat="49.06503" lon="2.16291">
        <ele>22.6</ele>
        <time>2022-02-17T12:49:48Z</time>
      </trkpt>
      <trkpt lat="49.06503" lon="2.16284">
        <ele>24</ele>
        <time>2022-02-17T12:49:52Z</time>
      </trkpt>
      <trkpt lat="49.06503" lon="2.16275">
        <ele>24.9</ele>
        <time>2022-02-17T12:49:56Z</time>
      </trkpt>
      <trkpt lat="49.06503" lon="2.16267">
        <ele>24.7</ele>
        <time>2022-02-17T12:50:00Z</time>
      </trkpt>
      <trkpt lat="49.06502" lon="2.16258">
        <ele>23.7</ele>
        <time>2022-02-17T12:50:05Z</time>
      </trkpt>
      <trkpt lat="49.06501" lon="2.1625">
        <ele>23.5</ele>
        <time>2022-02-17T12:50:09Z</time>
      </trkpt>
      <trkpt lat="49.06501" lon="2.16241">
        <ele>24</ele>
        <time>2022-02-17T12:50:14Z</time>
      </trkpt>
      <trkpt lat="49.065" lon="2.16233">
        <ele>24.5</ele>
        <time>2022-02-17T12:50:17Z</time>
      </trkpt>
      <trkpt lat="49.06499" lon="2.16225">
        <ele>24.4</ele>
        <time>2022-02-17T12:50:20Z</time>
      </trkpt>
      <trkpt lat="49.06499" lon="2.16218">
        <ele>24.8</ele>
        <time>2022-02-17T12:50:24Z</time>
      </trkpt>
      <trkpt lat="49.06498" lon="2.16209">
        <ele>24.6</ele>
        <time>2022-02-17T12:50:28Z</time>
      </trkpt>
      <trkpt lat="49.06498" lon="2.16201">
        <ele>24.6</ele>
        <time>2022-02-17T12:50:33Z</time>
      </trkpt>
      <trkpt lat="49.06498" lon="2.16193">
        <ele>23.7</ele>
        <time>2022-02-17T12:50:37Z</time>
      </trkpt>
      <trkpt lat="49.06499" lon="2.16186">
        <ele>22.4</ele>
        <time>2022-02-17T12:50:41Z</time>
      </trkpt>
      <trkpt lat="49.06498" lon="2.16178">
        <ele>21.7</ele>
        <time>2022-02-17T12:50:46Z</time>
      </trkpt>
      <trkpt lat="49.06499" lon="2.16171">
        <ele>21.5</ele>
        <time>2022-02-17T12:50:50Z</time>
      </trkpt>
      <trkpt lat="49.065" lon="2.16163">
        <ele>22.6</ele>
        <time>2022-02-17T12:50:55Z</time>
      </trkpt>
      <trkpt lat="49.065" lon="2.16156">
        <ele>23.6</ele>
        <time>2022-02-17T12:50:58Z</time>
      </trkpt>
      <trkpt lat="49.06501" lon="2.16148">
        <ele>24.6</ele>
        <time>2022-02-17T12:51:02Z</time>
      </trkpt>
      <trkpt lat="49.06501" lon="2.1614">
        <ele>24</ele>
        <time>2022-02-17T12:51:06Z</time>
      </trkpt>
      <trkpt lat="49.06501" lon="2.16133">
        <ele>22.7</ele>
        <time>2022-02-17T12:51:10Z</time>
      </trkpt>
      <trkpt lat="49.06501" lon="2.16124">
        <ele>22.5</ele>
        <time>2022-02-17T12:51:15Z</time>
      </trkpt>
      <trkpt lat="49.065" lon="2.16117">
        <ele>22.5</ele>
        <time>2022-02-17T12:51:19Z</time>
      </trkpt>
      <trkpt lat="49.065" lon="2.16108">
        <ele>22.4</ele>
        <time>2022-02-17T12:51:24Z</time>
      </trkpt>
      <trkpt lat="49.06501" lon="2.161">
        <ele>21.8</ele>
        <time>2022-02-17T12:51:28Z</time>
      </trkpt>
      <trkpt lat="49.06501" lon="2.16092">
        <ele>20.6</ele>
        <time>2022-02-17T12:51:32Z</time>
      </trkpt>
      <trkpt lat="49.06502" lon="2.16082">
        <ele>20</ele>
        <time>2022-02-17T12:51:37Z</time>
      </trkpt>
      <trkpt lat="49.06502" lon="2.16075">
        <ele>20.5</ele>
        <time>2022-02-17T12:51:41Z</time>
      </trkpt>
      <trkpt lat="49.06502" lon="2.16067">
        <ele>20.8</ele>
        <time>2022-02-17T12:51:45Z</time>
      </trkpt>
      <trkpt lat="49.06502" lon="2.16059">
        <ele>21.2</ele>
        <time>2022-02-17T12:51:49Z</time>
      </trkpt>
      <trkpt lat="49.06502" lon="2.16051">
        <ele>21.5</ele>
        <time>2022-02-17T12:51:53Z</time>
      </trkpt>
      <trkpt lat="49.06503" lon="2.16044">
        <ele>22</ele>
        <time>2022-02-17T12:51:57Z</time>
      </trkpt>
      <trkpt lat="49.06503" lon="2.16036">
        <ele>21.7</ele>
        <time>2022-02-17T12:52:01Z</time>
      </trkpt>
      <trkpt lat="49.06502" lon="2.16029">
        <ele>21.1</ele>
        <time>2022-02-17T12:52:05Z</time>
      </trkpt>
      <trkpt lat="49.06502" lon="2.16021">
        <ele>20.7</ele>
        <time>2022-02-17T12:52:09Z</time>
      </trkpt>
      <trkpt lat="49.06503" lon="2.16014">
        <ele>21.1</ele>
        <time>2022-02-17T12:52:12Z</time>
      </trkpt>
      <trkpt lat="49.06503" lon="2.16006">
        <ele>21.9</ele>
        <time>2022-02-17T12:52:16Z</time>
      </trkpt>
      <trkpt lat="49.06502" lon="2.15999">
        <ele>22.4</ele>
        <time>2022-02-17T12:52:21Z</time>
      </trkpt>
      <trkpt lat="49.06501" lon="2.15992">
        <ele>21.6</ele>
        <time>2022-02-17T12:52:29Z</time>
      </trkpt>
      <trkpt lat="49.06499" lon="2.15985">
        <ele>21</ele>
        <time>2022-02-17T12:53:02Z</time>
      </trkpt>
      <trkpt lat="49.06504" lon="2.15981">
        <ele>19.5</ele>
        <time>2022-02-17T12:53:28Z</time>
      </trkpt>
      <trkpt lat="49.06504" lon="2.15974">
        <ele>19.3</ele>
        <time>2022-02-17T12:53:32Z</time>
      </trkpt>
      <trkpt lat="49.06504" lon="2.15967">
        <ele>19.6</ele>
        <time>2022-02-17T12:53:37Z</time>
      </trkpt>
      <trkpt lat="49.06503" lon="2.15959">
        <ele>19.8</ele>
        <time>2022-02-17T12:53:42Z</time>
      </trkpt>
      <trkpt lat="49.06504" lon="2.15952">
        <ele>20.1</ele>
        <time>2022-02-17T12:53:47Z</time>
      </trkpt>
      <trkpt lat="49.06504" lon="2.15944">
        <ele>19.6</ele>
        <time>2022-02-17T12:53:52Z</time>
      </trkpt>
      <trkpt lat="49.06506" lon="2.15935">
        <ele>18.6</ele>
        <time>2022-02-17T12:53:57Z</time>
      </trkpt>
      <trkpt lat="49.06507" lon="2.15928">
        <ele>18.3</ele>
        <time>2022-02-17T12:54:01Z</time>
      </trkpt>
      <trkpt lat="49.06505" lon="2.15919">
        <ele>18.6</ele>
        <time>2022-02-17T12:54:06Z</time>
      </trkpt>
      <trkpt lat="49.06503" lon="2.15912">
        <ele>19.5</ele>
        <time>2022-02-17T12:54:10Z</time>
      </trkpt>
      <trkpt lat="49.06501" lon="2.15904">
        <ele>20</ele>
        <time>2022-02-17T12:54:14Z</time>
      </trkpt>
      <trkpt lat="49.065" lon="2.15896">
        <ele>19.7</ele>
        <time>2022-02-17T12:54:18Z</time>
      </trkpt>
      <trkpt lat="49.065" lon="2.15889">
        <ele>19.7</ele>
        <time>2022-02-17T12:54:22Z</time>
      </trkpt>
      <trkpt lat="49.06501" lon="2.15881">
        <ele>19.9</ele>
        <time>2022-02-17T12:54:26Z</time>
      </trkpt>
      <trkpt lat="49.06501" lon="2.15873">
        <ele>20.2</ele>
        <time>2022-02-17T12:54:30Z</time>
      </trkpt>
      <trkpt lat="49.06501" lon="2.15865">
        <ele>20.1</ele>
        <time>2022-02-17T12:54:34Z</time>
      </trkpt>
      <trkpt lat="49.065" lon="2.15857">
        <ele>19.8</ele>
        <time>2022-02-17T12:54:38Z</time>
      </trkpt>
      <trkpt lat="49.06501" lon="2.1585">
        <ele>19.8</ele>
        <time>2022-02-17T12:54:42Z</time>
      </trkpt>
      <trkpt lat="49.06504" lon="2.15844">
        <ele>19.9</ele>
        <time>2022-02-17T12:54:46Z</time>
      </trkpt>
      <trkpt lat="49.06507" lon="2.15837">
        <ele>17.9</ele>
        <time>2022-02-17T12:54:54Z</time>
      </trkpt>
      <trkpt lat="49.0651" lon="2.15829">
        <ele>16.7</ele>
        <time>2022-02-17T12:54:58Z</time>
      </trkpt>
      <trkpt lat="49.06512" lon="2.15821">
        <ele>16.1</ele>
        <time>2022-02-17T12:55:01Z</time>
      </trkpt>
      <trkpt lat="49.06513" lon="2.15814">
        <ele>16</ele>
        <time>2022-02-17T12:55:05Z</time>
      </trkpt>
      <trkpt lat="49.06515" lon="2.15806">
        <ele>16.2</ele>
        <time>2022-02-17T12:55:09Z</time>
      </trkpt>
      <trkpt lat="49.06516" lon="2.15798">
        <ele>16.5</ele>
        <time>2022-02-17T12:55:12Z</time>
      </trkpt>
      <trkpt lat="49.06517" lon="2.15791">
        <ele>16.6</ele>
        <time>2022-02-17T12:55:15Z</time>
      </trkpt>
      <trkpt lat="49.0652" lon="2.15783">
        <ele>17</ele>
        <time>2022-02-17T12:55:20Z</time>
      </trkpt>
      <trkpt lat="49.06522" lon="2.15775">
        <ele>17.4</ele>
        <time>2022-02-17T12:55:24Z</time>
      </trkpt>
      <trkpt lat="49.06524" lon="2.15768">
        <ele>17.8</ele>
        <time>2022-02-17T12:55:29Z</time>
      </trkpt>
      <trkpt lat="49.06526" lon="2.1576">
        <ele>17.4</ele>
        <time>2022-02-17T12:55:34Z</time>
      </trkpt>
      <trkpt lat="49.06527" lon="2.15752">
        <ele>16.9</ele>
        <time>2022-02-17T12:55:38Z</time>
      </trkpt>
      <trkpt lat="49.0653" lon="2.15745">
        <ele>17.2</ele>
        <time>2022-02-17T12:55:42Z</time>
      </trkpt>
      <trkpt lat="49.06532" lon="2.15738">
        <ele>18.2</ele>
        <time>2022-02-17T12:55:45Z</time>
      </trkpt>
      <trkpt lat="49.06533" lon="2.15732">
        <ele>20.2</ele>
        <time>2022-02-17T12:55:49Z</time>
      </trkpt>
      <trkpt lat="49.06534" lon="2.15724">
        <ele>21.7</ele>
        <time>2022-02-17T12:55:52Z</time>
      </trkpt>
      <trkpt lat="49.06536" lon="2.15717">
        <ele>22.5</ele>
        <time>2022-02-17T12:55:57Z</time>
      </trkpt>
      <trkpt lat="49.06538" lon="2.1571">
        <ele>21.4</ele>
        <time>2022-02-17T12:56:01Z</time>
      </trkpt>
      <trkpt lat="49.06536" lon="2.15703">
        <ele>20.9</ele>
        <time>2022-02-17T12:56:07Z</time>
      </trkpt>
      <trkpt lat="49.06533" lon="2.15696">
        <ele>21.6</ele>
        <time>2022-02-17T12:56:14Z</time>
      </trkpt>
      <trkpt lat="49.06536" lon="2.1569">
        <ele>20.8</ele>
        <time>2022-02-17T12:56:20Z</time>
      </trkpt>
      <trkpt lat="49.0654" lon="2.15684">
        <ele>20.3</ele>
        <time>2022-02-17T12:56:27Z</time>
      </trkpt>
      <trkpt lat="49.06545" lon="2.15681">
        <ele>20.3</ele>
        <time>2022-02-17T12:56:32Z</time>
      </trkpt>
      <trkpt lat="49.06549" lon="2.15675">
        <ele>19.6</ele>
        <time>2022-02-17T12:56:36Z</time>
      </trkpt>
      <trkpt lat="49.06552" lon="2.15668">
        <ele>19</ele>
        <time>2022-02-17T12:56:39Z</time>
      </trkpt>
      <trkpt lat="49.06555" lon="2.15661">
        <ele>18.7</ele>
        <time>2022-02-17T12:56:43Z</time>
      </trkpt>
      <trkpt lat="49.06556" lon="2.15653">
        <ele>18.4</ele>
        <time>2022-02-17T12:56:48Z</time>
      </trkpt>
      <trkpt lat="49.06556" lon="2.15645">
        <ele>18.6</ele>
        <time>2022-02-17T12:56:51Z</time>
      </trkpt>
      <trkpt lat="49.06555" lon="2.15637">
        <ele>20</ele>
        <time>2022-02-17T12:56:55Z</time>
      </trkpt>
      <trkpt lat="49.06556" lon="2.15629">
        <ele>21</ele>
        <time>2022-02-17T12:56:59Z</time>
      </trkpt>
      <trkpt lat="49.06557" lon="2.15622">
        <ele>20.7</ele>
        <time>2022-02-17T12:57:03Z</time>
      </trkpt>
      <trkpt lat="49.06558" lon="2.15614">
        <ele>20.8</ele>
        <time>2022-02-17T12:57:07Z</time>
      </trkpt>
      <trkpt lat="49.06561" lon="2.15607">
        <ele>20.9</ele>
        <time>2022-02-17T12:57:11Z</time>
      </trkpt>
      <trkpt lat="49.06564" lon="2.15601">
        <ele>21.5</ele>
        <time>2022-02-17T12:57:14Z</time>
      </trkpt>
      <trkpt lat="49.06565" lon="2.15594">
        <ele>21.8</ele>
        <time>2022-02-17T12:57:18Z</time>
      </trkpt>
      <trkpt lat="49.06566" lon="2.15587">
        <ele>21.9</ele>
        <time>2022-02-17T12:57:22Z</time>
      </trkpt>
      <trkpt lat="49.06568" lon="2.15581">
        <ele>21.7</ele>
        <time>2022-02-17T12:57:26Z</time>
      </trkpt>
      <trkpt lat="49.06571" lon="2.15574">
        <ele>21.1</ele>
        <time>2022-02-17T12:57:30Z</time>
      </trkpt>
      <trkpt lat="49.06572" lon="2.15566">
        <ele>20.7</ele>
        <time>2022-02-17T12:57:34Z</time>
      </trkpt>
      <trkpt lat="49.06572" lon="2.15559">
        <ele>20.4</ele>
        <time>2022-02-17T12:57:38Z</time>
      </trkpt>
      <trkpt lat="49.06573" lon="2.15552">
        <ele>20</ele>
        <time>2022-02-17T12:57:42Z</time>
      </trkpt>
      <trkpt lat="49.06573" lon="2.15545">
        <ele>19.6</ele>
        <time>2022-02-17T12:57:46Z</time>
      </trkpt>
      <trkpt lat="49.06575" lon="2.15538">
        <ele>19.3</ele>
        <time>2022-02-17T12:57:50Z</time>
      </trkpt>
      <trkpt lat="49.06576" lon="2.15531">
        <ele>18.6</ele>
        <time>2022-02-17T12:57:53Z</time>
      </trkpt>
      <trkpt lat="49.06578" lon="2.15524">
        <ele>18</ele>
        <time>2022-02-17T12:57:57Z</time>
      </trkpt>
      <trkpt lat="49.06581" lon="2.15517">
        <ele>17.9</ele>
        <time>2022-02-17T12:58:01Z</time>
      </trkpt>
      <trkpt lat="49.06583" lon="2.15509">
        <ele>17.9</ele>
        <time>2022-02-17T12:58:05Z</time>
      </trkpt>
      <trkpt lat="49.06584" lon="2.15502">
        <ele>17.5</ele>
        <time>2022-02-17T12:58:10Z</time>
      </trkpt>
      <trkpt lat="49.06586" lon="2.15495">
        <ele>17.4</ele>
        <time>2022-02-17T12:58:15Z</time>
      </trkpt>
      <trkpt lat="49.06587" lon="2.15486">
        <ele>17.2</ele>
        <time>2022-02-17T12:58:19Z</time>
      </trkpt>
      <trkpt lat="49.06588" lon="2.15478">
        <ele>17.9</ele>
        <time>2022-02-17T12:58:23Z</time>
      </trkpt>
      <trkpt lat="49.0659" lon="2.1547">
        <ele>18.3</ele>
        <time>2022-02-17T12:58:27Z</time>
      </trkpt>
      <trkpt lat="49.06592" lon="2.15462">
        <ele>18.9</ele>
        <time>2022-02-17T12:58:31Z</time>
      </trkpt>
      <trkpt lat="49.06594" lon="2.15455">
        <ele>19.7</ele>
        <time>2022-02-17T12:58:34Z</time>
      </trkpt>
      <trkpt lat="49.06597" lon="2.15447">
        <ele>20.4</ele>
        <time>2022-02-17T12:58:38Z</time>
      </trkpt>
      <trkpt lat="49.06599" lon="2.1544">
        <ele>20.6</ele>
        <time>2022-02-17T12:58:42Z</time>
      </trkpt>
      <trkpt lat="49.06601" lon="2.15432">
        <ele>20.7</ele>
        <time>2022-02-17T12:58:46Z</time>
      </trkpt>
      <trkpt lat="49.06603" lon="2.15425">
        <ele>20.2</ele>
        <time>2022-02-17T12:58:50Z</time>
      </trkpt>
      <trkpt lat="49.06605" lon="2.15418">
        <ele>19.3</ele>
        <time>2022-02-17T12:58:54Z</time>
      </trkpt>
      <trkpt lat="49.06606" lon="2.1541">
        <ele>19</ele>
        <time>2022-02-17T12:58:58Z</time>
      </trkpt>
      <trkpt lat="49.06608" lon="2.15403">
        <ele>19.7</ele>
        <time>2022-02-17T12:59:02Z</time>
      </trkpt>
      <trkpt lat="49.0661" lon="2.15396">
        <ele>20.7</ele>
        <time>2022-02-17T12:59:06Z</time>
      </trkpt>
      <trkpt lat="49.06613" lon="2.15388">
        <ele>22</ele>
        <time>2022-02-17T12:59:10Z</time>
      </trkpt>
      <trkpt lat="49.06615" lon="2.15379">
        <ele>22.3</ele>
        <time>2022-02-17T12:59:15Z</time>
      </trkpt>
      <trkpt lat="49.06616" lon="2.15371">
        <ele>22.5</ele>
        <time>2022-02-17T12:59:19Z</time>
      </trkpt>
      <trkpt lat="49.06618" lon="2.15364">
        <ele>22.1</ele>
        <time>2022-02-17T12:59:23Z</time>
      </trkpt>
      <trkpt lat="49.0662" lon="2.15358">
        <ele>21.6</ele>
        <time>2022-02-17T12:59:27Z</time>
      </trkpt>
      <trkpt lat="49.06621" lon="2.15349">
        <ele>21.1</ele>
        <time>2022-02-17T12:59:31Z</time>
      </trkpt>
      <trkpt lat="49.06623" lon="2.15342">
        <ele>20.9</ele>
        <time>2022-02-17T12:59:35Z</time>
      </trkpt>
      <trkpt lat="49.06625" lon="2.15334">
        <ele>20.3</ele>
        <time>2022-02-17T12:59:40Z</time>
      </trkpt>
      <trkpt lat="49.06626" lon="2.15326">
        <ele>19.2</ele>
        <time>2022-02-17T12:59:44Z</time>
      </trkpt>
      <trkpt lat="49.06628" lon="2.15319">
        <ele>18.1</ele>
        <time>2022-02-17T12:59:49Z</time>
      </trkpt>
      <trkpt lat="49.06629" lon="2.15311">
        <ele>19.1</ele>
        <time>2022-02-17T12:59:55Z</time>
      </trkpt>
      <trkpt lat="49.0663" lon="2.15303">
        <ele>19.4</ele>
        <time>2022-02-17T13:00:02Z</time>
      </trkpt>
      <trkpt lat="49.06627" lon="2.15296">
        <ele>18.3</ele>
        <time>2022-02-17T13:00:33Z</time>
      </trkpt>
      <trkpt lat="49.06629" lon="2.1529">
        <ele>18.1</ele>
        <time>2022-02-17T13:00:38Z</time>
      </trkpt>
      <trkpt lat="49.0663" lon="2.15282">
        <ele>18.4</ele>
        <time>2022-02-17T13:00:42Z</time>
      </trkpt>
      <trkpt lat="49.06633" lon="2.15274">
        <ele>18.6</ele>
        <time>2022-02-17T13:00:47Z</time>
      </trkpt>
      <trkpt lat="49.06636" lon="2.15268">
        <ele>18</ele>
        <time>2022-02-17T13:00:51Z</time>
      </trkpt>
      <trkpt lat="49.06639" lon="2.15259">
        <ele>17.9</ele>
        <time>2022-02-17T13:00:55Z</time>
      </trkpt>
      <trkpt lat="49.06641" lon="2.15252">
        <ele>18</ele>
        <time>2022-02-17T13:00:59Z</time>
      </trkpt>
      <trkpt lat="49.06642" lon="2.15243">
        <ele>16.9</ele>
        <time>2022-02-17T13:01:03Z</time>
      </trkpt>
      <trkpt lat="49.06645" lon="2.15237">
        <ele>16.4</ele>
        <time>2022-02-17T13:01:07Z</time>
      </trkpt>
      <trkpt lat="49.06647" lon="2.15228">
        <ele>17.1</ele>
        <time>2022-02-17T13:01:11Z</time>
      </trkpt>
      <trkpt lat="49.06648" lon="2.15221">
        <ele>17.5</ele>
        <time>2022-02-17T13:01:16Z</time>
      </trkpt>
      <trkpt lat="49.0665" lon="2.15213">
        <ele>17.4</ele>
        <time>2022-02-17T13:01:20Z</time>
      </trkpt>
      <trkpt lat="49.06651" lon="2.15205">
        <ele>17.3</ele>
        <time>2022-02-17T13:01:24Z</time>
      </trkpt>
      <trkpt lat="49.06654" lon="2.15198">
        <ele>18</ele>
        <time>2022-02-17T13:01:28Z</time>
      </trkpt>
      <trkpt lat="49.06655" lon="2.1519">
        <ele>18.6</ele>
        <time>2022-02-17T13:01:32Z</time>
      </trkpt>
      <trkpt lat="49.06658" lon="2.15183">
        <ele>18.9</ele>
        <time>2022-02-17T13:01:35Z</time>
      </trkpt>
      <trkpt lat="49.0666" lon="2.15175">
        <ele>19.1</ele>
        <time>2022-02-17T13:01:40Z</time>
      </trkpt>
      <trkpt lat="49.06662" lon="2.15167">
        <ele>18.8</ele>
        <time>2022-02-17T13:01:44Z</time>
      </trkpt>
      <trkpt lat="49.06664" lon="2.15161">
        <ele>17.8</ele>
        <time>2022-02-17T13:01:48Z</time>
      </trkpt>
      <trkpt lat="49.06667" lon="2.15154">
        <ele>16.7</ele>
        <time>2022-02-17T13:01:52Z</time>
      </trkpt>
      <trkpt lat="49.0667" lon="2.15147">
        <ele>15.8</ele>
        <time>2022-02-17T13:01:56Z</time>
      </trkpt>
      <trkpt lat="49.06674" lon="2.15141">
        <ele>15.7</ele>
        <time>2022-02-17T13:02:01Z</time>
      </trkpt>
      <trkpt lat="49.06676" lon="2.15135">
        <ele>16.1</ele>
        <time>2022-02-17T13:02:05Z</time>
      </trkpt>
      <trkpt lat="49.06676" lon="2.15128">
        <ele>16.3</ele>
        <time>2022-02-17T13:02:09Z</time>
      </trkpt>
      <trkpt lat="49.06677" lon="2.15119">
        <ele>16.6</ele>
        <time>2022-02-17T13:02:14Z</time>
      </trkpt>
      <trkpt lat="49.0668" lon="2.15112">
        <ele>17.1</ele>
        <time>2022-02-17T13:02:18Z</time>
      </trkpt>
      <trkpt lat="49.06681" lon="2.15104">
        <ele>17.8</ele>
        <time>2022-02-17T13:02:24Z</time>
      </trkpt>
      <trkpt lat="49.06681" lon="2.15097">
        <ele>18.3</ele>
        <time>2022-02-17T13:02:28Z</time>
      </trkpt>
      <trkpt lat="49.06682" lon="2.15089">
        <ele>18.5</ele>
        <time>2022-02-17T13:02:32Z</time>
      </trkpt>
      <trkpt lat="49.06683" lon="2.15082">
        <ele>18.4</ele>
        <time>2022-02-17T13:02:37Z</time>
      </trkpt>
      <trkpt lat="49.06682" lon="2.15074">
        <ele>18.1</ele>
        <time>2022-02-17T13:02:41Z</time>
      </trkpt>
      <trkpt lat="49.06684" lon="2.15065">
        <ele>18.1</ele>
        <time>2022-02-17T13:02:46Z</time>
      </trkpt>
      <trkpt lat="49.06687" lon="2.1506">
        <ele>18.6</ele>
        <time>2022-02-17T13:02:49Z</time>
      </trkpt>
      <trkpt lat="49.06689" lon="2.15052">
        <ele>19.7</ele>
        <time>2022-02-17T13:02:53Z</time>
      </trkpt>
      <trkpt lat="49.0669" lon="2.15045">
        <ele>19.8</ele>
        <time>2022-02-17T13:02:57Z</time>
      </trkpt>
      <trkpt lat="49.06692" lon="2.15037">
        <ele>19.1</ele>
        <time>2022-02-17T13:03:02Z</time>
      </trkpt>
      <trkpt lat="49.06693" lon="2.1503">
        <ele>19.1</ele>
        <time>2022-02-17T13:03:06Z</time>
      </trkpt>
      <trkpt lat="49.06695" lon="2.15022">
        <ele>19.1</ele>
        <time>2022-02-17T13:03:10Z</time>
      </trkpt>
      <trkpt lat="49.06697" lon="2.15015">
        <ele>18.9</ele>
        <time>2022-02-17T13:03:14Z</time>
      </trkpt>
      <trkpt lat="49.06697" lon="2.15007">
        <ele>18.9</ele>
        <time>2022-02-17T13:03:18Z</time>
      </trkpt>
      <trkpt lat="49.06699" lon="2.14999">
        <ele>19.2</ele>
        <time>2022-02-17T13:03:22Z</time>
      </trkpt>
      <trkpt lat="49.06699" lon="2.1499">
        <ele>19.9</ele>
        <time>2022-02-17T13:03:26Z</time>
      </trkpt>
      <trkpt lat="49.067" lon="2.14983">
        <ele>21</ele>
        <time>2022-02-17T13:03:31Z</time>
      </trkpt>
      <trkpt lat="49.06701" lon="2.14976">
        <ele>22.3</ele>
        <time>2022-02-17T13:03:35Z</time>
      </trkpt>
      <trkpt lat="49.06702" lon="2.14968">
        <ele>22.9</ele>
        <time>2022-02-17T13:03:39Z</time>
      </trkpt>
      <trkpt lat="49.06705" lon="2.14962">
        <ele>22.8</ele>
        <time>2022-02-17T13:03:43Z</time>
      </trkpt>
      <trkpt lat="49.06706" lon="2.14955">
        <ele>21.2</ele>
        <time>2022-02-17T13:03:47Z</time>
      </trkpt>
      <trkpt lat="49.06708" lon="2.14948">
        <ele>19.8</ele>
        <time>2022-02-17T13:03:51Z</time>
      </trkpt>
      <trkpt lat="49.0671" lon="2.14941">
        <ele>19.1</ele>
        <time>2022-02-17T13:03:54Z</time>
      </trkpt>
      <trkpt lat="49.06713" lon="2.14933">
        <ele>18.5</ele>
        <time>2022-02-17T13:03:59Z</time>
      </trkpt>
      <trkpt lat="49.06715" lon="2.14927">
        <ele>18</ele>
        <time>2022-02-17T13:04:02Z</time>
      </trkpt>
      <trkpt lat="49.06716" lon="2.14918">
        <ele>18.8</ele>
        <time>2022-02-17T13:04:06Z</time>
      </trkpt>
      <trkpt lat="49.06716" lon="2.14911">
        <ele>20.3</ele>
        <time>2022-02-17T13:04:10Z</time>
      </trkpt>
      <trkpt lat="49.06716" lon="2.14903">
        <ele>21</ele>
        <time>2022-02-17T13:04:14Z</time>
      </trkpt>
      <trkpt lat="49.06717" lon="2.14895">
        <ele>21.3</ele>
        <time>2022-02-17T13:04:18Z</time>
      </trkpt>
      <trkpt lat="49.06718" lon="2.14886">
        <ele>21.5</ele>
        <time>2022-02-17T13:04:23Z</time>
      </trkpt>
      <trkpt lat="49.06719" lon="2.14878">
        <ele>22</ele>
        <time>2022-02-17T13:04:27Z</time>
      </trkpt>
      <trkpt lat="49.06721" lon="2.14871">
        <ele>22.7</ele>
        <time>2022-02-17T13:04:31Z</time>
      </trkpt>
      <trkpt lat="49.06723" lon="2.14863">
        <ele>22</ele>
        <time>2022-02-17T13:04:35Z</time>
      </trkpt>
      <trkpt lat="49.06725" lon="2.14857">
        <ele>20.5</ele>
        <time>2022-02-17T13:04:39Z</time>
      </trkpt>
      <trkpt lat="49.06726" lon="2.14849">
        <ele>19.8</ele>
        <time>2022-02-17T13:04:43Z</time>
      </trkpt>
      <trkpt lat="49.06728" lon="2.14841">
        <ele>19.1</ele>
        <time>2022-02-17T13:04:47Z</time>
      </trkpt>
      <trkpt lat="49.06729" lon="2.14834">
        <ele>18.4</ele>
        <time>2022-02-17T13:04:51Z</time>
      </trkpt>
      <trkpt lat="49.06729" lon="2.14826">
        <ele>17.2</ele>
        <time>2022-02-17T13:04:55Z</time>
      </trkpt>
      <trkpt lat="49.0673" lon="2.14818">
        <ele>17.2</ele>
        <time>2022-02-17T13:04:59Z</time>
      </trkpt>
      <trkpt lat="49.06729" lon="2.1481">
        <ele>17.9</ele>
        <time>2022-02-17T13:05:03Z</time>
      </trkpt>
      <trkpt lat="49.06727" lon="2.14802">
        <ele>18.6</ele>
        <time>2022-02-17T13:05:07Z</time>
      </trkpt>
      <trkpt lat="49.06727" lon="2.14795">
        <ele>18.8</ele>
        <time>2022-02-17T13:05:11Z</time>
      </trkpt>
      <trkpt lat="49.06729" lon="2.14788">
        <ele>18.4</ele>
        <time>2022-02-17T13:05:16Z</time>
      </trkpt>
      <trkpt lat="49.06729" lon="2.1478">
        <ele>17.5</ele>
        <time>2022-02-17T13:05:20Z</time>
      </trkpt>
      <trkpt lat="49.06729" lon="2.14772">
        <ele>17.4</ele>
        <time>2022-02-17T13:05:24Z</time>
      </trkpt>
      <trkpt lat="49.06729" lon="2.14764">
        <ele>17.6</ele>
        <time>2022-02-17T13:05:27Z</time>
      </trkpt>
      <trkpt lat="49.0673" lon="2.14756">
        <ele>17.7</ele>
        <time>2022-02-17T13:05:31Z</time>
      </trkpt>
      <trkpt lat="49.0673" lon="2.14748">
        <ele>17.1</ele>
        <time>2022-02-17T13:05:35Z</time>
      </trkpt>
      <trkpt lat="49.06732" lon="2.14741">
        <ele>16.6</ele>
        <time>2022-02-17T13:05:39Z</time>
      </trkpt>
      <trkpt lat="49.06733" lon="2.14734">
        <ele>16.4</ele>
        <time>2022-02-17T13:05:43Z</time>
      </trkpt>
      <trkpt lat="49.06733" lon="2.14726">
        <ele>16.2</ele>
        <time>2022-02-17T13:05:47Z</time>
      </trkpt>
      <trkpt lat="49.06733" lon="2.14718">
        <ele>15.9</ele>
        <time>2022-02-17T13:05:52Z</time>
      </trkpt>
      <trkpt lat="49.06733" lon="2.14711">
        <ele>15.5</ele>
        <time>2022-02-17T13:05:56Z</time>
      </trkpt>
      <trkpt lat="49.06735" lon="2.14703">
        <ele>15.1</ele>
        <time>2022-02-17T13:06:00Z</time>
      </trkpt>
      <trkpt lat="49.06736" lon="2.14696">
        <ele>15.4</ele>
        <time>2022-02-17T13:06:04Z</time>
      </trkpt>
      <trkpt lat="49.06737" lon="2.14688">
        <ele>16.1</ele>
        <time>2022-02-17T13:06:08Z</time>
      </trkpt>
      <trkpt lat="49.06737" lon="2.14681">
        <ele>16.7</ele>
        <time>2022-02-17T13:06:12Z</time>
      </trkpt>
      <trkpt lat="49.06738" lon="2.14673">
        <ele>16.8</ele>
        <time>2022-02-17T13:06:16Z</time>
      </trkpt>
      <trkpt lat="49.06739" lon="2.14665">
        <ele>16.9</ele>
        <time>2022-02-17T13:06:20Z</time>
      </trkpt>
      <trkpt lat="49.0674" lon="2.14658">
        <ele>16.9</ele>
        <time>2022-02-17T13:06:24Z</time>
      </trkpt>
      <trkpt lat="49.06741" lon="2.1465">
        <ele>17.2</ele>
        <time>2022-02-17T13:06:28Z</time>
      </trkpt>
      <trkpt lat="49.06742" lon="2.14641">
        <ele>17.3</ele>
        <time>2022-02-17T13:06:32Z</time>
      </trkpt>
      <trkpt lat="49.06743" lon="2.14633">
        <ele>17.2</ele>
        <time>2022-02-17T13:06:36Z</time>
      </trkpt>
      <trkpt lat="49.06743" lon="2.14625">
        <ele>17</ele>
        <time>2022-02-17T13:06:40Z</time>
      </trkpt>
      <trkpt lat="49.06743" lon="2.14618">
        <ele>17.1</ele>
        <time>2022-02-17T13:06:44Z</time>
      </trkpt>
      <trkpt lat="49.06746" lon="2.14609">
        <ele>17.8</ele>
        <time>2022-02-17T13:06:49Z</time>
      </trkpt>
      <trkpt lat="49.06745" lon="2.14601">
        <ele>17.8</ele>
        <time>2022-02-17T13:06:53Z</time>
      </trkpt>
      <trkpt lat="49.06745" lon="2.14593">
        <ele>16.7</ele>
        <time>2022-02-17T13:06:57Z</time>
      </trkpt>
      <trkpt lat="49.06745" lon="2.14585">
        <ele>16.5</ele>
        <time>2022-02-17T13:07:01Z</time>
      </trkpt>
      <trkpt lat="49.06746" lon="2.14578">
        <ele>16.8</ele>
        <time>2022-02-17T13:07:05Z</time>
      </trkpt>
      <trkpt lat="49.06746" lon="2.1457">
        <ele>17.1</ele>
        <time>2022-02-17T13:07:09Z</time>
      </trkpt>
      <trkpt lat="49.06744" lon="2.14563">
        <ele>17.2</ele>
        <time>2022-02-17T13:07:13Z</time>
      </trkpt>
      <trkpt lat="49.06745" lon="2.14554">
        <ele>17.2</ele>
        <time>2022-02-17T13:07:17Z</time>
      </trkpt>
      <trkpt lat="49.06746" lon="2.14546">
        <ele>16.9</ele>
        <time>2022-02-17T13:07:21Z</time>
      </trkpt>
      <trkpt lat="49.06747" lon="2.14539">
        <ele>16.4</ele>
        <time>2022-02-17T13:07:25Z</time>
      </trkpt>
      <trkpt lat="49.06748" lon="2.14531">
        <ele>16.3</ele>
        <time>2022-02-17T13:07:29Z</time>
      </trkpt>
      <trkpt lat="49.06748" lon="2.14522">
        <ele>16.4</ele>
        <time>2022-02-17T13:07:33Z</time>
      </trkpt>
      <trkpt lat="49.06748" lon="2.14513">
        <ele>17.1</ele>
        <time>2022-02-17T13:07:38Z</time>
      </trkpt>
      <trkpt lat="49.06749" lon="2.14506">
        <ele>17.2</ele>
        <time>2022-02-17T13:07:42Z</time>
      </trkpt>
      <trkpt lat="49.06749" lon="2.14498">
        <ele>16.6</ele>
        <time>2022-02-17T13:07:46Z</time>
      </trkpt>
      <trkpt lat="49.06748" lon="2.14489">
        <ele>15</ele>
        <time>2022-02-17T13:07:50Z</time>
      </trkpt>
      <trkpt lat="49.06748" lon="2.14481">
        <ele>14.5</ele>
        <time>2022-02-17T13:07:54Z</time>
      </trkpt>
      <trkpt lat="49.0675" lon="2.14472">
        <ele>16.3</ele>
        <time>2022-02-17T13:08:01Z</time>
      </trkpt>
      <trkpt lat="49.06751" lon="2.14463">
        <ele>17.3</ele>
        <time>2022-02-17T13:08:05Z</time>
      </trkpt>
      <trkpt lat="49.06752" lon="2.14456">
        <ele>17.6</ele>
        <time>2022-02-17T13:08:10Z</time>
      </trkpt>
      <trkpt lat="49.06752" lon="2.14448">
        <ele>17.4</ele>
        <time>2022-02-17T13:08:14Z</time>
      </trkpt>
      <trkpt lat="49.06752" lon="2.14439">
        <ele>17.5</ele>
        <time>2022-02-17T13:08:19Z</time>
      </trkpt>
      <trkpt lat="49.06752" lon="2.1443">
        <ele>18.2</ele>
        <time>2022-02-17T13:08:24Z</time>
      </trkpt>
      <trkpt lat="49.06751" lon="2.14423">
        <ele>18.3</ele>
        <time>2022-02-17T13:08:28Z</time>
      </trkpt>
      <trkpt lat="49.06751" lon="2.14414">
        <ele>18.2</ele>
        <time>2022-02-17T13:08:33Z</time>
      </trkpt>
      <trkpt lat="49.0675" lon="2.14405">
        <ele>18</ele>
        <time>2022-02-17T13:08:38Z</time>
      </trkpt>
      <trkpt lat="49.0675" lon="2.14397">
        <ele>18.2</ele>
        <time>2022-02-17T13:08:42Z</time>
      </trkpt>
      <trkpt lat="49.06749" lon="2.1439">
        <ele>18.2</ele>
        <time>2022-02-17T13:08:46Z</time>
      </trkpt>
      <trkpt lat="49.06749" lon="2.14381">
        <ele>18.1</ele>
        <time>2022-02-17T13:08:50Z</time>
      </trkpt>
      <trkpt lat="49.06749" lon="2.14374">
        <ele>18</ele>
        <time>2022-02-17T13:08:54Z</time>
      </trkpt>
      <trkpt lat="49.06748" lon="2.14367">
        <ele>18.3</ele>
        <time>2022-02-17T13:08:58Z</time>
      </trkpt>
      <trkpt lat="49.06745" lon="2.14359">
        <ele>18.6</ele>
        <time>2022-02-17T13:09:02Z</time>
      </trkpt>
      <trkpt lat="49.06745" lon="2.14352">
        <ele>18.8</ele>
        <time>2022-02-17T13:09:05Z</time>
      </trkpt>
      <trkpt lat="49.06746" lon="2.14345">
        <ele>18.8</ele>
        <time>2022-02-17T13:09:09Z</time>
      </trkpt>
      <trkpt lat="49.06747" lon="2.14336">
        <ele>19.2</ele>
        <time>2022-02-17T13:09:13Z</time>
      </trkpt>
      <trkpt lat="49.06747" lon="2.14328">
        <ele>19.5</ele>
        <time>2022-02-17T13:09:17Z</time>
      </trkpt>
      <trkpt lat="49.06746" lon="2.1432">
        <ele>19.3</ele>
        <time>2022-02-17T13:09:21Z</time>
      </trkpt>
      <trkpt lat="49.06746" lon="2.14312">
        <ele>18.1</ele>
        <time>2022-02-17T13:09:25Z</time>
      </trkpt>
      <trkpt lat="49.06746" lon="2.14304">
        <ele>17.4</ele>
        <time>2022-02-17T13:09:29Z</time>
      </trkpt>
      <trkpt lat="49.06746" lon="2.14296">
        <ele>17</ele>
        <time>2022-02-17T13:09:34Z</time>
      </trkpt>
      <trkpt lat="49.06746" lon="2.14288">
        <ele>16</ele>
        <time>2022-02-17T13:09:38Z</time>
      </trkpt>
      <trkpt lat="49.06746" lon="2.14281">
        <ele>15.7</ele>
        <time>2022-02-17T13:09:42Z</time>
      </trkpt>
      <trkpt lat="49.06745" lon="2.14273">
        <ele>16.7</ele>
        <time>2022-02-17T13:09:46Z</time>
      </trkpt>
      <trkpt lat="49.06745" lon="2.14265">
        <ele>17.4</ele>
        <time>2022-02-17T13:09:51Z</time>
      </trkpt>
      <trkpt lat="49.06742" lon="2.1427">
        <ele>16.5</ele>
        <time>2022-02-17T13:10:35Z</time>
      </trkpt>
      <trkpt lat="49.06746" lon="2.1426">
        <ele>16.1</ele>
        <time>2022-02-17T13:11:47Z</time>
      </trkpt>
      <trkpt lat="49.06747" lon="2.14253">
        <ele>18.6</ele>
        <time>2022-02-17T13:11:53Z</time>
      </trkpt>
      <trkpt lat="49.06744" lon="2.14248">
        <ele>21.7</ele>
        <time>2022-02-17T13:11:59Z</time>
      </trkpt>
      <trkpt lat="49.0674" lon="2.14243">
        <ele>19.6</ele>
        <time>2022-02-17T13:12:04Z</time>
      </trkpt>
      <trkpt lat="49.06739" lon="2.14236">
        <ele>16.8</ele>
        <time>2022-02-17T13:12:08Z</time>
      </trkpt>
      <trkpt lat="49.06738" lon="2.14229">
        <ele>16</ele>
        <time>2022-02-17T13:12:13Z</time>
      </trkpt>
      <trkpt lat="49.06735" lon="2.14224">
        <ele>15.7</ele>
        <time>2022-02-17T13:12:18Z</time>
      </trkpt>
      <trkpt lat="49.06733" lon="2.14216">
        <ele>14.7</ele>
        <time>2022-02-17T13:12:23Z</time>
      </trkpt>
      <trkpt lat="49.06732" lon="2.14208">
        <ele>13.1</ele>
        <time>2022-02-17T13:12:29Z</time>
      </trkpt>
      <trkpt lat="49.06731" lon="2.142">
        <ele>12.2</ele>
        <time>2022-02-17T13:12:34Z</time>
      </trkpt>
      <trkpt lat="49.0673" lon="2.14193">
        <ele>11.5</ele>
        <time>2022-02-17T13:12:38Z</time>
      </trkpt>
      <trkpt lat="49.06729" lon="2.14185">
        <ele>10.6</ele>
        <time>2022-02-17T13:12:42Z</time>
      </trkpt>
      <trkpt lat="49.06727" lon="2.14178">
        <ele>9.8</ele>
        <time>2022-02-17T13:12:47Z</time>
      </trkpt>
      <trkpt lat="49.06725" lon="2.1417">
        <ele>9.6</ele>
        <time>2022-02-17T13:12:52Z</time>
      </trkpt>
      <trkpt lat="49.06723" lon="2.14162">
        <ele>9.9</ele>
        <time>2022-02-17T13:12:57Z</time>
      </trkpt>
      <trkpt lat="49.06722" lon="2.14154">
        <ele>12</ele>
        <time>2022-02-17T13:13:01Z</time>
      </trkpt>
      <trkpt lat="49.06723" lon="2.14147">
        <ele>14.2</ele>
        <time>2022-02-17T13:13:05Z</time>
      </trkpt>
      <trkpt lat="49.06722" lon="2.1414">
        <ele>16</ele>
        <time>2022-02-17T13:13:09Z</time>
      </trkpt>
      <trkpt lat="49.06723" lon="2.14132">
        <ele>15.9</ele>
        <time>2022-02-17T13:13:13Z</time>
      </trkpt>
      <trkpt lat="49.06722" lon="2.14124">
        <ele>14.9</ele>
        <time>2022-02-17T13:13:18Z</time>
      </trkpt>
      <trkpt lat="49.0672" lon="2.14117">
        <ele>14.8</ele>
        <time>2022-02-17T13:13:22Z</time>
      </trkpt>
      <trkpt lat="49.06719" lon="2.14109">
        <ele>15.3</ele>
        <time>2022-02-17T13:13:26Z</time>
      </trkpt>
      <trkpt lat="49.06714" lon="2.14108">
        <ele>16.1</ele>
        <time>2022-02-17T13:13:30Z</time>
      </trkpt>
      <trkpt lat="49.06713" lon="2.141">
        <ele>16.6</ele>
        <time>2022-02-17T13:13:34Z</time>
      </trkpt>
      <trkpt lat="49.06714" lon="2.14091">
        <ele>17.5</ele>
        <time>2022-02-17T13:13:38Z</time>
      </trkpt>
      <trkpt lat="49.06715" lon="2.14083">
        <ele>18.9</ele>
        <time>2022-02-17T13:13:42Z</time>
      </trkpt>
      <trkpt lat="49.06714" lon="2.14076">
        <ele>19.2</ele>
        <time>2022-02-17T13:13:47Z</time>
      </trkpt>
      <trkpt lat="49.06713" lon="2.14069">
        <ele>20</ele>
        <time>2022-02-17T13:13:50Z</time>
      </trkpt>
      <trkpt lat="49.06711" lon="2.14062">
        <ele>21.4</ele>
        <time>2022-02-17T13:13:55Z</time>
      </trkpt>
      <trkpt lat="49.06709" lon="2.14055">
        <ele>21.4</ele>
        <time>2022-02-17T13:13:59Z</time>
      </trkpt>
      <trkpt lat="49.06708" lon="2.14048">
        <ele>21.1</ele>
        <time>2022-02-17T13:14:03Z</time>
      </trkpt>
      <trkpt lat="49.06708" lon="2.1404">
        <ele>22</ele>
        <time>2022-02-17T13:14:07Z</time>
      </trkpt>
      <trkpt lat="49.06707" lon="2.14032">
        <ele>24</ele>
        <time>2022-02-17T13:14:11Z</time>
      </trkpt>
      <trkpt lat="49.06704" lon="2.14025">
        <ele>24.8</ele>
        <time>2022-02-17T13:14:16Z</time>
      </trkpt>
      <trkpt lat="49.06703" lon="2.14017">
        <ele>25.8</ele>
        <time>2022-02-17T13:14:21Z</time>
      </trkpt>
      <trkpt lat="49.06702" lon="2.1401">
        <ele>27.4</ele>
        <time>2022-02-17T13:14:25Z</time>
      </trkpt>
      <trkpt lat="49.06701" lon="2.14001">
        <ele>29.6</ele>
        <time>2022-02-17T13:14:29Z</time>
      </trkpt>
      <trkpt lat="49.06698" lon="2.13995">
        <ele>30.5</ele>
        <time>2022-02-17T13:14:33Z</time>
      </trkpt>
      <trkpt lat="49.06699" lon="2.13987">
        <ele>29.9</ele>
        <time>2022-02-17T13:14:37Z</time>
      </trkpt>
      <trkpt lat="49.06698" lon="2.1398">
        <ele>28.3</ele>
        <time>2022-02-17T13:14:41Z</time>
      </trkpt>
      <trkpt lat="49.06694" lon="2.13974">
        <ele>26</ele>
        <time>2022-02-17T13:14:46Z</time>
      </trkpt>
      <trkpt lat="49.06691" lon="2.13967">
        <ele>23.2</ele>
        <time>2022-02-17T13:14:52Z</time>
      </trkpt>
      <trkpt lat="49.06691" lon="2.1396">
        <ele>22.7</ele>
        <time>2022-02-17T13:14:56Z</time>
      </trkpt>
      <trkpt lat="49.06689" lon="2.13954">
        <ele>23</ele>
        <time>2022-02-17T13:15:00Z</time>
      </trkpt>
      <trkpt lat="49.06689" lon="2.13946">
        <ele>24</ele>
        <time>2022-02-17T13:15:04Z</time>
      </trkpt>
      <trkpt lat="49.06688" lon="2.13939">
        <ele>25.2</ele>
        <time>2022-02-17T13:15:09Z</time>
      </trkpt>
      <trkpt lat="49.0669" lon="2.13932">
        <ele>26.4</ele>
        <time>2022-02-17T13:15:12Z</time>
      </trkpt>
      <trkpt lat="49.06691" lon="2.13925">
        <ele>28</ele>
        <time>2022-02-17T13:15:17Z</time>
      </trkpt>
      <trkpt lat="49.06692" lon="2.13917">
        <ele>27.4</ele>
        <time>2022-02-17T13:15:22Z</time>
      </trkpt>
      <trkpt lat="49.06693" lon="2.13909">
        <ele>25.4</ele>
        <time>2022-02-17T13:15:26Z</time>
      </trkpt>
      <trkpt lat="49.06692" lon="2.13901">
        <ele>24.1</ele>
        <time>2022-02-17T13:15:31Z</time>
      </trkpt>
      <trkpt lat="49.06691" lon="2.13893">
        <ele>23.4</ele>
        <time>2022-02-17T13:15:35Z</time>
      </trkpt>
      <trkpt lat="49.06693" lon="2.13885">
        <ele>21.9</ele>
        <time>2022-02-17T13:15:40Z</time>
      </trkpt>
      <trkpt lat="49.06693" lon="2.13878">
        <ele>21.3</ele>
        <time>2022-02-17T13:15:45Z</time>
      </trkpt>
      <trkpt lat="49.06695" lon="2.13872">
        <ele>21.1</ele>
        <time>2022-02-17T13:15:49Z</time>
      </trkpt>
      <trkpt lat="49.06697" lon="2.13866">
        <ele>20.6</ele>
        <time>2022-02-17T13:15:53Z</time>
      </trkpt>
      <trkpt lat="49.06699" lon="2.13859">
        <ele>20.4</ele>
        <time>2022-02-17T13:15:57Z</time>
      </trkpt>
      <trkpt lat="49.06701" lon="2.1385">
        <ele>19.9</ele>
        <time>2022-02-17T13:16:01Z</time>
      </trkpt>
      <trkpt lat="49.06703" lon="2.13844">
        <ele>19.8</ele>
        <time>2022-02-17T13:16:05Z</time>
      </trkpt>
      <trkpt lat="49.06706" lon="2.13838">
        <ele>19.8</ele>
        <time>2022-02-17T13:16:09Z</time>
      </trkpt>
      <trkpt lat="49.06708" lon="2.1383">
        <ele>19.9</ele>
        <time>2022-02-17T13:16:13Z</time>
      </trkpt>
      <trkpt lat="49.06709" lon="2.13822">
        <ele>18.9</ele>
        <time>2022-02-17T13:16:17Z</time>
      </trkpt>
      <trkpt lat="49.06712" lon="2.13815">
        <ele>18.2</ele>
        <time>2022-02-17T13:16:22Z</time>
      </trkpt>
      <trkpt lat="49.06716" lon="2.1381">
        <ele>19</ele>
        <time>2022-02-17T13:16:26Z</time>
      </trkpt>
      <trkpt lat="49.06718" lon="2.13803">
        <ele>20.3</ele>
        <time>2022-02-17T13:16:30Z</time>
      </trkpt>
      <trkpt lat="49.06718" lon="2.13794">
        <ele>20.6</ele>
        <time>2022-02-17T13:16:34Z</time>
      </trkpt>
      <trkpt lat="49.06717" lon="2.13786">
        <ele>20.1</ele>
        <time>2022-02-17T13:16:38Z</time>
      </trkpt>
      <trkpt lat="49.06719" lon="2.13779">
        <ele>19.7</ele>
        <time>2022-02-17T13:16:42Z</time>
      </trkpt>
      <trkpt lat="49.06721" lon="2.13772">
        <ele>19.2</ele>
        <time>2022-02-17T13:16:46Z</time>
      </trkpt>
      <trkpt lat="49.06723" lon="2.13765">
        <ele>18.5</ele>
        <time>2022-02-17T13:16:50Z</time>
      </trkpt>
      <trkpt lat="49.06724" lon="2.13757">
        <ele>17</ele>
        <time>2022-02-17T13:16:55Z</time>
      </trkpt>
      <trkpt lat="49.06726" lon="2.1375">
        <ele>16</ele>
        <time>2022-02-17T13:16:59Z</time>
      </trkpt>
      <trkpt lat="49.06725" lon="2.13742">
        <ele>15.4</ele>
        <time>2022-02-17T13:17:04Z</time>
      </trkpt>
      <trkpt lat="49.06725" lon="2.13734">
        <ele>16.3</ele>
        <time>2022-02-17T13:17:09Z</time>
      </trkpt>
      <trkpt lat="49.06729" lon="2.13727">
        <ele>17.5</ele>
        <time>2022-02-17T13:17:13Z</time>
      </trkpt>
      <trkpt lat="49.06733" lon="2.13724">
        <ele>17.7</ele>
        <time>2022-02-17T13:17:17Z</time>
      </trkpt>
      <trkpt lat="49.06735" lon="2.1373">
        <ele>15.8</ele>
        <time>2022-02-17T13:17:28Z</time>
      </trkpt>
      <trkpt lat="49.06735" lon="2.13723">
        <ele>16.5</ele>
        <time>2022-02-17T13:17:56Z</time>
      </trkpt>
      <trkpt lat="49.0674" lon="2.13727">
        <ele>16.1</ele>
        <time>2022-02-17T13:18:11Z</time>
      </trkpt>
      <trkpt lat="49.06744" lon="2.13732">
        <ele>16.3</ele>
        <time>2022-02-17T13:18:14Z</time>
      </trkpt>
      <trkpt lat="49.06748" lon="2.13737">
        <ele>16.4</ele>
        <time>2022-02-17T13:18:19Z</time>
      </trkpt>
      <trkpt lat="49.06753" lon="2.13742">
        <ele>16.2</ele>
        <time>2022-02-17T13:18:25Z</time>
      </trkpt>
      <trkpt lat="49.06749" lon="2.13735">
        <ele>15.6</ele>
        <time>2022-02-17T13:19:27Z</time>
      </trkpt>
      <trkpt lat="49.06744" lon="2.13732">
        <ele>16</ele>
        <time>2022-02-17T13:19:30Z</time>
      </trkpt>
      <trkpt lat="49.0674" lon="2.13725">
        <ele>16.8</ele>
        <time>2022-02-17T13:19:33Z</time>
      </trkpt>
      <trkpt lat="49.06736" lon="2.1372">
        <ele>18.1</ele>
        <time>2022-02-17T13:19:38Z</time>
      </trkpt>
      <trkpt lat="49.06735" lon="2.13711">
        <ele>18.2</ele>
        <time>2022-02-17T13:19:42Z</time>
      </trkpt>
      <trkpt lat="49.06739" lon="2.13703">
        <ele>16.7</ele>
        <time>2022-02-17T13:19:47Z</time>
      </trkpt>
      <trkpt lat="49.06743" lon="2.13699">
        <ele>16.1</ele>
        <time>2022-02-17T13:19:50Z</time>
      </trkpt>
      <trkpt lat="49.06747" lon="2.13695">
        <ele>16.3</ele>
        <time>2022-02-17T13:19:54Z</time>
      </trkpt>
      <trkpt lat="49.06751" lon="2.13693">
        <ele>17</ele>
        <time>2022-02-17T13:19:58Z</time>
      </trkpt>
      <trkpt lat="49.06756" lon="2.13688">
        <ele>17.8</ele>
        <time>2022-02-17T13:20:36Z</time>
      </trkpt>
      <trkpt lat="49.06758" lon="2.13682">
        <ele>19</ele>
        <time>2022-02-17T13:20:40Z</time>
      </trkpt>
      <trkpt lat="49.06762" lon="2.13675">
        <ele>20.6</ele>
        <time>2022-02-17T13:20:47Z</time>
      </trkpt>
      <trkpt lat="49.06764" lon="2.13668">
        <ele>20</ele>
        <time>2022-02-17T13:20:52Z</time>
      </trkpt>
      <trkpt lat="49.06766" lon="2.13661">
        <ele>19.7</ele>
        <time>2022-02-17T13:20:58Z</time>
      </trkpt>
      <trkpt lat="49.06767" lon="2.13654">
        <ele>19.4</ele>
        <time>2022-02-17T13:21:05Z</time>
      </trkpt>
      <trkpt lat="49.06768" lon="2.13647">
        <ele>19.2</ele>
        <time>2022-02-17T13:21:14Z</time>
      </trkpt>
      <trkpt lat="49.06767" lon="2.13639">
        <ele>18.2</ele>
        <time>2022-02-17T13:21:21Z</time>
      </trkpt>
      <trkpt lat="49.06766" lon="2.13631">
        <ele>18.3</ele>
        <time>2022-02-17T13:21:26Z</time>
      </trkpt>
      <trkpt lat="49.06766" lon="2.13624">
        <ele>17.8</ele>
        <time>2022-02-17T13:21:30Z</time>
      </trkpt>
      <trkpt lat="49.06766" lon="2.13616">
        <ele>17.1</ele>
        <time>2022-02-17T13:21:36Z</time>
      </trkpt>
      <trkpt lat="49.06767" lon="2.13609">
        <ele>16.3</ele>
        <time>2022-02-17T13:21:41Z</time>
      </trkpt>
      <trkpt lat="49.06767" lon="2.13601">
        <ele>15.9</ele>
        <time>2022-02-17T13:21:47Z</time>
      </trkpt>
      <trkpt lat="49.06767" lon="2.13593">
        <ele>18.9</ele>
        <time>2022-02-17T13:21:54Z</time>
      </trkpt>
      <trkpt lat="49.06766" lon="2.13586">
        <ele>18.1</ele>
        <time>2022-02-17T13:22:08Z</time>
      </trkpt>
      <trkpt lat="49.06765" lon="2.13578">
        <ele>15.3</ele>
        <time>2022-02-17T13:22:31Z</time>
      </trkpt>
      <trkpt lat="49.06765" lon="2.13571">
        <ele>15.5</ele>
        <time>2022-02-17T13:22:36Z</time>
      </trkpt>
      <trkpt lat="49.06766" lon="2.13562">
        <ele>15.8</ele>
        <time>2022-02-17T13:22:40Z</time>
      </trkpt>
      <trkpt lat="49.06764" lon="2.13556">
        <ele>16</ele>
        <time>2022-02-17T13:22:45Z</time>
      </trkpt>
      <trkpt lat="49.06763" lon="2.1355">
        <ele>16.7</ele>
        <time>2022-02-17T13:22:48Z</time>
      </trkpt>
      <trkpt lat="49.06765" lon="2.13542">
        <ele>17.5</ele>
        <time>2022-02-17T13:22:54Z</time>
      </trkpt>
      <trkpt lat="49.06766" lon="2.13534">
        <ele>17.4</ele>
        <time>2022-02-17T13:22:59Z</time>
      </trkpt>
      <trkpt lat="49.0677" lon="2.13538">
        <ele>13.6</ele>
        <time>2022-02-17T13:23:04Z</time>
      </trkpt>
      <trkpt lat="49.06773" lon="2.13532">
        <ele>12.3</ele>
        <time>2022-02-17T13:23:08Z</time>
      </trkpt>
      <trkpt lat="49.06774" lon="2.13523">
        <ele>12.9</ele>
        <time>2022-02-17T13:23:11Z</time>
      </trkpt>
      <trkpt lat="49.06772" lon="2.13515">
        <ele>14.2</ele>
        <time>2022-02-17T13:23:14Z</time>
      </trkpt>
      <trkpt lat="49.06771" lon="2.13508">
        <ele>15.3</ele>
        <time>2022-02-17T13:23:16Z</time>
      </trkpt>
      <trkpt lat="49.06771" lon="2.13501">
        <ele>16.7</ele>
        <time>2022-02-17T13:23:19Z</time>
      </trkpt>
      <trkpt lat="49.0677" lon="2.13494">
        <ele>18.1</ele>
        <time>2022-02-17T13:23:22Z</time>
      </trkpt>
      <trkpt lat="49.06768" lon="2.13485">
        <ele>18.6</ele>
        <time>2022-02-17T13:23:26Z</time>
      </trkpt>
      <trkpt lat="49.06767" lon="2.13477">
        <ele>18.9</ele>
        <time>2022-02-17T13:23:30Z</time>
      </trkpt>
      <trkpt lat="49.06766" lon="2.13471">
        <ele>19</ele>
        <time>2022-02-17T13:23:33Z</time>
      </trkpt>
      <trkpt lat="49.06765" lon="2.13464">
        <ele>19.7</ele>
        <time>2022-02-17T13:23:36Z</time>
      </trkpt>
      <trkpt lat="49.06764" lon="2.13455">
        <ele>20.1</ele>
        <time>2022-02-17T13:23:41Z</time>
      </trkpt>
      <trkpt lat="49.06765" lon="2.13447">
        <ele>19.2</ele>
        <time>2022-02-17T13:23:45Z</time>
      </trkpt>
      <trkpt lat="49.06765" lon="2.13439">
        <ele>17.8</ele>
        <time>2022-02-17T13:23:49Z</time>
      </trkpt>
      <trkpt lat="49.06765" lon="2.13432">
        <ele>17.6</ele>
        <time>2022-02-17T13:23:53Z</time>
      </trkpt>
      <trkpt lat="49.06764" lon="2.13423">
        <ele>18.1</ele>
        <time>2022-02-17T13:23:57Z</time>
      </trkpt>
      <trkpt lat="49.06763" lon="2.13415">
        <ele>19.2</ele>
        <time>2022-02-17T13:24:01Z</time>
      </trkpt>
      <trkpt lat="49.06762" lon="2.13408">
        <ele>19.8</ele>
        <time>2022-02-17T13:24:05Z</time>
      </trkpt>
      <trkpt lat="49.0676" lon="2.13399">
        <ele>20.5</ele>
        <time>2022-02-17T13:24:10Z</time>
      </trkpt>
      <trkpt lat="49.0676" lon="2.13392">
        <ele>20.4</ele>
        <time>2022-02-17T13:24:13Z</time>
      </trkpt>
      <trkpt lat="49.0676" lon="2.13384">
        <ele>19.5</ele>
        <time>2022-02-17T13:24:17Z</time>
      </trkpt>
      <trkpt lat="49.06759" lon="2.13376">
        <ele>18.3</ele>
        <time>2022-02-17T13:24:21Z</time>
      </trkpt>
      <trkpt lat="49.06758" lon="2.13367">
        <ele>17.9</ele>
        <time>2022-02-17T13:24:25Z</time>
      </trkpt>
      <trkpt lat="49.06757" lon="2.13359">
        <ele>18.1</ele>
        <time>2022-02-17T13:24:29Z</time>
      </trkpt>
      <trkpt lat="49.06755" lon="2.13352">
        <ele>19.1</ele>
        <time>2022-02-17T13:24:33Z</time>
      </trkpt>
      <trkpt lat="49.06753" lon="2.13345">
        <ele>20.2</ele>
        <time>2022-02-17T13:24:38Z</time>
      </trkpt>
      <trkpt lat="49.06751" lon="2.13338">
        <ele>20.8</ele>
        <time>2022-02-17T13:24:42Z</time>
      </trkpt>
      <trkpt lat="49.06749" lon="2.13331">
        <ele>22</ele>
        <time>2022-02-17T13:24:47Z</time>
      </trkpt>
      <trkpt lat="49.06747" lon="2.13324">
        <ele>23.2</ele>
        <time>2022-02-17T13:24:51Z</time>
      </trkpt>
      <trkpt lat="49.06745" lon="2.13315">
        <ele>22.9</ele>
        <time>2022-02-17T13:24:56Z</time>
      </trkpt>
      <trkpt lat="49.06745" lon="2.13308">
        <ele>22.4</ele>
        <time>2022-02-17T13:24:59Z</time>
      </trkpt>
      <trkpt lat="49.06744" lon="2.13301">
        <ele>22.3</ele>
        <time>2022-02-17T13:25:03Z</time>
      </trkpt>
      <trkpt lat="49.06742" lon="2.13294">
        <ele>22.1</ele>
        <time>2022-02-17T13:25:07Z</time>
      </trkpt>
      <trkpt lat="49.06741" lon="2.13287">
        <ele>22.3</ele>
        <time>2022-02-17T13:25:11Z</time>
      </trkpt>
      <trkpt lat="49.0674" lon="2.1328">
        <ele>22.9</ele>
        <time>2022-02-17T13:25:15Z</time>
      </trkpt>
      <trkpt lat="49.06739" lon="2.13273">
        <ele>22.7</ele>
        <time>2022-02-17T13:25:19Z</time>
      </trkpt>
      <trkpt lat="49.06737" lon="2.13265">
        <ele>22.2</ele>
        <time>2022-02-17T13:25:24Z</time>
      </trkpt>
      <trkpt lat="49.06736" lon="2.13258">
        <ele>22.5</ele>
        <time>2022-02-17T13:25:28Z</time>
      </trkpt>
      <trkpt lat="49.06734" lon="2.13252">
        <ele>22.4</ele>
        <time>2022-02-17T13:25:32Z</time>
      </trkpt>
      <trkpt lat="49.06731" lon="2.13246">
        <ele>22.1</ele>
        <time>2022-02-17T13:25:36Z</time>
      </trkpt>
      <trkpt lat="49.06728" lon="2.13241">
        <ele>21.4</ele>
        <time>2022-02-17T13:25:40Z</time>
      </trkpt>
      <trkpt lat="49.06725" lon="2.13235">
        <ele>21</ele>
        <time>2022-02-17T13:25:44Z</time>
      </trkpt>
      <trkpt lat="49.06723" lon="2.13228">
        <ele>20.7</ele>
        <time>2022-02-17T13:25:48Z</time>
      </trkpt>
      <trkpt lat="49.06721" lon="2.1322">
        <ele>20.5</ele>
        <time>2022-02-17T13:25:53Z</time>
      </trkpt>
      <trkpt lat="49.06719" lon="2.13213">
        <ele>19.6</ele>
        <time>2022-02-17T13:25:57Z</time>
      </trkpt>
      <trkpt lat="49.06719" lon="2.13205">
        <ele>18.5</ele>
        <time>2022-02-17T13:26:01Z</time>
      </trkpt>
      <trkpt lat="49.06718" lon="2.13198">
        <ele>17.7</ele>
        <time>2022-02-17T13:26:05Z</time>
      </trkpt>
      <trkpt lat="49.06718" lon="2.13191">
        <ele>17.5</ele>
        <time>2022-02-17T13:26:08Z</time>
      </trkpt>
      <trkpt lat="49.06716" lon="2.13182">
        <ele>17.6</ele>
        <time>2022-02-17T13:26:13Z</time>
      </trkpt>
      <trkpt lat="49.06716" lon="2.13175">
        <ele>16.4</ele>
        <time>2022-02-17T13:26:17Z</time>
      </trkpt>
      <trkpt lat="49.06717" lon="2.13168">
        <ele>14.9</ele>
        <time>2022-02-17T13:26:21Z</time>
      </trkpt>
      <trkpt lat="49.06716" lon="2.13159">
        <ele>14.7</ele>
        <time>2022-02-17T13:26:25Z</time>
      </trkpt>
      <trkpt lat="49.06714" lon="2.13153">
        <ele>15.6</ele>
        <time>2022-02-17T13:26:30Z</time>
      </trkpt>
      <trkpt lat="49.06711" lon="2.13147">
        <ele>16</ele>
        <time>2022-02-17T13:26:34Z</time>
      </trkpt>
      <trkpt lat="49.06709" lon="2.13141">
        <ele>15.7</ele>
        <time>2022-02-17T13:26:38Z</time>
      </trkpt>
      <trkpt lat="49.06705" lon="2.13135">
        <ele>15.4</ele>
        <time>2022-02-17T13:26:42Z</time>
      </trkpt>
      <trkpt lat="49.06702" lon="2.13129">
        <ele>15.1</ele>
        <time>2022-02-17T13:26:46Z</time>
      </trkpt>
      <trkpt lat="49.067" lon="2.13122">
        <ele>14.6</ele>
        <time>2022-02-17T13:26:49Z</time>
      </trkpt>
      <trkpt lat="49.06697" lon="2.13115">
        <ele>14.2</ele>
        <time>2022-02-17T13:26:53Z</time>
      </trkpt>
      <trkpt lat="49.06694" lon="2.13109">
        <ele>14.7</ele>
        <time>2022-02-17T13:26:57Z</time>
      </trkpt>
      <trkpt lat="49.06693" lon="2.13102">
        <ele>16.6</ele>
        <time>2022-02-17T13:27:01Z</time>
      </trkpt>
      <trkpt lat="49.0669" lon="2.13096">
        <ele>18.2</ele>
        <time>2022-02-17T13:27:05Z</time>
      </trkpt>
      <trkpt lat="49.06687" lon="2.1309">
        <ele>18.8</ele>
        <time>2022-02-17T13:27:09Z</time>
      </trkpt>
      <trkpt lat="49.06683" lon="2.13083">
        <ele>19.7</ele>
        <time>2022-02-17T13:27:13Z</time>
      </trkpt>
      <trkpt lat="49.06681" lon="2.13076">
        <ele>20.7</ele>
        <time>2022-02-17T13:27:17Z</time>
      </trkpt>
      <trkpt lat="49.06679" lon="2.13069">
        <ele>20.6</ele>
        <time>2022-02-17T13:27:21Z</time>
      </trkpt>
      <trkpt lat="49.06677" lon="2.13063">
        <ele>19.7</ele>
        <time>2022-02-17T13:27:25Z</time>
      </trkpt>
      <trkpt lat="49.06675" lon="2.13056">
        <ele>19.4</ele>
        <time>2022-02-17T13:27:29Z</time>
      </trkpt>
      <trkpt lat="49.06672" lon="2.13049">
        <ele>20</ele>
        <time>2022-02-17T13:27:34Z</time>
      </trkpt>
      <trkpt lat="49.06669" lon="2.13041">
        <ele>20.5</ele>
        <time>2022-02-17T13:27:39Z</time>
      </trkpt>
      <trkpt lat="49.06665" lon="2.13036">
        <ele>20.7</ele>
        <time>2022-02-17T13:27:43Z</time>
      </trkpt>
      <trkpt lat="49.06662" lon="2.1303">
        <ele>20.4</ele>
        <time>2022-02-17T13:27:47Z</time>
      </trkpt>
      <trkpt lat="49.06659" lon="2.13024">
        <ele>20.2</ele>
        <time>2022-02-17T13:27:51Z</time>
      </trkpt>
      <trkpt lat="49.06656" lon="2.13017">
        <ele>20</ele>
        <time>2022-02-17T13:27:55Z</time>
      </trkpt>
      <trkpt lat="49.06653" lon="2.13011">
        <ele>19.8</ele>
        <time>2022-02-17T13:28:00Z</time>
      </trkpt>
      <trkpt lat="49.06649" lon="2.13005">
        <ele>19.6</ele>
        <time>2022-02-17T13:28:04Z</time>
      </trkpt>
      <trkpt lat="49.06646" lon="2.13">
        <ele>19.8</ele>
        <time>2022-02-17T13:28:08Z</time>
      </trkpt>
      <trkpt lat="49.06642" lon="2.12995">
        <ele>19.3</ele>
        <time>2022-02-17T13:28:12Z</time>
      </trkpt>
      <trkpt lat="49.06638" lon="2.12989">
        <ele>18.6</ele>
        <time>2022-02-17T13:28:16Z</time>
      </trkpt>
      <trkpt lat="49.06634" lon="2.12985">
        <ele>18.6</ele>
        <time>2022-02-17T13:28:20Z</time>
      </trkpt>
      <trkpt lat="49.06629" lon="2.12981">
        <ele>19.8</ele>
        <time>2022-02-17T13:28:24Z</time>
      </trkpt>
      <trkpt lat="49.06625" lon="2.12976">
        <ele>20.3</ele>
        <time>2022-02-17T13:28:29Z</time>
      </trkpt>
      <trkpt lat="49.06621" lon="2.12971">
        <ele>20.9</ele>
        <time>2022-02-17T13:28:33Z</time>
      </trkpt>
      <trkpt lat="49.06617" lon="2.12966">
        <ele>20.6</ele>
        <time>2022-02-17T13:28:37Z</time>
      </trkpt>
      <trkpt lat="49.06615" lon="2.12959">
        <ele>20.4</ele>
        <time>2022-02-17T13:28:42Z</time>
      </trkpt>
      <trkpt lat="49.06612" lon="2.12951">
        <ele>20.4</ele>
        <time>2022-02-17T13:28:47Z</time>
      </trkpt>
      <trkpt lat="49.06607" lon="2.12952">
        <ele>18.4</ele>
        <time>2022-02-17T13:29:12Z</time>
      </trkpt>
      <trkpt lat="49.06601" lon="2.12952">
        <ele>16.9</ele>
        <time>2022-02-17T13:29:23Z</time>
      </trkpt>
      <trkpt lat="49.06596" lon="2.12949">
        <ele>16.4</ele>
        <time>2022-02-17T13:29:27Z</time>
      </trkpt>
      <trkpt lat="49.06592" lon="2.12945">
        <ele>16.3</ele>
        <time>2022-02-17T13:29:31Z</time>
      </trkpt>
      <trkpt lat="49.06588" lon="2.12941">
        <ele>16.7</ele>
        <time>2022-02-17T13:29:35Z</time>
      </trkpt>
      <trkpt lat="49.06582" lon="2.12937">
        <ele>17.1</ele>
        <time>2022-02-17T13:29:39Z</time>
      </trkpt>
      <trkpt lat="49.06578" lon="2.12935">
        <ele>17.1</ele>
        <time>2022-02-17T13:29:43Z</time>
      </trkpt>
      <trkpt lat="49.06573" lon="2.12933">
        <ele>16.7</ele>
        <time>2022-02-17T13:29:48Z</time>
      </trkpt>
      <trkpt lat="49.06568" lon="2.1293">
        <ele>16</ele>
        <time>2022-02-17T13:29:53Z</time>
      </trkpt>
      <trkpt lat="49.06565" lon="2.12924">
        <ele>13</ele>
        <time>2022-02-17T13:30:36Z</time>
      </trkpt>
      <trkpt lat="49.06563" lon="2.12918">
        <ele>13.1</ele>
        <time>2022-02-17T13:30:39Z</time>
      </trkpt>
      <trkpt lat="49.0656" lon="2.12912">
        <ele>13.7</ele>
        <time>2022-02-17T13:30:42Z</time>
      </trkpt>
      <trkpt lat="49.06555" lon="2.12907">
        <ele>13.5</ele>
        <time>2022-02-17T13:30:46Z</time>
      </trkpt>
      <trkpt lat="49.06551" lon="2.12903">
        <ele>12.8</ele>
        <time>2022-02-17T13:30:49Z</time>
      </trkpt>
      <trkpt lat="49.06545" lon="2.129">
        <ele>11.2</ele>
        <time>2022-02-17T13:30:53Z</time>
      </trkpt>
      <trkpt lat="49.0654" lon="2.12896">
        <ele>11.1</ele>
        <time>2022-02-17T13:30:56Z</time>
      </trkpt>
      <trkpt lat="49.06535" lon="2.12894">
        <ele>12.1</ele>
        <time>2022-02-17T13:31:00Z</time>
      </trkpt>
      <trkpt lat="49.06531" lon="2.1289">
        <ele>13.7</ele>
        <time>2022-02-17T13:31:04Z</time>
      </trkpt>
      <trkpt lat="49.06526" lon="2.12884">
        <ele>14.3</ele>
        <time>2022-02-17T13:31:08Z</time>
      </trkpt>
      <trkpt lat="49.06522" lon="2.12879">
        <ele>14.6</ele>
        <time>2022-02-17T13:31:12Z</time>
      </trkpt>
      <trkpt lat="49.06517" lon="2.12875">
        <ele>14.7</ele>
        <time>2022-02-17T13:31:16Z</time>
      </trkpt>
      <trkpt lat="49.06512" lon="2.12872">
        <ele>15.2</ele>
        <time>2022-02-17T13:31:20Z</time>
      </trkpt>
      <trkpt lat="49.06508" lon="2.12869">
        <ele>16.6</ele>
        <time>2022-02-17T13:31:24Z</time>
      </trkpt>
      <trkpt lat="49.06504" lon="2.12865">
        <ele>17.4</ele>
        <time>2022-02-17T13:31:28Z</time>
      </trkpt>
      <trkpt lat="49.06501" lon="2.12859">
        <ele>16.7</ele>
        <time>2022-02-17T13:31:33Z</time>
      </trkpt>
      <trkpt lat="49.06499" lon="2.12852">
        <ele>16.2</ele>
        <time>2022-02-17T13:31:37Z</time>
      </trkpt>
      <trkpt lat="49.06494" lon="2.12849">
        <ele>16.3</ele>
        <time>2022-02-17T13:31:41Z</time>
      </trkpt>
      <trkpt lat="49.06491" lon="2.12842">
        <ele>16.3</ele>
        <time>2022-02-17T13:31:45Z</time>
      </trkpt>
      <trkpt lat="49.0649" lon="2.12833">
        <ele>15.5</ele>
        <time>2022-02-17T13:31:50Z</time>
      </trkpt>
      <trkpt lat="49.06489" lon="2.12825">
        <ele>14.1</ele>
        <time>2022-02-17T13:31:54Z</time>
      </trkpt>
      <trkpt lat="49.06487" lon="2.12818">
        <ele>12.5</ele>
        <time>2022-02-17T13:31:58Z</time>
      </trkpt>
      <trkpt lat="49.06484" lon="2.12811">
        <ele>11.9</ele>
        <time>2022-02-17T13:32:02Z</time>
      </trkpt>
      <trkpt lat="49.06483" lon="2.12803">
        <ele>12.5</ele>
        <time>2022-02-17T13:32:06Z</time>
      </trkpt>
      <trkpt lat="49.0648" lon="2.12796">
        <ele>14.2</ele>
        <time>2022-02-17T13:32:12Z</time>
      </trkpt>
      <trkpt lat="49.06478" lon="2.1279">
        <ele>15.3</ele>
        <time>2022-02-17T13:32:17Z</time>
      </trkpt>
      <trkpt lat="49.06473" lon="2.12784">
        <ele>15.9</ele>
        <time>2022-02-17T13:32:22Z</time>
      </trkpt>
      <trkpt lat="49.06472" lon="2.12778">
        <ele>16.1</ele>
        <time>2022-02-17T13:32:26Z</time>
      </trkpt>
      <trkpt lat="49.06471" lon="2.12771">
        <ele>16.9</ele>
        <time>2022-02-17T13:32:30Z</time>
      </trkpt>
      <trkpt lat="49.06469" lon="2.12764">
        <ele>16.9</ele>
        <time>2022-02-17T13:32:34Z</time>
      </trkpt>
      <trkpt lat="49.06467" lon="2.12756">
        <ele>15.9</ele>
        <time>2022-02-17T13:32:38Z</time>
      </trkpt>
      <trkpt lat="49.06464" lon="2.1275">
        <ele>14.9</ele>
        <time>2022-02-17T13:32:42Z</time>
      </trkpt>
      <trkpt lat="49.06461" lon="2.12745">
        <ele>14.4</ele>
        <time>2022-02-17T13:32:46Z</time>
      </trkpt>
      <trkpt lat="49.06458" lon="2.12739">
        <ele>14.8</ele>
        <time>2022-02-17T13:32:50Z</time>
      </trkpt>
      <trkpt lat="49.06456" lon="2.12732">
        <ele>16.2</ele>
        <time>2022-02-17T13:32:53Z</time>
      </trkpt>
      <trkpt lat="49.06456" lon="2.12724">
        <ele>18.2</ele>
        <time>2022-02-17T13:32:58Z</time>
      </trkpt>
      <trkpt lat="49.06454" lon="2.12716">
        <ele>19.1</ele>
        <time>2022-02-17T13:33:02Z</time>
      </trkpt>
      <trkpt lat="49.0645" lon="2.12712">
        <ele>20</ele>
        <time>2022-02-17T13:33:08Z</time>
      </trkpt>
      <trkpt lat="49.06447" lon="2.12702">
        <ele>21</ele>
        <time>2022-02-17T13:33:16Z</time>
      </trkpt>
      <trkpt lat="49.06444" lon="2.12695">
        <ele>21.1</ele>
        <time>2022-02-17T13:33:19Z</time>
      </trkpt>
      <trkpt lat="49.06442" lon="2.12688">
        <ele>20.9</ele>
        <time>2022-02-17T13:33:23Z</time>
      </trkpt>
      <trkpt lat="49.06439" lon="2.12682">
        <ele>20.6</ele>
        <time>2022-02-17T13:33:28Z</time>
      </trkpt>
      <trkpt lat="49.06436" lon="2.12675">
        <ele>20.3</ele>
        <time>2022-02-17T13:33:32Z</time>
      </trkpt>
      <trkpt lat="49.06433" lon="2.12669">
        <ele>19.9</ele>
        <time>2022-02-17T13:33:36Z</time>
      </trkpt>
      <trkpt lat="49.0643" lon="2.12663">
        <ele>19.6</ele>
        <time>2022-02-17T13:33:41Z</time>
      </trkpt>
      <trkpt lat="49.06428" lon="2.12657">
        <ele>19.6</ele>
        <time>2022-02-17T13:33:45Z</time>
      </trkpt>
      <trkpt lat="49.06426" lon="2.12649">
        <ele>19.5</ele>
        <time>2022-02-17T13:33:50Z</time>
      </trkpt>
      <trkpt lat="49.06423" lon="2.12642">
        <ele>19.6</ele>
        <time>2022-02-17T13:33:58Z</time>
      </trkpt>
      <trkpt lat="49.06421" lon="2.12635">
        <ele>19.1</ele>
        <time>2022-02-17T13:34:03Z</time>
      </trkpt>
      <trkpt lat="49.06419" lon="2.12628">
        <ele>17.9</ele>
        <time>2022-02-17T13:34:07Z</time>
      </trkpt>
      <trkpt lat="49.06416" lon="2.12621">
        <ele>17.5</ele>
        <time>2022-02-17T13:34:11Z</time>
      </trkpt>
      <trkpt lat="49.06413" lon="2.12616">
        <ele>17.8</ele>
        <time>2022-02-17T13:34:14Z</time>
      </trkpt>
      <trkpt lat="49.0641" lon="2.12609">
        <ele>17.9</ele>
        <time>2022-02-17T13:34:18Z</time>
      </trkpt>
      <trkpt lat="49.06409" lon="2.12602">
        <ele>17.4</ele>
        <time>2022-02-17T13:34:23Z</time>
      </trkpt>
      <trkpt lat="49.06406" lon="2.12595">
        <ele>17</ele>
        <time>2022-02-17T13:34:27Z</time>
      </trkpt>
      <trkpt lat="49.06404" lon="2.12589">
        <ele>16.7</ele>
        <time>2022-02-17T13:34:31Z</time>
      </trkpt>
      <trkpt lat="49.06401" lon="2.12582">
        <ele>16.8</ele>
        <time>2022-02-17T13:34:34Z</time>
      </trkpt>
      <trkpt lat="49.06399" lon="2.12574">
        <ele>14.3</ele>
        <time>2022-02-17T13:35:08Z</time>
      </trkpt>
      <trkpt lat="49.06396" lon="2.12568">
        <ele>14.1</ele>
        <time>2022-02-17T13:35:12Z</time>
      </trkpt>
      <trkpt lat="49.06395" lon="2.12561">
        <ele>14</ele>
        <time>2022-02-17T13:35:15Z</time>
      </trkpt>
      <trkpt lat="49.06392" lon="2.12555">
        <ele>14.4</ele>
        <time>2022-02-17T13:35:19Z</time>
      </trkpt>
      <trkpt lat="49.06388" lon="2.12551">
        <ele>15</ele>
        <time>2022-02-17T13:35:23Z</time>
      </trkpt>
      <trkpt lat="49.06385" lon="2.12546">
        <ele>15.8</ele>
        <time>2022-02-17T13:35:29Z</time>
      </trkpt>
      <trkpt lat="49.06382" lon="2.12539">
        <ele>15.9</ele>
        <time>2022-02-17T13:35:34Z</time>
      </trkpt>
      <trkpt lat="49.06379" lon="2.12533">
        <ele>15.8</ele>
        <time>2022-02-17T13:35:37Z</time>
      </trkpt>
      <trkpt lat="49.06377" lon="2.12526">
        <ele>15.7</ele>
        <time>2022-02-17T13:35:42Z</time>
      </trkpt>
      <trkpt lat="49.06373" lon="2.12522">
        <ele>16</ele>
        <time>2022-02-17T13:35:45Z</time>
      </trkpt>
      <trkpt lat="49.06369" lon="2.12518">
        <ele>16.6</ele>
        <time>2022-02-17T13:35:50Z</time>
      </trkpt>
      <trkpt lat="49.06365" lon="2.12511">
        <ele>16.7</ele>
        <time>2022-02-17T13:35:55Z</time>
      </trkpt>
      <trkpt lat="49.06361" lon="2.12504">
        <ele>16.6</ele>
        <time>2022-02-17T13:36:00Z</time>
      </trkpt>
      <trkpt lat="49.06358" lon="2.12498">
        <ele>15.8</ele>
        <time>2022-02-17T13:36:03Z</time>
      </trkpt>
      <trkpt lat="49.06354" lon="2.12492">
        <ele>15.2</ele>
        <time>2022-02-17T13:36:07Z</time>
      </trkpt>
      <trkpt lat="49.06351" lon="2.12485">
        <ele>15.7</ele>
        <time>2022-02-17T13:36:12Z</time>
      </trkpt>
      <trkpt lat="49.06348" lon="2.12478">
        <ele>16.2</ele>
        <time>2022-02-17T13:36:15Z</time>
      </trkpt>
      <trkpt lat="49.06345" lon="2.12473">
        <ele>16.3</ele>
        <time>2022-02-17T13:36:18Z</time>
      </trkpt>
      <trkpt lat="49.06341" lon="2.12467">
        <ele>15.4</ele>
        <time>2022-02-17T13:36:23Z</time>
      </trkpt>
      <trkpt lat="49.06338" lon="2.12461">
        <ele>14.8</ele>
        <time>2022-02-17T13:36:27Z</time>
      </trkpt>
      <trkpt lat="49.06335" lon="2.12456">
        <ele>14.7</ele>
        <time>2022-02-17T13:36:31Z</time>
      </trkpt>
      <trkpt lat="49.06332" lon="2.1245">
        <ele>14.7</ele>
        <time>2022-02-17T13:36:35Z</time>
      </trkpt>
      <trkpt lat="49.06329" lon="2.12444">
        <ele>15.1</ele>
        <time>2022-02-17T13:36:39Z</time>
      </trkpt>
      <trkpt lat="49.06326" lon="2.12438">
        <ele>15</ele>
        <time>2022-02-17T13:36:45Z</time>
      </trkpt>
      <trkpt lat="49.06323" lon="2.12433">
        <ele>15.2</ele>
        <time>2022-02-17T13:36:49Z</time>
      </trkpt>
      <trkpt lat="49.06319" lon="2.12427">
        <ele>15.9</ele>
        <time>2022-02-17T13:36:54Z</time>
      </trkpt>
      <trkpt lat="49.06316" lon="2.12421">
        <ele>16.7</ele>
        <time>2022-02-17T13:36:58Z</time>
      </trkpt>
      <trkpt lat="49.06315" lon="2.12414">
        <ele>17.5</ele>
        <time>2022-02-17T13:37:04Z</time>
      </trkpt>
      <trkpt lat="49.06319" lon="2.1241">
        <ele>18.8</ele>
        <time>2022-02-17T13:37:18Z</time>
      </trkpt>
      <trkpt lat="49.06322" lon="2.12405">
        <ele>19</ele>
        <time>2022-02-17T13:37:22Z</time>
      </trkpt>
      <trkpt lat="49.06327" lon="2.12405">
        <ele>18.7</ele>
        <time>2022-02-17T13:37:24Z</time>
      </trkpt>
      <trkpt lat="49.06331" lon="2.124">
        <ele>18.3</ele>
        <time>2022-02-17T13:37:27Z</time>
      </trkpt>
      <trkpt lat="49.06336" lon="2.12393">
        <ele>17.7</ele>
        <time>2022-02-17T13:37:33Z</time>
      </trkpt>
      <trkpt lat="49.0634" lon="2.12387">
        <ele>17.2</ele>
        <time>2022-02-17T13:37:37Z</time>
      </trkpt>
      <trkpt lat="49.06344" lon="2.12382">
        <ele>16.7</ele>
        <time>2022-02-17T13:37:41Z</time>
      </trkpt>
      <trkpt lat="49.06348" lon="2.12378">
        <ele>16.6</ele>
        <time>2022-02-17T13:37:45Z</time>
      </trkpt>
      <trkpt lat="49.06352" lon="2.12373">
        <ele>16.4</ele>
        <time>2022-02-17T13:37:48Z</time>
      </trkpt>
      <trkpt lat="49.06356" lon="2.12368">
        <ele>16.8</ele>
        <time>2022-02-17T13:37:52Z</time>
      </trkpt>
      <trkpt lat="49.06362" lon="2.12366">
        <ele>18.2</ele>
        <time>2022-02-17T13:37:57Z</time>
      </trkpt>
      <trkpt lat="49.06365" lon="2.12361">
        <ele>19.7</ele>
        <time>2022-02-17T13:38:02Z</time>
      </trkpt>
      <trkpt lat="49.06367" lon="2.12353">
        <ele>20.7</ele>
        <time>2022-02-17T13:38:05Z</time>
      </trkpt>
      <trkpt lat="49.0637" lon="2.12347">
        <ele>21.2</ele>
        <time>2022-02-17T13:38:09Z</time>
      </trkpt>
      <trkpt lat="49.06374" lon="2.12342">
        <ele>21</ele>
        <time>2022-02-17T13:38:14Z</time>
      </trkpt>
      <trkpt lat="49.06377" lon="2.12336">
        <ele>20.3</ele>
        <time>2022-02-17T13:38:19Z</time>
      </trkpt>
      <trkpt lat="49.06381" lon="2.1233">
        <ele>20.2</ele>
        <time>2022-02-17T13:38:23Z</time>
      </trkpt>
      <trkpt lat="49.06384" lon="2.12324">
        <ele>20.5</ele>
        <time>2022-02-17T13:38:28Z</time>
      </trkpt>
      <trkpt lat="49.06387" lon="2.12318">
        <ele>21</ele>
        <time>2022-02-17T13:38:32Z</time>
      </trkpt>
      <trkpt lat="49.06391" lon="2.12312">
        <ele>21.3</ele>
        <time>2022-02-17T13:38:36Z</time>
      </trkpt>
      <trkpt lat="49.06394" lon="2.12306">
        <ele>20.6</ele>
        <time>2022-02-17T13:38:40Z</time>
      </trkpt>
      <trkpt lat="49.06397" lon="2.12301">
        <ele>19.3</ele>
        <time>2022-02-17T13:38:45Z</time>
      </trkpt>
      <trkpt lat="49.06399" lon="2.12293">
        <ele>19.4</ele>
        <time>2022-02-17T13:38:50Z</time>
      </trkpt>
      <trkpt lat="49.06401" lon="2.12285">
        <ele>21.8</ele>
        <time>2022-02-17T13:38:55Z</time>
      </trkpt>
      <trkpt lat="49.064" lon="2.12276">
        <ele>23.4</ele>
        <time>2022-02-17T13:38:59Z</time>
      </trkpt>
      <trkpt lat="49.06396" lon="2.12272">
        <ele>22.8</ele>
        <time>2022-02-17T13:39:05Z</time>
      </trkpt>
      <trkpt lat="49.06393" lon="2.12266">
        <ele>22</ele>
        <time>2022-02-17T13:39:07Z</time>
      </trkpt>
      <trkpt lat="49.06389" lon="2.12259">
        <ele>21.5</ele>
        <time>2022-02-17T13:39:11Z</time>
      </trkpt>
      <trkpt lat="49.06385" lon="2.12253">
        <ele>21.9</ele>
        <time>2022-02-17T13:39:16Z</time>
      </trkpt>
      <trkpt lat="49.06382" lon="2.12246">
        <ele>22.5</ele>
        <time>2022-02-17T13:39:20Z</time>
      </trkpt>
      <trkpt lat="49.06379" lon="2.12239">
        <ele>23</ele>
        <time>2022-02-17T13:39:24Z</time>
      </trkpt>
      <trkpt lat="49.06375" lon="2.12232">
        <ele>23.1</ele>
        <time>2022-02-17T13:39:28Z</time>
      </trkpt>
      <trkpt lat="49.06373" lon="2.12227">
        <ele>23.1</ele>
        <time>2022-02-17T13:39:32Z</time>
      </trkpt>
      <trkpt lat="49.06369" lon="2.12221">
        <ele>23.1</ele>
        <time>2022-02-17T13:39:36Z</time>
      </trkpt>
      <trkpt lat="49.06367" lon="2.12215">
        <ele>22.8</ele>
        <time>2022-02-17T13:39:40Z</time>
      </trkpt>
      <trkpt lat="49.06364" lon="2.12209">
        <ele>22.9</ele>
        <time>2022-02-17T13:39:44Z</time>
      </trkpt>
      <trkpt lat="49.0636" lon="2.12202">
        <ele>23.5</ele>
        <time>2022-02-17T13:39:47Z</time>
      </trkpt>
      <trkpt lat="49.06358" lon="2.12196">
        <ele>23.6</ele>
        <time>2022-02-17T13:39:51Z</time>
      </trkpt>
      <trkpt lat="49.06355" lon="2.12189">
        <ele>23.5</ele>
        <time>2022-02-17T13:39:55Z</time>
      </trkpt>
      <trkpt lat="49.06352" lon="2.12183">
        <ele>23.7</ele>
        <time>2022-02-17T13:40:00Z</time>
      </trkpt>
      <trkpt lat="49.06349" lon="2.12178">
        <ele>24.1</ele>
        <time>2022-02-17T13:40:04Z</time>
      </trkpt>
      <trkpt lat="49.06346" lon="2.12171">
        <ele>24.7</ele>
        <time>2022-02-17T13:40:08Z</time>
      </trkpt>
      <trkpt lat="49.06343" lon="2.12162">
        <ele>25.2</ele>
        <time>2022-02-17T13:40:13Z</time>
      </trkpt>
      <trkpt lat="49.06339" lon="2.12156">
        <ele>26.5</ele>
        <time>2022-02-17T13:40:18Z</time>
      </trkpt>
      <trkpt lat="49.06335" lon="2.12151">
        <ele>27.7</ele>
        <time>2022-02-17T13:40:22Z</time>
      </trkpt>
      <trkpt lat="49.06331" lon="2.12144">
        <ele>28</ele>
        <time>2022-02-17T13:40:26Z</time>
      </trkpt>
      <trkpt lat="49.06327" lon="2.12139">
        <ele>28.3</ele>
        <time>2022-02-17T13:40:30Z</time>
      </trkpt>
      <trkpt lat="49.06323" lon="2.12135">
        <ele>28</ele>
        <time>2022-02-17T13:40:34Z</time>
      </trkpt>
      <trkpt lat="49.0632" lon="2.1213">
        <ele>27.3</ele>
        <time>2022-02-17T13:40:38Z</time>
      </trkpt>
      <trkpt lat="49.06317" lon="2.12125">
        <ele>26.8</ele>
        <time>2022-02-17T13:40:42Z</time>
      </trkpt>
      <trkpt lat="49.06314" lon="2.12119">
        <ele>26.3</ele>
        <time>2022-02-17T13:40:46Z</time>
      </trkpt>
      <trkpt lat="49.06311" lon="2.12112">
        <ele>26.1</ele>
        <time>2022-02-17T13:40:51Z</time>
      </trkpt>
      <trkpt lat="49.06307" lon="2.12106">
        <ele>26.7</ele>
        <time>2022-02-17T13:40:55Z</time>
      </trkpt>
      <trkpt lat="49.06305" lon="2.121">
        <ele>27.2</ele>
        <time>2022-02-17T13:40:59Z</time>
      </trkpt>
      <trkpt lat="49.06302" lon="2.12093">
        <ele>26.6</ele>
        <time>2022-02-17T13:41:03Z</time>
      </trkpt>
      <trkpt lat="49.06298" lon="2.12088">
        <ele>25.8</ele>
        <time>2022-02-17T13:41:07Z</time>
      </trkpt>
      <trkpt lat="49.06293" lon="2.12088">
        <ele>25.7</ele>
        <time>2022-02-17T13:41:12Z</time>
      </trkpt>
      <trkpt lat="49.06289" lon="2.12082">
        <ele>25.6</ele>
        <time>2022-02-17T13:41:15Z</time>
      </trkpt>
      <trkpt lat="49.06287" lon="2.12075">
        <ele>25.6</ele>
        <time>2022-02-17T13:41:19Z</time>
      </trkpt>
      <trkpt lat="49.06284" lon="2.12069">
        <ele>25.6</ele>
        <time>2022-02-17T13:41:23Z</time>
      </trkpt>
      <trkpt lat="49.06281" lon="2.12063">
        <ele>25.7</ele>
        <time>2022-02-17T13:41:27Z</time>
      </trkpt>
      <trkpt lat="49.06278" lon="2.12057">
        <ele>26.1</ele>
        <time>2022-02-17T13:41:30Z</time>
      </trkpt>
      <trkpt lat="49.06274" lon="2.12052">
        <ele>26.8</ele>
        <time>2022-02-17T13:41:35Z</time>
      </trkpt>
      <trkpt lat="49.0627" lon="2.12047">
        <ele>27.4</ele>
        <time>2022-02-17T13:41:39Z</time>
      </trkpt>
      <trkpt lat="49.06266" lon="2.12042">
        <ele>27.3</ele>
        <time>2022-02-17T13:41:43Z</time>
      </trkpt>
      <trkpt lat="49.06263" lon="2.12037">
        <ele>26.5</ele>
        <time>2022-02-17T13:41:47Z</time>
      </trkpt>
      <trkpt lat="49.06259" lon="2.12033">
        <ele>26.3</ele>
        <time>2022-02-17T13:41:51Z</time>
      </trkpt>
      <trkpt lat="49.06254" lon="2.12027">
        <ele>26.4</ele>
        <time>2022-02-17T13:41:54Z</time>
      </trkpt>
      <trkpt lat="49.06251" lon="2.12022">
        <ele>26.3</ele>
        <time>2022-02-17T13:41:58Z</time>
      </trkpt>
      <trkpt lat="49.06247" lon="2.12016">
        <ele>26.3</ele>
        <time>2022-02-17T13:42:02Z</time>
      </trkpt>
      <trkpt lat="49.06243" lon="2.12012">
        <ele>26.2</ele>
        <time>2022-02-17T13:42:07Z</time>
      </trkpt>
      <trkpt lat="49.0624" lon="2.12004">
        <ele>26.2</ele>
        <time>2022-02-17T13:42:13Z</time>
      </trkpt>
      <trkpt lat="49.06239" lon="2.11998">
        <ele>26</ele>
        <time>2022-02-17T13:42:17Z</time>
      </trkpt>
      <trkpt lat="49.0624" lon="2.1199">
        <ele>26.2</ele>
        <time>2022-02-17T13:42:23Z</time>
      </trkpt>
      <trkpt lat="49.06238" lon="2.11983">
        <ele>28</ele>
        <time>2022-02-17T13:42:28Z</time>
      </trkpt>
      <trkpt lat="49.06236" lon="2.11976">
        <ele>30.7</ele>
        <time>2022-02-17T13:42:34Z</time>
      </trkpt>
      <trkpt lat="49.06237" lon="2.11968">
        <ele>31.7</ele>
        <time>2022-02-17T13:42:38Z</time>
      </trkpt>
      <trkpt lat="49.0624" lon="2.11961">
        <ele>30.7</ele>
        <time>2022-02-17T13:42:43Z</time>
      </trkpt>
      <trkpt lat="49.0624" lon="2.11954">
        <ele>28.8</ele>
        <time>2022-02-17T13:42:47Z</time>
      </trkpt>
      <trkpt lat="49.06237" lon="2.11949">
        <ele>27.5</ele>
        <time>2022-02-17T13:42:51Z</time>
      </trkpt>
      <trkpt lat="49.06231" lon="2.11946">
        <ele>27.4</ele>
        <time>2022-02-17T13:42:55Z</time>
      </trkpt>
      <trkpt lat="49.06227" lon="2.11942">
        <ele>27.1</ele>
        <time>2022-02-17T13:43:00Z</time>
      </trkpt>
      <trkpt lat="49.06224" lon="2.11937">
        <ele>26.7</ele>
        <time>2022-02-17T13:43:05Z</time>
      </trkpt>
      <trkpt lat="49.0622" lon="2.11931">
        <ele>26.9</ele>
        <time>2022-02-17T13:43:10Z</time>
      </trkpt>
      <trkpt lat="49.06217" lon="2.11926">
        <ele>27.7</ele>
        <time>2022-02-17T13:43:16Z</time>
      </trkpt>
      <trkpt lat="49.06214" lon="2.1192">
        <ele>27.5</ele>
        <time>2022-02-17T13:43:22Z</time>
      </trkpt>
      <trkpt lat="49.06212" lon="2.11912">
        <ele>27.6</ele>
        <time>2022-02-17T13:43:27Z</time>
      </trkpt>
      <trkpt lat="49.06211" lon="2.11904">
        <ele>27.1</ele>
        <time>2022-02-17T13:43:33Z</time>
      </trkpt>
      <trkpt lat="49.06209" lon="2.11897">
        <ele>25.7</ele>
        <time>2022-02-17T13:43:40Z</time>
      </trkpt>
      <trkpt lat="49.06208" lon="2.11889">
        <ele>27</ele>
        <time>2022-02-17T13:43:45Z</time>
      </trkpt>
      <trkpt lat="49.06207" lon="2.11882">
        <ele>29</ele>
        <time>2022-02-17T13:43:50Z</time>
      </trkpt>
      <trkpt lat="49.06206" lon="2.11875">
        <ele>32</ele>
        <time>2022-02-17T13:43:55Z</time>
      </trkpt>
      <trkpt lat="49.06205" lon="2.11868">
        <ele>34.7</ele>
        <time>2022-02-17T13:43:59Z</time>
      </trkpt>
      <trkpt lat="49.06204" lon="2.11859">
        <ele>37.7</ele>
        <time>2022-02-17T13:44:04Z</time>
      </trkpt>
      <trkpt lat="49.06202" lon="2.11852">
        <ele>41.5</ele>
        <time>2022-02-17T13:44:09Z</time>
      </trkpt>
      <trkpt lat="49.062" lon="2.11843">
        <ele>42.6</ele>
        <time>2022-02-17T13:44:14Z</time>
      </trkpt>
      <trkpt lat="49.06198" lon="2.11836">
        <ele>41.1</ele>
        <time>2022-02-17T13:44:20Z</time>
      </trkpt>
      <trkpt lat="49.06195" lon="2.11829">
        <ele>39.7</ele>
        <time>2022-02-17T13:44:25Z</time>
      </trkpt>
      <trkpt lat="49.06193" lon="2.11823">
        <ele>40.1</ele>
        <time>2022-02-17T13:44:29Z</time>
      </trkpt>
      <trkpt lat="49.0619" lon="2.11815">
        <ele>41.7</ele>
        <time>2022-02-17T13:44:35Z</time>
      </trkpt>
      <trkpt lat="49.06187" lon="2.1181">
        <ele>41.6</ele>
        <time>2022-02-17T13:44:40Z</time>
      </trkpt>
      <trkpt lat="49.06184" lon="2.11804">
        <ele>42.8</ele>
        <time>2022-02-17T13:44:45Z</time>
      </trkpt>
      <trkpt lat="49.06182" lon="2.11797">
        <ele>45.3</ele>
        <time>2022-02-17T13:44:51Z</time>
      </trkpt>
      <trkpt lat="49.06179" lon="2.1179">
        <ele>46.6</ele>
        <time>2022-02-17T13:44:58Z</time>
      </trkpt>
      <trkpt lat="49.06177" lon="2.11782">
        <ele>47.3</ele>
        <time>2022-02-17T13:45:03Z</time>
      </trkpt>
      <trkpt lat="49.06175" lon="2.11776">
        <ele>47.8</ele>
        <time>2022-02-17T13:45:09Z</time>
      </trkpt>
      <trkpt lat="49.06173" lon="2.11768">
        <ele>48.6</ele>
        <time>2022-02-17T13:45:15Z</time>
      </trkpt>
      <trkpt lat="49.06171" lon="2.11762">
        <ele>48.3</ele>
        <time>2022-02-17T13:45:22Z</time>
      </trkpt>
      <trkpt lat="49.06166" lon="2.11758">
        <ele>47.6</ele>
        <time>2022-02-17T13:45:27Z</time>
      </trkpt>
      <trkpt lat="49.06162" lon="2.11752">
        <ele>48</ele>
        <time>2022-02-17T13:45:33Z</time>
      </trkpt>
      <trkpt lat="49.06159" lon="2.11745">
        <ele>48.2</ele>
        <time>2022-02-17T13:45:39Z</time>
      </trkpt>
      <trkpt lat="49.06156" lon="2.11739">
        <ele>47.8</ele>
        <time>2022-02-17T13:45:44Z</time>
      </trkpt>
      <trkpt lat="49.06152" lon="2.11734">
        <ele>47.6</ele>
        <time>2022-02-17T13:45:48Z</time>
      </trkpt>
      <trkpt lat="49.06149" lon="2.11727">
        <ele>49.9</ele>
        <time>2022-02-17T13:45:54Z</time>
      </trkpt>
      <trkpt lat="49.06148" lon="2.1172">
        <ele>52.2</ele>
        <time>2022-02-17T13:45:59Z</time>
      </trkpt>
      <trkpt lat="49.06153" lon="2.11722">
        <ele>51.1</ele>
        <time>2022-02-17T13:46:04Z</time>
      </trkpt>
      <trkpt lat="49.0615" lon="2.11717">
        <ele>50.5</ele>
        <time>2022-02-17T13:47:47Z</time>
      </trkpt>
      <trkpt lat="49.06145" lon="2.11712">
        <ele>51.9</ele>
        <time>2022-02-17T13:54:46Z</time>
      </trkpt>
      <trkpt lat="49.06143" lon="2.11706">
        <ele>51.9</ele>
        <time>2022-02-17T13:54:49Z</time>
      </trkpt>
      <trkpt lat="49.06141" lon="2.11699">
        <ele>51.7</ele>
        <time>2022-02-17T13:54:53Z</time>
      </trkpt>
      <trkpt lat="49.06138" lon="2.11693">
        <ele>51.5</ele>
        <time>2022-02-17T13:54:58Z</time>
      </trkpt>
      <trkpt lat="49.06135" lon="2.11687">
        <ele>51.4</ele>
        <time>2022-02-17T13:55:02Z</time>
      </trkpt>
      <trkpt lat="49.06131" lon="2.11682">
        <ele>51.1</ele>
        <time>2022-02-17T13:55:05Z</time>
      </trkpt>
      <trkpt lat="49.06127" lon="2.11679">
        <ele>51.4</ele>
        <time>2022-02-17T13:55:08Z</time>
      </trkpt>
      <trkpt lat="49.06124" lon="2.11674">
        <ele>52.4</ele>
        <time>2022-02-17T13:55:12Z</time>
      </trkpt>
      <trkpt lat="49.0612" lon="2.11667">
        <ele>53</ele>
        <time>2022-02-17T13:55:15Z</time>
      </trkpt>
      <trkpt lat="49.06117" lon="2.1166">
        <ele>52.6</ele>
        <time>2022-02-17T13:55:20Z</time>
      </trkpt>
      <trkpt lat="49.06114" lon="2.11655">
        <ele>52</ele>
        <time>2022-02-17T13:55:25Z</time>
      </trkpt>
      <trkpt lat="49.0611" lon="2.11648">
        <ele>52.5</ele>
        <time>2022-02-17T13:55:30Z</time>
      </trkpt>
      <trkpt lat="49.06108" lon="2.1164">
        <ele>54.1</ele>
        <time>2022-02-17T13:55:34Z</time>
      </trkpt>
      <trkpt lat="49.06107" lon="2.11633">
        <ele>55.4</ele>
        <time>2022-02-17T13:55:38Z</time>
      </trkpt>
      <trkpt lat="49.06105" lon="2.11626">
        <ele>55.6</ele>
        <time>2022-02-17T13:55:42Z</time>
      </trkpt>
      <trkpt lat="49.06104" lon="2.11619">
        <ele>55.5</ele>
        <time>2022-02-17T13:55:46Z</time>
      </trkpt>
      <trkpt lat="49.06103" lon="2.11611">
        <ele>55.6</ele>
        <time>2022-02-17T13:55:50Z</time>
      </trkpt>
      <trkpt lat="49.06101" lon="2.11605">
        <ele>55.7</ele>
        <time>2022-02-17T13:55:53Z</time>
      </trkpt>
      <trkpt lat="49.06099" lon="2.11597">
        <ele>56.3</ele>
        <time>2022-02-17T13:55:58Z</time>
      </trkpt>
      <trkpt lat="49.06095" lon="2.11593">
        <ele>56.7</ele>
        <time>2022-02-17T13:56:02Z</time>
      </trkpt>
      <trkpt lat="49.06089" lon="2.11588">
        <ele>56.5</ele>
        <time>2022-02-17T13:56:07Z</time>
      </trkpt>
      <trkpt lat="49.06086" lon="2.11582">
        <ele>56.1</ele>
        <time>2022-02-17T13:56:11Z</time>
      </trkpt>
      <trkpt lat="49.06081" lon="2.11576">
        <ele>55.8</ele>
        <time>2022-02-17T13:56:16Z</time>
      </trkpt>
      <trkpt lat="49.06077" lon="2.11571">
        <ele>56</ele>
        <time>2022-02-17T13:56:21Z</time>
      </trkpt>
      <trkpt lat="49.06073" lon="2.11565">
        <ele>55.7</ele>
        <time>2022-02-17T13:56:26Z</time>
      </trkpt>
      <trkpt lat="49.06077" lon="2.11559">
        <ele>54</ele>
        <time>2022-02-17T13:56:31Z</time>
      </trkpt>
      <trkpt lat="49.06082" lon="2.11555">
        <ele>52.9</ele>
        <time>2022-02-17T13:56:37Z</time>
      </trkpt>
      <trkpt lat="49.06085" lon="2.11551">
        <ele>52.1</ele>
        <time>2022-02-17T13:56:40Z</time>
      </trkpt>
      <trkpt lat="49.0609" lon="2.11548">
        <ele>51.7</ele>
        <time>2022-02-17T13:56:45Z</time>
      </trkpt>
      <trkpt lat="49.06094" lon="2.11544">
        <ele>53.6</ele>
        <time>2022-02-17T13:56:52Z</time>
      </trkpt>
      <trkpt lat="49.06098" lon="2.11539">
        <ele>54.8</ele>
        <time>2022-02-17T13:56:59Z</time>
      </trkpt>
      <trkpt lat="49.06095" lon="2.11532">
        <ele>55.8</ele>
        <time>2022-02-17T13:57:04Z</time>
      </trkpt>
      <trkpt lat="49.06092" lon="2.11528">
        <ele>56.3</ele>
        <time>2022-02-17T13:57:07Z</time>
      </trkpt>
      <trkpt lat="49.06088" lon="2.11524">
        <ele>56.3</ele>
        <time>2022-02-17T13:57:10Z</time>
      </trkpt>
      <trkpt lat="49.06084" lon="2.1152">
        <ele>55.2</ele>
        <time>2022-02-17T13:57:13Z</time>
      </trkpt>
      <trkpt lat="49.06079" lon="2.11517">
        <ele>53.2</ele>
        <time>2022-02-17T13:57:16Z</time>
      </trkpt>
      <trkpt lat="49.06075" lon="2.11513">
        <ele>51.9</ele>
        <time>2022-02-17T13:57:19Z</time>
      </trkpt>
      <trkpt lat="49.0607" lon="2.11509">
        <ele>52</ele>
        <time>2022-02-17T13:57:23Z</time>
      </trkpt>
      <trkpt lat="49.06066" lon="2.11503">
        <ele>53.2</ele>
        <time>2022-02-17T13:57:27Z</time>
      </trkpt>
      <trkpt lat="49.06061" lon="2.11499">
        <ele>53.4</ele>
        <time>2022-02-17T13:57:33Z</time>
      </trkpt>
      <trkpt lat="49.06058" lon="2.11491">
        <ele>53.2</ele>
        <time>2022-02-17T13:57:37Z</time>
      </trkpt>
      <trkpt lat="49.06056" lon="2.11484">
        <ele>53.5</ele>
        <time>2022-02-17T13:57:41Z</time>
      </trkpt>
      <trkpt lat="49.06053" lon="2.11477">
        <ele>55</ele>
        <time>2022-02-17T13:57:45Z</time>
      </trkpt>
      <trkpt lat="49.0605" lon="2.11471">
        <ele>58.4</ele>
        <time>2022-02-17T13:57:49Z</time>
      </trkpt>
      <trkpt lat="49.06047" lon="2.11467">
        <ele>60.3</ele>
        <time>2022-02-17T13:57:52Z</time>
      </trkpt>
      <trkpt lat="49.06043" lon="2.1146">
        <ele>62.1</ele>
        <time>2022-02-17T13:57:57Z</time>
      </trkpt>
      <trkpt lat="49.0604" lon="2.11453">
        <ele>63.1</ele>
        <time>2022-02-17T13:58:01Z</time>
      </trkpt>
      <trkpt lat="49.06037" lon="2.11446">
        <ele>63.4</ele>
        <time>2022-02-17T13:58:05Z</time>
      </trkpt>
      <trkpt lat="49.06034" lon="2.11439">
        <ele>63.2</ele>
        <time>2022-02-17T13:58:09Z</time>
      </trkpt>
      <trkpt lat="49.06031" lon="2.11434">
        <ele>63</ele>
        <time>2022-02-17T13:58:12Z</time>
      </trkpt>
      <trkpt lat="49.06027" lon="2.11428">
        <ele>62</ele>
        <time>2022-02-17T13:58:16Z</time>
      </trkpt>
      <trkpt lat="49.06023" lon="2.11422">
        <ele>61.6</ele>
        <time>2022-02-17T13:58:21Z</time>
      </trkpt>
      <trkpt lat="49.06021" lon="2.11416">
        <ele>62.6</ele>
        <time>2022-02-17T13:58:25Z</time>
      </trkpt>
      <trkpt lat="49.06017" lon="2.11409">
        <ele>64.9</ele>
        <time>2022-02-17T13:58:31Z</time>
      </trkpt>
      <trkpt lat="49.06013" lon="2.11406">
        <ele>64.8</ele>
        <time>2022-02-17T13:58:35Z</time>
      </trkpt>
      <trkpt lat="49.06009" lon="2.11411">
        <ele>65.3</ele>
        <time>2022-02-17T13:58:39Z</time>
      </trkpt>
      <trkpt lat="49.06004" lon="2.11412">
        <ele>64.5</ele>
        <time>2022-02-17T13:58:43Z</time>
      </trkpt>
      <trkpt lat="49.06003" lon="2.11403">
        <ele>62.7</ele>
        <time>2022-02-17T13:58:48Z</time>
      </trkpt>
      <trkpt lat="49.06001" lon="2.11396">
        <ele>60.1</ele>
        <time>2022-02-17T13:58:53Z</time>
      </trkpt>
      <trkpt lat="49.05998" lon="2.1139">
        <ele>58.9</ele>
        <time>2022-02-17T13:58:57Z</time>
      </trkpt>
      <trkpt lat="49.05996" lon="2.11383">
        <ele>58.9</ele>
        <time>2022-02-17T13:59:01Z</time>
      </trkpt>
      <trkpt lat="49.05994" lon="2.11377">
        <ele>59.3</ele>
        <time>2022-02-17T13:59:04Z</time>
      </trkpt>
      <trkpt lat="49.05992" lon="2.1137">
        <ele>60</ele>
        <time>2022-02-17T13:59:09Z</time>
      </trkpt>
      <trkpt lat="49.0599" lon="2.11362">
        <ele>60.5</ele>
        <time>2022-02-17T13:59:14Z</time>
      </trkpt>
      <trkpt lat="49.05986" lon="2.11356">
        <ele>60.4</ele>
        <time>2022-02-17T13:59:18Z</time>
      </trkpt>
      <trkpt lat="49.05982" lon="2.11351">
        <ele>60.3</ele>
        <time>2022-02-17T13:59:22Z</time>
      </trkpt>
      <trkpt lat="49.05979" lon="2.11345">
        <ele>60.7</ele>
        <time>2022-02-17T13:59:27Z</time>
      </trkpt>
      <trkpt lat="49.05975" lon="2.1135">
        <ele>63.1</ele>
        <time>2022-02-17T13:59:35Z</time>
      </trkpt>
      <trkpt lat="49.0597" lon="2.11349">
        <ele>64.1</ele>
        <time>2022-02-17T13:59:39Z</time>
      </trkpt>
      <trkpt lat="49.05965" lon="2.11347">
        <ele>64.9</ele>
        <time>2022-02-17T13:59:42Z</time>
      </trkpt>
      <trkpt lat="49.0596" lon="2.11339">
        <ele>65.6</ele>
        <time>2022-02-17T13:59:45Z</time>
      </trkpt>
      <trkpt lat="49.05958" lon="2.1133">
        <ele>65.8</ele>
        <time>2022-02-17T13:59:48Z</time>
      </trkpt>
      <trkpt lat="49.05956" lon="2.11321">
        <ele>65.9</ele>
        <time>2022-02-17T13:59:50Z</time>
      </trkpt>
      <trkpt lat="49.05954" lon="2.11312">
        <ele>66.1</ele>
        <time>2022-02-17T13:59:53Z</time>
      </trkpt>
      <trkpt lat="49.05953" lon="2.11305">
        <ele>66</ele>
        <time>2022-02-17T13:59:55Z</time>
      </trkpt>
      <trkpt lat="49.05953" lon="2.11295">
        <ele>66</ele>
        <time>2022-02-17T13:59:59Z</time>
      </trkpt>
      <trkpt lat="49.05951" lon="2.11289">
        <ele>65.9</ele>
        <time>2022-02-17T14:00:02Z</time>
      </trkpt>
      <trkpt lat="49.05947" lon="2.11284">
        <ele>65.8</ele>
        <time>2022-02-17T14:00:06Z</time>
      </trkpt>
      <trkpt lat="49.05942" lon="2.11278">
        <ele>65.9</ele>
        <time>2022-02-17T14:00:10Z</time>
      </trkpt>
      <trkpt lat="49.05939" lon="2.11273">
        <ele>66.3</ele>
        <time>2022-02-17T14:00:14Z</time>
      </trkpt>
      <trkpt lat="49.05935" lon="2.11269">
        <ele>66.6</ele>
        <time>2022-02-17T14:00:17Z</time>
      </trkpt>
      <trkpt lat="49.05931" lon="2.11265">
        <ele>66.9</ele>
        <time>2022-02-17T14:00:21Z</time>
      </trkpt>
      <trkpt lat="49.05927" lon="2.11261">
        <ele>67.3</ele>
        <time>2022-02-17T14:00:24Z</time>
      </trkpt>
      <trkpt lat="49.05922" lon="2.11256">
        <ele>68</ele>
        <time>2022-02-17T14:00:29Z</time>
      </trkpt>
      <trkpt lat="49.05918" lon="2.11252">
        <ele>68.3</ele>
        <time>2022-02-17T14:00:33Z</time>
      </trkpt>
      <trkpt lat="49.05914" lon="2.11246">
        <ele>68.6</ele>
        <time>2022-02-17T14:00:37Z</time>
      </trkpt>
      <trkpt lat="49.05911" lon="2.11241">
        <ele>68.5</ele>
        <time>2022-02-17T14:00:41Z</time>
      </trkpt>
      <trkpt lat="49.05907" lon="2.11235">
        <ele>68.2</ele>
        <time>2022-02-17T14:00:46Z</time>
      </trkpt>
      <trkpt lat="49.05903" lon="2.1123">
        <ele>67.7</ele>
        <time>2022-02-17T14:00:51Z</time>
      </trkpt>
      <trkpt lat="49.05899" lon="2.11223">
        <ele>67.7</ele>
        <time>2022-02-17T14:00:56Z</time>
      </trkpt>
      <trkpt lat="49.05896" lon="2.11218">
        <ele>67.7</ele>
        <time>2022-02-17T14:01:00Z</time>
      </trkpt>
      <trkpt lat="49.05893" lon="2.11212">
        <ele>67.4</ele>
        <time>2022-02-17T14:01:04Z</time>
      </trkpt>
      <trkpt lat="49.0589" lon="2.11207">
        <ele>67.1</ele>
        <time>2022-02-17T14:01:08Z</time>
      </trkpt>
      <trkpt lat="49.05887" lon="2.11202">
        <ele>67</ele>
        <time>2022-02-17T14:01:11Z</time>
      </trkpt>
      <trkpt lat="49.05883" lon="2.11196">
        <ele>67.4</ele>
        <time>2022-02-17T14:01:17Z</time>
      </trkpt>
      <trkpt lat="49.0588" lon="2.1119">
        <ele>68.7</ele>
        <time>2022-02-17T14:01:23Z</time>
      </trkpt>
      <trkpt lat="49.05877" lon="2.11183">
        <ele>69.5</ele>
        <time>2022-02-17T14:01:28Z</time>
      </trkpt>
      <trkpt lat="49.05874" lon="2.11177">
        <ele>68.9</ele>
        <time>2022-02-17T14:01:33Z</time>
      </trkpt>
      <trkpt lat="49.05871" lon="2.11172">
        <ele>68.6</ele>
        <time>2022-02-17T14:01:37Z</time>
      </trkpt>
      <trkpt lat="49.05867" lon="2.11165">
        <ele>68.2</ele>
        <time>2022-02-17T14:01:41Z</time>
      </trkpt>
      <trkpt lat="49.05864" lon="2.1116">
        <ele>67.6</ele>
        <time>2022-02-17T14:01:46Z</time>
      </trkpt>
      <trkpt lat="49.0586" lon="2.11155">
        <ele>67</ele>
        <time>2022-02-17T14:01:50Z</time>
      </trkpt>
      <trkpt lat="49.05856" lon="2.1115">
        <ele>66.7</ele>
        <time>2022-02-17T14:01:54Z</time>
      </trkpt>
      <trkpt lat="49.05853" lon="2.11145">
        <ele>65.8</ele>
        <time>2022-02-17T14:01:58Z</time>
      </trkpt>
      <trkpt lat="49.0585" lon="2.11139">
        <ele>64.8</ele>
        <time>2022-02-17T14:02:02Z</time>
      </trkpt>
      <trkpt lat="49.05846" lon="2.11134">
        <ele>64.5</ele>
        <time>2022-02-17T14:02:06Z</time>
      </trkpt>
      <trkpt lat="49.05841" lon="2.11127">
        <ele>64.5</ele>
        <time>2022-02-17T14:02:11Z</time>
      </trkpt>
      <trkpt lat="49.05837" lon="2.11119">
        <ele>64.8</ele>
        <time>2022-02-17T14:02:16Z</time>
      </trkpt>
      <trkpt lat="49.05834" lon="2.11113">
        <ele>65</ele>
        <time>2022-02-17T14:02:19Z</time>
      </trkpt>
      <trkpt lat="49.05831" lon="2.11105">
        <ele>64.6</ele>
        <time>2022-02-17T14:02:24Z</time>
      </trkpt>
      <trkpt lat="49.05828" lon="2.11099">
        <ele>64.4</ele>
        <time>2022-02-17T14:02:28Z</time>
      </trkpt>
      <trkpt lat="49.05824" lon="2.11093">
        <ele>64.4</ele>
        <time>2022-02-17T14:02:32Z</time>
      </trkpt>
      <trkpt lat="49.05822" lon="2.11085">
        <ele>64.6</ele>
        <time>2022-02-17T14:02:36Z</time>
      </trkpt>
      <trkpt lat="49.0582" lon="2.11079">
        <ele>64.9</ele>
        <time>2022-02-17T14:02:40Z</time>
      </trkpt>
      <trkpt lat="49.05817" lon="2.11072">
        <ele>65.2</ele>
        <time>2022-02-17T14:02:43Z</time>
      </trkpt>
      <trkpt lat="49.05816" lon="2.11064">
        <ele>65.3</ele>
        <time>2022-02-17T14:02:48Z</time>
      </trkpt>
      <trkpt lat="49.05814" lon="2.11056">
        <ele>65.5</ele>
        <time>2022-02-17T14:02:52Z</time>
      </trkpt>
      <trkpt lat="49.05813" lon="2.11048">
        <ele>65.5</ele>
        <time>2022-02-17T14:02:56Z</time>
      </trkpt>
      <trkpt lat="49.0581" lon="2.11041">
        <ele>65.5</ele>
        <time>2022-02-17T14:03:00Z</time>
      </trkpt>
      <trkpt lat="49.05807" lon="2.11034">
        <ele>65.2</ele>
        <time>2022-02-17T14:03:04Z</time>
      </trkpt>
      <trkpt lat="49.05804" lon="2.11028">
        <ele>64.6</ele>
        <time>2022-02-17T14:03:07Z</time>
      </trkpt>
      <trkpt lat="49.05801" lon="2.11023">
        <ele>63.7</ele>
        <time>2022-02-17T14:03:11Z</time>
      </trkpt>
      <trkpt lat="49.05799" lon="2.11016">
        <ele>63.1</ele>
        <time>2022-02-17T14:03:14Z</time>
      </trkpt>
      <trkpt lat="49.05796" lon="2.1101">
        <ele>63.6</ele>
        <time>2022-02-17T14:03:19Z</time>
      </trkpt>
      <trkpt lat="49.05795" lon="2.11002">
        <ele>64.3</ele>
        <time>2022-02-17T14:03:23Z</time>
      </trkpt>
      <trkpt lat="49.05795" lon="2.10994">
        <ele>64.2</ele>
        <time>2022-02-17T14:03:26Z</time>
      </trkpt>
      <trkpt lat="49.05794" lon="2.10986">
        <ele>63.8</ele>
        <time>2022-02-17T14:03:31Z</time>
      </trkpt>
      <trkpt lat="49.05794" lon="2.10978">
        <ele>63.6</ele>
        <time>2022-02-17T14:03:35Z</time>
      </trkpt>
      <trkpt lat="49.05794" lon="2.1097">
        <ele>63.6</ele>
        <time>2022-02-17T14:03:39Z</time>
      </trkpt>
      <trkpt lat="49.05793" lon="2.10961">
        <ele>63.9</ele>
        <time>2022-02-17T14:03:43Z</time>
      </trkpt>
      <trkpt lat="49.05793" lon="2.10953">
        <ele>64.2</ele>
        <time>2022-02-17T14:03:47Z</time>
      </trkpt>
      <trkpt lat="49.05794" lon="2.10945">
        <ele>64.1</ele>
        <time>2022-02-17T14:03:52Z</time>
      </trkpt>
      <trkpt lat="49.05794" lon="2.10938">
        <ele>63.9</ele>
        <time>2022-02-17T14:03:55Z</time>
      </trkpt>
      <trkpt lat="49.05793" lon="2.10931">
        <ele>62.9</ele>
        <time>2022-02-17T14:04:00Z</time>
      </trkpt>
      <trkpt lat="49.05795" lon="2.10923">
        <ele>61.7</ele>
        <time>2022-02-17T14:04:04Z</time>
      </trkpt>
      <trkpt lat="49.05797" lon="2.10917">
        <ele>60.9</ele>
        <time>2022-02-17T14:04:09Z</time>
      </trkpt>
      <trkpt lat="49.058" lon="2.10912">
        <ele>60</ele>
        <time>2022-02-17T14:04:13Z</time>
      </trkpt>
      <trkpt lat="49.05804" lon="2.10904">
        <ele>58.9</ele>
        <time>2022-02-17T14:04:18Z</time>
      </trkpt>
      <trkpt lat="49.05806" lon="2.10897">
        <ele>58.4</ele>
        <time>2022-02-17T14:04:21Z</time>
      </trkpt>
      <trkpt lat="49.05809" lon="2.10891">
        <ele>57</ele>
        <time>2022-02-17T14:04:26Z</time>
      </trkpt>
      <trkpt lat="49.05814" lon="2.10892">
        <ele>56.2</ele>
        <time>2022-02-17T14:04:30Z</time>
      </trkpt>
      <trkpt lat="49.05819" lon="2.10895">
        <ele>56.2</ele>
        <time>2022-02-17T14:04:33Z</time>
      </trkpt>
      <trkpt lat="49.05824" lon="2.10897">
        <ele>57.2</ele>
        <time>2022-02-17T14:04:38Z</time>
      </trkpt>
      <trkpt lat="49.05828" lon="2.10897">
        <ele>57.5</ele>
        <time>2022-02-17T14:04:42Z</time>
      </trkpt>
      <trkpt lat="49.05834" lon="2.10895">
        <ele>57.5</ele>
        <time>2022-02-17T14:04:46Z</time>
      </trkpt>
      <trkpt lat="49.05839" lon="2.10893">
        <ele>57.3</ele>
        <time>2022-02-17T14:04:50Z</time>
      </trkpt>
      <trkpt lat="49.05844" lon="2.10891">
        <ele>56.8</ele>
        <time>2022-02-17T14:04:55Z</time>
      </trkpt>
      <trkpt lat="49.05848" lon="2.10887">
        <ele>56.7</ele>
        <time>2022-02-17T14:04:58Z</time>
      </trkpt>
      <trkpt lat="49.05853" lon="2.10884">
        <ele>57.3</ele>
        <time>2022-02-17T14:05:02Z</time>
      </trkpt>
      <trkpt lat="49.05859" lon="2.10881">
        <ele>58.3</ele>
        <time>2022-02-17T14:05:06Z</time>
      </trkpt>
      <trkpt lat="49.05863" lon="2.10879">
        <ele>59.2</ele>
        <time>2022-02-17T14:05:10Z</time>
      </trkpt>
      <trkpt lat="49.05868" lon="2.10883">
        <ele>61.2</ele>
        <time>2022-02-17T14:05:15Z</time>
      </trkpt>
      <trkpt lat="49.05873" lon="2.10883">
        <ele>61.2</ele>
        <time>2022-02-17T14:05:19Z</time>
      </trkpt>
      <trkpt lat="49.05879" lon="2.1088">
        <ele>59.5</ele>
        <time>2022-02-17T14:05:23Z</time>
      </trkpt>
      <trkpt lat="49.05883" lon="2.10879">
        <ele>58.4</ele>
        <time>2022-02-17T14:05:26Z</time>
      </trkpt>
      <trkpt lat="49.05888" lon="2.1088">
        <ele>58.4</ele>
        <time>2022-02-17T14:05:30Z</time>
      </trkpt>
      <trkpt lat="49.05894" lon="2.1088">
        <ele>58.6</ele>
        <time>2022-02-17T14:05:34Z</time>
      </trkpt>
      <trkpt lat="49.05899" lon="2.10881">
        <ele>58.5</ele>
        <time>2022-02-17T14:05:38Z</time>
      </trkpt>
      <trkpt lat="49.05903" lon="2.10883">
        <ele>58.5</ele>
        <time>2022-02-17T14:05:42Z</time>
      </trkpt>
      <trkpt lat="49.05908" lon="2.10885">
        <ele>58.5</ele>
        <time>2022-02-17T14:05:46Z</time>
      </trkpt>
      <trkpt lat="49.05913" lon="2.10888">
        <ele>58.6</ele>
        <time>2022-02-17T14:05:50Z</time>
      </trkpt>
      <trkpt lat="49.05918" lon="2.10892">
        <ele>59.4</ele>
        <time>2022-02-17T14:05:54Z</time>
      </trkpt>
      <trkpt lat="49.05923" lon="2.10893">
        <ele>60.1</ele>
        <time>2022-02-17T14:05:57Z</time>
      </trkpt>
      <trkpt lat="49.05927" lon="2.10894">
        <ele>60</ele>
        <time>2022-02-17T14:06:01Z</time>
      </trkpt>
      <trkpt lat="49.05932" lon="2.10896">
        <ele>59.7</ele>
        <time>2022-02-17T14:06:05Z</time>
      </trkpt>
      <trkpt lat="49.05938" lon="2.10898">
        <ele>59.9</ele>
        <time>2022-02-17T14:06:09Z</time>
      </trkpt>
      <trkpt lat="49.05943" lon="2.10898">
        <ele>60.2</ele>
        <time>2022-02-17T14:06:13Z</time>
      </trkpt>
      <trkpt lat="49.05948" lon="2.10898">
        <ele>59.3</ele>
        <time>2022-02-17T14:06:17Z</time>
      </trkpt>
      <trkpt lat="49.05953" lon="2.109">
        <ele>57.5</ele>
        <time>2022-02-17T14:06:21Z</time>
      </trkpt>
      <trkpt lat="49.05958" lon="2.10902">
        <ele>56.2</ele>
        <time>2022-02-17T14:06:25Z</time>
      </trkpt>
      <trkpt lat="49.05962" lon="2.10903">
        <ele>56.1</ele>
        <time>2022-02-17T14:06:29Z</time>
      </trkpt>
      <trkpt lat="49.05967" lon="2.10904">
        <ele>56.3</ele>
        <time>2022-02-17T14:06:32Z</time>
      </trkpt>
      <trkpt lat="49.05973" lon="2.10904">
        <ele>56.7</ele>
        <time>2022-02-17T14:06:36Z</time>
      </trkpt>
      <trkpt lat="49.05978" lon="2.10904">
        <ele>56.6</ele>
        <time>2022-02-17T14:06:40Z</time>
      </trkpt>
      <trkpt lat="49.05982" lon="2.10907">
        <ele>55.8</ele>
        <time>2022-02-17T14:06:44Z</time>
      </trkpt>
      <trkpt lat="49.05988" lon="2.10908">
        <ele>55</ele>
        <time>2022-02-17T14:06:48Z</time>
      </trkpt>
      <trkpt lat="49.05992" lon="2.10912">
        <ele>54.4</ele>
        <time>2022-02-17T14:06:52Z</time>
      </trkpt>
      <trkpt lat="49.05996" lon="2.10915">
        <ele>54.2</ele>
        <time>2022-02-17T14:06:55Z</time>
      </trkpt>
      <trkpt lat="49.06001" lon="2.10915">
        <ele>54.7</ele>
        <time>2022-02-17T14:06:58Z</time>
      </trkpt>
      <trkpt lat="49.06002" lon="2.10907">
        <ele>56.1</ele>
        <time>2022-02-17T14:07:02Z</time>
      </trkpt>
      <trkpt lat="49.06004" lon="2.109">
        <ele>57.7</ele>
        <time>2022-02-17T14:07:05Z</time>
      </trkpt>
      <trkpt lat="49.06005" lon="2.10892">
        <ele>59.4</ele>
        <time>2022-02-17T14:07:08Z</time>
      </trkpt>
      <trkpt lat="49.06003" lon="2.10885">
        <ele>60.1</ele>
        <time>2022-02-17T14:07:12Z</time>
      </trkpt>
      <trkpt lat="49.06005" lon="2.10878">
        <ele>60</ele>
        <time>2022-02-17T14:07:15Z</time>
      </trkpt>
      <trkpt lat="49.06006" lon="2.10871">
        <ele>59</ele>
        <time>2022-02-17T14:07:19Z</time>
      </trkpt>
      <trkpt lat="49.06002" lon="2.10866">
        <ele>58.2</ele>
        <time>2022-02-17T14:07:22Z</time>
      </trkpt>
      <trkpt lat="49.06" lon="2.1086">
        <ele>58</ele>
        <time>2022-02-17T14:07:25Z</time>
      </trkpt>
      <trkpt lat="49.05997" lon="2.10856">
        <ele>58</ele>
        <time>2022-02-17T14:07:28Z</time>
      </trkpt>
      <trkpt lat="49.05992" lon="2.10851">
        <ele>58</ele>
        <time>2022-02-17T14:07:33Z</time>
      </trkpt>
      <trkpt lat="49.05989" lon="2.10845">
        <ele>58</ele>
        <time>2022-02-17T14:07:37Z</time>
      </trkpt>
      <trkpt lat="49.05988" lon="2.10837">
        <ele>57.7</ele>
        <time>2022-02-17T14:07:41Z</time>
      </trkpt>
      <trkpt lat="49.05992" lon="2.1083">
        <ele>57.6</ele>
        <time>2022-02-17T14:07:45Z</time>
      </trkpt>
      <trkpt lat="49.05997" lon="2.10829">
        <ele>57.3</ele>
        <time>2022-02-17T14:07:49Z</time>
      </trkpt>
      <trkpt lat="49.06002" lon="2.1083">
        <ele>56.6</ele>
        <time>2022-02-17T14:07:52Z</time>
      </trkpt>
      <trkpt lat="49.06007" lon="2.10831">
        <ele>56.4</ele>
        <time>2022-02-17T14:07:55Z</time>
      </trkpt>
      <trkpt lat="49.06012" lon="2.1083">
        <ele>56</ele>
        <time>2022-02-17T14:07:58Z</time>
      </trkpt>
      <trkpt lat="49.06016" lon="2.1083">
        <ele>55.6</ele>
        <time>2022-02-17T14:08:01Z</time>
      </trkpt>
      <trkpt lat="49.06021" lon="2.10832">
        <ele>54.6</ele>
        <time>2022-02-17T14:08:06Z</time>
      </trkpt>
      <trkpt lat="49.06025" lon="2.10835">
        <ele>54.7</ele>
        <time>2022-02-17T14:08:10Z</time>
      </trkpt>
      <trkpt lat="49.0603" lon="2.10835">
        <ele>56</ele>
        <time>2022-02-17T14:08:16Z</time>
      </trkpt>
      <trkpt lat="49.06034" lon="2.1083">
        <ele>54.9</ele>
        <time>2022-02-17T14:08:20Z</time>
      </trkpt>
      <trkpt lat="49.06038" lon="2.10825">
        <ele>52</ele>
        <time>2022-02-17T14:08:25Z</time>
      </trkpt>
      <trkpt lat="49.06043" lon="2.1082">
        <ele>50.4</ele>
        <time>2022-02-17T14:08:30Z</time>
      </trkpt>
      <trkpt lat="49.06048" lon="2.10817">
        <ele>50.2</ele>
        <time>2022-02-17T14:08:34Z</time>
      </trkpt>
      <trkpt lat="49.06052" lon="2.10815">
        <ele>50.2</ele>
        <time>2022-02-17T14:08:37Z</time>
      </trkpt>
      <trkpt lat="49.06058" lon="2.10813">
        <ele>50.9</ele>
        <time>2022-02-17T14:08:42Z</time>
      </trkpt>
      <trkpt lat="49.06062" lon="2.10809">
        <ele>52.8</ele>
        <time>2022-02-17T14:08:46Z</time>
      </trkpt>
      <trkpt lat="49.06066" lon="2.10804">
        <ele>54.4</ele>
        <time>2022-02-17T14:08:50Z</time>
      </trkpt>
      <trkpt lat="49.06069" lon="2.10797">
        <ele>55.1</ele>
        <time>2022-02-17T14:08:54Z</time>
      </trkpt>
      <trkpt lat="49.06072" lon="2.1079">
        <ele>56.4</ele>
        <time>2022-02-17T14:08:58Z</time>
      </trkpt>
      <trkpt lat="49.06074" lon="2.10784">
        <ele>56.5</ele>
        <time>2022-02-17T14:09:01Z</time>
      </trkpt>
      <trkpt lat="49.06078" lon="2.10778">
        <ele>55.8</ele>
        <time>2022-02-17T14:09:05Z</time>
      </trkpt>
      <trkpt lat="49.0608" lon="2.1077">
        <ele>55.4</ele>
        <time>2022-02-17T14:09:12Z</time>
      </trkpt>
      <trkpt lat="49.06086" lon="2.10768">
        <ele>55.2</ele>
        <time>2022-02-17T14:09:16Z</time>
      </trkpt>
      <trkpt lat="49.06091" lon="2.10767">
        <ele>55.2</ele>
        <time>2022-02-17T14:09:20Z</time>
      </trkpt>
      <trkpt lat="49.06095" lon="2.10762">
        <ele>53.7</ele>
        <time>2022-02-17T14:09:26Z</time>
      </trkpt>
      <trkpt lat="49.061" lon="2.10759">
        <ele>51.9</ele>
        <time>2022-02-17T14:09:31Z</time>
      </trkpt>
      <trkpt lat="49.06105" lon="2.10756">
        <ele>51</ele>
        <time>2022-02-17T14:09:35Z</time>
      </trkpt>
      <trkpt lat="49.0611" lon="2.10752">
        <ele>51.8</ele>
        <time>2022-02-17T14:09:41Z</time>
      </trkpt>
      <trkpt lat="49.06114" lon="2.10748">
        <ele>53.3</ele>
        <time>2022-02-17T14:09:45Z</time>
      </trkpt>
      <trkpt lat="49.06117" lon="2.10741">
        <ele>54.1</ele>
        <time>2022-02-17T14:09:50Z</time>
      </trkpt>
      <trkpt lat="49.06118" lon="2.10732">
        <ele>54.7</ele>
        <time>2022-02-17T14:09:54Z</time>
      </trkpt>
      <trkpt lat="49.06121" lon="2.10727">
        <ele>55.6</ele>
        <time>2022-02-17T14:09:58Z</time>
      </trkpt>
      <trkpt lat="49.06125" lon="2.10722">
        <ele>55.9</ele>
        <time>2022-02-17T14:10:03Z</time>
      </trkpt>
      <trkpt lat="49.0613" lon="2.1072">
        <ele>56.4</ele>
        <time>2022-02-17T14:10:06Z</time>
      </trkpt>
      <trkpt lat="49.06134" lon="2.10714">
        <ele>57.3</ele>
        <time>2022-02-17T14:10:10Z</time>
      </trkpt>
      <trkpt lat="49.06137" lon="2.10709">
        <ele>57.6</ele>
        <time>2022-02-17T14:10:14Z</time>
      </trkpt>
      <trkpt lat="49.06141" lon="2.10705">
        <ele>56.7</ele>
        <time>2022-02-17T14:10:18Z</time>
      </trkpt>
      <trkpt lat="49.06147" lon="2.10704">
        <ele>55.6</ele>
        <time>2022-02-17T14:10:22Z</time>
      </trkpt>
      <trkpt lat="49.06152" lon="2.10701">
        <ele>54</ele>
        <time>2022-02-17T14:10:27Z</time>
      </trkpt>
      <trkpt lat="49.06156" lon="2.10701">
        <ele>52.3</ele>
        <time>2022-02-17T14:10:31Z</time>
      </trkpt>
      <trkpt lat="49.06162" lon="2.10701">
        <ele>52</ele>
        <time>2022-02-17T14:10:35Z</time>
      </trkpt>
      <trkpt lat="49.06167" lon="2.10699">
        <ele>53.8</ele>
        <time>2022-02-17T14:10:40Z</time>
      </trkpt>
      <trkpt lat="49.0617" lon="2.10694">
        <ele>54.7</ele>
        <time>2022-02-17T14:10:44Z</time>
      </trkpt>
      <trkpt lat="49.06172" lon="2.10687">
        <ele>55.3</ele>
        <time>2022-02-17T14:10:47Z</time>
      </trkpt>
      <trkpt lat="49.06172" lon="2.1068">
        <ele>55.4</ele>
        <time>2022-02-17T14:10:50Z</time>
      </trkpt>
      <trkpt lat="49.06172" lon="2.10673">
        <ele>55.3</ele>
        <time>2022-02-17T14:10:53Z</time>
      </trkpt>
      <trkpt lat="49.06174" lon="2.10666">
        <ele>55.5</ele>
        <time>2022-02-17T14:10:57Z</time>
      </trkpt>
      <trkpt lat="49.06179" lon="2.10665">
        <ele>56.5</ele>
        <time>2022-02-17T14:11:01Z</time>
      </trkpt>
      <trkpt lat="49.06184" lon="2.10664">
        <ele>58</ele>
        <time>2022-02-17T14:11:05Z</time>
      </trkpt>
      <trkpt lat="49.06189" lon="2.1066">
        <ele>58.6</ele>
        <time>2022-02-17T14:11:09Z</time>
      </trkpt>
      <trkpt lat="49.06193" lon="2.10655">
        <ele>58.2</ele>
        <time>2022-02-17T14:11:13Z</time>
      </trkpt>
      <trkpt lat="49.06197" lon="2.1065">
        <ele>58.2</ele>
        <time>2022-02-17T14:11:17Z</time>
      </trkpt>
      <trkpt lat="49.06202" lon="2.1065">
        <ele>58.5</ele>
        <time>2022-02-17T14:11:22Z</time>
      </trkpt>
      <trkpt lat="49.06207" lon="2.10651">
        <ele>59.5</ele>
        <time>2022-02-17T14:11:26Z</time>
      </trkpt>
      <trkpt lat="49.06211" lon="2.10652">
        <ele>60.5</ele>
        <time>2022-02-17T14:11:30Z</time>
      </trkpt>
      <trkpt lat="49.06216" lon="2.10654">
        <ele>61</ele>
        <time>2022-02-17T14:11:34Z</time>
      </trkpt>
      <trkpt lat="49.0622" lon="2.10659">
        <ele>61.7</ele>
        <time>2022-02-17T14:11:38Z</time>
      </trkpt>
      <trkpt lat="49.06226" lon="2.10662">
        <ele>63.2</ele>
        <time>2022-02-17T14:11:43Z</time>
      </trkpt>
      <trkpt lat="49.0623" lon="2.10664">
        <ele>64.3</ele>
        <time>2022-02-17T14:11:47Z</time>
      </trkpt>
      <trkpt lat="49.06235" lon="2.10666">
        <ele>64.7</ele>
        <time>2022-02-17T14:11:51Z</time>
      </trkpt>
      <trkpt lat="49.0624" lon="2.1067">
        <ele>65</ele>
        <time>2022-02-17T14:11:55Z</time>
      </trkpt>
      <trkpt lat="49.06245" lon="2.10671">
        <ele>65</ele>
        <time>2022-02-17T14:11:59Z</time>
      </trkpt>
      <trkpt lat="49.0625" lon="2.10674">
        <ele>64.9</ele>
        <time>2022-02-17T14:12:04Z</time>
      </trkpt>
      <trkpt lat="49.06256" lon="2.10675">
        <ele>65.4</ele>
        <time>2022-02-17T14:12:08Z</time>
      </trkpt>
      <trkpt lat="49.0626" lon="2.10676">
        <ele>65.5</ele>
        <time>2022-02-17T14:12:12Z</time>
      </trkpt>
      <trkpt lat="49.06265" lon="2.10678">
        <ele>65.1</ele>
        <time>2022-02-17T14:12:15Z</time>
      </trkpt>
      <trkpt lat="49.06269" lon="2.10681">
        <ele>64.4</ele>
        <time>2022-02-17T14:12:20Z</time>
      </trkpt>
      <trkpt lat="49.06273" lon="2.10687">
        <ele>64.6</ele>
        <time>2022-02-17T14:12:25Z</time>
      </trkpt>
      <trkpt lat="49.06278" lon="2.10688">
        <ele>65.3</ele>
        <time>2022-02-17T14:12:29Z</time>
      </trkpt>
      <trkpt lat="49.06282" lon="2.10691">
        <ele>65.6</ele>
        <time>2022-02-17T14:12:32Z</time>
      </trkpt>
      <trkpt lat="49.06286" lon="2.10697">
        <ele>66.1</ele>
        <time>2022-02-17T14:12:37Z</time>
      </trkpt>
      <trkpt lat="49.0629" lon="2.10702">
        <ele>66.9</ele>
        <time>2022-02-17T14:12:41Z</time>
      </trkpt>
      <trkpt lat="49.06294" lon="2.10706">
        <ele>67.1</ele>
        <time>2022-02-17T14:12:45Z</time>
      </trkpt>
      <trkpt lat="49.06299" lon="2.1071">
        <ele>66.4</ele>
        <time>2022-02-17T14:12:49Z</time>
      </trkpt>
      <trkpt lat="49.06303" lon="2.10713">
        <ele>65.6</ele>
        <time>2022-02-17T14:12:53Z</time>
      </trkpt>
      <trkpt lat="49.06308" lon="2.10716">
        <ele>65.5</ele>
        <time>2022-02-17T14:12:57Z</time>
      </trkpt>
      <trkpt lat="49.06313" lon="2.10721">
        <ele>64.3</ele>
        <time>2022-02-17T14:13:01Z</time>
      </trkpt>
      <trkpt lat="49.06316" lon="2.10726">
        <ele>62.3</ele>
        <time>2022-02-17T14:13:06Z</time>
      </trkpt>
      <trkpt lat="49.0632" lon="2.10731">
        <ele>61.8</ele>
        <time>2022-02-17T14:13:10Z</time>
      </trkpt>
      <trkpt lat="49.06324" lon="2.10735">
        <ele>62.6</ele>
        <time>2022-02-17T14:13:15Z</time>
      </trkpt>
      <trkpt lat="49.06329" lon="2.10738">
        <ele>63.3</ele>
        <time>2022-02-17T14:13:20Z</time>
      </trkpt>
      <trkpt lat="49.06334" lon="2.10738">
        <ele>63.8</ele>
        <time>2022-02-17T14:13:24Z</time>
      </trkpt>
      <trkpt lat="49.0634" lon="2.10739">
        <ele>64.3</ele>
        <time>2022-02-17T14:13:29Z</time>
      </trkpt>
      <trkpt lat="49.06345" lon="2.10739">
        <ele>65.5</ele>
        <time>2022-02-17T14:13:33Z</time>
      </trkpt>
      <trkpt lat="49.0635" lon="2.1074">
        <ele>67.7</ele>
        <time>2022-02-17T14:13:37Z</time>
      </trkpt>
      <trkpt lat="49.06355" lon="2.10742">
        <ele>69.8</ele>
        <time>2022-02-17T14:13:41Z</time>
      </trkpt>
      <trkpt lat="49.06359" lon="2.10745">
        <ele>70.7</ele>
        <time>2022-02-17T14:13:45Z</time>
      </trkpt>
      <trkpt lat="49.06364" lon="2.1075">
        <ele>70.4</ele>
        <time>2022-02-17T14:13:49Z</time>
      </trkpt>
      <trkpt lat="49.06368" lon="2.10754">
        <ele>69.5</ele>
        <time>2022-02-17T14:13:54Z</time>
      </trkpt>
      <trkpt lat="49.06373" lon="2.10758">
        <ele>68.5</ele>
        <time>2022-02-17T14:13:58Z</time>
      </trkpt>
      <trkpt lat="49.06377" lon="2.1076">
        <ele>68.8</ele>
        <time>2022-02-17T14:14:02Z</time>
      </trkpt>
      <trkpt lat="49.06382" lon="2.10762">
        <ele>69.6</ele>
        <time>2022-02-17T14:14:06Z</time>
      </trkpt>
      <trkpt lat="49.06387" lon="2.10765">
        <ele>69.7</ele>
        <time>2022-02-17T14:14:10Z</time>
      </trkpt>
      <trkpt lat="49.06391" lon="2.10766">
        <ele>69.7</ele>
        <time>2022-02-17T14:14:14Z</time>
      </trkpt>
      <trkpt lat="49.06396" lon="2.10768">
        <ele>70.1</ele>
        <time>2022-02-17T14:14:17Z</time>
      </trkpt>
      <trkpt lat="49.06401" lon="2.1077">
        <ele>71.7</ele>
        <time>2022-02-17T14:14:22Z</time>
      </trkpt>
      <trkpt lat="49.06405" lon="2.10765">
        <ele>71.2</ele>
        <time>2022-02-17T14:14:26Z</time>
      </trkpt>
      <trkpt lat="49.0641" lon="2.10767">
        <ele>68.4</ele>
        <time>2022-02-17T14:14:31Z</time>
      </trkpt>
      <trkpt lat="49.06415" lon="2.10771">
        <ele>67.3</ele>
        <time>2022-02-17T14:14:36Z</time>
      </trkpt>
      <trkpt lat="49.06418" lon="2.10776">
        <ele>66.6</ele>
        <time>2022-02-17T14:14:41Z</time>
      </trkpt>
      <trkpt lat="49.06422" lon="2.10782">
        <ele>66.7</ele>
        <time>2022-02-17T14:14:45Z</time>
      </trkpt>
      <trkpt lat="49.06426" lon="2.10785">
        <ele>67.5</ele>
        <time>2022-02-17T14:14:49Z</time>
      </trkpt>
      <trkpt lat="49.06431" lon="2.10786">
        <ele>68.2</ele>
        <time>2022-02-17T14:14:53Z</time>
      </trkpt>
      <trkpt lat="49.06437" lon="2.10787">
        <ele>69.2</ele>
        <time>2022-02-17T14:14:57Z</time>
      </trkpt>
      <trkpt lat="49.06443" lon="2.1079">
        <ele>70.1</ele>
        <time>2022-02-17T14:15:02Z</time>
      </trkpt>
      <trkpt lat="49.06448" lon="2.10794">
        <ele>69.4</ele>
        <time>2022-02-17T14:15:07Z</time>
      </trkpt>
      <trkpt lat="49.06452" lon="2.10795">
        <ele>68.9</ele>
        <time>2022-02-17T14:15:11Z</time>
      </trkpt>
      <trkpt lat="49.06458" lon="2.10798">
        <ele>68.9</ele>
        <time>2022-02-17T14:15:15Z</time>
      </trkpt>
      <trkpt lat="49.06463" lon="2.108">
        <ele>69.6</ele>
        <time>2022-02-17T14:15:19Z</time>
      </trkpt>
      <trkpt lat="49.06468" lon="2.10804">
        <ele>69.9</ele>
        <time>2022-02-17T14:15:24Z</time>
      </trkpt>
      <trkpt lat="49.06472" lon="2.10806">
        <ele>70.3</ele>
        <time>2022-02-17T14:15:28Z</time>
      </trkpt>
      <trkpt lat="49.06476" lon="2.10808">
        <ele>70.2</ele>
        <time>2022-02-17T14:15:33Z</time>
      </trkpt>
      <trkpt lat="49.06483" lon="2.10809">
        <ele>70.6</ele>
        <time>2022-02-17T14:15:38Z</time>
      </trkpt>
      <trkpt lat="49.06487" lon="2.10811">
        <ele>70.6</ele>
        <time>2022-02-17T14:15:43Z</time>
      </trkpt>
      <trkpt lat="49.06492" lon="2.10813">
        <ele>69.8</ele>
        <time>2022-02-17T14:15:48Z</time>
      </trkpt>
      <trkpt lat="49.06498" lon="2.10816">
        <ele>68.9</ele>
        <time>2022-02-17T14:15:53Z</time>
      </trkpt>
      <trkpt lat="49.06502" lon="2.10819">
        <ele>68.2</ele>
        <time>2022-02-17T14:15:57Z</time>
      </trkpt>
      <trkpt lat="49.06508" lon="2.10821">
        <ele>66.7</ele>
        <time>2022-02-17T14:16:03Z</time>
      </trkpt>
      <trkpt lat="49.06512" lon="2.10825">
        <ele>66.2</ele>
        <time>2022-02-17T14:16:08Z</time>
      </trkpt>
      <trkpt lat="49.06516" lon="2.10824">
        <ele>65.8</ele>
        <time>2022-02-17T14:16:12Z</time>
      </trkpt>
      <trkpt lat="49.06521" lon="2.10821">
        <ele>65.7</ele>
        <time>2022-02-17T14:16:16Z</time>
      </trkpt>
      <trkpt lat="49.06526" lon="2.1082">
        <ele>65.9</ele>
        <time>2022-02-17T14:16:21Z</time>
      </trkpt>
      <trkpt lat="49.06531" lon="2.1082">
        <ele>66.1</ele>
        <time>2022-02-17T14:16:24Z</time>
      </trkpt>
      <trkpt lat="49.06536" lon="2.10822">
        <ele>65.8</ele>
        <time>2022-02-17T14:16:28Z</time>
      </trkpt>
      <trkpt lat="49.06541" lon="2.10823">
        <ele>64.9</ele>
        <time>2022-02-17T14:16:32Z</time>
      </trkpt>
      <trkpt lat="49.06546" lon="2.10823">
        <ele>63.7</ele>
        <time>2022-02-17T14:16:37Z</time>
      </trkpt>
      <trkpt lat="49.06551" lon="2.10822">
        <ele>62.8</ele>
        <time>2022-02-17T14:16:41Z</time>
      </trkpt>
      <trkpt lat="49.06557" lon="2.10821">
        <ele>62.6</ele>
        <time>2022-02-17T14:16:46Z</time>
      </trkpt>
      <trkpt lat="49.06562" lon="2.10821">
        <ele>62.7</ele>
        <time>2022-02-17T14:16:49Z</time>
      </trkpt>
      <trkpt lat="49.06566" lon="2.1082">
        <ele>62.7</ele>
        <time>2022-02-17T14:16:53Z</time>
      </trkpt>
      <trkpt lat="49.06571" lon="2.1082">
        <ele>62</ele>
        <time>2022-02-17T14:16:58Z</time>
      </trkpt>
      <trkpt lat="49.06576" lon="2.10819">
        <ele>61.5</ele>
        <time>2022-02-17T14:17:02Z</time>
      </trkpt>
      <trkpt lat="49.06581" lon="2.10819">
        <ele>61.8</ele>
        <time>2022-02-17T14:17:06Z</time>
      </trkpt>
      <trkpt lat="49.06586" lon="2.1082">
        <ele>61.6</ele>
        <time>2022-02-17T14:17:10Z</time>
      </trkpt>
      <trkpt lat="49.0659" lon="2.10823">
        <ele>60.9</ele>
        <time>2022-02-17T14:17:15Z</time>
      </trkpt>
      <trkpt lat="49.06594" lon="2.10827">
        <ele>59.9</ele>
        <time>2022-02-17T14:17:19Z</time>
      </trkpt>
      <trkpt lat="49.06598" lon="2.10831">
        <ele>58.9</ele>
        <time>2022-02-17T14:17:23Z</time>
      </trkpt>
      <trkpt lat="49.06603" lon="2.10833">
        <ele>58.6</ele>
        <time>2022-02-17T14:17:27Z</time>
      </trkpt>
      <trkpt lat="49.06608" lon="2.10836">
        <ele>58.6</ele>
        <time>2022-02-17T14:17:31Z</time>
      </trkpt>
      <trkpt lat="49.06612" lon="2.1084">
        <ele>58.3</ele>
        <time>2022-02-17T14:17:36Z</time>
      </trkpt>
      <trkpt lat="49.06615" lon="2.10846">
        <ele>57.9</ele>
        <time>2022-02-17T14:17:40Z</time>
      </trkpt>
      <trkpt lat="49.06619" lon="2.1085">
        <ele>57.6</ele>
        <time>2022-02-17T14:17:45Z</time>
      </trkpt>
      <trkpt lat="49.06624" lon="2.10853">
        <ele>58.3</ele>
        <time>2022-02-17T14:17:52Z</time>
      </trkpt>
      <trkpt lat="49.06627" lon="2.10858">
        <ele>58.7</ele>
        <time>2022-02-17T14:17:55Z</time>
      </trkpt>
      <trkpt lat="49.0663" lon="2.10863">
        <ele>58.5</ele>
        <time>2022-02-17T14:17:59Z</time>
      </trkpt>
      <trkpt lat="49.06635" lon="2.10867">
        <ele>57.7</ele>
        <time>2022-02-17T14:18:05Z</time>
      </trkpt>
      <trkpt lat="49.06639" lon="2.10869">
        <ele>56</ele>
        <time>2022-02-17T14:18:13Z</time>
      </trkpt>
      <trkpt lat="49.06644" lon="2.10875">
        <ele>54.7</ele>
        <time>2022-02-17T14:18:19Z</time>
      </trkpt>
      <trkpt lat="49.06648" lon="2.10876">
        <ele>54.6</ele>
        <time>2022-02-17T14:18:24Z</time>
      </trkpt>
      <trkpt lat="49.06652" lon="2.10872">
        <ele>54.4</ele>
        <time>2022-02-17T14:18:30Z</time>
      </trkpt>
      <trkpt lat="49.06657" lon="2.10872">
        <ele>53.2</ele>
        <time>2022-02-17T14:18:37Z</time>
      </trkpt>
      <trkpt lat="49.06659" lon="2.1088">
        <ele>52.6</ele>
        <time>2022-02-17T14:18:43Z</time>
      </trkpt>
      <trkpt lat="49.06662" lon="2.10887">
        <ele>52.7</ele>
        <time>2022-02-17T14:18:48Z</time>
      </trkpt>
      <trkpt lat="49.06665" lon="2.10894">
        <ele>52.9</ele>
        <time>2022-02-17T14:18:52Z</time>
      </trkpt>
      <trkpt lat="49.06668" lon="2.109">
        <ele>53.2</ele>
        <time>2022-02-17T14:18:57Z</time>
      </trkpt>
      <trkpt lat="49.06672" lon="2.10907">
        <ele>53.7</ele>
        <time>2022-02-17T14:19:02Z</time>
      </trkpt>
      <trkpt lat="49.06675" lon="2.10914">
        <ele>54.1</ele>
        <time>2022-02-17T14:19:07Z</time>
      </trkpt>
      <trkpt lat="49.06678" lon="2.10922">
        <ele>54.5</ele>
        <time>2022-02-17T14:19:12Z</time>
      </trkpt>
      <trkpt lat="49.06681" lon="2.10928">
        <ele>55.6</ele>
        <time>2022-02-17T14:19:16Z</time>
      </trkpt>
      <trkpt lat="49.06684" lon="2.10923">
        <ele>56.2</ele>
        <time>2022-02-17T14:19:21Z</time>
      </trkpt>
      <trkpt lat="49.06688" lon="2.10917">
        <ele>55.9</ele>
        <time>2022-02-17T14:19:25Z</time>
      </trkpt>
      <trkpt lat="49.06692" lon="2.10913">
        <ele>55.5</ele>
        <time>2022-02-17T14:19:29Z</time>
      </trkpt>
      <trkpt lat="49.06697" lon="2.10913">
        <ele>55.5</ele>
        <time>2022-02-17T14:19:32Z</time>
      </trkpt>
      <trkpt lat="49.067" lon="2.10919">
        <ele>55.7</ele>
        <time>2022-02-17T14:19:36Z</time>
      </trkpt>
      <trkpt lat="49.06705" lon="2.10923">
        <ele>56</ele>
        <time>2022-02-17T14:19:42Z</time>
      </trkpt>
      <trkpt lat="49.06711" lon="2.10921">
        <ele>56.9</ele>
        <time>2022-02-17T14:19:48Z</time>
      </trkpt>
      <trkpt lat="49.06715" lon="2.10918">
        <ele>57.4</ele>
        <time>2022-02-17T14:19:52Z</time>
      </trkpt>
      <trkpt lat="49.06721" lon="2.10916">
        <ele>57.5</ele>
        <time>2022-02-17T14:19:57Z</time>
      </trkpt>
      <trkpt lat="49.06727" lon="2.10912">
        <ele>57.6</ele>
        <time>2022-02-17T14:20:01Z</time>
      </trkpt>
      <trkpt lat="49.06731" lon="2.10913">
        <ele>57.8</ele>
        <time>2022-02-17T14:20:05Z</time>
      </trkpt>
      <trkpt lat="49.06737" lon="2.10912">
        <ele>57.2</ele>
        <time>2022-02-17T14:20:10Z</time>
      </trkpt>
      <trkpt lat="49.06741" lon="2.10906">
        <ele>56.1</ele>
        <time>2022-02-17T14:20:14Z</time>
      </trkpt>
      <trkpt lat="49.06744" lon="2.10902">
        <ele>54.7</ele>
        <time>2022-02-17T14:20:18Z</time>
      </trkpt>
      <trkpt lat="49.0675" lon="2.109">
        <ele>53.9</ele>
        <time>2022-02-17T14:20:23Z</time>
      </trkpt>
      <trkpt lat="49.06755" lon="2.10899">
        <ele>53.9</ele>
        <time>2022-02-17T14:20:27Z</time>
      </trkpt>
      <trkpt lat="49.0676" lon="2.10898">
        <ele>54.2</ele>
        <time>2022-02-17T14:20:31Z</time>
      </trkpt>
      <trkpt lat="49.06765" lon="2.10899">
        <ele>54.4</ele>
        <time>2022-02-17T14:20:34Z</time>
      </trkpt>
      <trkpt lat="49.0677" lon="2.10898">
        <ele>55.3</ele>
        <time>2022-02-17T14:20:39Z</time>
      </trkpt>
      <trkpt lat="49.06775" lon="2.10896">
        <ele>58.1</ele>
        <time>2022-02-17T14:20:46Z</time>
      </trkpt>
      <trkpt lat="49.06779" lon="2.10893">
        <ele>58.9</ele>
        <time>2022-02-17T14:20:51Z</time>
      </trkpt>
      <trkpt lat="49.06784" lon="2.10888">
        <ele>59.1</ele>
        <time>2022-02-17T14:20:56Z</time>
      </trkpt>
      <trkpt lat="49.06788" lon="2.10886">
        <ele>59.2</ele>
        <time>2022-02-17T14:21:02Z</time>
      </trkpt>
      <trkpt lat="49.06793" lon="2.10884">
        <ele>59.4</ele>
        <time>2022-02-17T14:21:06Z</time>
      </trkpt>
      <trkpt lat="49.06797" lon="2.10881">
        <ele>60</ele>
        <time>2022-02-17T14:21:09Z</time>
      </trkpt>
      <trkpt lat="49.06802" lon="2.10878">
        <ele>61</ele>
        <time>2022-02-17T14:21:12Z</time>
      </trkpt>
      <trkpt lat="49.06807" lon="2.10877">
        <ele>62.4</ele>
        <time>2022-02-17T14:21:16Z</time>
      </trkpt>
      <trkpt lat="49.06811" lon="2.10874">
        <ele>62.9</ele>
        <time>2022-02-17T14:21:21Z</time>
      </trkpt>
      <trkpt lat="49.06817" lon="2.10871">
        <ele>63.7</ele>
        <time>2022-02-17T14:21:25Z</time>
      </trkpt>
      <trkpt lat="49.06821" lon="2.10868">
        <ele>63.7</ele>
        <time>2022-02-17T14:21:29Z</time>
      </trkpt>
      <trkpt lat="49.06826" lon="2.10865">
        <ele>63.3</ele>
        <time>2022-02-17T14:21:33Z</time>
      </trkpt>
      <trkpt lat="49.06831" lon="2.10864">
        <ele>63.9</ele>
        <time>2022-02-17T14:21:37Z</time>
      </trkpt>
      <trkpt lat="49.06836" lon="2.10862">
        <ele>64.9</ele>
        <time>2022-02-17T14:21:41Z</time>
      </trkpt>
      <trkpt lat="49.06842" lon="2.1086">
        <ele>65.7</ele>
        <time>2022-02-17T14:21:45Z</time>
      </trkpt>
      <trkpt lat="49.06846" lon="2.10858">
        <ele>65.8</ele>
        <time>2022-02-17T14:21:49Z</time>
      </trkpt>
      <trkpt lat="49.06852" lon="2.10857">
        <ele>66.3</ele>
        <time>2022-02-17T14:21:53Z</time>
      </trkpt>
      <trkpt lat="49.06857" lon="2.10856">
        <ele>67.2</ele>
        <time>2022-02-17T14:21:57Z</time>
      </trkpt>
      <trkpt lat="49.06862" lon="2.10854">
        <ele>68</ele>
        <time>2022-02-17T14:22:01Z</time>
      </trkpt>
      <trkpt lat="49.06867" lon="2.10852">
        <ele>68.7</ele>
        <time>2022-02-17T14:22:05Z</time>
      </trkpt>
      <trkpt lat="49.06872" lon="2.1085">
        <ele>69.2</ele>
        <time>2022-02-17T14:22:09Z</time>
      </trkpt>
      <trkpt lat="49.06877" lon="2.10847">
        <ele>68.8</ele>
        <time>2022-02-17T14:22:13Z</time>
      </trkpt>
      <trkpt lat="49.06881" lon="2.10845">
        <ele>68.8</ele>
        <time>2022-02-17T14:22:17Z</time>
      </trkpt>
      <trkpt lat="49.06886" lon="2.10843">
        <ele>69.2</ele>
        <time>2022-02-17T14:22:22Z</time>
      </trkpt>
      <trkpt lat="49.06891" lon="2.10843">
        <ele>69.8</ele>
        <time>2022-02-17T14:22:27Z</time>
      </trkpt>
      <trkpt lat="49.06894" lon="2.10838">
        <ele>69.7</ele>
        <time>2022-02-17T14:22:31Z</time>
      </trkpt>
      <trkpt lat="49.06898" lon="2.10833">
        <ele>69.2</ele>
        <time>2022-02-17T14:22:34Z</time>
      </trkpt>
      <trkpt lat="49.06902" lon="2.10831">
        <ele>68.7</ele>
        <time>2022-02-17T14:22:38Z</time>
      </trkpt>
      <trkpt lat="49.06908" lon="2.1083">
        <ele>69.5</ele>
        <time>2022-02-17T14:22:43Z</time>
      </trkpt>
      <trkpt lat="49.06913" lon="2.1083">
        <ele>71.3</ele>
        <time>2022-02-17T14:22:48Z</time>
      </trkpt>
      <trkpt lat="49.06918" lon="2.10828">
        <ele>72.1</ele>
        <time>2022-02-17T14:22:52Z</time>
      </trkpt>
      <trkpt lat="49.06923" lon="2.10824">
        <ele>72.2</ele>
        <time>2022-02-17T14:22:56Z</time>
      </trkpt>
      <trkpt lat="49.06925" lon="2.10818">
        <ele>71.3</ele>
        <time>2022-02-17T14:23:09Z</time>
      </trkpt>
      <trkpt lat="49.06929" lon="2.10813">
        <ele>71.6</ele>
        <time>2022-02-17T14:23:13Z</time>
      </trkpt>
      <trkpt lat="49.06932" lon="2.10807">
        <ele>71.7</ele>
        <time>2022-02-17T14:23:17Z</time>
      </trkpt>
      <trkpt lat="49.06933" lon="2.108">
        <ele>70.8</ele>
        <time>2022-02-17T14:23:21Z</time>
      </trkpt>
      <trkpt lat="49.06933" lon="2.10793">
        <ele>69.8</ele>
        <time>2022-02-17T14:23:25Z</time>
      </trkpt>
      <trkpt lat="49.06936" lon="2.10786">
        <ele>69.5</ele>
        <time>2022-02-17T14:23:29Z</time>
      </trkpt>
      <trkpt lat="49.06939" lon="2.10781">
        <ele>70</ele>
        <time>2022-02-17T14:23:32Z</time>
      </trkpt>
      <trkpt lat="49.0694" lon="2.10774">
        <ele>70.5</ele>
        <time>2022-02-17T14:23:36Z</time>
      </trkpt>
      <trkpt lat="49.06944" lon="2.10767">
        <ele>71.1</ele>
        <time>2022-02-17T14:23:42Z</time>
      </trkpt>
      <trkpt lat="49.06946" lon="2.10759">
        <ele>71.4</ele>
        <time>2022-02-17T14:23:46Z</time>
      </trkpt>
      <trkpt lat="49.06947" lon="2.10752">
        <ele>71.3</ele>
        <time>2022-02-17T14:23:50Z</time>
      </trkpt>
      <trkpt lat="49.0695" lon="2.10745">
        <ele>70.4</ele>
        <time>2022-02-17T14:23:54Z</time>
      </trkpt>
      <trkpt lat="49.06953" lon="2.10739">
        <ele>69.7</ele>
        <time>2022-02-17T14:23:59Z</time>
      </trkpt>
      <trkpt lat="49.06956" lon="2.10732">
        <ele>69.5</ele>
        <time>2022-02-17T14:24:03Z</time>
      </trkpt>
      <trkpt lat="49.06959" lon="2.10726">
        <ele>69.6</ele>
        <time>2022-02-17T14:24:07Z</time>
      </trkpt>
      <trkpt lat="49.06961" lon="2.10719">
        <ele>69.5</ele>
        <time>2022-02-17T14:24:11Z</time>
      </trkpt>
      <trkpt lat="49.06963" lon="2.10712">
        <ele>68.8</ele>
        <time>2022-02-17T14:24:15Z</time>
      </trkpt>
      <trkpt lat="49.06965" lon="2.10706">
        <ele>68.1</ele>
        <time>2022-02-17T14:24:19Z</time>
      </trkpt>
      <trkpt lat="49.06967" lon="2.107">
        <ele>68.2</ele>
        <time>2022-02-17T14:24:23Z</time>
      </trkpt>
      <trkpt lat="49.0697" lon="2.10694">
        <ele>68.7</ele>
        <time>2022-02-17T14:24:27Z</time>
      </trkpt>
      <trkpt lat="49.06973" lon="2.10688">
        <ele>69.2</ele>
        <time>2022-02-17T14:24:32Z</time>
      </trkpt>
      <trkpt lat="49.06976" lon="2.10682">
        <ele>69.3</ele>
        <time>2022-02-17T14:24:36Z</time>
      </trkpt>
      <trkpt lat="49.0698" lon="2.10676">
        <ele>68.9</ele>
        <time>2022-02-17T14:24:40Z</time>
      </trkpt>
      <trkpt lat="49.06983" lon="2.10671">
        <ele>68.4</ele>
        <time>2022-02-17T14:24:44Z</time>
      </trkpt>
      <trkpt lat="49.06987" lon="2.10666">
        <ele>68.2</ele>
        <time>2022-02-17T14:24:48Z</time>
      </trkpt>
      <trkpt lat="49.06991" lon="2.10661">
        <ele>68.3</ele>
        <time>2022-02-17T14:24:52Z</time>
      </trkpt>
      <trkpt lat="49.06995" lon="2.10656">
        <ele>68.5</ele>
        <time>2022-02-17T14:24:56Z</time>
      </trkpt>
      <trkpt lat="49.06998" lon="2.10651">
        <ele>68.5</ele>
        <time>2022-02-17T14:25:00Z</time>
      </trkpt>
      <trkpt lat="49.07001" lon="2.10646">
        <ele>68.1</ele>
        <time>2022-02-17T14:25:04Z</time>
      </trkpt>
      <trkpt lat="49.07005" lon="2.10641">
        <ele>67.9</ele>
        <time>2022-02-17T14:25:08Z</time>
      </trkpt>
      <trkpt lat="49.07008" lon="2.10637">
        <ele>68.1</ele>
        <time>2022-02-17T14:25:11Z</time>
      </trkpt>
      <trkpt lat="49.07012" lon="2.10633">
        <ele>68.5</ele>
        <time>2022-02-17T14:25:15Z</time>
      </trkpt>
      <trkpt lat="49.07016" lon="2.1063">
        <ele>68.7</ele>
        <time>2022-02-17T14:25:18Z</time>
      </trkpt>
      <trkpt lat="49.07021" lon="2.10626">
        <ele>69.1</ele>
        <time>2022-02-17T14:25:22Z</time>
      </trkpt>
      <trkpt lat="49.07026" lon="2.10622">
        <ele>70</ele>
        <time>2022-02-17T14:25:26Z</time>
      </trkpt>
      <trkpt lat="49.0703" lon="2.10618">
        <ele>71</ele>
        <time>2022-02-17T14:25:30Z</time>
      </trkpt>
      <trkpt lat="49.07033" lon="2.10613">
        <ele>71.3</ele>
        <time>2022-02-17T14:25:34Z</time>
      </trkpt>
      <trkpt lat="49.07037" lon="2.10608">
        <ele>71.3</ele>
        <time>2022-02-17T14:25:39Z</time>
      </trkpt>
      <trkpt lat="49.0704" lon="2.10603">
        <ele>71.1</ele>
        <time>2022-02-17T14:25:43Z</time>
      </trkpt>
      <trkpt lat="49.07044" lon="2.10598">
        <ele>70.8</ele>
        <time>2022-02-17T14:25:47Z</time>
      </trkpt>
      <trkpt lat="49.07048" lon="2.10593">
        <ele>70.5</ele>
        <time>2022-02-17T14:25:51Z</time>
      </trkpt>
      <trkpt lat="49.07051" lon="2.10589">
        <ele>70.7</ele>
        <time>2022-02-17T14:25:55Z</time>
      </trkpt>
      <trkpt lat="49.07055" lon="2.10584">
        <ele>71.2</ele>
        <time>2022-02-17T14:25:59Z</time>
      </trkpt>
      <trkpt lat="49.07059" lon="2.10581">
        <ele>71.8</ele>
        <time>2022-02-17T14:26:03Z</time>
      </trkpt>
      <trkpt lat="49.07062" lon="2.10576">
        <ele>72.2</ele>
        <time>2022-02-17T14:26:07Z</time>
      </trkpt>
      <trkpt lat="49.07066" lon="2.10571">
        <ele>72.4</ele>
        <time>2022-02-17T14:26:11Z</time>
      </trkpt>
      <trkpt lat="49.07069" lon="2.10566">
        <ele>72.4</ele>
        <time>2022-02-17T14:26:15Z</time>
      </trkpt>
      <trkpt lat="49.07073" lon="2.10562">
        <ele>72.2</ele>
        <time>2022-02-17T14:26:19Z</time>
      </trkpt>
      <trkpt lat="49.07079" lon="2.10558">
        <ele>72.1</ele>
        <time>2022-02-17T14:26:23Z</time>
      </trkpt>
      <trkpt lat="49.07083" lon="2.10552">
        <ele>72.5</ele>
        <time>2022-02-17T14:26:28Z</time>
      </trkpt>
      <trkpt lat="49.07087" lon="2.10548">
        <ele>73.5</ele>
        <time>2022-02-17T14:26:32Z</time>
      </trkpt>
      <trkpt lat="49.07091" lon="2.10544">
        <ele>74.5</ele>
        <time>2022-02-17T14:26:36Z</time>
      </trkpt>
      <trkpt lat="49.07095" lon="2.10539">
        <ele>75.4</ele>
        <time>2022-02-17T14:26:40Z</time>
      </trkpt>
      <trkpt lat="49.07099" lon="2.10534">
        <ele>76.3</ele>
        <time>2022-02-17T14:26:44Z</time>
      </trkpt>
      <trkpt lat="49.07103" lon="2.1053">
        <ele>76.8</ele>
        <time>2022-02-17T14:26:48Z</time>
      </trkpt>
      <trkpt lat="49.07107" lon="2.10526">
        <ele>77.1</ele>
        <time>2022-02-17T14:26:52Z</time>
      </trkpt>
      <trkpt lat="49.07112" lon="2.10521">
        <ele>77.8</ele>
        <time>2022-02-17T14:26:56Z</time>
      </trkpt>
      <trkpt lat="49.07115" lon="2.10516">
        <ele>78.4</ele>
        <time>2022-02-17T14:27:00Z</time>
      </trkpt>
      <trkpt lat="49.07119" lon="2.10512">
        <ele>78.4</ele>
        <time>2022-02-17T14:27:04Z</time>
      </trkpt>
      <trkpt lat="49.07123" lon="2.10507">
        <ele>77.9</ele>
        <time>2022-02-17T14:27:08Z</time>
      </trkpt>
      <trkpt lat="49.07128" lon="2.10505">
        <ele>77.7</ele>
        <time>2022-02-17T14:27:12Z</time>
      </trkpt>
      <trkpt lat="49.07134" lon="2.10502">
        <ele>78.1</ele>
        <time>2022-02-17T14:27:17Z</time>
      </trkpt>
      <trkpt lat="49.07139" lon="2.105">
        <ele>78.5</ele>
        <time>2022-02-17T14:27:21Z</time>
      </trkpt>
      <trkpt lat="49.07144" lon="2.10498">
        <ele>78.7</ele>
        <time>2022-02-17T14:27:25Z</time>
      </trkpt>
      <trkpt lat="49.07149" lon="2.10494">
        <ele>78.6</ele>
        <time>2022-02-17T14:27:29Z</time>
      </trkpt>
      <trkpt lat="49.07154" lon="2.10491">
        <ele>78.4</ele>
        <time>2022-02-17T14:27:33Z</time>
      </trkpt>
      <trkpt lat="49.0716" lon="2.10488">
        <ele>78.4</ele>
        <time>2022-02-17T14:27:38Z</time>
      </trkpt>
      <trkpt lat="49.07165" lon="2.10485">
        <ele>78.3</ele>
        <time>2022-02-17T14:27:42Z</time>
      </trkpt>
      <trkpt lat="49.07169" lon="2.10482">
        <ele>78.1</ele>
        <time>2022-02-17T14:27:46Z</time>
      </trkpt>
      <trkpt lat="49.07174" lon="2.10479">
        <ele>77.5</ele>
        <time>2022-02-17T14:27:50Z</time>
      </trkpt>
      <trkpt lat="49.07179" lon="2.10475">
        <ele>77.3</ele>
        <time>2022-02-17T14:27:53Z</time>
      </trkpt>
      <trkpt lat="49.07185" lon="2.10472">
        <ele>77.3</ele>
        <time>2022-02-17T14:27:58Z</time>
      </trkpt>
      <trkpt lat="49.07187" lon="2.10462">
        <ele>77.2</ele>
        <time>2022-02-17T14:28:05Z</time>
      </trkpt>
      <trkpt lat="49.07191" lon="2.10453">
        <ele>77.2</ele>
        <time>2022-02-17T14:28:09Z</time>
      </trkpt>
      <trkpt lat="49.07197" lon="2.10453">
        <ele>77.2</ele>
        <time>2022-02-17T14:28:12Z</time>
      </trkpt>
      <trkpt lat="49.07203" lon="2.10455">
        <ele>77.4</ele>
        <time>2022-02-17T14:28:16Z</time>
      </trkpt>
      <trkpt lat="49.07211" lon="2.10454">
        <ele>77.7</ele>
        <time>2022-02-17T14:28:20Z</time>
      </trkpt>
      <trkpt lat="49.07217" lon="2.10453">
        <ele>78.1</ele>
        <time>2022-02-17T14:28:23Z</time>
      </trkpt>
      <trkpt lat="49.07222" lon="2.10451">
        <ele>78.4</ele>
        <time>2022-02-17T14:28:26Z</time>
      </trkpt>
      <trkpt lat="49.07227" lon="2.10448">
        <ele>78.8</ele>
        <time>2022-02-17T14:28:31Z</time>
      </trkpt>
      <trkpt lat="49.07229" lon="2.1044">
        <ele>78.9</ele>
        <time>2022-02-17T14:28:35Z</time>
      </trkpt>
      <trkpt lat="49.07226" lon="2.10433">
        <ele>78.6</ele>
        <time>2022-02-17T14:28:38Z</time>
      </trkpt>
      <trkpt lat="49.0722" lon="2.1043">
        <ele>78.4</ele>
        <time>2022-02-17T14:28:42Z</time>
      </trkpt>
      <trkpt lat="49.07216" lon="2.10429">
        <ele>78.3</ele>
        <time>2022-02-17T14:28:45Z</time>
      </trkpt>
      <trkpt lat="49.07212" lon="2.10426">
        <ele>78.1</ele>
        <time>2022-02-17T14:28:48Z</time>
      </trkpt>
      <trkpt lat="49.07207" lon="2.10424">
        <ele>77.5</ele>
        <time>2022-02-17T14:28:52Z</time>
      </trkpt>
      <trkpt lat="49.07203" lon="2.10421">
        <ele>76.7</ele>
        <time>2022-02-17T14:28:56Z</time>
      </trkpt>
      <trkpt lat="49.07198" lon="2.10417">
        <ele>76.9</ele>
        <time>2022-02-17T14:29:02Z</time>
      </trkpt>
      <trkpt lat="49.07193" lon="2.10414">
        <ele>77.2</ele>
        <time>2022-02-17T14:29:06Z</time>
      </trkpt>
      <trkpt lat="49.07189" lon="2.1041">
        <ele>77.4</ele>
        <time>2022-02-17T14:29:10Z</time>
      </trkpt>
      <trkpt lat="49.07184" lon="2.10406">
        <ele>77.3</ele>
        <time>2022-02-17T14:29:15Z</time>
      </trkpt>
      <trkpt lat="49.0718" lon="2.10402">
        <ele>77.1</ele>
        <time>2022-02-17T14:29:18Z</time>
      </trkpt>
      <trkpt lat="49.07174" lon="2.10399">
        <ele>77</ele>
        <time>2022-02-17T14:29:23Z</time>
      </trkpt>
      <trkpt lat="49.0717" lon="2.10393">
        <ele>77.3</ele>
        <time>2022-02-17T14:29:27Z</time>
      </trkpt>
      <trkpt lat="49.07166" lon="2.1039">
        <ele>77.6</ele>
        <time>2022-02-17T14:29:31Z</time>
      </trkpt>
      <trkpt lat="49.07161" lon="2.10387">
        <ele>77.8</ele>
        <time>2022-02-17T14:29:34Z</time>
      </trkpt>
      <trkpt lat="49.07157" lon="2.10383">
        <ele>78</ele>
        <time>2022-02-17T14:29:38Z</time>
      </trkpt>
      <trkpt lat="49.07153" lon="2.10379">
        <ele>78.5</ele>
        <time>2022-02-17T14:29:41Z</time>
      </trkpt>
      <trkpt lat="49.07148" lon="2.10375">
        <ele>79.5</ele>
        <time>2022-02-17T14:29:45Z</time>
      </trkpt>
      <trkpt lat="49.07144" lon="2.10372">
        <ele>80.9</ele>
        <time>2022-02-17T14:29:49Z</time>
      </trkpt>
      <trkpt lat="49.07138" lon="2.10372">
        <ele>81.6</ele>
        <time>2022-02-17T14:29:53Z</time>
      </trkpt>
      <trkpt lat="49.07134" lon="2.10369">
        <ele>80.6</ele>
        <time>2022-02-17T14:29:57Z</time>
      </trkpt>
      <trkpt lat="49.0713" lon="2.10365">
        <ele>79.1</ele>
        <time>2022-02-17T14:30:01Z</time>
      </trkpt>
      <trkpt lat="49.07125" lon="2.10362">
        <ele>78.1</ele>
        <time>2022-02-17T14:30:06Z</time>
      </trkpt>
      <trkpt lat="49.0712" lon="2.10359">
        <ele>76.8</ele>
        <time>2022-02-17T14:30:11Z</time>
      </trkpt>
      <trkpt lat="49.07115" lon="2.10356">
        <ele>75.6</ele>
        <time>2022-02-17T14:30:15Z</time>
      </trkpt>
      <trkpt lat="49.07111" lon="2.10352">
        <ele>74.6</ele>
        <time>2022-02-17T14:30:19Z</time>
      </trkpt>
      <trkpt lat="49.07107" lon="2.10348">
        <ele>74.1</ele>
        <time>2022-02-17T14:30:23Z</time>
      </trkpt>
      <trkpt lat="49.07103" lon="2.10342">
        <ele>74</ele>
        <time>2022-02-17T14:30:26Z</time>
      </trkpt>
      <trkpt lat="49.07099" lon="2.10336">
        <ele>73.7</ele>
        <time>2022-02-17T14:30:30Z</time>
      </trkpt>
      <trkpt lat="49.07095" lon="2.1033">
        <ele>73.1</ele>
        <time>2022-02-17T14:30:34Z</time>
      </trkpt>
      <trkpt lat="49.07091" lon="2.10325">
        <ele>72.7</ele>
        <time>2022-02-17T14:30:38Z</time>
      </trkpt>
      <trkpt lat="49.07087" lon="2.10321">
        <ele>72.7</ele>
        <time>2022-02-17T14:30:41Z</time>
      </trkpt>
      <trkpt lat="49.07084" lon="2.10316">
        <ele>72.5</ele>
        <time>2022-02-17T14:30:45Z</time>
      </trkpt>
      <trkpt lat="49.0708" lon="2.10312">
        <ele>72.2</ele>
        <time>2022-02-17T14:30:48Z</time>
      </trkpt>
      <trkpt lat="49.07076" lon="2.10308">
        <ele>71.5</ele>
        <time>2022-02-17T14:30:52Z</time>
      </trkpt>
      <trkpt lat="49.07072" lon="2.10303">
        <ele>70.8</ele>
        <time>2022-02-17T14:30:56Z</time>
      </trkpt>
      <trkpt lat="49.07068" lon="2.10298">
        <ele>70.1</ele>
        <time>2022-02-17T14:31:00Z</time>
      </trkpt>
      <trkpt lat="49.07064" lon="2.10292">
        <ele>70.1</ele>
        <time>2022-02-17T14:31:03Z</time>
      </trkpt>
      <trkpt lat="49.0706" lon="2.10287">
        <ele>70.3</ele>
        <time>2022-02-17T14:31:07Z</time>
      </trkpt>
      <trkpt lat="49.0706" lon="2.1028">
        <ele>70.5</ele>
        <time>2022-02-17T14:31:12Z</time>
      </trkpt>
      <trkpt lat="49.07056" lon="2.10274">
        <ele>71.1</ele>
        <time>2022-02-17T14:31:17Z</time>
      </trkpt>
      <trkpt lat="49.07051" lon="2.10271">
        <ele>71.1</ele>
        <time>2022-02-17T14:31:21Z</time>
      </trkpt>
      <trkpt lat="49.07047" lon="2.10266">
        <ele>70.7</ele>
        <time>2022-02-17T14:31:24Z</time>
      </trkpt>
      <trkpt lat="49.07043" lon="2.10262">
        <ele>70.4</ele>
        <time>2022-02-17T14:31:28Z</time>
      </trkpt>
      <trkpt lat="49.0704" lon="2.10256">
        <ele>70.3</ele>
        <time>2022-02-17T14:31:32Z</time>
      </trkpt>
      <trkpt lat="49.07037" lon="2.1025">
        <ele>70.4</ele>
        <time>2022-02-17T14:31:36Z</time>
      </trkpt>
      <trkpt lat="49.07033" lon="2.10245">
        <ele>70.6</ele>
        <time>2022-02-17T14:31:40Z</time>
      </trkpt>
      <trkpt lat="49.0703" lon="2.10239">
        <ele>70.8</ele>
        <time>2022-02-17T14:31:44Z</time>
      </trkpt>
      <trkpt lat="49.07026" lon="2.10234">
        <ele>70.4</ele>
        <time>2022-02-17T14:31:48Z</time>
      </trkpt>
      <trkpt lat="49.07023" lon="2.10229">
        <ele>70.1</ele>
        <time>2022-02-17T14:31:52Z</time>
      </trkpt>
      <trkpt lat="49.0702" lon="2.10222">
        <ele>70</ele>
        <time>2022-02-17T14:31:56Z</time>
      </trkpt>
      <trkpt lat="49.07017" lon="2.10215">
        <ele>69.7</ele>
        <time>2022-02-17T14:32:00Z</time>
      </trkpt>
      <trkpt lat="49.07015" lon="2.10207">
        <ele>69.4</ele>
        <time>2022-02-17T14:32:04Z</time>
      </trkpt>
      <trkpt lat="49.07014" lon="2.10199">
        <ele>69.5</ele>
        <time>2022-02-17T14:32:08Z</time>
      </trkpt>
      <trkpt lat="49.07015" lon="2.10191">
        <ele>68.9</ele>
        <time>2022-02-17T14:32:13Z</time>
      </trkpt>
      <trkpt lat="49.07016" lon="2.10183">
        <ele>68.1</ele>
        <time>2022-02-17T14:32:17Z</time>
      </trkpt>
      <trkpt lat="49.07015" lon="2.10176">
        <ele>67.4</ele>
        <time>2022-02-17T14:32:22Z</time>
      </trkpt>
      <trkpt lat="49.07011" lon="2.10171">
        <ele>66.7</ele>
        <time>2022-02-17T14:32:26Z</time>
      </trkpt>
      <trkpt lat="49.07007" lon="2.10167">
        <ele>66.7</ele>
        <time>2022-02-17T14:32:30Z</time>
      </trkpt>
      <trkpt lat="49.07005" lon="2.10175">
        <ele>67.2</ele>
        <time>2022-02-17T14:32:33Z</time>
      </trkpt>
      <trkpt lat="49.07006" lon="2.10168">
        <ele>67</ele>
        <time>2022-02-17T14:32:43Z</time>
      </trkpt>
      <trkpt lat="49.07003" lon="2.10161">
        <ele>65.4</ele>
        <time>2022-02-17T14:32:47Z</time>
      </trkpt>
      <trkpt lat="49.06999" lon="2.10156">
        <ele>64.6</ele>
        <time>2022-02-17T14:32:52Z</time>
      </trkpt>
      <trkpt lat="49.06995" lon="2.10151">
        <ele>64.2</ele>
        <time>2022-02-17T14:32:57Z</time>
      </trkpt>
      <trkpt lat="49.06992" lon="2.10146">
        <ele>63</ele>
        <time>2022-02-17T14:33:01Z</time>
      </trkpt>
      <trkpt lat="49.06989" lon="2.10141">
        <ele>58.7</ele>
        <time>2022-02-17T14:33:08Z</time>
      </trkpt>
      <trkpt lat="49.06986" lon="2.10135">
        <ele>56.2</ele>
        <time>2022-02-17T14:33:12Z</time>
      </trkpt>
      <trkpt lat="49.06981" lon="2.1013">
        <ele>55.2</ele>
        <time>2022-02-17T14:33:16Z</time>
      </trkpt>
      <trkpt lat="49.06979" lon="2.10124">
        <ele>55.1</ele>
        <time>2022-02-17T14:33:20Z</time>
      </trkpt>
      <trkpt lat="49.06976" lon="2.10117">
        <ele>56</ele>
        <time>2022-02-17T14:33:25Z</time>
      </trkpt>
      <trkpt lat="49.06977" lon="2.1011">
        <ele>57.4</ele>
        <time>2022-02-17T14:33:30Z</time>
      </trkpt>
      <trkpt lat="49.06981" lon="2.10107">
        <ele>56.8</ele>
        <time>2022-02-17T14:33:39Z</time>
      </trkpt>
      <trkpt lat="49.06983" lon="2.10099">
        <ele>56.4</ele>
        <time>2022-02-17T14:33:43Z</time>
      </trkpt>
      <trkpt lat="49.06986" lon="2.10093">
        <ele>56.7</ele>
        <time>2022-02-17T14:33:52Z</time>
      </trkpt>
      <trkpt lat="49.06984" lon="2.10085">
        <ele>58.2</ele>
        <time>2022-02-17T14:34:04Z</time>
      </trkpt>
      <trkpt lat="49.06985" lon="2.10078">
        <ele>57.6</ele>
        <time>2022-02-17T14:34:07Z</time>
      </trkpt>
      <trkpt lat="49.06987" lon="2.1007">
        <ele>57.1</ele>
        <time>2022-02-17T14:34:11Z</time>
      </trkpt>
      <trkpt lat="49.06988" lon="2.10063">
        <ele>56.5</ele>
        <time>2022-02-17T14:34:16Z</time>
      </trkpt>
      <trkpt lat="49.0699" lon="2.10055">
        <ele>55</ele>
        <time>2022-02-17T14:34:20Z</time>
      </trkpt>
      <trkpt lat="49.06992" lon="2.10048">
        <ele>53.6</ele>
        <time>2022-02-17T14:34:24Z</time>
      </trkpt>
      <trkpt lat="49.06994" lon="2.1004">
        <ele>53.8</ele>
        <time>2022-02-17T14:34:28Z</time>
      </trkpt>
      <trkpt lat="49.06996" lon="2.10033">
        <ele>54.2</ele>
        <time>2022-02-17T14:34:33Z</time>
      </trkpt>
      <trkpt lat="49.07" lon="2.10027">
        <ele>53.7</ele>
        <time>2022-02-17T14:34:37Z</time>
      </trkpt>
      <trkpt lat="49.07003" lon="2.10019">
        <ele>53.9</ele>
        <time>2022-02-17T14:34:42Z</time>
      </trkpt>
      <trkpt lat="49.07006" lon="2.10013">
        <ele>55.4</ele>
        <time>2022-02-17T14:34:45Z</time>
      </trkpt>
      <trkpt lat="49.0701" lon="2.10008">
        <ele>56.6</ele>
        <time>2022-02-17T14:34:49Z</time>
      </trkpt>
      <trkpt lat="49.07014" lon="2.10005">
        <ele>56.6</ele>
        <time>2022-02-17T14:34:52Z</time>
      </trkpt>
      <trkpt lat="49.07018" lon="2.09999">
        <ele>56.6</ele>
        <time>2022-02-17T14:34:57Z</time>
      </trkpt>
      <trkpt lat="49.07019" lon="2.09991">
        <ele>56.8</ele>
        <time>2022-02-17T14:35:01Z</time>
      </trkpt>
      <trkpt lat="49.0702" lon="2.09984">
        <ele>57.4</ele>
        <time>2022-02-17T14:35:05Z</time>
      </trkpt>
      <trkpt lat="49.07023" lon="2.09976">
        <ele>58.3</ele>
        <time>2022-02-17T14:35:09Z</time>
      </trkpt>
      <trkpt lat="49.07025" lon="2.09969">
        <ele>59.8</ele>
        <time>2022-02-17T14:35:13Z</time>
      </trkpt>
      <trkpt lat="49.07026" lon="2.09962">
        <ele>60.1</ele>
        <time>2022-02-17T14:35:17Z</time>
      </trkpt>
      <trkpt lat="49.07029" lon="2.09955">
        <ele>58.5</ele>
        <time>2022-02-17T14:35:23Z</time>
      </trkpt>
      <trkpt lat="49.07031" lon="2.09948">
        <ele>57.5</ele>
        <time>2022-02-17T14:35:27Z</time>
      </trkpt>
      <trkpt lat="49.07035" lon="2.09942">
        <ele>55.9</ele>
        <time>2022-02-17T14:35:31Z</time>
      </trkpt>
      <trkpt lat="49.0704" lon="2.09936">
        <ele>53.4</ele>
        <time>2022-02-17T14:35:35Z</time>
      </trkpt>
      <trkpt lat="49.07044" lon="2.09929">
        <ele>52</ele>
        <time>2022-02-17T14:35:39Z</time>
      </trkpt>
      <trkpt lat="49.07048" lon="2.09922">
        <ele>49.4</ele>
        <time>2022-02-17T14:35:43Z</time>
      </trkpt>
      <trkpt lat="49.07049" lon="2.09916">
        <ele>47.5</ele>
        <time>2022-02-17T14:35:47Z</time>
      </trkpt>
      <trkpt lat="49.07051" lon="2.09908">
        <ele>46.9</ele>
        <time>2022-02-17T14:35:51Z</time>
      </trkpt>
      <trkpt lat="49.07052" lon="2.09901">
        <ele>47</ele>
        <time>2022-02-17T14:35:54Z</time>
      </trkpt>
      <trkpt lat="49.07052" lon="2.09893">
        <ele>47.1</ele>
        <time>2022-02-17T14:35:58Z</time>
      </trkpt>
      <trkpt lat="49.07048" lon="2.09887">
        <ele>47.7</ele>
        <time>2022-02-17T14:36:03Z</time>
      </trkpt>
      <trkpt lat="49.07042" lon="2.09885">
        <ele>47.9</ele>
        <time>2022-02-17T14:36:06Z</time>
      </trkpt>
      <trkpt lat="49.07037" lon="2.09884">
        <ele>49.1</ele>
        <time>2022-02-17T14:36:09Z</time>
      </trkpt>
      <trkpt lat="49.07032" lon="2.09882">
        <ele>49.3</ele>
        <time>2022-02-17T14:36:13Z</time>
      </trkpt>
      <trkpt lat="49.07027" lon="2.09878">
        <ele>49.4</ele>
        <time>2022-02-17T14:36:18Z</time>
      </trkpt>
      <trkpt lat="49.07026" lon="2.0987">
        <ele>49.7</ele>
        <time>2022-02-17T14:36:21Z</time>
      </trkpt>
      <trkpt lat="49.0703" lon="2.09864">
        <ele>49.9</ele>
        <time>2022-02-17T14:36:25Z</time>
      </trkpt>
      <trkpt lat="49.07034" lon="2.09862">
        <ele>48.5</ele>
        <time>2022-02-17T14:36:28Z</time>
      </trkpt>
      <trkpt lat="49.07039" lon="2.09859">
        <ele>46.2</ele>
        <time>2022-02-17T14:36:33Z</time>
      </trkpt>
      <trkpt lat="49.07043" lon="2.09856">
        <ele>46.6</ele>
        <time>2022-02-17T14:36:37Z</time>
      </trkpt>
      <trkpt lat="49.07049" lon="2.09854">
        <ele>48.5</ele>
        <time>2022-02-17T14:36:41Z</time>
      </trkpt>
      <trkpt lat="49.07054" lon="2.0985">
        <ele>49.7</ele>
        <time>2022-02-17T14:36:45Z</time>
      </trkpt>
      <trkpt lat="49.07058" lon="2.09847">
        <ele>50</ele>
        <time>2022-02-17T14:36:49Z</time>
      </trkpt>
      <trkpt lat="49.07063" lon="2.09846">
        <ele>50.9</ele>
        <time>2022-02-17T14:36:53Z</time>
      </trkpt>
      <trkpt lat="49.07069" lon="2.09846">
        <ele>52.6</ele>
        <time>2022-02-17T14:36:58Z</time>
      </trkpt>
      <trkpt lat="49.07073" lon="2.09845">
        <ele>54.7</ele>
        <time>2022-02-17T14:37:02Z</time>
      </trkpt>
      <trkpt lat="49.07079" lon="2.09844">
        <ele>55.9</ele>
        <time>2022-02-17T14:37:06Z</time>
      </trkpt>
      <trkpt lat="49.07084" lon="2.09842">
        <ele>56.1</ele>
        <time>2022-02-17T14:37:10Z</time>
      </trkpt>
      <trkpt lat="49.0709" lon="2.09841">
        <ele>55.2</ele>
        <time>2022-02-17T14:37:15Z</time>
      </trkpt>
      <trkpt lat="49.07094" lon="2.09838">
        <ele>54.5</ele>
        <time>2022-02-17T14:37:19Z</time>
      </trkpt>
      <trkpt lat="49.07099" lon="2.09836">
        <ele>53.9</ele>
        <time>2022-02-17T14:37:23Z</time>
      </trkpt>
      <trkpt lat="49.07103" lon="2.09833">
        <ele>54.1</ele>
        <time>2022-02-17T14:37:27Z</time>
      </trkpt>
      <trkpt lat="49.07108" lon="2.09831">
        <ele>54.8</ele>
        <time>2022-02-17T14:37:31Z</time>
      </trkpt>
      <trkpt lat="49.07112" lon="2.09826">
        <ele>55.9</ele>
        <time>2022-02-17T14:37:34Z</time>
      </trkpt>
      <trkpt lat="49.07115" lon="2.09819">
        <ele>56.1</ele>
        <time>2022-02-17T14:37:38Z</time>
      </trkpt>
      <trkpt lat="49.07117" lon="2.09811">
        <ele>55.1</ele>
        <time>2022-02-17T14:37:41Z</time>
      </trkpt>
      <trkpt lat="49.07118" lon="2.09804">
        <ele>53.7</ele>
        <time>2022-02-17T14:37:44Z</time>
      </trkpt>
      <trkpt lat="49.07118" lon="2.09797">
        <ele>51.6</ele>
        <time>2022-02-17T14:37:47Z</time>
      </trkpt>
      <trkpt lat="49.07118" lon="2.09789">
        <ele>49.8</ele>
        <time>2022-02-17T14:37:51Z</time>
      </trkpt>
      <trkpt lat="49.07118" lon="2.09781">
        <ele>48</ele>
        <time>2022-02-17T14:37:54Z</time>
      </trkpt>
      <trkpt lat="49.07118" lon="2.09774">
        <ele>46.5</ele>
        <time>2022-02-17T14:37:57Z</time>
      </trkpt>
      <trkpt lat="49.07119" lon="2.09766">
        <ele>44.5</ele>
        <time>2022-02-17T14:38:00Z</time>
      </trkpt>
      <trkpt lat="49.07121" lon="2.09758">
        <ele>42.6</ele>
        <time>2022-02-17T14:38:04Z</time>
      </trkpt>
      <trkpt lat="49.07125" lon="2.09753">
        <ele>42.3</ele>
        <time>2022-02-17T14:38:07Z</time>
      </trkpt>
      <trkpt lat="49.07129" lon="2.0975">
        <ele>43.7</ele>
        <time>2022-02-17T14:38:11Z</time>
      </trkpt>
      <trkpt lat="49.07132" lon="2.09744">
        <ele>45.9</ele>
        <time>2022-02-17T14:38:15Z</time>
      </trkpt>
      <trkpt lat="49.07135" lon="2.09738">
        <ele>46.4</ele>
        <time>2022-02-17T14:38:18Z</time>
      </trkpt>
      <trkpt lat="49.07137" lon="2.09731">
        <ele>46.9</ele>
        <time>2022-02-17T14:38:22Z</time>
      </trkpt>
      <trkpt lat="49.07139" lon="2.09723">
        <ele>48.8</ele>
        <time>2022-02-17T14:38:26Z</time>
      </trkpt>
      <trkpt lat="49.07141" lon="2.09716">
        <ele>50.6</ele>
        <time>2022-02-17T14:38:30Z</time>
      </trkpt>
      <trkpt lat="49.07143" lon="2.09709">
        <ele>51.5</ele>
        <time>2022-02-17T14:38:34Z</time>
      </trkpt>
      <trkpt lat="49.07147" lon="2.09702">
        <ele>51.1</ele>
        <time>2022-02-17T14:38:39Z</time>
      </trkpt>
      <trkpt lat="49.0715" lon="2.09697">
        <ele>49.9</ele>
        <time>2022-02-17T14:38:43Z</time>
      </trkpt>
      <trkpt lat="49.07154" lon="2.0969">
        <ele>48.8</ele>
        <time>2022-02-17T14:38:47Z</time>
      </trkpt>
      <trkpt lat="49.07157" lon="2.09683">
        <ele>48.4</ele>
        <time>2022-02-17T14:38:51Z</time>
      </trkpt>
      <trkpt lat="49.07159" lon="2.09676">
        <ele>48.3</ele>
        <time>2022-02-17T14:38:55Z</time>
      </trkpt>
      <trkpt lat="49.0716" lon="2.09668">
        <ele>48.8</ele>
        <time>2022-02-17T14:38:59Z</time>
      </trkpt>
      <trkpt lat="49.07161" lon="2.0966">
        <ele>49.8</ele>
        <time>2022-02-17T14:39:03Z</time>
      </trkpt>
      <trkpt lat="49.07163" lon="2.09653">
        <ele>51.5</ele>
        <time>2022-02-17T14:39:07Z</time>
      </trkpt>
      <trkpt lat="49.07167" lon="2.09647">
        <ele>54.7</ele>
        <time>2022-02-17T14:39:11Z</time>
      </trkpt>
      <trkpt lat="49.07171" lon="2.09641">
        <ele>57.3</ele>
        <time>2022-02-17T14:39:15Z</time>
      </trkpt>
      <trkpt lat="49.07175" lon="2.09636">
        <ele>57</ele>
        <time>2022-02-17T14:39:19Z</time>
      </trkpt>
      <trkpt lat="49.07178" lon="2.09629">
        <ele>54.9</ele>
        <time>2022-02-17T14:39:24Z</time>
      </trkpt>
      <trkpt lat="49.07182" lon="2.09624">
        <ele>54.4</ele>
        <time>2022-02-17T14:39:29Z</time>
      </trkpt>
      <trkpt lat="49.07187" lon="2.09623">
        <ele>54.5</ele>
        <time>2022-02-17T14:39:33Z</time>
      </trkpt>
      <trkpt lat="49.07191" lon="2.09621">
        <ele>54.6</ele>
        <time>2022-02-17T14:39:37Z</time>
      </trkpt>
      <trkpt lat="49.07196" lon="2.09619">
        <ele>54</ele>
        <time>2022-02-17T14:39:41Z</time>
      </trkpt>
      <trkpt lat="49.07202" lon="2.09617">
        <ele>54.5</ele>
        <time>2022-02-17T14:39:46Z</time>
      </trkpt>
      <trkpt lat="49.07206" lon="2.09614">
        <ele>55.5</ele>
        <time>2022-02-17T14:39:50Z</time>
      </trkpt>
      <trkpt lat="49.07211" lon="2.09612">
        <ele>55</ele>
        <time>2022-02-17T14:39:54Z</time>
      </trkpt>
      <trkpt lat="49.07215" lon="2.09607">
        <ele>53.3</ele>
        <time>2022-02-17T14:39:58Z</time>
      </trkpt>
      <trkpt lat="49.07219" lon="2.09601">
        <ele>52.4</ele>
        <time>2022-02-17T14:40:02Z</time>
      </trkpt>
      <trkpt lat="49.07222" lon="2.09597">
        <ele>53.5</ele>
        <time>2022-02-17T14:40:06Z</time>
      </trkpt>
      <trkpt lat="49.07226" lon="2.09592">
        <ele>55.6</ele>
        <time>2022-02-17T14:40:10Z</time>
      </trkpt>
      <trkpt lat="49.0723" lon="2.09587">
        <ele>58.4</ele>
        <time>2022-02-17T14:40:14Z</time>
      </trkpt>
      <trkpt lat="49.07234" lon="2.09581">
        <ele>60.1</ele>
        <time>2022-02-17T14:40:18Z</time>
      </trkpt>
      <trkpt lat="49.07236" lon="2.09574">
        <ele>60.8</ele>
        <time>2022-02-17T14:40:22Z</time>
      </trkpt>
      <trkpt lat="49.0724" lon="2.09566">
        <ele>60.7</ele>
        <time>2022-02-17T14:40:27Z</time>
      </trkpt>
      <trkpt lat="49.07243" lon="2.09561">
        <ele>60.6</ele>
        <time>2022-02-17T14:40:30Z</time>
      </trkpt>
      <trkpt lat="49.07247" lon="2.09554">
        <ele>58.7</ele>
        <time>2022-02-17T14:40:34Z</time>
      </trkpt>
      <trkpt lat="49.07251" lon="2.09548">
        <ele>57.2</ele>
        <time>2022-02-17T14:40:38Z</time>
      </trkpt>
      <trkpt lat="49.07254" lon="2.09544">
        <ele>56.2</ele>
        <time>2022-02-17T14:40:42Z</time>
      </trkpt>
      <trkpt lat="49.07258" lon="2.09539">
        <ele>56.8</ele>
        <time>2022-02-17T14:40:46Z</time>
      </trkpt>
      <trkpt lat="49.0726" lon="2.09533">
        <ele>59.1</ele>
        <time>2022-02-17T14:40:50Z</time>
      </trkpt>
      <trkpt lat="49.07263" lon="2.09526">
        <ele>60.5</ele>
        <time>2022-02-17T14:40:55Z</time>
      </trkpt>
      <trkpt lat="49.07266" lon="2.09519">
        <ele>60.3</ele>
        <time>2022-02-17T14:40:59Z</time>
      </trkpt>
      <trkpt lat="49.07268" lon="2.09511">
        <ele>58.9</ele>
        <time>2022-02-17T14:41:02Z</time>
      </trkpt>
      <trkpt lat="49.07269" lon="2.09503">
        <ele>56.4</ele>
        <time>2022-02-17T14:41:07Z</time>
      </trkpt>
      <trkpt lat="49.0727" lon="2.09494">
        <ele>53.3</ele>
        <time>2022-02-17T14:41:11Z</time>
      </trkpt>
      <trkpt lat="49.0727" lon="2.09485">
        <ele>50.6</ele>
        <time>2022-02-17T14:41:15Z</time>
      </trkpt>
      <trkpt lat="49.07271" lon="2.09477">
        <ele>49.5</ele>
        <time>2022-02-17T14:41:19Z</time>
      </trkpt>
      <trkpt lat="49.07273" lon="2.0947">
        <ele>50.7</ele>
        <time>2022-02-17T14:41:23Z</time>
      </trkpt>
      <trkpt lat="49.07275" lon="2.09463">
        <ele>52.3</ele>
        <time>2022-02-17T14:41:27Z</time>
      </trkpt>
      <trkpt lat="49.07277" lon="2.09455">
        <ele>52.6</ele>
        <time>2022-02-17T14:41:31Z</time>
      </trkpt>
      <trkpt lat="49.0728" lon="2.09448">
        <ele>53.1</ele>
        <time>2022-02-17T14:41:35Z</time>
      </trkpt>
      <trkpt lat="49.07283" lon="2.09443">
        <ele>53.8</ele>
        <time>2022-02-17T14:41:38Z</time>
      </trkpt>
      <trkpt lat="49.07286" lon="2.09437">
        <ele>53.8</ele>
        <time>2022-02-17T14:41:41Z</time>
      </trkpt>
      <trkpt lat="49.07288" lon="2.09429">
        <ele>53.9</ele>
        <time>2022-02-17T14:41:46Z</time>
      </trkpt>
      <trkpt lat="49.07289" lon="2.09422">
        <ele>54.8</ele>
        <time>2022-02-17T14:41:50Z</time>
      </trkpt>
      <trkpt lat="49.07288" lon="2.09414">
        <ele>56.5</ele>
        <time>2022-02-17T14:41:54Z</time>
      </trkpt>
      <trkpt lat="49.07286" lon="2.09406">
        <ele>56.9</ele>
        <time>2022-02-17T14:41:58Z</time>
      </trkpt>
      <trkpt lat="49.07283" lon="2.094">
        <ele>56.2</ele>
        <time>2022-02-17T14:42:01Z</time>
      </trkpt>
      <trkpt lat="49.07281" lon="2.09394">
        <ele>54.9</ele>
        <time>2022-02-17T14:42:05Z</time>
      </trkpt>
      <trkpt lat="49.07278" lon="2.09386">
        <ele>53.5</ele>
        <time>2022-02-17T14:42:09Z</time>
      </trkpt>
      <trkpt lat="49.07275" lon="2.0938">
        <ele>53.5</ele>
        <time>2022-02-17T14:42:13Z</time>
      </trkpt>
      <trkpt lat="49.07273" lon="2.09372">
        <ele>53.9</ele>
        <time>2022-02-17T14:42:17Z</time>
      </trkpt>
      <trkpt lat="49.07271" lon="2.09364">
        <ele>54.1</ele>
        <time>2022-02-17T14:42:21Z</time>
      </trkpt>
      <trkpt lat="49.07272" lon="2.09357">
        <ele>54</ele>
        <time>2022-02-17T14:42:25Z</time>
      </trkpt>
      <trkpt lat="49.07274" lon="2.0935">
        <ele>54.8</ele>
        <time>2022-02-17T14:42:29Z</time>
      </trkpt>
      <trkpt lat="49.07278" lon="2.09344">
        <ele>55</ele>
        <time>2022-02-17T14:42:33Z</time>
      </trkpt>
      <trkpt lat="49.07281" lon="2.09339">
        <ele>54</ele>
        <time>2022-02-17T14:42:37Z</time>
      </trkpt>
      <trkpt lat="49.07285" lon="2.09335">
        <ele>53.5</ele>
        <time>2022-02-17T14:42:41Z</time>
      </trkpt>
      <trkpt lat="49.07288" lon="2.09329">
        <ele>54.4</ele>
        <time>2022-02-17T14:42:45Z</time>
      </trkpt>
      <trkpt lat="49.07292" lon="2.09324">
        <ele>53.8</ele>
        <time>2022-02-17T14:42:50Z</time>
      </trkpt>
      <trkpt lat="49.07295" lon="2.09319">
        <ele>52.1</ele>
        <time>2022-02-17T14:42:53Z</time>
      </trkpt>
      <trkpt lat="49.07297" lon="2.09312">
        <ele>50.9</ele>
        <time>2022-02-17T14:42:57Z</time>
      </trkpt>
      <trkpt lat="49.073" lon="2.09306">
        <ele>51.5</ele>
        <time>2022-02-17T14:43:01Z</time>
      </trkpt>
      <trkpt lat="49.07305" lon="2.09303">
        <ele>52.8</ele>
        <time>2022-02-17T14:43:05Z</time>
      </trkpt>
      <trkpt lat="49.0731" lon="2.093">
        <ele>55.5</ele>
        <time>2022-02-17T14:43:10Z</time>
      </trkpt>
      <trkpt lat="49.07313" lon="2.09295">
        <ele>58.2</ele>
        <time>2022-02-17T14:43:14Z</time>
      </trkpt>
      <trkpt lat="49.07316" lon="2.09288">
        <ele>60.2</ele>
        <time>2022-02-17T14:43:18Z</time>
      </trkpt>
      <trkpt lat="49.07317" lon="2.09281">
        <ele>60.8</ele>
        <time>2022-02-17T14:43:21Z</time>
      </trkpt>
      <trkpt lat="49.0732" lon="2.09276">
        <ele>62.4</ele>
        <time>2022-02-17T14:43:24Z</time>
      </trkpt>
      <trkpt lat="49.07325" lon="2.09276">
        <ele>62.9</ele>
        <time>2022-02-17T14:43:28Z</time>
      </trkpt>
      <trkpt lat="49.0733" lon="2.09276">
        <ele>62.6</ele>
        <time>2022-02-17T14:43:32Z</time>
      </trkpt>
      <trkpt lat="49.07334" lon="2.09273">
        <ele>62.2</ele>
        <time>2022-02-17T14:43:36Z</time>
      </trkpt>
      <trkpt lat="49.07338" lon="2.09268">
        <ele>62.7</ele>
        <time>2022-02-17T14:43:41Z</time>
      </trkpt>
      <trkpt lat="49.07342" lon="2.09263">
        <ele>63.1</ele>
        <time>2022-02-17T14:43:45Z</time>
      </trkpt>
      <trkpt lat="49.07346" lon="2.09257">
        <ele>62.8</ele>
        <time>2022-02-17T14:43:49Z</time>
      </trkpt>
      <trkpt lat="49.07349" lon="2.0925">
        <ele>61.6</ele>
        <time>2022-02-17T14:43:53Z</time>
      </trkpt>
      <trkpt lat="49.07352" lon="2.09243">
        <ele>59.8</ele>
        <time>2022-02-17T14:43:57Z</time>
      </trkpt>
      <trkpt lat="49.07354" lon="2.09236">
        <ele>57.9</ele>
        <time>2022-02-17T14:44:01Z</time>
      </trkpt>
      <trkpt lat="49.07354" lon="2.09227">
        <ele>56.7</ele>
        <time>2022-02-17T14:44:05Z</time>
      </trkpt>
      <trkpt lat="49.07354" lon="2.09218">
        <ele>56.2</ele>
        <time>2022-02-17T14:44:09Z</time>
      </trkpt>
      <trkpt lat="49.07352" lon="2.09211">
        <ele>55.7</ele>
        <time>2022-02-17T14:44:13Z</time>
      </trkpt>
      <trkpt lat="49.07349" lon="2.09204">
        <ele>54.9</ele>
        <time>2022-02-17T14:44:17Z</time>
      </trkpt>
      <trkpt lat="49.07347" lon="2.09198">
        <ele>54</ele>
        <time>2022-02-17T14:44:20Z</time>
      </trkpt>
      <trkpt lat="49.07345" lon="2.09192">
        <ele>52.7</ele>
        <time>2022-02-17T14:44:23Z</time>
      </trkpt>
      <trkpt lat="49.07344" lon="2.09185">
        <ele>51.7</ele>
        <time>2022-02-17T14:44:26Z</time>
      </trkpt>
      <trkpt lat="49.07343" lon="2.09178">
        <ele>51</ele>
        <time>2022-02-17T14:44:30Z</time>
      </trkpt>
      <trkpt lat="49.07344" lon="2.0917">
        <ele>50.4</ele>
        <time>2022-02-17T14:44:34Z</time>
      </trkpt>
      <trkpt lat="49.07348" lon="2.09163">
        <ele>50</ele>
        <time>2022-02-17T14:44:38Z</time>
      </trkpt>
      <trkpt lat="49.07352" lon="2.09161">
        <ele>49.8</ele>
        <time>2022-02-17T14:44:41Z</time>
      </trkpt>
      <trkpt lat="49.07357" lon="2.09158">
        <ele>49.9</ele>
        <time>2022-02-17T14:44:45Z</time>
      </trkpt>
      <trkpt lat="49.07362" lon="2.09155">
        <ele>50.7</ele>
        <time>2022-02-17T14:44:50Z</time>
      </trkpt>
      <trkpt lat="49.07366" lon="2.09152">
        <ele>52.2</ele>
        <time>2022-02-17T14:44:54Z</time>
      </trkpt>
      <trkpt lat="49.07371" lon="2.09149">
        <ele>52.5</ele>
        <time>2022-02-17T14:44:58Z</time>
      </trkpt>
      <trkpt lat="49.07375" lon="2.09146">
        <ele>52.5</ele>
        <time>2022-02-17T14:45:03Z</time>
      </trkpt>
      <trkpt lat="49.07379" lon="2.09141">
        <ele>52.2</ele>
        <time>2022-02-17T14:45:07Z</time>
      </trkpt>
      <trkpt lat="49.07382" lon="2.09135">
        <ele>52</ele>
        <time>2022-02-17T14:45:13Z</time>
      </trkpt>
      <trkpt lat="49.07384" lon="2.09128">
        <ele>52.4</ele>
        <time>2022-02-17T14:45:19Z</time>
      </trkpt>
      <trkpt lat="49.07388" lon="2.0913">
        <ele>53.3</ele>
        <time>2022-02-17T14:45:23Z</time>
      </trkpt>
      <trkpt lat="49.0739" lon="2.09136">
        <ele>54.6</ele>
        <time>2022-02-17T14:45:27Z</time>
      </trkpt>
      <trkpt lat="49.07393" lon="2.09143">
        <ele>57.5</ele>
        <time>2022-02-17T14:45:36Z</time>
      </trkpt>
      <trkpt lat="49.07398" lon="2.09146">
        <ele>58</ele>
        <time>2022-02-17T14:45:41Z</time>
      </trkpt>
      <trkpt lat="49.07403" lon="2.0914">
        <ele>57.5</ele>
        <time>2022-02-17T14:45:46Z</time>
      </trkpt>
      <trkpt lat="49.07405" lon="2.09133">
        <ele>56.2</ele>
        <time>2022-02-17T14:45:50Z</time>
      </trkpt>
      <trkpt lat="49.07407" lon="2.09125">
        <ele>54.5</ele>
        <time>2022-02-17T14:45:54Z</time>
      </trkpt>
      <trkpt lat="49.07409" lon="2.09117">
        <ele>53.2</ele>
        <time>2022-02-17T14:45:59Z</time>
      </trkpt>
      <trkpt lat="49.07408" lon="2.09109">
        <ele>52.1</ele>
        <time>2022-02-17T14:46:03Z</time>
      </trkpt>
      <trkpt lat="49.07409" lon="2.09103">
        <ele>51.2</ele>
        <time>2022-02-17T14:46:07Z</time>
      </trkpt>
      <trkpt lat="49.07412" lon="2.09097">
        <ele>50.3</ele>
        <time>2022-02-17T14:46:12Z</time>
      </trkpt>
      <trkpt lat="49.07417" lon="2.09092">
        <ele>49.8</ele>
        <time>2022-02-17T14:46:17Z</time>
      </trkpt>
      <trkpt lat="49.07422" lon="2.09089">
        <ele>50</ele>
        <time>2022-02-17T14:46:21Z</time>
      </trkpt>
      <trkpt lat="49.07426" lon="2.09086">
        <ele>50.1</ele>
        <time>2022-02-17T14:46:25Z</time>
      </trkpt>
      <trkpt lat="49.07432" lon="2.09083">
        <ele>49.6</ele>
        <time>2022-02-17T14:46:30Z</time>
      </trkpt>
      <trkpt lat="49.07437" lon="2.0908">
        <ele>48.4</ele>
        <time>2022-02-17T14:46:34Z</time>
      </trkpt>
      <trkpt lat="49.07441" lon="2.09074">
        <ele>48.4</ele>
        <time>2022-02-17T14:46:38Z</time>
      </trkpt>
      <trkpt lat="49.07444" lon="2.09068">
        <ele>49.3</ele>
        <time>2022-02-17T14:46:42Z</time>
      </trkpt>
      <trkpt lat="49.07448" lon="2.09062">
        <ele>49.7</ele>
        <time>2022-02-17T14:46:46Z</time>
      </trkpt>
      <trkpt lat="49.07452" lon="2.09058">
        <ele>49.6</ele>
        <time>2022-02-17T14:46:50Z</time>
      </trkpt>
      <trkpt lat="49.07455" lon="2.09053">
        <ele>49.3</ele>
        <time>2022-02-17T14:46:54Z</time>
      </trkpt>
      <trkpt lat="49.07459" lon="2.09047">
        <ele>49.3</ele>
        <time>2022-02-17T14:46:59Z</time>
      </trkpt>
      <trkpt lat="49.07462" lon="2.0904">
        <ele>50.2</ele>
        <time>2022-02-17T14:47:04Z</time>
      </trkpt>
      <trkpt lat="49.07467" lon="2.09036">
        <ele>50.7</ele>
        <time>2022-02-17T14:47:08Z</time>
      </trkpt>
      <trkpt lat="49.07471" lon="2.09032">
        <ele>50.8</ele>
        <time>2022-02-17T14:47:12Z</time>
      </trkpt>
      <trkpt lat="49.07474" lon="2.09025">
        <ele>50.7</ele>
        <time>2022-02-17T14:47:17Z</time>
      </trkpt>
      <trkpt lat="49.07476" lon="2.09017">
        <ele>50.3</ele>
        <time>2022-02-17T14:47:21Z</time>
      </trkpt>
      <trkpt lat="49.07479" lon="2.0901">
        <ele>49.8</ele>
        <time>2022-02-17T14:47:26Z</time>
      </trkpt>
      <trkpt lat="49.07481" lon="2.09003">
        <ele>50</ele>
        <time>2022-02-17T14:47:30Z</time>
      </trkpt>
      <trkpt lat="49.07484" lon="2.08996">
        <ele>51</ele>
        <time>2022-02-17T14:47:34Z</time>
      </trkpt>
      <trkpt lat="49.07487" lon="2.08989">
        <ele>51.9</ele>
        <time>2022-02-17T14:47:38Z</time>
      </trkpt>
      <trkpt lat="49.07489" lon="2.08981">
        <ele>52.4</ele>
        <time>2022-02-17T14:47:42Z</time>
      </trkpt>
      <trkpt lat="49.0749" lon="2.08973">
        <ele>52</ele>
        <time>2022-02-17T14:47:47Z</time>
      </trkpt>
      <trkpt lat="49.07493" lon="2.08966">
        <ele>51.5</ele>
        <time>2022-02-17T14:47:53Z</time>
      </trkpt>
      <trkpt lat="49.07495" lon="2.08959">
        <ele>51.4</ele>
        <time>2022-02-17T14:47:58Z</time>
      </trkpt>
      <trkpt lat="49.07497" lon="2.08952">
        <ele>51.6</ele>
        <time>2022-02-17T14:48:02Z</time>
      </trkpt>
      <trkpt lat="49.07501" lon="2.08947">
        <ele>52.2</ele>
        <time>2022-02-17T14:48:06Z</time>
      </trkpt>
      <trkpt lat="49.07505" lon="2.08943">
        <ele>52.9</ele>
        <time>2022-02-17T14:48:10Z</time>
      </trkpt>
      <trkpt lat="49.0751" lon="2.08939">
        <ele>53</ele>
        <time>2022-02-17T14:48:14Z</time>
      </trkpt>
      <trkpt lat="49.07514" lon="2.08934">
        <ele>53.3</ele>
        <time>2022-02-17T14:48:19Z</time>
      </trkpt>
      <trkpt lat="49.07518" lon="2.08929">
        <ele>53.8</ele>
        <time>2022-02-17T14:48:23Z</time>
      </trkpt>
      <trkpt lat="49.07522" lon="2.08924">
        <ele>53.5</ele>
        <time>2022-02-17T14:48:27Z</time>
      </trkpt>
      <trkpt lat="49.07525" lon="2.0892">
        <ele>52.6</ele>
        <time>2022-02-17T14:48:31Z</time>
      </trkpt>
      <trkpt lat="49.07529" lon="2.08915">
        <ele>52.7</ele>
        <time>2022-02-17T14:48:36Z</time>
      </trkpt>
      <trkpt lat="49.07533" lon="2.0891">
        <ele>52.9</ele>
        <time>2022-02-17T14:48:40Z</time>
      </trkpt>
      <trkpt lat="49.07537" lon="2.08905">
        <ele>52.7</ele>
        <time>2022-02-17T14:48:44Z</time>
      </trkpt>
      <trkpt lat="49.07541" lon="2.089">
        <ele>51.7</ele>
        <time>2022-02-17T14:48:48Z</time>
      </trkpt>
      <trkpt lat="49.07545" lon="2.08896">
        <ele>52.2</ele>
        <time>2022-02-17T14:48:52Z</time>
      </trkpt>
      <trkpt lat="49.07548" lon="2.08891">
        <ele>53.8</ele>
        <time>2022-02-17T14:48:56Z</time>
      </trkpt>
      <trkpt lat="49.07552" lon="2.08884">
        <ele>54.7</ele>
        <time>2022-02-17T14:49:00Z</time>
      </trkpt>
      <trkpt lat="49.07554" lon="2.08877">
        <ele>54.7</ele>
        <time>2022-02-17T14:49:04Z</time>
      </trkpt>
      <trkpt lat="49.07557" lon="2.08871">
        <ele>55.1</ele>
        <time>2022-02-17T14:49:09Z</time>
      </trkpt>
      <trkpt lat="49.0756" lon="2.08865">
        <ele>56</ele>
        <time>2022-02-17T14:49:12Z</time>
      </trkpt>
      <trkpt lat="49.07563" lon="2.0886">
        <ele>57</ele>
        <time>2022-02-17T14:49:16Z</time>
      </trkpt>
      <trkpt lat="49.07567" lon="2.08855">
        <ele>57.1</ele>
        <time>2022-02-17T14:49:20Z</time>
      </trkpt>
      <trkpt lat="49.07571" lon="2.08851">
        <ele>56.5</ele>
        <time>2022-02-17T14:49:24Z</time>
      </trkpt>
      <trkpt lat="49.07575" lon="2.08848">
        <ele>55.8</ele>
        <time>2022-02-17T14:49:28Z</time>
      </trkpt>
      <trkpt lat="49.0758" lon="2.08845">
        <ele>55.8</ele>
        <time>2022-02-17T14:49:33Z</time>
      </trkpt>
      <trkpt lat="49.07586" lon="2.08842">
        <ele>55.8</ele>
        <time>2022-02-17T14:49:38Z</time>
      </trkpt>
      <trkpt lat="49.07591" lon="2.08841">
        <ele>55.5</ele>
        <time>2022-02-17T14:49:42Z</time>
      </trkpt>
      <trkpt lat="49.07596" lon="2.08839">
        <ele>54.3</ele>
        <time>2022-02-17T14:49:46Z</time>
      </trkpt>
      <trkpt lat="49.076" lon="2.08836">
        <ele>53.6</ele>
        <time>2022-02-17T14:49:50Z</time>
      </trkpt>
      <trkpt lat="49.07605" lon="2.08832">
        <ele>54.1</ele>
        <time>2022-02-17T14:49:54Z</time>
      </trkpt>
      <trkpt lat="49.0761" lon="2.08829">
        <ele>54.8</ele>
        <time>2022-02-17T14:49:59Z</time>
      </trkpt>
      <trkpt lat="49.07615" lon="2.08828">
        <ele>55.1</ele>
        <time>2022-02-17T14:50:03Z</time>
      </trkpt>
      <trkpt lat="49.0762" lon="2.08827">
        <ele>54.3</ele>
        <time>2022-02-17T14:50:07Z</time>
      </trkpt>
      <trkpt lat="49.07625" lon="2.08825">
        <ele>54.3</ele>
        <time>2022-02-17T14:50:11Z</time>
      </trkpt>
      <trkpt lat="49.0763" lon="2.08823">
        <ele>54.8</ele>
        <time>2022-02-17T14:50:15Z</time>
      </trkpt>
      <trkpt lat="49.07635" lon="2.08822">
        <ele>56.3</ele>
        <time>2022-02-17T14:50:20Z</time>
      </trkpt>
      <trkpt lat="49.0764" lon="2.0882">
        <ele>56.5</ele>
        <time>2022-02-17T14:50:25Z</time>
      </trkpt>
      <trkpt lat="49.07645" lon="2.08819">
        <ele>56.3</ele>
        <time>2022-02-17T14:50:31Z</time>
      </trkpt>
      <trkpt lat="49.0765" lon="2.08817">
        <ele>56.3</ele>
        <time>2022-02-17T14:50:36Z</time>
      </trkpt>
      <trkpt lat="49.07654" lon="2.08813">
        <ele>56.1</ele>
        <time>2022-02-17T14:50:39Z</time>
      </trkpt>
      <trkpt lat="49.07658" lon="2.0881">
        <ele>55.7</ele>
        <time>2022-02-17T14:50:45Z</time>
      </trkpt>
      <trkpt lat="49.07664" lon="2.08808">
        <ele>55.4</ele>
        <time>2022-02-17T14:50:50Z</time>
      </trkpt>
      <trkpt lat="49.07669" lon="2.08805">
        <ele>54.8</ele>
        <time>2022-02-17T14:50:54Z</time>
      </trkpt>
      <trkpt lat="49.07675" lon="2.08804">
        <ele>54.8</ele>
        <time>2022-02-17T14:50:59Z</time>
      </trkpt>
      <trkpt lat="49.0768" lon="2.08803">
        <ele>55.3</ele>
        <time>2022-02-17T14:51:03Z</time>
      </trkpt>
      <trkpt lat="49.07685" lon="2.088">
        <ele>55.8</ele>
        <time>2022-02-17T14:51:07Z</time>
      </trkpt>
      <trkpt lat="49.07689" lon="2.08796">
        <ele>56.8</ele>
        <time>2022-02-17T14:51:11Z</time>
      </trkpt>
      <trkpt lat="49.07694" lon="2.08794">
        <ele>58.3</ele>
        <time>2022-02-17T14:51:15Z</time>
      </trkpt>
      <trkpt lat="49.07698" lon="2.08791">
        <ele>59</ele>
        <time>2022-02-17T14:51:19Z</time>
      </trkpt>
      <trkpt lat="49.07703" lon="2.08789">
        <ele>59.2</ele>
        <time>2022-02-17T14:51:23Z</time>
      </trkpt>
      <trkpt lat="49.07708" lon="2.08787">
        <ele>59.1</ele>
        <time>2022-02-17T14:51:27Z</time>
      </trkpt>
      <trkpt lat="49.07713" lon="2.08785">
        <ele>58.3</ele>
        <time>2022-02-17T14:51:32Z</time>
      </trkpt>
      <trkpt lat="49.07717" lon="2.08784">
        <ele>57.1</ele>
        <time>2022-02-17T14:51:36Z</time>
      </trkpt>
      <trkpt lat="49.07722" lon="2.08784">
        <ele>56.1</ele>
        <time>2022-02-17T14:51:40Z</time>
      </trkpt>
      <trkpt lat="49.07727" lon="2.08781">
        <ele>55.5</ele>
        <time>2022-02-17T14:51:45Z</time>
      </trkpt>
      <trkpt lat="49.07731" lon="2.08779">
        <ele>55.6</ele>
        <time>2022-02-17T14:51:49Z</time>
      </trkpt>
      <trkpt lat="49.07735" lon="2.08775">
        <ele>55.4</ele>
        <time>2022-02-17T14:51:53Z</time>
      </trkpt>
      <trkpt lat="49.07739" lon="2.0877">
        <ele>55</ele>
        <time>2022-02-17T14:51:57Z</time>
      </trkpt>
      <trkpt lat="49.07742" lon="2.08764">
        <ele>54.2</ele>
        <time>2022-02-17T14:52:01Z</time>
      </trkpt>
      <trkpt lat="49.07744" lon="2.08757">
        <ele>53.6</ele>
        <time>2022-02-17T14:52:05Z</time>
      </trkpt>
      <trkpt lat="49.07746" lon="2.0875">
        <ele>53.1</ele>
        <time>2022-02-17T14:52:09Z</time>
      </trkpt>
      <trkpt lat="49.07748" lon="2.08743">
        <ele>52.6</ele>
        <time>2022-02-17T14:52:13Z</time>
      </trkpt>
      <trkpt lat="49.0775" lon="2.08735">
        <ele>51.5</ele>
        <time>2022-02-17T14:52:17Z</time>
      </trkpt>
      <trkpt lat="49.07752" lon="2.08728">
        <ele>50.1</ele>
        <time>2022-02-17T14:52:21Z</time>
      </trkpt>
      <trkpt lat="49.07755" lon="2.08721">
        <ele>49.5</ele>
        <time>2022-02-17T14:52:25Z</time>
      </trkpt>
      <trkpt lat="49.07758" lon="2.08715">
        <ele>49.9</ele>
        <time>2022-02-17T14:52:29Z</time>
      </trkpt>
      <trkpt lat="49.07761" lon="2.08708">
        <ele>50.8</ele>
        <time>2022-02-17T14:52:33Z</time>
      </trkpt>
      <trkpt lat="49.07764" lon="2.08701">
        <ele>51.9</ele>
        <time>2022-02-17T14:52:36Z</time>
      </trkpt>
      <trkpt lat="49.07768" lon="2.08696">
        <ele>52.4</ele>
        <time>2022-02-17T14:52:40Z</time>
      </trkpt>
      <trkpt lat="49.07773" lon="2.08692">
        <ele>52.3</ele>
        <time>2022-02-17T14:52:44Z</time>
      </trkpt>
      <trkpt lat="49.07776" lon="2.08687">
        <ele>52.4</ele>
        <time>2022-02-17T14:52:48Z</time>
      </trkpt>
      <trkpt lat="49.0778" lon="2.08682">
        <ele>52.9</ele>
        <time>2022-02-17T14:52:52Z</time>
      </trkpt>
      <trkpt lat="49.07784" lon="2.08679">
        <ele>53.5</ele>
        <time>2022-02-17T14:52:56Z</time>
      </trkpt>
      <trkpt lat="49.0779" lon="2.08674">
        <ele>55.4</ele>
        <time>2022-02-17T14:53:01Z</time>
      </trkpt>
      <trkpt lat="49.07794" lon="2.0867">
        <ele>55.6</ele>
        <time>2022-02-17T14:53:05Z</time>
      </trkpt>
      <trkpt lat="49.07798" lon="2.08666">
        <ele>55.2</ele>
        <time>2022-02-17T14:53:09Z</time>
      </trkpt>
      <trkpt lat="49.07801" lon="2.0866">
        <ele>55.1</ele>
        <time>2022-02-17T14:53:13Z</time>
      </trkpt>
      <trkpt lat="49.07805" lon="2.08654">
        <ele>55.2</ele>
        <time>2022-02-17T14:53:17Z</time>
      </trkpt>
      <trkpt lat="49.07807" lon="2.08647">
        <ele>56.2</ele>
        <time>2022-02-17T14:53:21Z</time>
      </trkpt>
      <trkpt lat="49.07811" lon="2.08642">
        <ele>57.9</ele>
        <time>2022-02-17T14:53:25Z</time>
      </trkpt>
      <trkpt lat="49.07816" lon="2.08638">
        <ele>58.4</ele>
        <time>2022-02-17T14:53:29Z</time>
      </trkpt>
      <trkpt lat="49.07821" lon="2.08634">
        <ele>57.8</ele>
        <time>2022-02-17T14:53:33Z</time>
      </trkpt>
      <trkpt lat="49.07825" lon="2.08632">
        <ele>57</ele>
        <time>2022-02-17T14:53:38Z</time>
      </trkpt>
      <trkpt lat="49.07831" lon="2.08631">
        <ele>56.7</ele>
        <time>2022-02-17T14:53:42Z</time>
      </trkpt>
      <trkpt lat="49.07836" lon="2.0863">
        <ele>57.1</ele>
        <time>2022-02-17T14:53:46Z</time>
      </trkpt>
      <trkpt lat="49.07841" lon="2.08627">
        <ele>56.6</ele>
        <time>2022-02-17T14:53:50Z</time>
      </trkpt>
      <trkpt lat="49.07845" lon="2.08626">
        <ele>55.4</ele>
        <time>2022-02-17T14:53:54Z</time>
      </trkpt>
      <trkpt lat="49.07851" lon="2.08625">
        <ele>55.3</ele>
        <time>2022-02-17T14:53:59Z</time>
      </trkpt>
      <trkpt lat="49.07856" lon="2.08623">
        <ele>55.7</ele>
        <time>2022-02-17T14:54:03Z</time>
      </trkpt>
      <trkpt lat="49.07861" lon="2.08623">
        <ele>56.2</ele>
        <time>2022-02-17T14:54:07Z</time>
      </trkpt>
      <trkpt lat="49.07866" lon="2.08622">
        <ele>57.4</ele>
        <time>2022-02-17T14:54:11Z</time>
      </trkpt>
      <trkpt lat="49.07871" lon="2.08622">
        <ele>58.2</ele>
        <time>2022-02-17T14:54:16Z</time>
      </trkpt>
      <trkpt lat="49.07876" lon="2.08622">
        <ele>58.1</ele>
        <time>2022-02-17T14:54:20Z</time>
      </trkpt>
      <trkpt lat="49.07881" lon="2.08622">
        <ele>57.1</ele>
        <time>2022-02-17T14:54:24Z</time>
      </trkpt>
      <trkpt lat="49.07886" lon="2.08621">
        <ele>56.5</ele>
        <time>2022-02-17T14:54:29Z</time>
      </trkpt>
      <trkpt lat="49.07891" lon="2.0862">
        <ele>55.8</ele>
        <time>2022-02-17T14:54:33Z</time>
      </trkpt>
      <trkpt lat="49.07895" lon="2.08618">
        <ele>55.3</ele>
        <time>2022-02-17T14:54:37Z</time>
      </trkpt>
      <trkpt lat="49.079" lon="2.08618">
        <ele>55.6</ele>
        <time>2022-02-17T14:54:41Z</time>
      </trkpt>
      <trkpt lat="49.07906" lon="2.08619">
        <ele>57</ele>
        <time>2022-02-17T14:54:45Z</time>
      </trkpt>
      <trkpt lat="49.07911" lon="2.08622">
        <ele>57.8</ele>
        <time>2022-02-17T14:54:49Z</time>
      </trkpt>
      <trkpt lat="49.07916" lon="2.08622">
        <ele>58.1</ele>
        <time>2022-02-17T14:54:52Z</time>
      </trkpt>
      <trkpt lat="49.07921" lon="2.08624">
        <ele>58.6</ele>
        <time>2022-02-17T14:54:56Z</time>
      </trkpt>
      <trkpt lat="49.07926" lon="2.08626">
        <ele>59.4</ele>
        <time>2022-02-17T14:55:00Z</time>
      </trkpt>
      <trkpt lat="49.0793" lon="2.08627">
        <ele>59.9</ele>
        <time>2022-02-17T14:55:04Z</time>
      </trkpt>
      <trkpt lat="49.07935" lon="2.08629">
        <ele>60.2</ele>
        <time>2022-02-17T14:55:08Z</time>
      </trkpt>
      <trkpt lat="49.07941" lon="2.08631">
        <ele>61.1</ele>
        <time>2022-02-17T14:55:12Z</time>
      </trkpt>
      <trkpt lat="49.07945" lon="2.08633">
        <ele>62</ele>
        <time>2022-02-17T14:55:16Z</time>
      </trkpt>
      <trkpt lat="49.0795" lon="2.08634">
        <ele>62.2</ele>
        <time>2022-02-17T14:55:20Z</time>
      </trkpt>
      <trkpt lat="49.07955" lon="2.08635">
        <ele>61.6</ele>
        <time>2022-02-17T14:55:25Z</time>
      </trkpt>
      <trkpt lat="49.0796" lon="2.08637">
        <ele>61.6</ele>
        <time>2022-02-17T14:55:29Z</time>
      </trkpt>
      <trkpt lat="49.07965" lon="2.08638">
        <ele>61</ele>
        <time>2022-02-17T14:55:33Z</time>
      </trkpt>
      <trkpt lat="49.0797" lon="2.08639">
        <ele>59.6</ele>
        <time>2022-02-17T14:55:37Z</time>
      </trkpt>
      <trkpt lat="49.07976" lon="2.08641">
        <ele>59.5</ele>
        <time>2022-02-17T14:55:42Z</time>
      </trkpt>
      <trkpt lat="49.0798" lon="2.08644">
        <ele>60.2</ele>
        <time>2022-02-17T14:55:46Z</time>
      </trkpt>
      <trkpt lat="49.07986" lon="2.08645">
        <ele>60.5</ele>
        <time>2022-02-17T14:55:50Z</time>
      </trkpt>
      <trkpt lat="49.0799" lon="2.08648">
        <ele>59.8</ele>
        <time>2022-02-17T14:55:54Z</time>
      </trkpt>
      <trkpt lat="49.07996" lon="2.0865">
        <ele>59.9</ele>
        <time>2022-02-17T14:55:58Z</time>
      </trkpt>
      <trkpt lat="49.08001" lon="2.08651">
        <ele>60.8</ele>
        <time>2022-02-17T14:56:02Z</time>
      </trkpt>
      <trkpt lat="49.08006" lon="2.08651">
        <ele>61.6</ele>
        <time>2022-02-17T14:56:06Z</time>
      </trkpt>
      <trkpt lat="49.08011" lon="2.08652">
        <ele>61.9</ele>
        <time>2022-02-17T14:56:10Z</time>
      </trkpt>
      <trkpt lat="49.08017" lon="2.08652">
        <ele>62.5</ele>
        <time>2022-02-17T14:56:14Z</time>
      </trkpt>
      <trkpt lat="49.08022" lon="2.08652">
        <ele>63</ele>
        <time>2022-02-17T14:56:19Z</time>
      </trkpt>
      <trkpt lat="49.08027" lon="2.08654">
        <ele>62.8</ele>
        <time>2022-02-17T14:56:23Z</time>
      </trkpt>
      <trkpt lat="49.08031" lon="2.08658">
        <ele>62.8</ele>
        <time>2022-02-17T14:56:27Z</time>
      </trkpt>
      <trkpt lat="49.08038" lon="2.08661">
        <ele>63.5</ele>
        <time>2022-02-17T14:56:32Z</time>
      </trkpt>
      <trkpt lat="49.08043" lon="2.08663">
        <ele>65.4</ele>
        <time>2022-02-17T14:56:37Z</time>
      </trkpt>
      <trkpt lat="49.08049" lon="2.08665">
        <ele>66.2</ele>
        <time>2022-02-17T14:56:42Z</time>
      </trkpt>
      <trkpt lat="49.08053" lon="2.08666">
        <ele>65.3</ele>
        <time>2022-02-17T14:56:46Z</time>
      </trkpt>
      <trkpt lat="49.08058" lon="2.08668">
        <ele>64.1</ele>
        <time>2022-02-17T14:56:50Z</time>
      </trkpt>
      <trkpt lat="49.08064" lon="2.08669">
        <ele>63.5</ele>
        <time>2022-02-17T14:56:55Z</time>
      </trkpt>
      <trkpt lat="49.0807" lon="2.08668">
        <ele>63.5</ele>
        <time>2022-02-17T14:56:59Z</time>
      </trkpt>
      <trkpt lat="49.08075" lon="2.08665">
        <ele>63.3</ele>
        <time>2022-02-17T14:57:04Z</time>
      </trkpt>
      <trkpt lat="49.0808" lon="2.0866">
        <ele>62.8</ele>
        <time>2022-02-17T14:57:08Z</time>
      </trkpt>
      <trkpt lat="49.08084" lon="2.08654">
        <ele>61.5</ele>
        <time>2022-02-17T14:57:12Z</time>
      </trkpt>
      <trkpt lat="49.08083" lon="2.08648">
        <ele>62.6</ele>
        <time>2022-02-17T14:57:30Z</time>
      </trkpt>
      <trkpt lat="49.08087" lon="2.08649">
        <ele>62.2</ele>
        <time>2022-02-17T14:57:32Z</time>
      </trkpt>
      <trkpt lat="49.08091" lon="2.08655">
        <ele>61.6</ele>
        <time>2022-02-17T14:57:34Z</time>
      </trkpt>
      <trkpt lat="49.08096" lon="2.08659">
        <ele>61.2</ele>
        <time>2022-02-17T14:57:39Z</time>
      </trkpt>
      <trkpt lat="49.08102" lon="2.08661">
        <ele>61.4</ele>
        <time>2022-02-17T14:57:43Z</time>
      </trkpt>
      <trkpt lat="49.08106" lon="2.08664">
        <ele>62.3</ele>
        <time>2022-02-17T14:57:47Z</time>
      </trkpt>
      <trkpt lat="49.08111" lon="2.08666">
        <ele>62.9</ele>
        <time>2022-02-17T14:57:51Z</time>
      </trkpt>
      <trkpt lat="49.08117" lon="2.08665">
        <ele>63.1</ele>
        <time>2022-02-17T14:57:56Z</time>
      </trkpt>
      <trkpt lat="49.08122" lon="2.08661">
        <ele>62.7</ele>
        <time>2022-02-17T14:58:00Z</time>
      </trkpt>
      <trkpt lat="49.08127" lon="2.08659">
        <ele>62.4</ele>
        <time>2022-02-17T14:58:05Z</time>
      </trkpt>
      <trkpt lat="49.08132" lon="2.0866">
        <ele>61.9</ele>
        <time>2022-02-17T14:58:10Z</time>
      </trkpt>
      <trkpt lat="49.08137" lon="2.08659">
        <ele>61.6</ele>
        <time>2022-02-17T14:58:14Z</time>
      </trkpt>
      <trkpt lat="49.08142" lon="2.0866">
        <ele>62.4</ele>
        <time>2022-02-17T14:58:19Z</time>
      </trkpt>
      <trkpt lat="49.08147" lon="2.08659">
        <ele>64.1</ele>
        <time>2022-02-17T14:58:23Z</time>
      </trkpt>
      <trkpt lat="49.08152" lon="2.08655">
        <ele>64.7</ele>
        <time>2022-02-17T14:58:25Z</time>
      </trkpt>
      <trkpt lat="49.08157" lon="2.08656">
        <ele>65</ele>
        <time>2022-02-17T14:58:28Z</time>
      </trkpt>
      <trkpt lat="49.08162" lon="2.08659">
        <ele>66.1</ele>
        <time>2022-02-17T14:58:32Z</time>
      </trkpt>
      <trkpt lat="49.08168" lon="2.08663">
        <ele>67.1</ele>
        <time>2022-02-17T14:58:37Z</time>
      </trkpt>
      <trkpt lat="49.08172" lon="2.08667">
        <ele>67</ele>
        <time>2022-02-17T14:58:41Z</time>
      </trkpt>
      <trkpt lat="49.08177" lon="2.08667">
        <ele>66.2</ele>
        <time>2022-02-17T14:58:45Z</time>
      </trkpt>
      <trkpt lat="49.08182" lon="2.08667">
        <ele>66.2</ele>
        <time>2022-02-17T14:58:48Z</time>
      </trkpt>
      <trkpt lat="49.08187" lon="2.08666">
        <ele>66.7</ele>
        <time>2022-02-17T14:58:52Z</time>
      </trkpt>
      <trkpt lat="49.08192" lon="2.08664">
        <ele>67.7</ele>
        <time>2022-02-17T14:58:56Z</time>
      </trkpt>
      <trkpt lat="49.08197" lon="2.08661">
        <ele>67.6</ele>
        <time>2022-02-17T14:59:01Z</time>
      </trkpt>
      <trkpt lat="49.08201" lon="2.08659">
        <ele>66.5</ele>
        <time>2022-02-17T14:59:06Z</time>
      </trkpt>
      <trkpt lat="49.08205" lon="2.08657">
        <ele>66.8</ele>
        <time>2022-02-17T14:59:11Z</time>
      </trkpt>
      <trkpt lat="49.0821" lon="2.08654">
        <ele>68.3</ele>
        <time>2022-02-17T14:59:16Z</time>
      </trkpt>
      <trkpt lat="49.08215" lon="2.0865">
        <ele>68.2</ele>
        <time>2022-02-17T14:59:21Z</time>
      </trkpt>
      <trkpt lat="49.08219" lon="2.08646">
        <ele>68.2</ele>
        <time>2022-02-17T14:59:25Z</time>
      </trkpt>
      <trkpt lat="49.08223" lon="2.08642">
        <ele>68.5</ele>
        <time>2022-02-17T14:59:29Z</time>
      </trkpt>
      <trkpt lat="49.08227" lon="2.08637">
        <ele>68.8</ele>
        <time>2022-02-17T14:59:33Z</time>
      </trkpt>
      <trkpt lat="49.08231" lon="2.08634">
        <ele>68.9</ele>
        <time>2022-02-17T14:59:38Z</time>
      </trkpt>
      <trkpt lat="49.08236" lon="2.0863">
        <ele>69.9</ele>
        <time>2022-02-17T14:59:43Z</time>
      </trkpt>
      <trkpt lat="49.0824" lon="2.08626">
        <ele>71.3</ele>
        <time>2022-02-17T14:59:48Z</time>
      </trkpt>
      <trkpt lat="49.08245" lon="2.08622">
        <ele>73.4</ele>
        <time>2022-02-17T14:59:53Z</time>
      </trkpt>
      <trkpt lat="49.0825" lon="2.0862">
        <ele>74.7</ele>
        <time>2022-02-17T14:59:59Z</time>
      </trkpt>
      <trkpt lat="49.08256" lon="2.08619">
        <ele>73.9</ele>
        <time>2022-02-17T15:00:04Z</time>
      </trkpt>
      <trkpt lat="49.0826" lon="2.0862">
        <ele>74</ele>
        <time>2022-02-17T15:00:08Z</time>
      </trkpt>
      <trkpt lat="49.08265" lon="2.0862">
        <ele>74.6</ele>
        <time>2022-02-17T15:00:15Z</time>
      </trkpt>
      <trkpt lat="49.0827" lon="2.08621">
        <ele>73.7</ele>
        <time>2022-02-17T15:00:21Z</time>
      </trkpt>
      <trkpt lat="49.08275" lon="2.08623">
        <ele>73.8</ele>
        <time>2022-02-17T15:00:26Z</time>
      </trkpt>
      <trkpt lat="49.0828" lon="2.08621">
        <ele>74.3</ele>
        <time>2022-02-17T15:00:33Z</time>
      </trkpt>
      <trkpt lat="49.08285" lon="2.08622">
        <ele>76</ele>
        <time>2022-02-17T15:00:38Z</time>
      </trkpt>
      <trkpt lat="49.0829" lon="2.08622">
        <ele>77.7</ele>
        <time>2022-02-17T15:00:44Z</time>
      </trkpt>
      <trkpt lat="49.08296" lon="2.08621">
        <ele>78.9</ele>
        <time>2022-02-17T15:00:50Z</time>
      </trkpt>
      <trkpt lat="49.08301" lon="2.08621">
        <ele>78.5</ele>
        <time>2022-02-17T15:00:54Z</time>
      </trkpt>
      <trkpt lat="49.08306" lon="2.08621">
        <ele>78</ele>
        <time>2022-02-17T15:00:59Z</time>
      </trkpt>
      <trkpt lat="49.08312" lon="2.08622">
        <ele>79</ele>
        <time>2022-02-17T15:01:03Z</time>
      </trkpt>
      <trkpt lat="49.08316" lon="2.08623">
        <ele>80.7</ele>
        <time>2022-02-17T15:01:07Z</time>
      </trkpt>
      <trkpt lat="49.08322" lon="2.08623">
        <ele>80.2</ele>
        <time>2022-02-17T15:01:13Z</time>
      </trkpt>
      <trkpt lat="49.08328" lon="2.08623">
        <ele>78.4</ele>
        <time>2022-02-17T15:01:17Z</time>
      </trkpt>
      <trkpt lat="49.08332" lon="2.08622">
        <ele>77.9</ele>
        <time>2022-02-17T15:01:21Z</time>
      </trkpt>
      <trkpt lat="49.08337" lon="2.08622">
        <ele>77.8</ele>
        <time>2022-02-17T15:01:25Z</time>
      </trkpt>
      <trkpt lat="49.08342" lon="2.0862">
        <ele>77.6</ele>
        <time>2022-02-17T15:01:29Z</time>
      </trkpt>
      <trkpt lat="49.08348" lon="2.08622">
        <ele>77.5</ele>
        <time>2022-02-17T15:01:34Z</time>
      </trkpt>
      <trkpt lat="49.08352" lon="2.08624">
        <ele>78.6</ele>
        <time>2022-02-17T15:01:38Z</time>
      </trkpt>
      <trkpt lat="49.08358" lon="2.08623">
        <ele>79.5</ele>
        <time>2022-02-17T15:01:42Z</time>
      </trkpt>
      <trkpt lat="49.08363" lon="2.08622">
        <ele>79.2</ele>
        <time>2022-02-17T15:01:46Z</time>
      </trkpt>
      <trkpt lat="49.08368" lon="2.08622">
        <ele>78.8</ele>
        <time>2022-02-17T15:01:51Z</time>
      </trkpt>
      <trkpt lat="49.08374" lon="2.08622">
        <ele>79.2</ele>
        <time>2022-02-17T15:01:55Z</time>
      </trkpt>
      <trkpt lat="49.08378" lon="2.08621">
        <ele>79</ele>
        <time>2022-02-17T15:01:59Z</time>
      </trkpt>
      <trkpt lat="49.08383" lon="2.0862">
        <ele>78.3</ele>
        <time>2022-02-17T15:02:03Z</time>
      </trkpt>
      <trkpt lat="49.08388" lon="2.08621">
        <ele>77</ele>
        <time>2022-02-17T15:02:08Z</time>
      </trkpt>
      <trkpt lat="49.08393" lon="2.08623">
        <ele>75.7</ele>
        <time>2022-02-17T15:02:12Z</time>
      </trkpt>
      <trkpt lat="49.08398" lon="2.08622">
        <ele>75.1</ele>
        <time>2022-02-17T15:02:16Z</time>
      </trkpt>
      <trkpt lat="49.08402" lon="2.08618">
        <ele>75.4</ele>
        <time>2022-02-17T15:02:20Z</time>
      </trkpt>
      <trkpt lat="49.08407" lon="2.08617">
        <ele>76.4</ele>
        <time>2022-02-17T15:02:26Z</time>
      </trkpt>
      <trkpt lat="49.08411" lon="2.0862">
        <ele>75.7</ele>
        <time>2022-02-17T15:02:30Z</time>
      </trkpt>
      <trkpt lat="49.08416" lon="2.08624">
        <ele>73.6</ele>
        <time>2022-02-17T15:02:34Z</time>
      </trkpt>
      <trkpt lat="49.08421" lon="2.08627">
        <ele>72.7</ele>
        <time>2022-02-17T15:02:39Z</time>
      </trkpt>
      <trkpt lat="49.08426" lon="2.08629">
        <ele>73</ele>
        <time>2022-02-17T15:02:43Z</time>
      </trkpt>
      <trkpt lat="49.08431" lon="2.0863">
        <ele>73.1</ele>
        <time>2022-02-17T15:02:48Z</time>
      </trkpt>
      <trkpt lat="49.08436" lon="2.0863">
        <ele>72.6</ele>
        <time>2022-02-17T15:02:53Z</time>
      </trkpt>
      <trkpt lat="49.08442" lon="2.08629">
        <ele>72</ele>
        <time>2022-02-17T15:02:58Z</time>
      </trkpt>
      <trkpt lat="49.08448" lon="2.0863">
        <ele>72</ele>
        <time>2022-02-17T15:03:02Z</time>
      </trkpt>
      <trkpt lat="49.08452" lon="2.08631">
        <ele>72.2</ele>
        <time>2022-02-17T15:03:06Z</time>
      </trkpt>
      <trkpt lat="49.08457" lon="2.0863">
        <ele>72.5</ele>
        <time>2022-02-17T15:03:10Z</time>
      </trkpt>
      <trkpt lat="49.08462" lon="2.0863">
        <ele>73</ele>
        <time>2022-02-17T15:03:14Z</time>
      </trkpt>
      <trkpt lat="49.08467" lon="2.0863">
        <ele>73.1</ele>
        <time>2022-02-17T15:03:18Z</time>
      </trkpt>
      <trkpt lat="49.08471" lon="2.08629">
        <ele>73.4</ele>
        <time>2022-02-17T15:03:21Z</time>
      </trkpt>
      <trkpt lat="49.08476" lon="2.08628">
        <ele>73.3</ele>
        <time>2022-02-17T15:03:25Z</time>
      </trkpt>
      <trkpt lat="49.08481" lon="2.08628">
        <ele>73.2</ele>
        <time>2022-02-17T15:03:29Z</time>
      </trkpt>
      <trkpt lat="49.08486" lon="2.08627">
        <ele>73.3</ele>
        <time>2022-02-17T15:03:33Z</time>
      </trkpt>
      <trkpt lat="49.08491" lon="2.08628">
        <ele>73.7</ele>
        <time>2022-02-17T15:03:38Z</time>
      </trkpt>
      <trkpt lat="49.08496" lon="2.08626">
        <ele>73.5</ele>
        <time>2022-02-17T15:03:41Z</time>
      </trkpt>
      <trkpt lat="49.08501" lon="2.08625">
        <ele>72.9</ele>
        <time>2022-02-17T15:03:45Z</time>
      </trkpt>
      <trkpt lat="49.08506" lon="2.08625">
        <ele>73</ele>
        <time>2022-02-17T15:03:49Z</time>
      </trkpt>
      <trkpt lat="49.08511" lon="2.08627">
        <ele>73.8</ele>
        <time>2022-02-17T15:03:53Z</time>
      </trkpt>
      <trkpt lat="49.08517" lon="2.08629">
        <ele>74.6</ele>
        <time>2022-02-17T15:03:57Z</time>
      </trkpt>
      <trkpt lat="49.08522" lon="2.0863">
        <ele>75.2</ele>
        <time>2022-02-17T15:04:02Z</time>
      </trkpt>
      <trkpt lat="49.08527" lon="2.0863">
        <ele>75.9</ele>
        <time>2022-02-17T15:04:06Z</time>
      </trkpt>
      <trkpt lat="49.08532" lon="2.0863">
        <ele>76.5</ele>
        <time>2022-02-17T15:04:09Z</time>
      </trkpt>
      <trkpt lat="49.08537" lon="2.0863">
        <ele>77.1</ele>
        <time>2022-02-17T15:04:14Z</time>
      </trkpt>
      <trkpt lat="49.08542" lon="2.08632">
        <ele>77.9</ele>
        <time>2022-02-17T15:04:18Z</time>
      </trkpt>
      <trkpt lat="49.08547" lon="2.08632">
        <ele>78.2</ele>
        <time>2022-02-17T15:04:22Z</time>
      </trkpt>
      <trkpt lat="49.08552" lon="2.08632">
        <ele>78.2</ele>
        <time>2022-02-17T15:04:26Z</time>
      </trkpt>
      <trkpt lat="49.08558" lon="2.08633">
        <ele>78.1</ele>
        <time>2022-02-17T15:04:30Z</time>
      </trkpt>
      <trkpt lat="49.08563" lon="2.08633">
        <ele>78.3</ele>
        <time>2022-02-17T15:04:34Z</time>
      </trkpt>
      <trkpt lat="49.08569" lon="2.08634">
        <ele>78.7</ele>
        <time>2022-02-17T15:04:39Z</time>
      </trkpt>
      <trkpt lat="49.08574" lon="2.08633">
        <ele>78.3</ele>
        <time>2022-02-17T15:04:42Z</time>
      </trkpt>
      <trkpt lat="49.08579" lon="2.08633">
        <ele>77.8</ele>
        <time>2022-02-17T15:04:47Z</time>
      </trkpt>
      <trkpt lat="49.08584" lon="2.08635">
        <ele>77.6</ele>
        <time>2022-02-17T15:04:50Z</time>
      </trkpt>
      <trkpt lat="49.08588" lon="2.08638">
        <ele>77.3</ele>
        <time>2022-02-17T15:04:54Z</time>
      </trkpt>
      <trkpt lat="49.08593" lon="2.08641">
        <ele>76.8</ele>
        <time>2022-02-17T15:04:58Z</time>
      </trkpt>
      <trkpt lat="49.08598" lon="2.08643">
        <ele>76.4</ele>
        <time>2022-02-17T15:05:02Z</time>
      </trkpt>
      <trkpt lat="49.08602" lon="2.08645">
        <ele>76.1</ele>
        <time>2022-02-17T15:05:06Z</time>
      </trkpt>
      <trkpt lat="49.08607" lon="2.08646">
        <ele>76.3</ele>
        <time>2022-02-17T15:05:10Z</time>
      </trkpt>
      <trkpt lat="49.08611" lon="2.08648">
        <ele>76.9</ele>
        <time>2022-02-17T15:05:14Z</time>
      </trkpt>
      <trkpt lat="49.08616" lon="2.08651">
        <ele>77.1</ele>
        <time>2022-02-17T15:05:18Z</time>
      </trkpt>
      <trkpt lat="49.08621" lon="2.08652">
        <ele>76.4</ele>
        <time>2022-02-17T15:05:22Z</time>
      </trkpt>
      <trkpt lat="49.08627" lon="2.08652">
        <ele>75.6</ele>
        <time>2022-02-17T15:05:27Z</time>
      </trkpt>
      <trkpt lat="49.08633" lon="2.08653">
        <ele>75.4</ele>
        <time>2022-02-17T15:05:31Z</time>
      </trkpt>
      <trkpt lat="49.08638" lon="2.08656">
        <ele>75.7</ele>
        <time>2022-02-17T15:05:36Z</time>
      </trkpt>
      <trkpt lat="49.08643" lon="2.08658">
        <ele>75.8</ele>
        <time>2022-02-17T15:05:40Z</time>
      </trkpt>
      <trkpt lat="49.08648" lon="2.0866">
        <ele>75.6</ele>
        <time>2022-02-17T15:05:44Z</time>
      </trkpt>
      <trkpt lat="49.08652" lon="2.08662">
        <ele>75.3</ele>
        <time>2022-02-17T15:05:48Z</time>
      </trkpt>
      <trkpt lat="49.08657" lon="2.08665">
        <ele>75.4</ele>
        <time>2022-02-17T15:05:52Z</time>
      </trkpt>
      <trkpt lat="49.08662" lon="2.08668">
        <ele>76</ele>
        <time>2022-02-17T15:05:56Z</time>
      </trkpt>
      <trkpt lat="49.08667" lon="2.0867">
        <ele>76.3</ele>
        <time>2022-02-17T15:06:00Z</time>
      </trkpt>
      <trkpt lat="49.08672" lon="2.08673">
        <ele>76</ele>
        <time>2022-02-17T15:06:04Z</time>
      </trkpt>
      <trkpt lat="49.08676" lon="2.08675">
        <ele>75.7</ele>
        <time>2022-02-17T15:06:07Z</time>
      </trkpt>
      <trkpt lat="49.08681" lon="2.08678">
        <ele>75.6</ele>
        <time>2022-02-17T15:06:12Z</time>
      </trkpt>
      <trkpt lat="49.08685" lon="2.08682">
        <ele>75.7</ele>
        <time>2022-02-17T15:06:16Z</time>
      </trkpt>
      <trkpt lat="49.0869" lon="2.08687">
        <ele>75.6</ele>
        <time>2022-02-17T15:06:21Z</time>
      </trkpt>
      <trkpt lat="49.08695" lon="2.08691">
        <ele>75.7</ele>
        <time>2022-02-17T15:06:26Z</time>
      </trkpt>
      <trkpt lat="49.087" lon="2.08695">
        <ele>76.2</ele>
        <time>2022-02-17T15:06:30Z</time>
      </trkpt>
      <trkpt lat="49.08704" lon="2.08699">
        <ele>76.4</ele>
        <time>2022-02-17T15:06:34Z</time>
      </trkpt>
      <trkpt lat="49.08709" lon="2.08704">
        <ele>77</ele>
        <time>2022-02-17T15:06:39Z</time>
      </trkpt>
      <trkpt lat="49.08713" lon="2.08708">
        <ele>77.3</ele>
        <time>2022-02-17T15:06:44Z</time>
      </trkpt>
      <trkpt lat="49.08718" lon="2.08712">
        <ele>77.1</ele>
        <time>2022-02-17T15:06:48Z</time>
      </trkpt>
      <trkpt lat="49.08723" lon="2.08715">
        <ele>76.8</ele>
        <time>2022-02-17T15:06:52Z</time>
      </trkpt>
      <trkpt lat="49.08727" lon="2.08722">
        <ele>76.7</ele>
        <time>2022-02-17T15:06:56Z</time>
      </trkpt>
      <trkpt lat="49.08731" lon="2.08726">
        <ele>77.2</ele>
        <time>2022-02-17T15:07:01Z</time>
      </trkpt>
      <trkpt lat="49.08736" lon="2.08732">
        <ele>78.1</ele>
        <time>2022-02-17T15:07:06Z</time>
      </trkpt>
      <trkpt lat="49.08739" lon="2.08737">
        <ele>78.3</ele>
        <time>2022-02-17T15:07:11Z</time>
      </trkpt>
      <trkpt lat="49.08743" lon="2.08742">
        <ele>78.4</ele>
        <time>2022-02-17T15:07:15Z</time>
      </trkpt>
      <trkpt lat="49.08747" lon="2.08747">
        <ele>78.5</ele>
        <time>2022-02-17T15:07:19Z</time>
      </trkpt>
      <trkpt lat="49.08751" lon="2.08753">
        <ele>78.7</ele>
        <time>2022-02-17T15:07:24Z</time>
      </trkpt>
      <trkpt lat="49.08755" lon="2.08757">
        <ele>79.2</ele>
        <time>2022-02-17T15:07:27Z</time>
      </trkpt>
      <trkpt lat="49.08759" lon="2.08762">
        <ele>79.4</ele>
        <time>2022-02-17T15:07:32Z</time>
      </trkpt>
      <trkpt lat="49.08763" lon="2.08767">
        <ele>79.4</ele>
        <time>2022-02-17T15:07:36Z</time>
      </trkpt>
      <trkpt lat="49.08766" lon="2.08772">
        <ele>79.5</ele>
        <time>2022-02-17T15:07:41Z</time>
      </trkpt>
      <trkpt lat="49.0877" lon="2.08776">
        <ele>79.7</ele>
        <time>2022-02-17T15:07:44Z</time>
      </trkpt>
      <trkpt lat="49.08773" lon="2.08782">
        <ele>79.8</ele>
        <time>2022-02-17T15:07:48Z</time>
      </trkpt>
      <trkpt lat="49.08777" lon="2.08787">
        <ele>79.7</ele>
        <time>2022-02-17T15:07:53Z</time>
      </trkpt>
      <trkpt lat="49.0878" lon="2.08792">
        <ele>79.8</ele>
        <time>2022-02-17T15:07:57Z</time>
      </trkpt>
      <trkpt lat="49.08783" lon="2.08798">
        <ele>79.7</ele>
        <time>2022-02-17T15:08:01Z</time>
      </trkpt>
      <trkpt lat="49.08787" lon="2.08802">
        <ele>79.2</ele>
        <time>2022-02-17T15:08:05Z</time>
      </trkpt>
      <trkpt lat="49.0879" lon="2.08808">
        <ele>78.6</ele>
        <time>2022-02-17T15:08:10Z</time>
      </trkpt>
      <trkpt lat="49.08793" lon="2.08814">
        <ele>78.3</ele>
        <time>2022-02-17T15:08:15Z</time>
      </trkpt>
      <trkpt lat="49.08796" lon="2.0882">
        <ele>78.2</ele>
        <time>2022-02-17T15:08:18Z</time>
      </trkpt>
      <trkpt lat="49.08799" lon="2.08825">
        <ele>77.8</ele>
        <time>2022-02-17T15:08:22Z</time>
      </trkpt>
      <trkpt lat="49.08803" lon="2.0883">
        <ele>77.7</ele>
        <time>2022-02-17T15:08:26Z</time>
      </trkpt>
      <trkpt lat="49.08807" lon="2.08835">
        <ele>77.9</ele>
        <time>2022-02-17T15:08:31Z</time>
      </trkpt>
      <trkpt lat="49.0881" lon="2.0884">
        <ele>78.1</ele>
        <time>2022-02-17T15:08:34Z</time>
      </trkpt>
      <trkpt lat="49.08813" lon="2.08845">
        <ele>78.6</ele>
        <time>2022-02-17T15:08:39Z</time>
      </trkpt>
      <trkpt lat="49.08817" lon="2.0885">
        <ele>78.8</ele>
        <time>2022-02-17T15:08:43Z</time>
      </trkpt>
      <trkpt lat="49.0882" lon="2.08856">
        <ele>78.6</ele>
        <time>2022-02-17T15:08:47Z</time>
      </trkpt>
      <trkpt lat="49.08823" lon="2.08862">
        <ele>78.2</ele>
        <time>2022-02-17T15:08:52Z</time>
      </trkpt>
      <trkpt lat="49.08827" lon="2.08868">
        <ele>78.3</ele>
        <time>2022-02-17T15:08:56Z</time>
      </trkpt>
      <trkpt lat="49.0883" lon="2.08873">
        <ele>78.3</ele>
        <time>2022-02-17T15:09:00Z</time>
      </trkpt>
      <trkpt lat="49.08834" lon="2.08878">
        <ele>78.3</ele>
        <time>2022-02-17T15:09:04Z</time>
      </trkpt>
      <trkpt lat="49.08837" lon="2.08883">
        <ele>78.3</ele>
        <time>2022-02-17T15:09:08Z</time>
      </trkpt>
      <trkpt lat="49.08841" lon="2.08888">
        <ele>78.4</ele>
        <time>2022-02-17T15:09:12Z</time>
      </trkpt>
      <trkpt lat="49.08845" lon="2.08894">
        <ele>78.1</ele>
        <time>2022-02-17T15:09:18Z</time>
      </trkpt>
      <trkpt lat="49.08848" lon="2.089">
        <ele>77.8</ele>
        <time>2022-02-17T15:09:23Z</time>
      </trkpt>
      <trkpt lat="49.08852" lon="2.08907">
        <ele>77.9</ele>
        <time>2022-02-17T15:09:27Z</time>
      </trkpt>
      <trkpt lat="49.08855" lon="2.08913">
        <ele>77.9</ele>
        <time>2022-02-17T15:09:31Z</time>
      </trkpt>
      <trkpt lat="49.08859" lon="2.08918">
        <ele>77.8</ele>
        <time>2022-02-17T15:09:36Z</time>
      </trkpt>
      <trkpt lat="49.08862" lon="2.08924">
        <ele>78.5</ele>
        <time>2022-02-17T15:09:40Z</time>
      </trkpt>
      <trkpt lat="49.08866" lon="2.08929">
        <ele>79.3</ele>
        <time>2022-02-17T15:09:45Z</time>
      </trkpt>
      <trkpt lat="49.08869" lon="2.08935">
        <ele>79.7</ele>
        <time>2022-02-17T15:09:49Z</time>
      </trkpt>
      <trkpt lat="49.08873" lon="2.08941">
        <ele>79.5</ele>
        <time>2022-02-17T15:09:53Z</time>
      </trkpt>
      <trkpt lat="49.08878" lon="2.08946">
        <ele>79.2</ele>
        <time>2022-02-17T15:09:58Z</time>
      </trkpt>
      <trkpt lat="49.08883" lon="2.0895">
        <ele>78.8</ele>
        <time>2022-02-17T15:10:02Z</time>
      </trkpt>
      <trkpt lat="49.08886" lon="2.08955">
        <ele>78.8</ele>
        <time>2022-02-17T15:10:06Z</time>
      </trkpt>
      <trkpt lat="49.08891" lon="2.08958">
        <ele>78.8</ele>
        <time>2022-02-17T15:10:11Z</time>
      </trkpt>
      <trkpt lat="49.08896" lon="2.08961">
        <ele>78.3</ele>
        <time>2022-02-17T15:10:15Z</time>
      </trkpt>
      <trkpt lat="49.08901" lon="2.08963">
        <ele>77.7</ele>
        <time>2022-02-17T15:10:20Z</time>
      </trkpt>
      <trkpt lat="49.08906" lon="2.08965">
        <ele>77.5</ele>
        <time>2022-02-17T15:10:24Z</time>
      </trkpt>
      <trkpt lat="49.08911" lon="2.08966">
        <ele>77.7</ele>
        <time>2022-02-17T15:10:28Z</time>
      </trkpt>
      <trkpt lat="49.08917" lon="2.08966">
        <ele>77.8</ele>
        <time>2022-02-17T15:10:33Z</time>
      </trkpt>
      <trkpt lat="49.0892" lon="2.08972">
        <ele>78.8</ele>
        <time>2022-02-17T15:12:44Z</time>
      </trkpt>
      <trkpt lat="49.08924" lon="2.08976">
        <ele>79</ele>
        <time>2022-02-17T15:12:48Z</time>
      </trkpt>
      <trkpt lat="49.08929" lon="2.08977">
        <ele>79.3</ele>
        <time>2022-02-17T15:12:51Z</time>
      </trkpt>
      <trkpt lat="49.08934" lon="2.08978">
        <ele>79.7</ele>
        <time>2022-02-17T15:12:56Z</time>
      </trkpt>
      <trkpt lat="49.08939" lon="2.08977">
        <ele>79.8</ele>
        <time>2022-02-17T15:13:01Z</time>
      </trkpt>
      <trkpt lat="49.08944" lon="2.08978">
        <ele>79.7</ele>
        <time>2022-02-17T15:13:06Z</time>
      </trkpt>
      <trkpt lat="49.08949" lon="2.0898">
        <ele>79.4</ele>
        <time>2022-02-17T15:13:10Z</time>
      </trkpt>
      <trkpt lat="49.08954" lon="2.08984">
        <ele>79.4</ele>
        <time>2022-02-17T15:13:15Z</time>
      </trkpt>
      <trkpt lat="49.08959" lon="2.08985">
        <ele>79.7</ele>
        <time>2022-02-17T15:13:19Z</time>
      </trkpt>
      <trkpt lat="49.08964" lon="2.08986">
        <ele>79.6</ele>
        <time>2022-02-17T15:13:23Z</time>
      </trkpt>
      <trkpt lat="49.0897" lon="2.08987">
        <ele>79.4</ele>
        <time>2022-02-17T15:13:28Z</time>
      </trkpt>
      <trkpt lat="49.08975" lon="2.08988">
        <ele>79.6</ele>
        <time>2022-02-17T15:13:32Z</time>
      </trkpt>
      <trkpt lat="49.0898" lon="2.0899">
        <ele>80.2</ele>
        <time>2022-02-17T15:13:36Z</time>
      </trkpt>
      <trkpt lat="49.08984" lon="2.08991">
        <ele>80.6</ele>
        <time>2022-02-17T15:13:40Z</time>
      </trkpt>
      <trkpt lat="49.0899" lon="2.08992">
        <ele>80.7</ele>
        <time>2022-02-17T15:13:44Z</time>
      </trkpt>
      <trkpt lat="49.08994" lon="2.08993">
        <ele>80.8</ele>
        <time>2022-02-17T15:13:48Z</time>
      </trkpt>
      <trkpt lat="49.08999" lon="2.08996">
        <ele>80.9</ele>
        <time>2022-02-17T15:13:53Z</time>
      </trkpt>
      <trkpt lat="49.09004" lon="2.08998">
        <ele>81.2</ele>
        <time>2022-02-17T15:13:57Z</time>
      </trkpt>
      <trkpt lat="49.09009" lon="2.08998">
        <ele>81.4</ele>
        <time>2022-02-17T15:14:03Z</time>
      </trkpt>
      <trkpt lat="49.09011" lon="2.08992">
        <ele>81.9</ele>
        <time>2022-02-17T15:14:06Z</time>
      </trkpt>
      <trkpt lat="49.09014" lon="2.08998">
        <ele>81.8</ele>
        <time>2022-02-17T15:14:10Z</time>
      </trkpt>
      <trkpt lat="49.09017" lon="2.09003">
        <ele>81.7</ele>
        <time>2022-02-17T15:14:13Z</time>
      </trkpt>
      <trkpt lat="49.09022" lon="2.09005">
        <ele>81.2</ele>
        <time>2022-02-17T15:14:18Z</time>
      </trkpt>
      <trkpt lat="49.09027" lon="2.09007">
        <ele>80.8</ele>
        <time>2022-02-17T15:14:22Z</time>
      </trkpt>
      <trkpt lat="49.09032" lon="2.09008">
        <ele>80.6</ele>
        <time>2022-02-17T15:14:26Z</time>
      </trkpt>
      <trkpt lat="49.09037" lon="2.0901">
        <ele>80.7</ele>
        <time>2022-02-17T15:14:30Z</time>
      </trkpt>
      <trkpt lat="49.09041" lon="2.09013">
        <ele>80.7</ele>
        <time>2022-02-17T15:14:35Z</time>
      </trkpt>
      <trkpt lat="49.09046" lon="2.09016">
        <ele>80.3</ele>
        <time>2022-02-17T15:14:40Z</time>
      </trkpt>
      <trkpt lat="49.09051" lon="2.09018">
        <ele>80.3</ele>
        <time>2022-02-17T15:14:44Z</time>
      </trkpt>
      <trkpt lat="49.09056" lon="2.09021">
        <ele>80.4</ele>
        <time>2022-02-17T15:14:48Z</time>
      </trkpt>
      <trkpt lat="49.09061" lon="2.09023">
        <ele>80.5</ele>
        <time>2022-02-17T15:14:53Z</time>
      </trkpt>
      <trkpt lat="49.09066" lon="2.09025">
        <ele>80.5</ele>
        <time>2022-02-17T15:14:57Z</time>
      </trkpt>
      <trkpt lat="49.0907" lon="2.09026">
        <ele>80.6</ele>
        <time>2022-02-17T15:15:01Z</time>
      </trkpt>
      <trkpt lat="49.09075" lon="2.0903">
        <ele>80.8</ele>
        <time>2022-02-17T15:15:05Z</time>
      </trkpt>
      <trkpt lat="49.09079" lon="2.09034">
        <ele>81</ele>
        <time>2022-02-17T15:15:09Z</time>
      </trkpt>
      <trkpt lat="49.09083" lon="2.09038">
        <ele>81.9</ele>
        <time>2022-02-17T15:15:14Z</time>
      </trkpt>
      <trkpt lat="49.09089" lon="2.09042">
        <ele>82.3</ele>
        <time>2022-02-17T15:15:19Z</time>
      </trkpt>
      <trkpt lat="49.09093" lon="2.09046">
        <ele>82.2</ele>
        <time>2022-02-17T15:15:23Z</time>
      </trkpt>
      <trkpt lat="49.09097" lon="2.0905">
        <ele>81.7</ele>
        <time>2022-02-17T15:15:27Z</time>
      </trkpt>
      <trkpt lat="49.09101" lon="2.09054">
        <ele>81.5</ele>
        <time>2022-02-17T15:15:31Z</time>
      </trkpt>
      <trkpt lat="49.09106" lon="2.09059">
        <ele>81.7</ele>
        <time>2022-02-17T15:15:35Z</time>
      </trkpt>
      <trkpt lat="49.0911" lon="2.09063">
        <ele>81.9</ele>
        <time>2022-02-17T15:15:39Z</time>
      </trkpt>
      <trkpt lat="49.09114" lon="2.09067">
        <ele>81.8</ele>
        <time>2022-02-17T15:15:43Z</time>
      </trkpt>
      <trkpt lat="49.09118" lon="2.09071">
        <ele>81.9</ele>
        <time>2022-02-17T15:15:47Z</time>
      </trkpt>
      <trkpt lat="49.09122" lon="2.09076">
        <ele>82</ele>
        <time>2022-02-17T15:15:51Z</time>
      </trkpt>
      <trkpt lat="49.09126" lon="2.0908">
        <ele>82.3</ele>
        <time>2022-02-17T15:15:55Z</time>
      </trkpt>
      <trkpt lat="49.09131" lon="2.09085">
        <ele>82.4</ele>
        <time>2022-02-17T15:15:59Z</time>
      </trkpt>
      <trkpt lat="49.09135" lon="2.09089">
        <ele>82.8</ele>
        <time>2022-02-17T15:16:03Z</time>
      </trkpt>
      <trkpt lat="49.09139" lon="2.09093">
        <ele>83.2</ele>
        <time>2022-02-17T15:16:07Z</time>
      </trkpt>
      <trkpt lat="49.09143" lon="2.09098">
        <ele>83.4</ele>
        <time>2022-02-17T15:16:11Z</time>
      </trkpt>
      <trkpt lat="49.09147" lon="2.09104">
        <ele>83.8</ele>
        <time>2022-02-17T15:16:15Z</time>
      </trkpt>
      <trkpt lat="49.09151" lon="2.09107">
        <ele>84.1</ele>
        <time>2022-02-17T15:16:19Z</time>
      </trkpt>
      <trkpt lat="49.09155" lon="2.09111">
        <ele>83.9</ele>
        <time>2022-02-17T15:16:23Z</time>
      </trkpt>
      <trkpt lat="49.0916" lon="2.09115">
        <ele>83.3</ele>
        <time>2022-02-17T15:16:28Z</time>
      </trkpt>
      <trkpt lat="49.09164" lon="2.09119">
        <ele>82.9</ele>
        <time>2022-02-17T15:16:32Z</time>
      </trkpt>
      <trkpt lat="49.09168" lon="2.09123">
        <ele>82.7</ele>
        <time>2022-02-17T15:16:36Z</time>
      </trkpt>
      <trkpt lat="49.09172" lon="2.09127">
        <ele>83</ele>
        <time>2022-02-17T15:16:40Z</time>
      </trkpt>
      <trkpt lat="49.09176" lon="2.09131">
        <ele>83.2</ele>
        <time>2022-02-17T15:16:43Z</time>
      </trkpt>
      <trkpt lat="49.0918" lon="2.09135">
        <ele>83.5</ele>
        <time>2022-02-17T15:16:47Z</time>
      </trkpt>
      <trkpt lat="49.09184" lon="2.0914">
        <ele>84</ele>
        <time>2022-02-17T15:16:51Z</time>
      </trkpt>
      <trkpt lat="49.09188" lon="2.09144">
        <ele>84.2</ele>
        <time>2022-02-17T15:16:55Z</time>
      </trkpt>
      <trkpt lat="49.09193" lon="2.09148">
        <ele>83.7</ele>
        <time>2022-02-17T15:16:59Z</time>
      </trkpt>
      <trkpt lat="49.09197" lon="2.09152">
        <ele>83.4</ele>
        <time>2022-02-17T15:17:03Z</time>
      </trkpt>
      <trkpt lat="49.09202" lon="2.09155">
        <ele>83.7</ele>
        <time>2022-02-17T15:17:08Z</time>
      </trkpt>
      <trkpt lat="49.09207" lon="2.09159">
        <ele>83.9</ele>
        <time>2022-02-17T15:17:12Z</time>
      </trkpt>
      <trkpt lat="49.09211" lon="2.09163">
        <ele>83.8</ele>
        <time>2022-02-17T15:17:16Z</time>
      </trkpt>
      <trkpt lat="49.09215" lon="2.09167">
        <ele>83.7</ele>
        <time>2022-02-17T15:17:20Z</time>
      </trkpt>
      <trkpt lat="49.0922" lon="2.09171">
        <ele>83.8</ele>
        <time>2022-02-17T15:17:24Z</time>
      </trkpt>
      <trkpt lat="49.09224" lon="2.09175">
        <ele>83.9</ele>
        <time>2022-02-17T15:17:28Z</time>
      </trkpt>
      <trkpt lat="49.09228" lon="2.09179">
        <ele>84.3</ele>
        <time>2022-02-17T15:17:32Z</time>
      </trkpt>
      <trkpt lat="49.09233" lon="2.09183">
        <ele>84.7</ele>
        <time>2022-02-17T15:17:36Z</time>
      </trkpt>
      <trkpt lat="49.09238" lon="2.09187">
        <ele>85</ele>
        <time>2022-02-17T15:17:41Z</time>
      </trkpt>
      <trkpt lat="49.09242" lon="2.09193">
        <ele>85.1</ele>
        <time>2022-02-17T15:17:45Z</time>
      </trkpt>
      <trkpt lat="49.09246" lon="2.09198">
        <ele>85.1</ele>
        <time>2022-02-17T15:17:49Z</time>
      </trkpt>
      <trkpt lat="49.0925" lon="2.09204">
        <ele>85.5</ele>
        <time>2022-02-17T15:17:53Z</time>
      </trkpt>
      <trkpt lat="49.09255" lon="2.09208">
        <ele>85.6</ele>
        <time>2022-02-17T15:17:58Z</time>
      </trkpt>
      <trkpt lat="49.0926" lon="2.09212">
        <ele>85.5</ele>
        <time>2022-02-17T15:18:02Z</time>
      </trkpt>
      <trkpt lat="49.09265" lon="2.09217">
        <ele>85.3</ele>
        <time>2022-02-17T15:18:07Z</time>
      </trkpt>
      <trkpt lat="49.09269" lon="2.09221">
        <ele>85.2</ele>
        <time>2022-02-17T15:18:11Z</time>
      </trkpt>
      <trkpt lat="49.09273" lon="2.09226">
        <ele>85.2</ele>
        <time>2022-02-17T15:18:15Z</time>
      </trkpt>
      <trkpt lat="49.09277" lon="2.09231">
        <ele>85.3</ele>
        <time>2022-02-17T15:18:20Z</time>
      </trkpt>
      <trkpt lat="49.09282" lon="2.09238">
        <ele>85.2</ele>
        <time>2022-02-17T15:18:25Z</time>
      </trkpt>
      <trkpt lat="49.09286" lon="2.09242">
        <ele>85</ele>
        <time>2022-02-17T15:18:29Z</time>
      </trkpt>
      <trkpt lat="49.0929" lon="2.09246">
        <ele>84.8</ele>
        <time>2022-02-17T15:18:33Z</time>
      </trkpt>
      <trkpt lat="49.09294" lon="2.0925">
        <ele>84.6</ele>
        <time>2022-02-17T15:18:37Z</time>
      </trkpt>
      <trkpt lat="49.09297" lon="2.09255">
        <ele>84.4</ele>
        <time>2022-02-17T15:18:41Z</time>
      </trkpt>
      <trkpt lat="49.09301" lon="2.0926">
        <ele>84.5</ele>
        <time>2022-02-17T15:18:45Z</time>
      </trkpt>
      <trkpt lat="49.09305" lon="2.09265">
        <ele>84.5</ele>
        <time>2022-02-17T15:18:49Z</time>
      </trkpt>
      <trkpt lat="49.0931" lon="2.09269">
        <ele>84.7</ele>
        <time>2022-02-17T15:18:53Z</time>
      </trkpt>
      <trkpt lat="49.09313" lon="2.09274">
        <ele>84.9</ele>
        <time>2022-02-17T15:18:57Z</time>
      </trkpt>
      <trkpt lat="49.09317" lon="2.09279">
        <ele>85.1</ele>
        <time>2022-02-17T15:19:01Z</time>
      </trkpt>
      <trkpt lat="49.09321" lon="2.09283">
        <ele>85.3</ele>
        <time>2022-02-17T15:19:05Z</time>
      </trkpt>
      <trkpt lat="49.09325" lon="2.09286">
        <ele>85.4</ele>
        <time>2022-02-17T15:19:09Z</time>
      </trkpt>
      <trkpt lat="49.09329" lon="2.09289">
        <ele>85.5</ele>
        <time>2022-02-17T15:19:12Z</time>
      </trkpt>
      <trkpt lat="49.09334" lon="2.09292">
        <ele>85.6</ele>
        <time>2022-02-17T15:19:16Z</time>
      </trkpt>
      <trkpt lat="49.09339" lon="2.09295">
        <ele>85.3</ele>
        <time>2022-02-17T15:19:21Z</time>
      </trkpt>
      <trkpt lat="49.09344" lon="2.09298">
        <ele>84.5</ele>
        <time>2022-02-17T15:19:25Z</time>
      </trkpt>
      <trkpt lat="49.09349" lon="2.093">
        <ele>84.3</ele>
        <time>2022-02-17T15:19:29Z</time>
      </trkpt>
      <trkpt lat="49.09353" lon="2.09303">
        <ele>85</ele>
        <time>2022-02-17T15:19:33Z</time>
      </trkpt>
      <trkpt lat="49.09357" lon="2.09308">
        <ele>86</ele>
        <time>2022-02-17T15:19:38Z</time>
      </trkpt>
      <trkpt lat="49.09361" lon="2.09312">
        <ele>86.1</ele>
        <time>2022-02-17T15:19:42Z</time>
      </trkpt>
      <trkpt lat="49.09365" lon="2.09314">
        <ele>85.5</ele>
        <time>2022-02-17T15:19:46Z</time>
      </trkpt>
      <trkpt lat="49.09369" lon="2.09319">
        <ele>84.9</ele>
        <time>2022-02-17T15:19:50Z</time>
      </trkpt>
      <trkpt lat="49.09373" lon="2.09325">
        <ele>85.1</ele>
        <time>2022-02-17T15:19:54Z</time>
      </trkpt>
      <trkpt lat="49.09376" lon="2.0933">
        <ele>85.9</ele>
        <time>2022-02-17T15:19:58Z</time>
      </trkpt>
      <trkpt lat="49.09381" lon="2.09335">
        <ele>87</ele>
        <time>2022-02-17T15:20:03Z</time>
      </trkpt>
      <trkpt lat="49.09385" lon="2.0934">
        <ele>87.8</ele>
        <time>2022-02-17T15:20:07Z</time>
      </trkpt>
      <trkpt lat="49.09389" lon="2.09345">
        <ele>87.9</ele>
        <time>2022-02-17T15:20:11Z</time>
      </trkpt>
      <trkpt lat="49.09393" lon="2.09351">
        <ele>88</ele>
        <time>2022-02-17T15:20:15Z</time>
      </trkpt>
      <trkpt lat="49.09396" lon="2.09357">
        <ele>88.4</ele>
        <time>2022-02-17T15:20:19Z</time>
      </trkpt>
      <trkpt lat="49.09397" lon="2.09364">
        <ele>88.9</ele>
        <time>2022-02-17T15:20:23Z</time>
      </trkpt>
      <trkpt lat="49.09401" lon="2.09369">
        <ele>89.6</ele>
        <time>2022-02-17T15:20:27Z</time>
      </trkpt>
      <trkpt lat="49.09405" lon="2.09374">
        <ele>90</ele>
        <time>2022-02-17T15:20:31Z</time>
      </trkpt>
      <trkpt lat="49.09408" lon="2.09381">
        <ele>90.4</ele>
        <time>2022-02-17T15:20:36Z</time>
      </trkpt>
      <trkpt lat="49.09412" lon="2.09386">
        <ele>90.9</ele>
        <time>2022-02-17T15:20:40Z</time>
      </trkpt>
      <trkpt lat="49.09415" lon="2.09392">
        <ele>91.8</ele>
        <time>2022-02-17T15:20:44Z</time>
      </trkpt>
      <trkpt lat="49.09418" lon="2.09398">
        <ele>92.4</ele>
        <time>2022-02-17T15:20:48Z</time>
      </trkpt>
      <trkpt lat="49.09422" lon="2.09403">
        <ele>92.8</ele>
        <time>2022-02-17T15:20:52Z</time>
      </trkpt>
      <trkpt lat="49.09425" lon="2.09408">
        <ele>93.4</ele>
        <time>2022-02-17T15:20:56Z</time>
      </trkpt>
      <trkpt lat="49.09429" lon="2.09413">
        <ele>93.9</ele>
        <time>2022-02-17T15:21:00Z</time>
      </trkpt>
      <trkpt lat="49.09433" lon="2.0942">
        <ele>93.9</ele>
        <time>2022-02-17T15:21:04Z</time>
      </trkpt>
      <trkpt lat="49.09435" lon="2.09426">
        <ele>93.9</ele>
        <time>2022-02-17T15:21:08Z</time>
      </trkpt>
      <trkpt lat="49.09438" lon="2.09434">
        <ele>93.8</ele>
        <time>2022-02-17T15:21:13Z</time>
      </trkpt>
      <trkpt lat="49.09441" lon="2.09441">
        <ele>93.9</ele>
        <time>2022-02-17T15:21:17Z</time>
      </trkpt>
      <trkpt lat="49.09443" lon="2.09446">
        <ele>93.4</ele>
        <time>2022-02-17T15:21:21Z</time>
      </trkpt>
      <trkpt lat="49.09446" lon="2.09452">
        <ele>93</ele>
        <time>2022-02-17T15:21:26Z</time>
      </trkpt>
      <trkpt lat="49.09449" lon="2.09459">
        <ele>92.6</ele>
        <time>2022-02-17T15:21:31Z</time>
      </trkpt>
      <trkpt lat="49.09452" lon="2.09465">
        <ele>92.1</ele>
        <time>2022-02-17T15:21:36Z</time>
      </trkpt>
      <trkpt lat="49.09455" lon="2.09471">
        <ele>92.3</ele>
        <time>2022-02-17T15:21:40Z</time>
      </trkpt>
      <trkpt lat="49.09458" lon="2.09476">
        <ele>92.5</ele>
        <time>2022-02-17T15:21:44Z</time>
      </trkpt>
      <trkpt lat="49.09461" lon="2.09482">
        <ele>92.7</ele>
        <time>2022-02-17T15:21:49Z</time>
      </trkpt>
      <trkpt lat="49.09466" lon="2.09484">
        <ele>92.6</ele>
        <time>2022-02-17T15:21:53Z</time>
      </trkpt>
      <trkpt lat="49.0947" lon="2.09489">
        <ele>92.6</ele>
        <time>2022-02-17T15:21:57Z</time>
      </trkpt>
      <trkpt lat="49.09473" lon="2.09494">
        <ele>92.9</ele>
        <time>2022-02-17T15:22:01Z</time>
      </trkpt>
      <trkpt lat="49.09478" lon="2.09498">
        <ele>93.7</ele>
        <time>2022-02-17T15:22:05Z</time>
      </trkpt>
      <trkpt lat="49.09483" lon="2.095">
        <ele>94.4</ele>
        <time>2022-02-17T15:22:09Z</time>
      </trkpt>
      <trkpt lat="49.09487" lon="2.09502">
        <ele>94.6</ele>
        <time>2022-02-17T15:22:14Z</time>
      </trkpt>
      <trkpt lat="49.09492" lon="2.09505">
        <ele>94.1</ele>
        <time>2022-02-17T15:22:18Z</time>
      </trkpt>
      <trkpt lat="49.09497" lon="2.09507">
        <ele>94</ele>
        <time>2022-02-17T15:22:24Z</time>
      </trkpt>
      <trkpt lat="49.09502" lon="2.0951">
        <ele>95</ele>
        <time>2022-02-17T15:22:29Z</time>
      </trkpt>
      <trkpt lat="49.09507" lon="2.09512">
        <ele>95.8</ele>
        <time>2022-02-17T15:22:33Z</time>
      </trkpt>
      <trkpt lat="49.09506" lon="2.09519">
        <ele>96.1</ele>
        <time>2022-02-17T15:22:50Z</time>
      </trkpt>
      <trkpt lat="49.09503" lon="2.09526">
        <ele>95.9</ele>
        <time>2022-02-17T15:22:55Z</time>
      </trkpt>
      <trkpt lat="49.09499" lon="2.09525">
        <ele>95.2</ele>
        <time>2022-02-17T15:23:17Z</time>
      </trkpt>
      <trkpt lat="49.09494" lon="2.09523">
        <ele>95</ele>
        <time>2022-02-17T15:23:23Z</time>
      </trkpt>
      <trkpt lat="49.09489" lon="2.09521">
        <ele>95.5</ele>
        <time>2022-02-17T15:23:31Z</time>
      </trkpt>
      <trkpt lat="49.09494" lon="2.09525">
        <ele>96.2</ele>
        <time>2022-02-17T15:23:58Z</time>
      </trkpt>
      <trkpt lat="49.09499" lon="2.09525">
        <ele>97.5</ele>
        <time>2022-02-17T15:24:02Z</time>
      </trkpt>
      <trkpt lat="49.09505" lon="2.09522">
        <ele>99.2</ele>
        <time>2022-02-17T15:24:07Z</time>
      </trkpt>
      <trkpt lat="49.09509" lon="2.09518">
        <ele>99.7</ele>
        <time>2022-02-17T15:24:11Z</time>
      </trkpt>
      <trkpt lat="49.09513" lon="2.09515">
        <ele>99.4</ele>
        <time>2022-02-17T15:24:16Z</time>
      </trkpt>
      <trkpt lat="49.09518" lon="2.09515">
        <ele>99</ele>
        <time>2022-02-17T15:24:21Z</time>
      </trkpt>
      <trkpt lat="49.09522" lon="2.09517">
        <ele>98.7</ele>
        <time>2022-02-17T15:24:26Z</time>
      </trkpt>
      <trkpt lat="49.09526" lon="2.09522">
        <ele>98.4</ele>
        <time>2022-02-17T15:24:35Z</time>
      </trkpt>
      <trkpt lat="49.09527" lon="2.0953">
        <ele>97.9</ele>
        <time>2022-02-17T15:24:39Z</time>
      </trkpt>
      <trkpt lat="49.09532" lon="2.09531">
        <ele>96.7</ele>
        <time>2022-02-17T15:24:46Z</time>
      </trkpt>
      <trkpt lat="49.09538" lon="2.09531">
        <ele>96.1</ele>
        <time>2022-02-17T15:24:51Z</time>
      </trkpt>
      <trkpt lat="49.09538" lon="2.09538">
        <ele>96.5</ele>
        <time>2022-02-17T15:24:56Z</time>
      </trkpt>
      <trkpt lat="49.09538" lon="2.09546">
        <ele>97.1</ele>
        <time>2022-02-17T15:24:59Z</time>
      </trkpt>
      <trkpt lat="49.09536" lon="2.09553">
        <ele>97.5</ele>
        <time>2022-02-17T15:25:04Z</time>
      </trkpt>
      <trkpt lat="49.09535" lon="2.09561">
        <ele>99.3</ele>
        <time>2022-02-17T15:25:10Z</time>
      </trkpt>
    </trkseg>
  </trk>
</gpx>